<?xml version="1.0" encoding="utf-8"?>
<gpx xmlns:xsi="http://www.w3.org/2001/XMLSchema-instance" xmlns:xsd="http://www.w3.org/2001/XMLSchema" version="1.1" creator="Shapelink.com" xmlns="http://www.topografix.com/GPX/1/1" xmlns:gpxtpx="http://www.garmin.com/xmlschemas/TrackPointExtension/v1">
  <metadata>
    <name>Ejecutar 8.75 km, 2020-04-06</name>
    <desc></desc>
    <author><name>Björn Hagström</name></author> 
    <time>1970-01-01T01:00:00Z</time>
  </metadata>
  <trk>
    <name>Ejecutar 8.75 km, 2020-04-06</name>
    <trkseg>
      <trkpt lat="57.483993" lon="15.550267">
        <ele>219</ele>
        <time>1970-01-01T01:00:00Z</time>
      </trkpt>
      <trkpt lat="57.483981" lon="15.550279">
        <ele>219</ele>
        <time>1970-01-01T01:00:00Z</time>
      </trkpt>
      <trkpt lat="57.483965" lon="15.550288">
        <ele>219</ele>
        <time>1970-01-01T01:00:00Z</time>
      </trkpt>
      <trkpt lat="57.483946" lon="15.550294">
        <ele>218.9</ele>
        <time>1970-01-01T01:00:00Z</time>
      </trkpt>
      <trkpt lat="57.483924" lon="15.550296">
        <ele>218.818</ele>
        <time>1970-01-01T01:00:00Z</time>
      </trkpt>
      <trkpt lat="57.4839" lon="15.550296">
        <ele>218.727</ele>
        <time>1970-01-01T01:00:00Z</time>
      </trkpt>
      <trkpt lat="57.483874" lon="15.550291">
        <ele>218.636</ele>
        <time>1970-01-01T01:00:00Z</time>
      </trkpt>
      <trkpt lat="57.483846" lon="15.550284">
        <ele>218.455</ele>
        <time>1970-01-01T01:00:00Z</time>
      </trkpt>
      <trkpt lat="57.483817" lon="15.550272">
        <ele>218.273</ele>
        <time>1970-01-01T01:00:00Z</time>
      </trkpt>
      <trkpt lat="57.483788" lon="15.550258">
        <ele>218.091</ele>
        <time>1970-01-01T01:00:00Z</time>
      </trkpt>
      <trkpt lat="57.483759" lon="15.550239">
        <ele>217.818</ele>
        <time>1970-01-01T01:00:00Z</time>
      </trkpt>
      <trkpt lat="57.48373" lon="15.550216">
        <ele>217.545</ele>
        <time>1970-01-01T01:00:00Z</time>
      </trkpt>
      <trkpt lat="57.483702" lon="15.55019">
        <ele>217.273</ele>
        <time>1970-01-01T01:00:00Z</time>
      </trkpt>
      <trkpt lat="57.483675" lon="15.55016">
        <ele>217</ele>
        <time>1970-01-01T01:00:00Z</time>
      </trkpt>
      <trkpt lat="57.483649" lon="15.550125">
        <ele>216.727</ele>
        <time>1970-01-01T01:00:00Z</time>
      </trkpt>
      <trkpt lat="57.483626" lon="15.550087">
        <ele>216.455</ele>
        <time>1970-01-01T01:00:00Z</time>
      </trkpt>
      <trkpt lat="57.483605" lon="15.550044">
        <ele>216.182</ele>
        <time>1970-01-01T01:00:00Z</time>
      </trkpt>
      <trkpt lat="57.483586" lon="15.549997">
        <ele>215.909</ele>
        <time>1970-01-01T01:00:00Z</time>
      </trkpt>
      <trkpt lat="57.48357" lon="15.549947">
        <ele>215.727</ele>
        <time>1970-01-01T01:00:00Z</time>
      </trkpt>
      <trkpt lat="57.483557" lon="15.549895">
        <ele>215.545</ele>
        <time>1970-01-01T01:00:00Z</time>
      </trkpt>
      <trkpt lat="57.483544" lon="15.549841">
        <ele>215.364</ele>
        <time>1970-01-01T01:00:00Z</time>
      </trkpt>
      <trkpt lat="57.483533" lon="15.549788">
        <ele>215.273</ele>
        <time>1970-01-01T01:00:00Z</time>
      </trkpt>
      <trkpt lat="57.483522" lon="15.549736">
        <ele>215.091</ele>
        <time>1970-01-01T01:00:00Z</time>
      </trkpt>
      <trkpt lat="57.483511" lon="15.549686">
        <ele>214.909</ele>
        <time>1970-01-01T01:00:00Z</time>
      </trkpt>
      <trkpt lat="57.4835" lon="15.549637">
        <ele>214.727</ele>
        <time>1970-01-01T01:00:00Z</time>
      </trkpt>
      <trkpt lat="57.483488" lon="15.54959">
        <ele>214.636</ele>
        <time>1970-01-01T01:00:00Z</time>
      </trkpt>
      <trkpt lat="57.483476" lon="15.549546">
        <ele>214.545</ele>
        <time>1970-01-01T01:00:00Z</time>
      </trkpt>
      <trkpt lat="57.483462" lon="15.549505">
        <ele>214.455</ele>
        <time>1970-01-01T01:00:00Z</time>
      </trkpt>
      <trkpt lat="57.483447" lon="15.549467">
        <ele>214.364</ele>
        <time>1970-01-01T01:00:00Z</time>
      </trkpt>
      <trkpt lat="57.48343" lon="15.549433">
        <ele>214.273</ele>
        <time>1970-01-01T01:00:00Z</time>
      </trkpt>
      <trkpt lat="57.483412" lon="15.549403">
        <ele>214.182</ele>
        <time>1970-01-01T01:00:00Z</time>
      </trkpt>
      <trkpt lat="57.483391" lon="15.549377">
        <ele>214.091</ele>
        <time>1970-01-01T01:00:00Z</time>
      </trkpt>
      <trkpt lat="57.483369" lon="15.549357">
        <ele>214</ele>
        <time>1970-01-01T01:00:00Z</time>
      </trkpt>
      <trkpt lat="57.483345" lon="15.549342">
        <ele>214</ele>
        <time>1970-01-01T01:00:00Z</time>
      </trkpt>
      <trkpt lat="57.48332" lon="15.549331">
        <ele>213.909</ele>
        <time>1970-01-01T01:00:00Z</time>
      </trkpt>
      <trkpt lat="57.483293" lon="15.549323">
        <ele>213.818</ele>
        <time>1970-01-01T01:00:00Z</time>
      </trkpt>
      <trkpt lat="57.483265" lon="15.549317">
        <ele>213.727</ele>
        <time>1970-01-01T01:00:00Z</time>
      </trkpt>
      <trkpt lat="57.483237" lon="15.549313">
        <ele>213.636</ele>
        <time>1970-01-01T01:00:00Z</time>
      </trkpt>
      <trkpt lat="57.483209" lon="15.549307">
        <ele>213.545</ele>
        <time>1970-01-01T01:00:00Z</time>
      </trkpt>
      <trkpt lat="57.483181" lon="15.549301">
        <ele>213.455</ele>
        <time>1970-01-01T01:00:00Z</time>
      </trkpt>
      <trkpt lat="57.483154" lon="15.549294">
        <ele>213.364</ele>
        <time>1970-01-01T01:00:00Z</time>
      </trkpt>
      <trkpt lat="57.483126" lon="15.549287">
        <ele>213.273</ele>
        <time>1970-01-01T01:00:00Z</time>
      </trkpt>
      <trkpt lat="57.483099" lon="15.549282">
        <ele>213.182</ele>
        <time>1970-01-01T01:00:00Z</time>
      </trkpt>
      <trkpt lat="57.483071" lon="15.549279">
        <ele>213.091</ele>
        <time>1970-01-01T01:00:00Z</time>
      </trkpt>
      <trkpt lat="57.483043" lon="15.549279">
        <ele>213</ele>
        <time>1970-01-01T01:00:00Z</time>
      </trkpt>
      <trkpt lat="57.483016" lon="15.549283">
        <ele>213</ele>
        <time>1970-01-01T01:00:00Z</time>
      </trkpt>
      <trkpt lat="57.482988" lon="15.549289">
        <ele>213</ele>
        <time>1970-01-01T01:00:00Z</time>
      </trkpt>
      <trkpt lat="57.48296" lon="15.549297">
        <ele>213</ele>
        <time>1970-01-01T01:00:00Z</time>
      </trkpt>
      <trkpt lat="57.482931" lon="15.549309">
        <ele>213</ele>
        <time>1970-01-01T01:00:00Z</time>
      </trkpt>
      <trkpt lat="57.482903" lon="15.549322">
        <ele>213</ele>
        <time>1970-01-01T01:00:00Z</time>
      </trkpt>
      <trkpt lat="57.482875" lon="15.549338">
        <ele>213</ele>
        <time>1970-01-01T01:00:00Z</time>
      </trkpt>
      <trkpt lat="57.482847" lon="15.549356">
        <ele>213</ele>
        <time>1970-01-01T01:00:00Z</time>
      </trkpt>
      <trkpt lat="57.48282" lon="15.549375">
        <ele>213</ele>
        <time>1970-01-01T01:00:00Z</time>
      </trkpt>
      <trkpt lat="57.482792" lon="15.549397">
        <ele>213.091</ele>
        <time>1970-01-01T01:00:00Z</time>
      </trkpt>
      <trkpt lat="57.482764" lon="15.549419">
        <ele>213.182</ele>
        <time>1970-01-01T01:00:00Z</time>
      </trkpt>
      <trkpt lat="57.482737" lon="15.549443">
        <ele>213.273</ele>
        <time>1970-01-01T01:00:00Z</time>
      </trkpt>
      <trkpt lat="57.48271" lon="15.549468">
        <ele>213.364</ele>
        <time>1970-01-01T01:00:00Z</time>
      </trkpt>
      <trkpt lat="57.482684" lon="15.549492">
        <ele>213.455</ele>
        <time>1970-01-01T01:00:00Z</time>
      </trkpt>
      <trkpt lat="57.482658" lon="15.549517">
        <ele>213.545</ele>
        <time>1970-01-01T01:00:00Z</time>
      </trkpt>
      <trkpt lat="57.482632" lon="15.54954">
        <ele>213.727</ele>
        <time>1970-01-01T01:00:00Z</time>
      </trkpt>
      <trkpt lat="57.482608" lon="15.549562">
        <ele>213.909</ele>
        <time>1970-01-01T01:00:00Z</time>
      </trkpt>
      <trkpt lat="57.482584" lon="15.549582">
        <ele>214.091</ele>
        <time>1970-01-01T01:00:00Z</time>
      </trkpt>
      <trkpt lat="57.482561" lon="15.549601">
        <ele>214.273</ele>
        <time>1970-01-01T01:00:00Z</time>
      </trkpt>
      <trkpt lat="57.482539" lon="15.549619">
        <ele>214.455</ele>
        <time>1970-01-01T01:00:00Z</time>
      </trkpt>
      <trkpt lat="57.482516" lon="15.549639">
        <ele>214.545</ele>
        <time>1970-01-01T01:00:00Z</time>
      </trkpt>
      <trkpt lat="57.482492" lon="15.54966">
        <ele>214.636</ele>
        <time>1970-01-01T01:00:00Z</time>
      </trkpt>
      <trkpt lat="57.482468" lon="15.549683">
        <ele>214.727</ele>
        <time>1970-01-01T01:00:00Z</time>
      </trkpt>
      <trkpt lat="57.482442" lon="15.549708">
        <ele>214.818</ele>
        <time>1970-01-01T01:00:00Z</time>
      </trkpt>
      <trkpt lat="57.482417" lon="15.549735">
        <ele>214.909</ele>
        <time>1970-01-01T01:00:00Z</time>
      </trkpt>
      <trkpt lat="57.482391" lon="15.549762">
        <ele>215.091</ele>
        <time>1970-01-01T01:00:00Z</time>
      </trkpt>
      <trkpt lat="57.482366" lon="15.549788">
        <ele>215.182</ele>
        <time>1970-01-01T01:00:00Z</time>
      </trkpt>
      <trkpt lat="57.48234" lon="15.549813">
        <ele>215.273</ele>
        <time>1970-01-01T01:00:00Z</time>
      </trkpt>
      <trkpt lat="57.482316" lon="15.549837">
        <ele>215.364</ele>
        <time>1970-01-01T01:00:00Z</time>
      </trkpt>
      <trkpt lat="57.482292" lon="15.54986">
        <ele>215.455</ele>
        <time>1970-01-01T01:00:00Z</time>
      </trkpt>
      <trkpt lat="57.482268" lon="15.549882">
        <ele>215.545</ele>
        <time>1970-01-01T01:00:00Z</time>
      </trkpt>
      <trkpt lat="57.482245" lon="15.549903">
        <ele>215.636</ele>
        <time>1970-01-01T01:00:00Z</time>
      </trkpt>
      <trkpt lat="57.482222" lon="15.549926">
        <ele>215.727</ele>
        <time>1970-01-01T01:00:00Z</time>
      </trkpt>
      <trkpt lat="57.482199" lon="15.549949">
        <ele>215.818</ele>
        <time>1970-01-01T01:00:00Z</time>
      </trkpt>
      <trkpt lat="57.482176" lon="15.549973">
        <ele>215.909</ele>
        <time>1970-01-01T01:00:00Z</time>
      </trkpt>
      <trkpt lat="57.482153" lon="15.549997">
        <ele>216</ele>
        <time>1970-01-01T01:00:00Z</time>
      </trkpt>
      <trkpt lat="57.48213" lon="15.550023">
        <ele>216</ele>
        <time>1970-01-01T01:00:00Z</time>
      </trkpt>
      <trkpt lat="57.482107" lon="15.550049">
        <ele>216</ele>
        <time>1970-01-01T01:00:00Z</time>
      </trkpt>
      <trkpt lat="57.482084" lon="15.550076">
        <ele>216</ele>
        <time>1970-01-01T01:00:00Z</time>
      </trkpt>
      <trkpt lat="57.482061" lon="15.550103">
        <ele>216</ele>
        <time>1970-01-01T01:00:00Z</time>
      </trkpt>
      <trkpt lat="57.482038" lon="15.55013">
        <ele>216</ele>
        <time>1970-01-01T01:00:00Z</time>
      </trkpt>
      <trkpt lat="57.482015" lon="15.550157">
        <ele>216</ele>
        <time>1970-01-01T01:00:00Z</time>
      </trkpt>
      <trkpt lat="57.481992" lon="15.550185">
        <ele>216</ele>
        <time>1970-01-01T01:00:00Z</time>
      </trkpt>
      <trkpt lat="57.48197" lon="15.550212">
        <ele>216</ele>
        <time>1970-01-01T01:00:00Z</time>
      </trkpt>
      <trkpt lat="57.481947" lon="15.550239">
        <ele>216</ele>
        <time>1970-01-01T01:00:00Z</time>
      </trkpt>
      <trkpt lat="57.481924" lon="15.550266">
        <ele>216</ele>
        <time>1970-01-01T01:00:00Z</time>
      </trkpt>
      <trkpt lat="57.481901" lon="15.550293">
        <ele>216.091</ele>
        <time>1970-01-01T01:00:00Z</time>
      </trkpt>
      <trkpt lat="57.481878" lon="15.55032">
        <ele>216.182</ele>
        <time>1970-01-01T01:00:00Z</time>
      </trkpt>
      <trkpt lat="57.481854" lon="15.550347">
        <ele>216.273</ele>
        <time>1970-01-01T01:00:00Z</time>
      </trkpt>
      <trkpt lat="57.481831" lon="15.550373">
        <ele>216.364</ele>
        <time>1970-01-01T01:00:00Z</time>
      </trkpt>
      <trkpt lat="57.481807" lon="15.5504">
        <ele>216.455</ele>
        <time>1970-01-01T01:00:00Z</time>
      </trkpt>
      <trkpt lat="57.481783" lon="15.550426">
        <ele>216.545</ele>
        <time>1970-01-01T01:00:00Z</time>
      </trkpt>
      <trkpt lat="57.481758" lon="15.550452">
        <ele>216.636</ele>
        <time>1970-01-01T01:00:00Z</time>
      </trkpt>
      <trkpt lat="57.481733" lon="15.550477">
        <ele>216.727</ele>
        <time>1970-01-01T01:00:00Z</time>
      </trkpt>
      <trkpt lat="57.481708" lon="15.550503">
        <ele>216.818</ele>
        <time>1970-01-01T01:00:00Z</time>
      </trkpt>
      <trkpt lat="57.481682" lon="15.550528">
        <ele>216.909</ele>
        <time>1970-01-01T01:00:00Z</time>
      </trkpt>
      <trkpt lat="57.481655" lon="15.550553">
        <ele>217.091</ele>
        <time>1970-01-01T01:00:00Z</time>
      </trkpt>
      <trkpt lat="57.481629" lon="15.550577">
        <ele>217.182</ele>
        <time>1970-01-01T01:00:00Z</time>
      </trkpt>
      <trkpt lat="57.481601" lon="15.550599">
        <ele>217.273</ele>
        <time>1970-01-01T01:00:00Z</time>
      </trkpt>
      <trkpt lat="57.481573" lon="15.550621">
        <ele>217.364</ele>
        <time>1970-01-01T01:00:00Z</time>
      </trkpt>
      <trkpt lat="57.481545" lon="15.55064">
        <ele>217.455</ele>
        <time>1970-01-01T01:00:00Z</time>
      </trkpt>
      <trkpt lat="57.481516" lon="15.550658">
        <ele>217.545</ele>
        <time>1970-01-01T01:00:00Z</time>
      </trkpt>
      <trkpt lat="57.481487" lon="15.550673">
        <ele>217.636</ele>
        <time>1970-01-01T01:00:00Z</time>
      </trkpt>
      <trkpt lat="57.481457" lon="15.550686">
        <ele>217.727</ele>
        <time>1970-01-01T01:00:00Z</time>
      </trkpt>
      <trkpt lat="57.481427" lon="15.550697">
        <ele>217.818</ele>
        <time>1970-01-01T01:00:00Z</time>
      </trkpt>
      <trkpt lat="57.481397" lon="15.550706">
        <ele>217.909</ele>
        <time>1970-01-01T01:00:00Z</time>
      </trkpt>
      <trkpt lat="57.481367" lon="15.550712">
        <ele>218</ele>
        <time>1970-01-01T01:00:00Z</time>
      </trkpt>
      <trkpt lat="57.481337" lon="15.550717">
        <ele>218</ele>
        <time>1970-01-01T01:00:00Z</time>
      </trkpt>
      <trkpt lat="57.481307" lon="15.55072">
        <ele>218</ele>
        <time>1970-01-01T01:00:00Z</time>
      </trkpt>
      <trkpt lat="57.481277" lon="15.550722">
        <ele>218</ele>
        <time>1970-01-01T01:00:00Z</time>
      </trkpt>
      <trkpt lat="57.481247" lon="15.550724">
        <ele>218</ele>
        <time>1970-01-01T01:00:00Z</time>
      </trkpt>
      <trkpt lat="57.481217" lon="15.550726">
        <ele>218</ele>
        <time>1970-01-01T01:00:00Z</time>
      </trkpt>
      <trkpt lat="57.481187" lon="15.550728">
        <ele>218</ele>
        <time>1970-01-01T01:00:00Z</time>
      </trkpt>
      <trkpt lat="57.481157" lon="15.550732">
        <ele>218</ele>
        <time>1970-01-01T01:00:00Z</time>
      </trkpt>
      <trkpt lat="57.481127" lon="15.550736">
        <ele>218</ele>
        <time>1970-01-01T01:00:00Z</time>
      </trkpt>
      <trkpt lat="57.481098" lon="15.550743">
        <ele>218.091</ele>
        <time>1970-01-01T01:00:00Z</time>
      </trkpt>
      <trkpt lat="57.481069" lon="15.550752">
        <ele>218.182</ele>
        <time>1970-01-01T01:00:00Z</time>
      </trkpt>
      <trkpt lat="57.48104" lon="15.550764">
        <ele>218.273</ele>
        <time>1970-01-01T01:00:00Z</time>
      </trkpt>
      <trkpt lat="57.481011" lon="15.550778">
        <ele>218.364</ele>
        <time>1970-01-01T01:00:00Z</time>
      </trkpt>
      <trkpt lat="57.480983" lon="15.550795">
        <ele>218.455</ele>
        <time>1970-01-01T01:00:00Z</time>
      </trkpt>
      <trkpt lat="57.480956" lon="15.550813">
        <ele>218.545</ele>
        <time>1970-01-01T01:00:00Z</time>
      </trkpt>
      <trkpt lat="57.480928" lon="15.550834">
        <ele>218.636</ele>
        <time>1970-01-01T01:00:00Z</time>
      </trkpt>
      <trkpt lat="57.480902" lon="15.550857">
        <ele>218.636</ele>
        <time>1970-01-01T01:00:00Z</time>
      </trkpt>
      <trkpt lat="57.480876" lon="15.550881">
        <ele>218.636</ele>
        <time>1970-01-01T01:00:00Z</time>
      </trkpt>
      <trkpt lat="57.48085" lon="15.550907">
        <ele>218.636</ele>
        <time>1970-01-01T01:00:00Z</time>
      </trkpt>
      <trkpt lat="57.480825" lon="15.550934">
        <ele>218.636</ele>
        <time>1970-01-01T01:00:00Z</time>
      </trkpt>
      <trkpt lat="57.480801" lon="15.550962">
        <ele>218.545</ele>
        <time>1970-01-01T01:00:00Z</time>
      </trkpt>
      <trkpt lat="57.480777" lon="15.550991">
        <ele>218.455</ele>
        <time>1970-01-01T01:00:00Z</time>
      </trkpt>
      <trkpt lat="57.480755" lon="15.55102">
        <ele>218.364</ele>
        <time>1970-01-01T01:00:00Z</time>
      </trkpt>
      <trkpt lat="57.480733" lon="15.55105">
        <ele>218.273</ele>
        <time>1970-01-01T01:00:00Z</time>
      </trkpt>
      <trkpt lat="57.480711" lon="15.551081">
        <ele>218.182</ele>
        <time>1970-01-01T01:00:00Z</time>
      </trkpt>
      <trkpt lat="57.480691" lon="15.551112">
        <ele>218.091</ele>
        <time>1970-01-01T01:00:00Z</time>
      </trkpt>
      <trkpt lat="57.48067" lon="15.551144">
        <ele>218</ele>
        <time>1970-01-01T01:00:00Z</time>
      </trkpt>
      <trkpt lat="57.480651" lon="15.551177">
        <ele>218</ele>
        <time>1970-01-01T01:00:00Z</time>
      </trkpt>
      <trkpt lat="57.480631" lon="15.551211">
        <ele>218</ele>
        <time>1970-01-01T01:00:00Z</time>
      </trkpt>
      <trkpt lat="57.480612" lon="15.551245">
        <ele>218</ele>
        <time>1970-01-01T01:00:00Z</time>
      </trkpt>
      <trkpt lat="57.480593" lon="15.55128">
        <ele>218</ele>
        <time>1970-01-01T01:00:00Z</time>
      </trkpt>
      <trkpt lat="57.480575" lon="15.551316">
        <ele>218</ele>
        <time>1970-01-01T01:00:00Z</time>
      </trkpt>
      <trkpt lat="57.480557" lon="15.551353">
        <ele>218</ele>
        <time>1970-01-01T01:00:00Z</time>
      </trkpt>
      <trkpt lat="57.480538" lon="15.55139">
        <ele>218</ele>
        <time>1970-01-01T01:00:00Z</time>
      </trkpt>
      <trkpt lat="57.48052" lon="15.551429">
        <ele>218</ele>
        <time>1970-01-01T01:00:00Z</time>
      </trkpt>
      <trkpt lat="57.480502" lon="15.551468">
        <ele>218</ele>
        <time>1970-01-01T01:00:00Z</time>
      </trkpt>
      <trkpt lat="57.480484" lon="15.551508">
        <ele>218</ele>
        <time>1970-01-01T01:00:00Z</time>
      </trkpt>
      <trkpt lat="57.480465" lon="15.551548">
        <ele>218</ele>
        <time>1970-01-01T01:00:00Z</time>
      </trkpt>
      <trkpt lat="57.480447" lon="15.551589">
        <ele>218</ele>
        <time>1970-01-01T01:00:00Z</time>
      </trkpt>
      <trkpt lat="57.480428" lon="15.55163">
        <ele>218.091</ele>
        <time>1970-01-01T01:00:00Z</time>
      </trkpt>
      <trkpt lat="57.480409" lon="15.551671">
        <ele>218.182</ele>
        <time>1970-01-01T01:00:00Z</time>
      </trkpt>
      <trkpt lat="57.48039" lon="15.551713">
        <ele>218.273</ele>
        <time>1970-01-01T01:00:00Z</time>
      </trkpt>
      <trkpt lat="57.480371" lon="15.551754">
        <ele>218.364</ele>
        <time>1970-01-01T01:00:00Z</time>
      </trkpt>
      <trkpt lat="57.480352" lon="15.551796">
        <ele>218.455</ele>
        <time>1970-01-01T01:00:00Z</time>
      </trkpt>
      <trkpt lat="57.480332" lon="15.551837">
        <ele>218.545</ele>
        <time>1970-01-01T01:00:00Z</time>
      </trkpt>
      <trkpt lat="57.480311" lon="15.551879">
        <ele>218.636</ele>
        <time>1970-01-01T01:00:00Z</time>
      </trkpt>
      <trkpt lat="57.480291" lon="15.55192">
        <ele>218.727</ele>
        <time>1970-01-01T01:00:00Z</time>
      </trkpt>
      <trkpt lat="57.48027" lon="15.551961">
        <ele>218.818</ele>
        <time>1970-01-01T01:00:00Z</time>
      </trkpt>
      <trkpt lat="57.480249" lon="15.552001">
        <ele>218.909</ele>
        <time>1970-01-01T01:00:00Z</time>
      </trkpt>
      <trkpt lat="57.480229" lon="15.552041">
        <ele>219.091</ele>
        <time>1970-01-01T01:00:00Z</time>
      </trkpt>
      <trkpt lat="57.480208" lon="15.55208">
        <ele>219.182</ele>
        <time>1970-01-01T01:00:00Z</time>
      </trkpt>
      <trkpt lat="57.480188" lon="15.552119">
        <ele>219.273</ele>
        <time>1970-01-01T01:00:00Z</time>
      </trkpt>
      <trkpt lat="57.480167" lon="15.552156">
        <ele>219.364</ele>
        <time>1970-01-01T01:00:00Z</time>
      </trkpt>
      <trkpt lat="57.480147" lon="15.552193">
        <ele>219.455</ele>
        <time>1970-01-01T01:00:00Z</time>
      </trkpt>
      <trkpt lat="57.480128" lon="15.552228">
        <ele>219.545</ele>
        <time>1970-01-01T01:00:00Z</time>
      </trkpt>
      <trkpt lat="57.480108" lon="15.552263">
        <ele>219.636</ele>
        <time>1970-01-01T01:00:00Z</time>
      </trkpt>
      <trkpt lat="57.48009" lon="15.552296">
        <ele>219.727</ele>
        <time>1970-01-01T01:00:00Z</time>
      </trkpt>
      <trkpt lat="57.480071" lon="15.552329">
        <ele>219.818</ele>
        <time>1970-01-01T01:00:00Z</time>
      </trkpt>
      <trkpt lat="57.480053" lon="15.552361">
        <ele>219.909</ele>
        <time>1970-01-01T01:00:00Z</time>
      </trkpt>
      <trkpt lat="57.480034" lon="15.552393">
        <ele>220</ele>
        <time>1970-01-01T01:00:00Z</time>
      </trkpt>
      <trkpt lat="57.480016" lon="15.552425">
        <ele>220</ele>
        <time>1970-01-01T01:00:00Z</time>
      </trkpt>
      <trkpt lat="57.479997" lon="15.552458">
        <ele>220</ele>
        <time>1970-01-01T01:00:00Z</time>
      </trkpt>
      <trkpt lat="57.479979" lon="15.552491">
        <ele>219.909</ele>
        <time>1970-01-01T01:00:00Z</time>
      </trkpt>
      <trkpt lat="57.47996" lon="15.552525">
        <ele>219.818</ele>
        <time>1970-01-01T01:00:00Z</time>
      </trkpt>
      <trkpt lat="57.479941" lon="15.552559">
        <ele>219.727</ele>
        <time>1970-01-01T01:00:00Z</time>
      </trkpt>
      <trkpt lat="57.479921" lon="15.552595">
        <ele>219.636</ele>
        <time>1970-01-01T01:00:00Z</time>
      </trkpt>
      <trkpt lat="57.479901" lon="15.552633">
        <ele>219.545</ele>
        <time>1970-01-01T01:00:00Z</time>
      </trkpt>
      <trkpt lat="57.47988" lon="15.552671">
        <ele>219.455</ele>
        <time>1970-01-01T01:00:00Z</time>
      </trkpt>
      <trkpt lat="57.479859" lon="15.552711">
        <ele>219.364</ele>
        <time>1970-01-01T01:00:00Z</time>
      </trkpt>
      <trkpt lat="57.479838" lon="15.552752">
        <ele>219.273</ele>
        <time>1970-01-01T01:00:00Z</time>
      </trkpt>
      <trkpt lat="57.479817" lon="15.552794">
        <ele>219.182</ele>
        <time>1970-01-01T01:00:00Z</time>
      </trkpt>
      <trkpt lat="57.479795" lon="15.552837">
        <ele>219.091</ele>
        <time>1970-01-01T01:00:00Z</time>
      </trkpt>
      <trkpt lat="57.479773" lon="15.552881">
        <ele>219</ele>
        <time>1970-01-01T01:00:00Z</time>
      </trkpt>
      <trkpt lat="57.479751" lon="15.552927">
        <ele>219</ele>
        <time>1970-01-01T01:00:00Z</time>
      </trkpt>
      <trkpt lat="57.479729" lon="15.552974">
        <ele>219</ele>
        <time>1970-01-01T01:00:00Z</time>
      </trkpt>
      <trkpt lat="57.479706" lon="15.553022">
        <ele>219</ele>
        <time>1970-01-01T01:00:00Z</time>
      </trkpt>
      <trkpt lat="57.479684" lon="15.553071">
        <ele>218.909</ele>
        <time>1970-01-01T01:00:00Z</time>
      </trkpt>
      <trkpt lat="57.479662" lon="15.553121">
        <ele>218.818</ele>
        <time>1970-01-01T01:00:00Z</time>
      </trkpt>
      <trkpt lat="57.47964" lon="15.553171">
        <ele>218.727</ele>
        <time>1970-01-01T01:00:00Z</time>
      </trkpt>
      <trkpt lat="57.479618" lon="15.553221">
        <ele>218.636</ele>
        <time>1970-01-01T01:00:00Z</time>
      </trkpt>
      <trkpt lat="57.479597" lon="15.55327">
        <ele>218.545</ele>
        <time>1970-01-01T01:00:00Z</time>
      </trkpt>
      <trkpt lat="57.479577" lon="15.553317">
        <ele>218.455</ele>
        <time>1970-01-01T01:00:00Z</time>
      </trkpt>
      <trkpt lat="57.479558" lon="15.553363">
        <ele>218.364</ele>
        <time>1970-01-01T01:00:00Z</time>
      </trkpt>
      <trkpt lat="57.47954" lon="15.553407">
        <ele>218.273</ele>
        <time>1970-01-01T01:00:00Z</time>
      </trkpt>
      <trkpt lat="57.479522" lon="15.55345">
        <ele>218.182</ele>
        <time>1970-01-01T01:00:00Z</time>
      </trkpt>
      <trkpt lat="57.479505" lon="15.553494">
        <ele>218.091</ele>
        <time>1970-01-01T01:00:00Z</time>
      </trkpt>
      <trkpt lat="57.479488" lon="15.553537">
        <ele>218</ele>
        <time>1970-01-01T01:00:00Z</time>
      </trkpt>
      <trkpt lat="57.479471" lon="15.55358">
        <ele>218</ele>
        <time>1970-01-01T01:00:00Z</time>
      </trkpt>
      <trkpt lat="57.479454" lon="15.553625">
        <ele>217.909</ele>
        <time>1970-01-01T01:00:00Z</time>
      </trkpt>
      <trkpt lat="57.479438" lon="15.553669">
        <ele>217.818</ele>
        <time>1970-01-01T01:00:00Z</time>
      </trkpt>
      <trkpt lat="57.479421" lon="15.553714">
        <ele>217.727</ele>
        <time>1970-01-01T01:00:00Z</time>
      </trkpt>
      <trkpt lat="57.479404" lon="15.553758">
        <ele>217.636</ele>
        <time>1970-01-01T01:00:00Z</time>
      </trkpt>
      <trkpt lat="57.479388" lon="15.553802">
        <ele>217.545</ele>
        <time>1970-01-01T01:00:00Z</time>
      </trkpt>
      <trkpt lat="57.479371" lon="15.553846">
        <ele>217.455</ele>
        <time>1970-01-01T01:00:00Z</time>
      </trkpt>
      <trkpt lat="57.479353" lon="15.553889">
        <ele>217.364</ele>
        <time>1970-01-01T01:00:00Z</time>
      </trkpt>
      <trkpt lat="57.479336" lon="15.553931">
        <ele>217.273</ele>
        <time>1970-01-01T01:00:00Z</time>
      </trkpt>
      <trkpt lat="57.479318" lon="15.553972">
        <ele>217.091</ele>
        <time>1970-01-01T01:00:00Z</time>
      </trkpt>
      <trkpt lat="57.479299" lon="15.554011">
        <ele>216.909</ele>
        <time>1970-01-01T01:00:00Z</time>
      </trkpt>
      <trkpt lat="57.47928" lon="15.55405">
        <ele>216.727</ele>
        <time>1970-01-01T01:00:00Z</time>
      </trkpt>
      <trkpt lat="57.479261" lon="15.554086">
        <ele>216.636</ele>
        <time>1970-01-01T01:00:00Z</time>
      </trkpt>
      <trkpt lat="57.479241" lon="15.554121">
        <ele>216.545</ele>
        <time>1970-01-01T01:00:00Z</time>
      </trkpt>
      <trkpt lat="57.479219" lon="15.554154">
        <ele>216.364</ele>
        <time>1970-01-01T01:00:00Z</time>
      </trkpt>
      <trkpt lat="57.479196" lon="15.554185">
        <ele>216.182</ele>
        <time>1970-01-01T01:00:00Z</time>
      </trkpt>
      <trkpt lat="57.479172" lon="15.554213">
        <ele>216</ele>
        <time>1970-01-01T01:00:00Z</time>
      </trkpt>
      <trkpt lat="57.479146" lon="15.554239">
        <ele>215.818</ele>
        <time>1970-01-01T01:00:00Z</time>
      </trkpt>
      <trkpt lat="57.479119" lon="15.554263">
        <ele>215.636</ele>
        <time>1970-01-01T01:00:00Z</time>
      </trkpt>
      <trkpt lat="57.479091" lon="15.554285">
        <ele>215.455</ele>
        <time>1970-01-01T01:00:00Z</time>
      </trkpt>
      <trkpt lat="57.479061" lon="15.554306">
        <ele>215.364</ele>
        <time>1970-01-01T01:00:00Z</time>
      </trkpt>
      <trkpt lat="57.479031" lon="15.554328">
        <ele>215.273</ele>
        <time>1970-01-01T01:00:00Z</time>
      </trkpt>
      <trkpt lat="57.479001" lon="15.554349">
        <ele>215.182</ele>
        <time>1970-01-01T01:00:00Z</time>
      </trkpt>
      <trkpt lat="57.47897" lon="15.554369">
        <ele>215.091</ele>
        <time>1970-01-01T01:00:00Z</time>
      </trkpt>
      <trkpt lat="57.478939" lon="15.554388">
        <ele>215</ele>
        <time>1970-01-01T01:00:00Z</time>
      </trkpt>
      <trkpt lat="57.478909" lon="15.554405">
        <ele>215</ele>
        <time>1970-01-01T01:00:00Z</time>
      </trkpt>
      <trkpt lat="57.478879" lon="15.55442">
        <ele>215.091</ele>
        <time>1970-01-01T01:00:00Z</time>
      </trkpt>
      <trkpt lat="57.478849" lon="15.554431">
        <ele>215.182</ele>
        <time>1970-01-01T01:00:00Z</time>
      </trkpt>
      <trkpt lat="57.478821" lon="15.554439">
        <ele>215.273</ele>
        <time>1970-01-01T01:00:00Z</time>
      </trkpt>
      <trkpt lat="57.478793" lon="15.554443">
        <ele>215.364</ele>
        <time>1970-01-01T01:00:00Z</time>
      </trkpt>
      <trkpt lat="57.478765" lon="15.554445">
        <ele>215.455</ele>
        <time>1970-01-01T01:00:00Z</time>
      </trkpt>
      <trkpt lat="57.478738" lon="15.554446">
        <ele>215.545</ele>
        <time>1970-01-01T01:00:00Z</time>
      </trkpt>
      <trkpt lat="57.47871" lon="15.554446">
        <ele>215.636</ele>
        <time>1970-01-01T01:00:00Z</time>
      </trkpt>
      <trkpt lat="57.478681" lon="15.554447">
        <ele>215.818</ele>
        <time>1970-01-01T01:00:00Z</time>
      </trkpt>
      <trkpt lat="57.478653" lon="15.554449">
        <ele>216</ele>
        <time>1970-01-01T01:00:00Z</time>
      </trkpt>
      <trkpt lat="57.478624" lon="15.554452">
        <ele>216.182</ele>
        <time>1970-01-01T01:00:00Z</time>
      </trkpt>
      <trkpt lat="57.478595" lon="15.554457">
        <ele>216.364</ele>
        <time>1970-01-01T01:00:00Z</time>
      </trkpt>
      <trkpt lat="57.478567" lon="15.554463">
        <ele>216.455</ele>
        <time>1970-01-01T01:00:00Z</time>
      </trkpt>
      <trkpt lat="57.478539" lon="15.554473">
        <ele>216.545</ele>
        <time>1970-01-01T01:00:00Z</time>
      </trkpt>
      <trkpt lat="57.478513" lon="15.554484">
        <ele>216.727</ele>
        <time>1970-01-01T01:00:00Z</time>
      </trkpt>
      <trkpt lat="57.478488" lon="15.554499">
        <ele>216.909</ele>
        <time>1970-01-01T01:00:00Z</time>
      </trkpt>
      <trkpt lat="57.478463" lon="15.554515">
        <ele>217.091</ele>
        <time>1970-01-01T01:00:00Z</time>
      </trkpt>
      <trkpt lat="57.478439" lon="15.554533">
        <ele>217.273</ele>
        <time>1970-01-01T01:00:00Z</time>
      </trkpt>
      <trkpt lat="57.478415" lon="15.554553">
        <ele>217.455</ele>
        <time>1970-01-01T01:00:00Z</time>
      </trkpt>
      <trkpt lat="57.478391" lon="15.554575">
        <ele>217.545</ele>
        <time>1970-01-01T01:00:00Z</time>
      </trkpt>
      <trkpt lat="57.478368" lon="15.554597">
        <ele>217.636</ele>
        <time>1970-01-01T01:00:00Z</time>
      </trkpt>
      <trkpt lat="57.478344" lon="15.55462">
        <ele>217.727</ele>
        <time>1970-01-01T01:00:00Z</time>
      </trkpt>
      <trkpt lat="57.478321" lon="15.554644">
        <ele>217.818</ele>
        <time>1970-01-01T01:00:00Z</time>
      </trkpt>
      <trkpt lat="57.478297" lon="15.554668">
        <ele>217.909</ele>
        <time>1970-01-01T01:00:00Z</time>
      </trkpt>
      <trkpt lat="57.478273" lon="15.554693">
        <ele>218</ele>
        <time>1970-01-01T01:00:00Z</time>
      </trkpt>
      <trkpt lat="57.478249" lon="15.554717">
        <ele>218</ele>
        <time>1970-01-01T01:00:00Z</time>
      </trkpt>
      <trkpt lat="57.478225" lon="15.554741">
        <ele>218</ele>
        <time>1970-01-01T01:00:00Z</time>
      </trkpt>
      <trkpt lat="57.4782" lon="15.554765">
        <ele>217.909</ele>
        <time>1970-01-01T01:00:00Z</time>
      </trkpt>
      <trkpt lat="57.478175" lon="15.554788">
        <ele>217.818</ele>
        <time>1970-01-01T01:00:00Z</time>
      </trkpt>
      <trkpt lat="57.478149" lon="15.55481">
        <ele>217.727</ele>
        <time>1970-01-01T01:00:00Z</time>
      </trkpt>
      <trkpt lat="57.478123" lon="15.554831">
        <ele>217.636</ele>
        <time>1970-01-01T01:00:00Z</time>
      </trkpt>
      <trkpt lat="57.478096" lon="15.55485">
        <ele>217.545</ele>
        <time>1970-01-01T01:00:00Z</time>
      </trkpt>
      <trkpt lat="57.478069" lon="15.554869">
        <ele>217.455</ele>
        <time>1970-01-01T01:00:00Z</time>
      </trkpt>
      <trkpt lat="57.478041" lon="15.554885">
        <ele>217.364</ele>
        <time>1970-01-01T01:00:00Z</time>
      </trkpt>
      <trkpt lat="57.478013" lon="15.554901">
        <ele>217.273</ele>
        <time>1970-01-01T01:00:00Z</time>
      </trkpt>
      <trkpt lat="57.477985" lon="15.554914">
        <ele>217.182</ele>
        <time>1970-01-01T01:00:00Z</time>
      </trkpt>
      <trkpt lat="57.477956" lon="15.554926">
        <ele>217.091</ele>
        <time>1970-01-01T01:00:00Z</time>
      </trkpt>
      <trkpt lat="57.477928" lon="15.554936">
        <ele>217</ele>
        <time>1970-01-01T01:00:00Z</time>
      </trkpt>
      <trkpt lat="57.4779" lon="15.554943">
        <ele>217</ele>
        <time>1970-01-01T01:00:00Z</time>
      </trkpt>
      <trkpt lat="57.477872" lon="15.554949">
        <ele>217</ele>
        <time>1970-01-01T01:00:00Z</time>
      </trkpt>
      <trkpt lat="57.477844" lon="15.554953">
        <ele>217</ele>
        <time>1970-01-01T01:00:00Z</time>
      </trkpt>
      <trkpt lat="57.477816" lon="15.554956">
        <ele>217</ele>
        <time>1970-01-01T01:00:00Z</time>
      </trkpt>
      <trkpt lat="57.477788" lon="15.554957">
        <ele>217</ele>
        <time>1970-01-01T01:00:00Z</time>
      </trkpt>
      <trkpt lat="57.477759" lon="15.554959">
        <ele>217</ele>
        <time>1970-01-01T01:00:00Z</time>
      </trkpt>
      <trkpt lat="57.47773" lon="15.554961">
        <ele>217</ele>
        <time>1970-01-01T01:00:00Z</time>
      </trkpt>
      <trkpt lat="57.477701" lon="15.554964">
        <ele>217</ele>
        <time>1970-01-01T01:00:00Z</time>
      </trkpt>
      <trkpt lat="57.47767" lon="15.55497">
        <ele>217</ele>
        <time>1970-01-01T01:00:00Z</time>
      </trkpt>
      <trkpt lat="57.477639" lon="15.554976">
        <ele>217</ele>
        <time>1970-01-01T01:00:00Z</time>
      </trkpt>
      <trkpt lat="57.477608" lon="15.554984">
        <ele>217</ele>
        <time>1970-01-01T01:00:00Z</time>
      </trkpt>
      <trkpt lat="57.477576" lon="15.554992">
        <ele>217.091</ele>
        <time>1970-01-01T01:00:00Z</time>
      </trkpt>
      <trkpt lat="57.477545" lon="15.555">
        <ele>217.182</ele>
        <time>1970-01-01T01:00:00Z</time>
      </trkpt>
      <trkpt lat="57.477514" lon="15.555007">
        <ele>217.273</ele>
        <time>1970-01-01T01:00:00Z</time>
      </trkpt>
      <trkpt lat="57.477483" lon="15.555013">
        <ele>217.364</ele>
        <time>1970-01-01T01:00:00Z</time>
      </trkpt>
      <trkpt lat="57.477453" lon="15.555019">
        <ele>217.455</ele>
        <time>1970-01-01T01:00:00Z</time>
      </trkpt>
      <trkpt lat="57.477424" lon="15.555023">
        <ele>217.636</ele>
        <time>1970-01-01T01:00:00Z</time>
      </trkpt>
      <trkpt lat="57.477394" lon="15.555027">
        <ele>217.818</ele>
        <time>1970-01-01T01:00:00Z</time>
      </trkpt>
      <trkpt lat="57.477365" lon="15.55503">
        <ele>218</ele>
        <time>1970-01-01T01:00:00Z</time>
      </trkpt>
      <trkpt lat="57.477337" lon="15.555032">
        <ele>218.182</ele>
        <time>1970-01-01T01:00:00Z</time>
      </trkpt>
      <trkpt lat="57.477309" lon="15.555033">
        <ele>218.364</ele>
        <time>1970-01-01T01:00:00Z</time>
      </trkpt>
      <trkpt lat="57.477281" lon="15.555032">
        <ele>218.545</ele>
        <time>1970-01-01T01:00:00Z</time>
      </trkpt>
      <trkpt lat="57.477253" lon="15.555031">
        <ele>218.636</ele>
        <time>1970-01-01T01:00:00Z</time>
      </trkpt>
      <trkpt lat="57.477226" lon="15.555029">
        <ele>218.727</ele>
        <time>1970-01-01T01:00:00Z</time>
      </trkpt>
      <trkpt lat="57.477198" lon="15.555025">
        <ele>218.909</ele>
        <time>1970-01-01T01:00:00Z</time>
      </trkpt>
      <trkpt lat="57.477171" lon="15.555021">
        <ele>219.091</ele>
        <time>1970-01-01T01:00:00Z</time>
      </trkpt>
      <trkpt lat="57.477145" lon="15.555015">
        <ele>219.273</ele>
        <time>1970-01-01T01:00:00Z</time>
      </trkpt>
      <trkpt lat="57.477118" lon="15.55501">
        <ele>219.364</ele>
        <time>1970-01-01T01:00:00Z</time>
      </trkpt>
      <trkpt lat="57.477091" lon="15.555004">
        <ele>219.455</ele>
        <time>1970-01-01T01:00:00Z</time>
      </trkpt>
      <trkpt lat="57.477064" lon="15.554998">
        <ele>219.545</ele>
        <time>1970-01-01T01:00:00Z</time>
      </trkpt>
      <trkpt lat="57.477037" lon="15.554993">
        <ele>219.636</ele>
        <time>1970-01-01T01:00:00Z</time>
      </trkpt>
      <trkpt lat="57.47701" lon="15.554988">
        <ele>219.727</ele>
        <time>1970-01-01T01:00:00Z</time>
      </trkpt>
      <trkpt lat="57.476982" lon="15.554984">
        <ele>219.818</ele>
        <time>1970-01-01T01:00:00Z</time>
      </trkpt>
      <trkpt lat="57.476955" lon="15.554981">
        <ele>219.909</ele>
        <time>1970-01-01T01:00:00Z</time>
      </trkpt>
      <trkpt lat="57.476927" lon="15.554979">
        <ele>220</ele>
        <time>1970-01-01T01:00:00Z</time>
      </trkpt>
      <trkpt lat="57.476898" lon="15.554978">
        <ele>220</ele>
        <time>1970-01-01T01:00:00Z</time>
      </trkpt>
      <trkpt lat="57.47687" lon="15.554979">
        <ele>220</ele>
        <time>1970-01-01T01:00:00Z</time>
      </trkpt>
      <trkpt lat="57.476842" lon="15.55498">
        <ele>220</ele>
        <time>1970-01-01T01:00:00Z</time>
      </trkpt>
      <trkpt lat="57.476814" lon="15.554981">
        <ele>220</ele>
        <time>1970-01-01T01:00:00Z</time>
      </trkpt>
      <trkpt lat="57.476788" lon="15.554981">
        <ele>220</ele>
        <time>1970-01-01T01:00:00Z</time>
      </trkpt>
      <trkpt lat="57.476762" lon="15.554981">
        <ele>220</ele>
        <time>1970-01-01T01:00:00Z</time>
      </trkpt>
      <trkpt lat="57.476738" lon="15.554979">
        <ele>220</ele>
        <time>1970-01-01T01:00:00Z</time>
      </trkpt>
      <trkpt lat="57.476715" lon="15.554975">
        <ele>220</ele>
        <time>1970-01-01T01:00:00Z</time>
      </trkpt>
      <trkpt lat="57.476691" lon="15.554971">
        <ele>220</ele>
        <time>1970-01-01T01:00:00Z</time>
      </trkpt>
      <trkpt lat="57.476667" lon="15.554965">
        <ele>219.909</ele>
        <time>1970-01-01T01:00:00Z</time>
      </trkpt>
      <trkpt lat="57.47664" lon="15.55496">
        <ele>219.818</ele>
        <time>1970-01-01T01:00:00Z</time>
      </trkpt>
      <trkpt lat="57.47661" lon="15.554953">
        <ele>219.727</ele>
        <time>1970-01-01T01:00:00Z</time>
      </trkpt>
      <trkpt lat="57.476579" lon="15.554947">
        <ele>219.636</ele>
        <time>1970-01-01T01:00:00Z</time>
      </trkpt>
      <trkpt lat="57.476546" lon="15.554939">
        <ele>219.545</ele>
        <time>1970-01-01T01:00:00Z</time>
      </trkpt>
      <trkpt lat="57.476512" lon="15.55493">
        <ele>219.455</ele>
        <time>1970-01-01T01:00:00Z</time>
      </trkpt>
      <trkpt lat="57.476479" lon="15.55492">
        <ele>219.364</ele>
        <time>1970-01-01T01:00:00Z</time>
      </trkpt>
      <trkpt lat="57.476447" lon="15.554909">
        <ele>219.273</ele>
        <time>1970-01-01T01:00:00Z</time>
      </trkpt>
      <trkpt lat="57.476416" lon="15.554895">
        <ele>219.182</ele>
        <time>1970-01-01T01:00:00Z</time>
      </trkpt>
      <trkpt lat="57.476387" lon="15.55488">
        <ele>219.091</ele>
        <time>1970-01-01T01:00:00Z</time>
      </trkpt>
      <trkpt lat="57.476359" lon="15.554864">
        <ele>219</ele>
        <time>1970-01-01T01:00:00Z</time>
      </trkpt>
      <trkpt lat="57.476332" lon="15.554846">
        <ele>219</ele>
        <time>1970-01-01T01:00:00Z</time>
      </trkpt>
      <trkpt lat="57.476304" lon="15.554827">
        <ele>219</ele>
        <time>1970-01-01T01:00:00Z</time>
      </trkpt>
      <trkpt lat="57.476276" lon="15.554807">
        <ele>219</ele>
        <time>1970-01-01T01:00:00Z</time>
      </trkpt>
      <trkpt lat="57.476248" lon="15.554787">
        <ele>219</ele>
        <time>1970-01-01T01:00:00Z</time>
      </trkpt>
      <trkpt lat="57.47622" lon="15.554766">
        <ele>219</ele>
        <time>1970-01-01T01:00:00Z</time>
      </trkpt>
      <trkpt lat="57.476191" lon="15.554746">
        <ele>219</ele>
        <time>1970-01-01T01:00:00Z</time>
      </trkpt>
      <trkpt lat="57.476162" lon="15.554725">
        <ele>218.909</ele>
        <time>1970-01-01T01:00:00Z</time>
      </trkpt>
      <trkpt lat="57.476133" lon="15.554704">
        <ele>218.818</ele>
        <time>1970-01-01T01:00:00Z</time>
      </trkpt>
      <trkpt lat="57.476104" lon="15.554684">
        <ele>218.727</ele>
        <time>1970-01-01T01:00:00Z</time>
      </trkpt>
      <trkpt lat="57.476075" lon="15.554665">
        <ele>218.636</ele>
        <time>1970-01-01T01:00:00Z</time>
      </trkpt>
      <trkpt lat="57.476047" lon="15.554647">
        <ele>218.545</ele>
        <time>1970-01-01T01:00:00Z</time>
      </trkpt>
      <trkpt lat="57.476018" lon="15.554631">
        <ele>218.364</ele>
        <time>1970-01-01T01:00:00Z</time>
      </trkpt>
      <trkpt lat="57.47599" lon="15.554616">
        <ele>218.182</ele>
        <time>1970-01-01T01:00:00Z</time>
      </trkpt>
      <trkpt lat="57.475962" lon="15.554602">
        <ele>218</ele>
        <time>1970-01-01T01:00:00Z</time>
      </trkpt>
      <trkpt lat="57.475934" lon="15.55459">
        <ele>217.818</ele>
        <time>1970-01-01T01:00:00Z</time>
      </trkpt>
      <trkpt lat="57.475906" lon="15.55458">
        <ele>217.545</ele>
        <time>1970-01-01T01:00:00Z</time>
      </trkpt>
      <trkpt lat="57.475878" lon="15.554571">
        <ele>217.273</ele>
        <time>1970-01-01T01:00:00Z</time>
      </trkpt>
      <trkpt lat="57.47585" lon="15.554564">
        <ele>217.091</ele>
        <time>1970-01-01T01:00:00Z</time>
      </trkpt>
      <trkpt lat="57.475821" lon="15.554558">
        <ele>216.818</ele>
        <time>1970-01-01T01:00:00Z</time>
      </trkpt>
      <trkpt lat="57.475792" lon="15.554552">
        <ele>216.545</ele>
        <time>1970-01-01T01:00:00Z</time>
      </trkpt>
      <trkpt lat="57.475762" lon="15.554548">
        <ele>216.273</ele>
        <time>1970-01-01T01:00:00Z</time>
      </trkpt>
      <trkpt lat="57.475732" lon="15.554545">
        <ele>216</ele>
        <time>1970-01-01T01:00:00Z</time>
      </trkpt>
      <trkpt lat="57.475702" lon="15.554542">
        <ele>215.727</ele>
        <time>1970-01-01T01:00:00Z</time>
      </trkpt>
      <trkpt lat="57.475672" lon="15.55454">
        <ele>215.455</ele>
        <time>1970-01-01T01:00:00Z</time>
      </trkpt>
      <trkpt lat="57.475643" lon="15.554538">
        <ele>215.182</ele>
        <time>1970-01-01T01:00:00Z</time>
      </trkpt>
      <trkpt lat="57.475613" lon="15.554537">
        <ele>214.818</ele>
        <time>1970-01-01T01:00:00Z</time>
      </trkpt>
      <trkpt lat="57.475584" lon="15.554535">
        <ele>214.545</ele>
        <time>1970-01-01T01:00:00Z</time>
      </trkpt>
      <trkpt lat="57.475555" lon="15.554534">
        <ele>214.273</ele>
        <time>1970-01-01T01:00:00Z</time>
      </trkpt>
      <trkpt lat="57.475526" lon="15.554533">
        <ele>213.909</ele>
        <time>1970-01-01T01:00:00Z</time>
      </trkpt>
      <trkpt lat="57.475497" lon="15.554533">
        <ele>213.636</ele>
        <time>1970-01-01T01:00:00Z</time>
      </trkpt>
      <trkpt lat="57.475468" lon="15.554532">
        <ele>213.364</ele>
        <time>1970-01-01T01:00:00Z</time>
      </trkpt>
      <trkpt lat="57.475439" lon="15.554531">
        <ele>213</ele>
        <time>1970-01-01T01:00:00Z</time>
      </trkpt>
      <trkpt lat="57.47541" lon="15.554529">
        <ele>212.636</ele>
        <time>1970-01-01T01:00:00Z</time>
      </trkpt>
      <trkpt lat="57.475381" lon="15.554528">
        <ele>212.364</ele>
        <time>1970-01-01T01:00:00Z</time>
      </trkpt>
      <trkpt lat="57.475352" lon="15.554526">
        <ele>212.091</ele>
        <time>1970-01-01T01:00:00Z</time>
      </trkpt>
      <trkpt lat="57.475322" lon="15.554524">
        <ele>211.818</ele>
        <time>1970-01-01T01:00:00Z</time>
      </trkpt>
      <trkpt lat="57.475293" lon="15.554522">
        <ele>211.636</ele>
        <time>1970-01-01T01:00:00Z</time>
      </trkpt>
      <trkpt lat="57.475263" lon="15.55452">
        <ele>211.455</ele>
        <time>1970-01-01T01:00:00Z</time>
      </trkpt>
      <trkpt lat="57.475234" lon="15.554517">
        <ele>211.273</ele>
        <time>1970-01-01T01:00:00Z</time>
      </trkpt>
      <trkpt lat="57.475204" lon="15.554514">
        <ele>211.182</ele>
        <time>1970-01-01T01:00:00Z</time>
      </trkpt>
      <trkpt lat="57.475175" lon="15.554511">
        <ele>211.091</ele>
        <time>1970-01-01T01:00:00Z</time>
      </trkpt>
      <trkpt lat="57.475145" lon="15.554508">
        <ele>211</ele>
        <time>1970-01-01T01:00:00Z</time>
      </trkpt>
      <trkpt lat="57.475116" lon="15.554505">
        <ele>211</ele>
        <time>1970-01-01T01:00:00Z</time>
      </trkpt>
      <trkpt lat="57.475087" lon="15.554502">
        <ele>211</ele>
        <time>1970-01-01T01:00:00Z</time>
      </trkpt>
      <trkpt lat="57.475058" lon="15.554498">
        <ele>211</ele>
        <time>1970-01-01T01:00:00Z</time>
      </trkpt>
      <trkpt lat="57.47503" lon="15.554495">
        <ele>211</ele>
        <time>1970-01-01T01:00:00Z</time>
      </trkpt>
      <trkpt lat="57.475002" lon="15.554492">
        <ele>211</ele>
        <time>1970-01-01T01:00:00Z</time>
      </trkpt>
      <trkpt lat="57.474974" lon="15.554488">
        <ele>211</ele>
        <time>1970-01-01T01:00:00Z</time>
      </trkpt>
      <trkpt lat="57.474946" lon="15.554485">
        <ele>210.909</ele>
        <time>1970-01-01T01:00:00Z</time>
      </trkpt>
      <trkpt lat="57.474918" lon="15.554483">
        <ele>210.818</ele>
        <time>1970-01-01T01:00:00Z</time>
      </trkpt>
      <trkpt lat="57.47489" lon="15.55448">
        <ele>210.727</ele>
        <time>1970-01-01T01:00:00Z</time>
      </trkpt>
      <trkpt lat="57.474862" lon="15.554478">
        <ele>210.636</ele>
        <time>1970-01-01T01:00:00Z</time>
      </trkpt>
      <trkpt lat="57.474834" lon="15.554477">
        <ele>210.545</ele>
        <time>1970-01-01T01:00:00Z</time>
      </trkpt>
      <trkpt lat="57.474806" lon="15.554476">
        <ele>210.455</ele>
        <time>1970-01-01T01:00:00Z</time>
      </trkpt>
      <trkpt lat="57.474777" lon="15.554476">
        <ele>210.273</ele>
        <time>1970-01-01T01:00:00Z</time>
      </trkpt>
      <trkpt lat="57.474748" lon="15.554477">
        <ele>210.091</ele>
        <time>1970-01-01T01:00:00Z</time>
      </trkpt>
      <trkpt lat="57.474719" lon="15.554478">
        <ele>209.909</ele>
        <time>1970-01-01T01:00:00Z</time>
      </trkpt>
      <trkpt lat="57.474689" lon="15.554479">
        <ele>209.727</ele>
        <time>1970-01-01T01:00:00Z</time>
      </trkpt>
      <trkpt lat="57.474657" lon="15.554478">
        <ele>209.455</ele>
        <time>1970-01-01T01:00:00Z</time>
      </trkpt>
      <trkpt lat="57.474623" lon="15.554475">
        <ele>209.273</ele>
        <time>1970-01-01T01:00:00Z</time>
      </trkpt>
      <trkpt lat="57.474589" lon="15.554469">
        <ele>209.091</ele>
        <time>1970-01-01T01:00:00Z</time>
      </trkpt>
      <trkpt lat="57.474556" lon="15.554462">
        <ele>208.909</ele>
        <time>1970-01-01T01:00:00Z</time>
      </trkpt>
      <trkpt lat="57.474526" lon="15.554453">
        <ele>208.727</ele>
        <time>1970-01-01T01:00:00Z</time>
      </trkpt>
      <trkpt lat="57.474497" lon="15.554445">
        <ele>208.545</ele>
        <time>1970-01-01T01:00:00Z</time>
      </trkpt>
      <trkpt lat="57.474469" lon="15.55444">
        <ele>208.364</ele>
        <time>1970-01-01T01:00:00Z</time>
      </trkpt>
      <trkpt lat="57.47444" lon="15.554437">
        <ele>208.182</ele>
        <time>1970-01-01T01:00:00Z</time>
      </trkpt>
      <trkpt lat="57.474412" lon="15.554436">
        <ele>208</ele>
        <time>1970-01-01T01:00:00Z</time>
      </trkpt>
      <trkpt lat="57.474383" lon="15.554434">
        <ele>207.818</ele>
        <time>1970-01-01T01:00:00Z</time>
      </trkpt>
      <trkpt lat="57.474354" lon="15.554433">
        <ele>207.636</ele>
        <time>1970-01-01T01:00:00Z</time>
      </trkpt>
      <trkpt lat="57.474326" lon="15.55443">
        <ele>207.545</ele>
        <time>1970-01-01T01:00:00Z</time>
      </trkpt>
      <trkpt lat="57.474297" lon="15.554427">
        <ele>207.455</ele>
        <time>1970-01-01T01:00:00Z</time>
      </trkpt>
      <trkpt lat="57.474268" lon="15.554424">
        <ele>207.364</ele>
        <time>1970-01-01T01:00:00Z</time>
      </trkpt>
      <trkpt lat="57.474239" lon="15.55442">
        <ele>207.273</ele>
        <time>1970-01-01T01:00:00Z</time>
      </trkpt>
      <trkpt lat="57.474209" lon="15.554415">
        <ele>207.182</ele>
        <time>1970-01-01T01:00:00Z</time>
      </trkpt>
      <trkpt lat="57.474178" lon="15.554411">
        <ele>207.182</ele>
        <time>1970-01-01T01:00:00Z</time>
      </trkpt>
      <trkpt lat="57.474147" lon="15.554408">
        <ele>207.182</ele>
        <time>1970-01-01T01:00:00Z</time>
      </trkpt>
      <trkpt lat="57.474116" lon="15.554406">
        <ele>207.273</ele>
        <time>1970-01-01T01:00:00Z</time>
      </trkpt>
      <trkpt lat="57.474084" lon="15.554406">
        <ele>207.364</ele>
        <time>1970-01-01T01:00:00Z</time>
      </trkpt>
      <trkpt lat="57.474051" lon="15.554409">
        <ele>207.455</ele>
        <time>1970-01-01T01:00:00Z</time>
      </trkpt>
      <trkpt lat="57.474018" lon="15.554415">
        <ele>207.545</ele>
        <time>1970-01-01T01:00:00Z</time>
      </trkpt>
      <trkpt lat="57.473986" lon="15.554424">
        <ele>207.636</ele>
        <time>1970-01-01T01:00:00Z</time>
      </trkpt>
      <trkpt lat="57.473954" lon="15.554436">
        <ele>207.727</ele>
        <time>1970-01-01T01:00:00Z</time>
      </trkpt>
      <trkpt lat="57.473922" lon="15.554451">
        <ele>207.818</ele>
        <time>1970-01-01T01:00:00Z</time>
      </trkpt>
      <trkpt lat="57.473892" lon="15.554469">
        <ele>207.909</ele>
        <time>1970-01-01T01:00:00Z</time>
      </trkpt>
      <trkpt lat="57.473863" lon="15.554491">
        <ele>208</ele>
        <time>1970-01-01T01:00:00Z</time>
      </trkpt>
      <trkpt lat="57.473836" lon="15.554515">
        <ele>208</ele>
        <time>1970-01-01T01:00:00Z</time>
      </trkpt>
      <trkpt lat="57.473809" lon="15.554541">
        <ele>208</ele>
        <time>1970-01-01T01:00:00Z</time>
      </trkpt>
      <trkpt lat="57.473784" lon="15.554569">
        <ele>208</ele>
        <time>1970-01-01T01:00:00Z</time>
      </trkpt>
      <trkpt lat="57.473759" lon="15.554597">
        <ele>208</ele>
        <time>1970-01-01T01:00:00Z</time>
      </trkpt>
      <trkpt lat="57.473734" lon="15.554626">
        <ele>208</ele>
        <time>1970-01-01T01:00:00Z</time>
      </trkpt>
      <trkpt lat="57.473709" lon="15.554654">
        <ele>208</ele>
        <time>1970-01-01T01:00:00Z</time>
      </trkpt>
      <trkpt lat="57.473685" lon="15.554683">
        <ele>208</ele>
        <time>1970-01-01T01:00:00Z</time>
      </trkpt>
      <trkpt lat="57.47366" lon="15.554711">
        <ele>208</ele>
        <time>1970-01-01T01:00:00Z</time>
      </trkpt>
      <trkpt lat="57.473634" lon="15.55474">
        <ele>208</ele>
        <time>1970-01-01T01:00:00Z</time>
      </trkpt>
      <trkpt lat="57.473608" lon="15.554768">
        <ele>208</ele>
        <time>1970-01-01T01:00:00Z</time>
      </trkpt>
      <trkpt lat="57.473581" lon="15.554797">
        <ele>208</ele>
        <time>1970-01-01T01:00:00Z</time>
      </trkpt>
      <trkpt lat="57.473553" lon="15.554825">
        <ele>208</ele>
        <time>1970-01-01T01:00:00Z</time>
      </trkpt>
      <trkpt lat="57.473524" lon="15.554852">
        <ele>207.909</ele>
        <time>1970-01-01T01:00:00Z</time>
      </trkpt>
      <trkpt lat="57.473495" lon="15.554878">
        <ele>207.818</ele>
        <time>1970-01-01T01:00:00Z</time>
      </trkpt>
      <trkpt lat="57.473466" lon="15.554904">
        <ele>207.727</ele>
        <time>1970-01-01T01:00:00Z</time>
      </trkpt>
      <trkpt lat="57.473438" lon="15.554928">
        <ele>207.636</ele>
        <time>1970-01-01T01:00:00Z</time>
      </trkpt>
      <trkpt lat="57.47341" lon="15.554951">
        <ele>207.545</ele>
        <time>1970-01-01T01:00:00Z</time>
      </trkpt>
      <trkpt lat="57.473382" lon="15.554973">
        <ele>207.455</ele>
        <time>1970-01-01T01:00:00Z</time>
      </trkpt>
      <trkpt lat="57.473355" lon="15.554994">
        <ele>207.273</ele>
        <time>1970-01-01T01:00:00Z</time>
      </trkpt>
      <trkpt lat="57.473328" lon="15.555016">
        <ele>207.091</ele>
        <time>1970-01-01T01:00:00Z</time>
      </trkpt>
      <trkpt lat="57.473301" lon="15.555037">
        <ele>206.909</ele>
        <time>1970-01-01T01:00:00Z</time>
      </trkpt>
      <trkpt lat="57.473275" lon="15.555058">
        <ele>206.727</ele>
        <time>1970-01-01T01:00:00Z</time>
      </trkpt>
      <trkpt lat="57.473249" lon="15.55508">
        <ele>206.545</ele>
        <time>1970-01-01T01:00:00Z</time>
      </trkpt>
      <trkpt lat="57.473224" lon="15.555103">
        <ele>206.364</ele>
        <time>1970-01-01T01:00:00Z</time>
      </trkpt>
      <trkpt lat="57.473198" lon="15.555126">
        <ele>206.182</ele>
        <time>1970-01-01T01:00:00Z</time>
      </trkpt>
      <trkpt lat="57.473173" lon="15.555151">
        <ele>206</ele>
        <time>1970-01-01T01:00:00Z</time>
      </trkpt>
      <trkpt lat="57.473149" lon="15.555177">
        <ele>205.727</ele>
        <time>1970-01-01T01:00:00Z</time>
      </trkpt>
      <trkpt lat="57.473124" lon="15.555205">
        <ele>205.455</ele>
        <time>1970-01-01T01:00:00Z</time>
      </trkpt>
      <trkpt lat="57.4731" lon="15.555234">
        <ele>205.182</ele>
        <time>1970-01-01T01:00:00Z</time>
      </trkpt>
      <trkpt lat="57.473077" lon="15.555264">
        <ele>204.909</ele>
        <time>1970-01-01T01:00:00Z</time>
      </trkpt>
      <trkpt lat="57.473053" lon="15.555296">
        <ele>204.636</ele>
        <time>1970-01-01T01:00:00Z</time>
      </trkpt>
      <trkpt lat="57.47303" lon="15.555329">
        <ele>204.273</ele>
        <time>1970-01-01T01:00:00Z</time>
      </trkpt>
      <trkpt lat="57.473008" lon="15.555363">
        <ele>203.909</ele>
        <time>1970-01-01T01:00:00Z</time>
      </trkpt>
      <trkpt lat="57.472985" lon="15.555398">
        <ele>203.545</ele>
        <time>1970-01-01T01:00:00Z</time>
      </trkpt>
      <trkpt lat="57.472963" lon="15.555435">
        <ele>203.273</ele>
        <time>1970-01-01T01:00:00Z</time>
      </trkpt>
      <trkpt lat="57.472942" lon="15.555472">
        <ele>202.909</ele>
        <time>1970-01-01T01:00:00Z</time>
      </trkpt>
      <trkpt lat="57.472921" lon="15.55551">
        <ele>202.545</ele>
        <time>1970-01-01T01:00:00Z</time>
      </trkpt>
      <trkpt lat="57.4729" lon="15.55555">
        <ele>202.273</ele>
        <time>1970-01-01T01:00:00Z</time>
      </trkpt>
      <trkpt lat="57.472879" lon="15.555591">
        <ele>202</ele>
        <time>1970-01-01T01:00:00Z</time>
      </trkpt>
      <trkpt lat="57.472858" lon="15.555632">
        <ele>201.727</ele>
        <time>1970-01-01T01:00:00Z</time>
      </trkpt>
      <trkpt lat="57.472836" lon="15.555676">
        <ele>201.545</ele>
        <time>1970-01-01T01:00:00Z</time>
      </trkpt>
      <trkpt lat="57.472814" lon="15.55572">
        <ele>201.273</ele>
        <time>1970-01-01T01:00:00Z</time>
      </trkpt>
      <trkpt lat="57.472792" lon="15.555766">
        <ele>201.091</ele>
        <time>1970-01-01T01:00:00Z</time>
      </trkpt>
      <trkpt lat="57.472769" lon="15.555814">
        <ele>200.909</ele>
        <time>1970-01-01T01:00:00Z</time>
      </trkpt>
      <trkpt lat="57.472746" lon="15.555862">
        <ele>200.727</ele>
        <time>1970-01-01T01:00:00Z</time>
      </trkpt>
      <trkpt lat="57.472724" lon="15.555911">
        <ele>200.545</ele>
        <time>1970-01-01T01:00:00Z</time>
      </trkpt>
      <trkpt lat="57.472703" lon="15.55596">
        <ele>200.455</ele>
        <time>1970-01-01T01:00:00Z</time>
      </trkpt>
      <trkpt lat="57.472683" lon="15.556009">
        <ele>200.364</ele>
        <time>1970-01-01T01:00:00Z</time>
      </trkpt>
      <trkpt lat="57.472664" lon="15.556059">
        <ele>200.273</ele>
        <time>1970-01-01T01:00:00Z</time>
      </trkpt>
      <trkpt lat="57.472646" lon="15.556108">
        <ele>200.182</ele>
        <time>1970-01-01T01:00:00Z</time>
      </trkpt>
      <trkpt lat="57.472629" lon="15.556158">
        <ele>200.091</ele>
        <time>1970-01-01T01:00:00Z</time>
      </trkpt>
      <trkpt lat="57.472613" lon="15.556209">
        <ele>200</ele>
        <time>1970-01-01T01:00:00Z</time>
      </trkpt>
      <trkpt lat="57.472599" lon="15.55626">
        <ele>200.091</ele>
        <time>1970-01-01T01:00:00Z</time>
      </trkpt>
      <trkpt lat="57.472586" lon="15.556313">
        <ele>200.182</ele>
        <time>1970-01-01T01:00:00Z</time>
      </trkpt>
      <trkpt lat="57.472573" lon="15.556365">
        <ele>200.273</ele>
        <time>1970-01-01T01:00:00Z</time>
      </trkpt>
      <trkpt lat="57.472561" lon="15.556418">
        <ele>200.364</ele>
        <time>1970-01-01T01:00:00Z</time>
      </trkpt>
      <trkpt lat="57.47255" lon="15.556472">
        <ele>200.455</ele>
        <time>1970-01-01T01:00:00Z</time>
      </trkpt>
      <trkpt lat="57.47254" lon="15.556525">
        <ele>200.545</ele>
        <time>1970-01-01T01:00:00Z</time>
      </trkpt>
      <trkpt lat="57.47253" lon="15.556578">
        <ele>200.636</ele>
        <time>1970-01-01T01:00:00Z</time>
      </trkpt>
      <trkpt lat="57.47252" lon="15.55663">
        <ele>200.727</ele>
        <time>1970-01-01T01:00:00Z</time>
      </trkpt>
      <trkpt lat="57.472511" lon="15.556683">
        <ele>200.818</ele>
        <time>1970-01-01T01:00:00Z</time>
      </trkpt>
      <trkpt lat="57.472503" lon="15.556735">
        <ele>200.909</ele>
        <time>1970-01-01T01:00:00Z</time>
      </trkpt>
      <trkpt lat="57.472495" lon="15.556787">
        <ele>201</ele>
        <time>1970-01-01T01:00:00Z</time>
      </trkpt>
      <trkpt lat="57.472487" lon="15.556839">
        <ele>201</ele>
        <time>1970-01-01T01:00:00Z</time>
      </trkpt>
      <trkpt lat="57.472481" lon="15.556891">
        <ele>201</ele>
        <time>1970-01-01T01:00:00Z</time>
      </trkpt>
      <trkpt lat="57.472474" lon="15.556943">
        <ele>201</ele>
        <time>1970-01-01T01:00:00Z</time>
      </trkpt>
      <trkpt lat="57.472469" lon="15.556996">
        <ele>201.091</ele>
        <time>1970-01-01T01:00:00Z</time>
      </trkpt>
      <trkpt lat="57.472465" lon="15.557048">
        <ele>201.182</ele>
        <time>1970-01-01T01:00:00Z</time>
      </trkpt>
      <trkpt lat="57.472461" lon="15.557101">
        <ele>201.273</ele>
        <time>1970-01-01T01:00:00Z</time>
      </trkpt>
      <trkpt lat="57.472458" lon="15.557154">
        <ele>201.364</ele>
        <time>1970-01-01T01:00:00Z</time>
      </trkpt>
      <trkpt lat="57.472456" lon="15.557207">
        <ele>201.455</ele>
        <time>1970-01-01T01:00:00Z</time>
      </trkpt>
      <trkpt lat="57.472454" lon="15.55726">
        <ele>201.545</ele>
        <time>1970-01-01T01:00:00Z</time>
      </trkpt>
      <trkpt lat="57.472453" lon="15.557313">
        <ele>201.636</ele>
        <time>1970-01-01T01:00:00Z</time>
      </trkpt>
      <trkpt lat="57.472453" lon="15.557366">
        <ele>201.727</ele>
        <time>1970-01-01T01:00:00Z</time>
      </trkpt>
      <trkpt lat="57.472453" lon="15.557419">
        <ele>201.818</ele>
        <time>1970-01-01T01:00:00Z</time>
      </trkpt>
      <trkpt lat="57.472454" lon="15.557472">
        <ele>201.909</ele>
        <time>1970-01-01T01:00:00Z</time>
      </trkpt>
      <trkpt lat="57.472455" lon="15.557525">
        <ele>202.091</ele>
        <time>1970-01-01T01:00:00Z</time>
      </trkpt>
      <trkpt lat="57.472456" lon="15.557578">
        <ele>202.182</ele>
        <time>1970-01-01T01:00:00Z</time>
      </trkpt>
      <trkpt lat="57.472457" lon="15.55763">
        <ele>202.273</ele>
        <time>1970-01-01T01:00:00Z</time>
      </trkpt>
      <trkpt lat="57.472458" lon="15.557682">
        <ele>202.364</ele>
        <time>1970-01-01T01:00:00Z</time>
      </trkpt>
      <trkpt lat="57.472459" lon="15.557733">
        <ele>202.455</ele>
        <time>1970-01-01T01:00:00Z</time>
      </trkpt>
      <trkpt lat="57.472461" lon="15.557784">
        <ele>202.545</ele>
        <time>1970-01-01T01:00:00Z</time>
      </trkpt>
      <trkpt lat="57.472462" lon="15.557835">
        <ele>202.636</ele>
        <time>1970-01-01T01:00:00Z</time>
      </trkpt>
      <trkpt lat="57.472462" lon="15.557885">
        <ele>202.727</ele>
        <time>1970-01-01T01:00:00Z</time>
      </trkpt>
      <trkpt lat="57.472463" lon="15.557935">
        <ele>202.818</ele>
        <time>1970-01-01T01:00:00Z</time>
      </trkpt>
      <trkpt lat="57.472463" lon="15.557986">
        <ele>202.909</ele>
        <time>1970-01-01T01:00:00Z</time>
      </trkpt>
      <trkpt lat="57.472463" lon="15.558036">
        <ele>203</ele>
        <time>1970-01-01T01:00:00Z</time>
      </trkpt>
      <trkpt lat="57.472463" lon="15.558087">
        <ele>202.909</ele>
        <time>1970-01-01T01:00:00Z</time>
      </trkpt>
      <trkpt lat="57.472462" lon="15.558138">
        <ele>202.818</ele>
        <time>1970-01-01T01:00:00Z</time>
      </trkpt>
      <trkpt lat="57.47246" lon="15.558189">
        <ele>202.727</ele>
        <time>1970-01-01T01:00:00Z</time>
      </trkpt>
      <trkpt lat="57.472458" lon="15.558241">
        <ele>202.636</ele>
        <time>1970-01-01T01:00:00Z</time>
      </trkpt>
      <trkpt lat="57.472455" lon="15.558294">
        <ele>202.545</ele>
        <time>1970-01-01T01:00:00Z</time>
      </trkpt>
      <trkpt lat="57.472452" lon="15.558346">
        <ele>202.455</ele>
        <time>1970-01-01T01:00:00Z</time>
      </trkpt>
      <trkpt lat="57.472448" lon="15.5584">
        <ele>202.364</ele>
        <time>1970-01-01T01:00:00Z</time>
      </trkpt>
      <trkpt lat="57.472444" lon="15.558453">
        <ele>202.273</ele>
        <time>1970-01-01T01:00:00Z</time>
      </trkpt>
      <trkpt lat="57.472438" lon="15.558506">
        <ele>202.182</ele>
        <time>1970-01-01T01:00:00Z</time>
      </trkpt>
      <trkpt lat="57.472433" lon="15.55856">
        <ele>202.091</ele>
        <time>1970-01-01T01:00:00Z</time>
      </trkpt>
      <trkpt lat="57.472427" lon="15.558613">
        <ele>202</ele>
        <time>1970-01-01T01:00:00Z</time>
      </trkpt>
      <trkpt lat="57.472421" lon="15.558666">
        <ele>202</ele>
        <time>1970-01-01T01:00:00Z</time>
      </trkpt>
      <trkpt lat="57.472414" lon="15.558718">
        <ele>202</ele>
        <time>1970-01-01T01:00:00Z</time>
      </trkpt>
      <trkpt lat="57.472407" lon="15.55877">
        <ele>202</ele>
        <time>1970-01-01T01:00:00Z</time>
      </trkpt>
      <trkpt lat="57.4724" lon="15.558822">
        <ele>202</ele>
        <time>1970-01-01T01:00:00Z</time>
      </trkpt>
      <trkpt lat="57.472392" lon="15.558872">
        <ele>202</ele>
        <time>1970-01-01T01:00:00Z</time>
      </trkpt>
      <trkpt lat="57.472384" lon="15.558923">
        <ele>202</ele>
        <time>1970-01-01T01:00:00Z</time>
      </trkpt>
      <trkpt lat="57.472375" lon="15.558973">
        <ele>202.091</ele>
        <time>1970-01-01T01:00:00Z</time>
      </trkpt>
      <trkpt lat="57.472366" lon="15.559023">
        <ele>202.182</ele>
        <time>1970-01-01T01:00:00Z</time>
      </trkpt>
      <trkpt lat="57.472356" lon="15.559074">
        <ele>202.273</ele>
        <time>1970-01-01T01:00:00Z</time>
      </trkpt>
      <trkpt lat="57.472345" lon="15.559125">
        <ele>202.364</ele>
        <time>1970-01-01T01:00:00Z</time>
      </trkpt>
      <trkpt lat="57.472333" lon="15.559178">
        <ele>202.455</ele>
        <time>1970-01-01T01:00:00Z</time>
      </trkpt>
      <trkpt lat="57.47232" lon="15.559231">
        <ele>202.545</ele>
        <time>1970-01-01T01:00:00Z</time>
      </trkpt>
      <trkpt lat="57.472306" lon="15.559284">
        <ele>202.636</ele>
        <time>1970-01-01T01:00:00Z</time>
      </trkpt>
      <trkpt lat="57.472293" lon="15.559337">
        <ele>202.727</ele>
        <time>1970-01-01T01:00:00Z</time>
      </trkpt>
      <trkpt lat="57.472279" lon="15.559388">
        <ele>202.909</ele>
        <time>1970-01-01T01:00:00Z</time>
      </trkpt>
      <trkpt lat="57.472266" lon="15.559438">
        <ele>203.091</ele>
        <time>1970-01-01T01:00:00Z</time>
      </trkpt>
      <trkpt lat="57.472253" lon="15.559486">
        <ele>203.273</ele>
        <time>1970-01-01T01:00:00Z</time>
      </trkpt>
      <trkpt lat="57.47224" lon="15.559532">
        <ele>203.364</ele>
        <time>1970-01-01T01:00:00Z</time>
      </trkpt>
      <trkpt lat="57.472227" lon="15.559578">
        <ele>203.455</ele>
        <time>1970-01-01T01:00:00Z</time>
      </trkpt>
      <trkpt lat="57.472214" lon="15.559622">
        <ele>203.636</ele>
        <time>1970-01-01T01:00:00Z</time>
      </trkpt>
      <trkpt lat="57.4722" lon="15.559666">
        <ele>203.818</ele>
        <time>1970-01-01T01:00:00Z</time>
      </trkpt>
      <trkpt lat="57.472185" lon="15.559708">
        <ele>204</ele>
        <time>1970-01-01T01:00:00Z</time>
      </trkpt>
      <trkpt lat="57.47217" lon="15.559751">
        <ele>204.182</ele>
        <time>1970-01-01T01:00:00Z</time>
      </trkpt>
      <trkpt lat="57.472154" lon="15.559793">
        <ele>204.455</ele>
        <time>1970-01-01T01:00:00Z</time>
      </trkpt>
      <trkpt lat="57.472136" lon="15.559835">
        <ele>204.727</ele>
        <time>1970-01-01T01:00:00Z</time>
      </trkpt>
      <trkpt lat="57.472117" lon="15.559877">
        <ele>204.909</ele>
        <time>1970-01-01T01:00:00Z</time>
      </trkpt>
      <trkpt lat="57.472097" lon="15.559918">
        <ele>205.091</ele>
        <time>1970-01-01T01:00:00Z</time>
      </trkpt>
      <trkpt lat="57.472076" lon="15.559958">
        <ele>205.273</ele>
        <time>1970-01-01T01:00:00Z</time>
      </trkpt>
      <trkpt lat="57.472055" lon="15.559996">
        <ele>205.455</ele>
        <time>1970-01-01T01:00:00Z</time>
      </trkpt>
      <trkpt lat="57.472033" lon="15.560032">
        <ele>205.727</ele>
        <time>1970-01-01T01:00:00Z</time>
      </trkpt>
      <trkpt lat="57.47201" lon="15.560064">
        <ele>205.909</ele>
        <time>1970-01-01T01:00:00Z</time>
      </trkpt>
      <trkpt lat="57.471988" lon="15.560092">
        <ele>206.091</ele>
        <time>1970-01-01T01:00:00Z</time>
      </trkpt>
      <trkpt lat="57.471966" lon="15.560116">
        <ele>206.273</ele>
        <time>1970-01-01T01:00:00Z</time>
      </trkpt>
      <trkpt lat="57.471943" lon="15.560136">
        <ele>206.455</ele>
        <time>1970-01-01T01:00:00Z</time>
      </trkpt>
      <trkpt lat="57.471919" lon="15.560153">
        <ele>206.545</ele>
        <time>1970-01-01T01:00:00Z</time>
      </trkpt>
      <trkpt lat="57.471895" lon="15.560166">
        <ele>206.636</ele>
        <time>1970-01-01T01:00:00Z</time>
      </trkpt>
      <trkpt lat="57.471869" lon="15.560177">
        <ele>206.727</ele>
        <time>1970-01-01T01:00:00Z</time>
      </trkpt>
      <trkpt lat="57.471843" lon="15.560184">
        <ele>206.818</ele>
        <time>1970-01-01T01:00:00Z</time>
      </trkpt>
      <trkpt lat="57.471815" lon="15.560188">
        <ele>206.909</ele>
        <time>1970-01-01T01:00:00Z</time>
      </trkpt>
      <trkpt lat="57.471787" lon="15.560191">
        <ele>207</ele>
        <time>1970-01-01T01:00:00Z</time>
      </trkpt>
      <trkpt lat="57.471758" lon="15.560191">
        <ele>207</ele>
        <time>1970-01-01T01:00:00Z</time>
      </trkpt>
      <trkpt lat="57.471729" lon="15.560189">
        <ele>207</ele>
        <time>1970-01-01T01:00:00Z</time>
      </trkpt>
      <trkpt lat="57.4717" lon="15.560186">
        <ele>207</ele>
        <time>1970-01-01T01:00:00Z</time>
      </trkpt>
      <trkpt lat="57.471671" lon="15.560182">
        <ele>207</ele>
        <time>1970-01-01T01:00:00Z</time>
      </trkpt>
      <trkpt lat="57.471641" lon="15.560176">
        <ele>207</ele>
        <time>1970-01-01T01:00:00Z</time>
      </trkpt>
      <trkpt lat="57.471612" lon="15.56017">
        <ele>206.909</ele>
        <time>1970-01-01T01:00:00Z</time>
      </trkpt>
      <trkpt lat="57.471583" lon="15.560164">
        <ele>206.818</ele>
        <time>1970-01-01T01:00:00Z</time>
      </trkpt>
      <trkpt lat="57.471555" lon="15.560157">
        <ele>206.727</ele>
        <time>1970-01-01T01:00:00Z</time>
      </trkpt>
      <trkpt lat="57.471527" lon="15.560151">
        <ele>206.636</ele>
        <time>1970-01-01T01:00:00Z</time>
      </trkpt>
      <trkpt lat="57.471499" lon="15.560144">
        <ele>206.545</ele>
        <time>1970-01-01T01:00:00Z</time>
      </trkpt>
      <trkpt lat="57.471472" lon="15.560138">
        <ele>206.545</ele>
        <time>1970-01-01T01:00:00Z</time>
      </trkpt>
      <trkpt lat="57.471446" lon="15.560132">
        <ele>206.545</ele>
        <time>1970-01-01T01:00:00Z</time>
      </trkpt>
      <trkpt lat="57.471419" lon="15.560125">
        <ele>206.545</ele>
        <time>1970-01-01T01:00:00Z</time>
      </trkpt>
      <trkpt lat="57.471393" lon="15.560119">
        <ele>206.545</ele>
        <time>1970-01-01T01:00:00Z</time>
      </trkpt>
      <trkpt lat="57.471367" lon="15.560114">
        <ele>206.545</ele>
        <time>1970-01-01T01:00:00Z</time>
      </trkpt>
      <trkpt lat="57.471342" lon="15.560109">
        <ele>206.545</ele>
        <time>1970-01-01T01:00:00Z</time>
      </trkpt>
      <trkpt lat="57.471316" lon="15.560104">
        <ele>206.636</ele>
        <time>1970-01-01T01:00:00Z</time>
      </trkpt>
      <trkpt lat="57.471291" lon="15.560099">
        <ele>206.727</ele>
        <time>1970-01-01T01:00:00Z</time>
      </trkpt>
      <trkpt lat="57.471266" lon="15.560095">
        <ele>206.818</ele>
        <time>1970-01-01T01:00:00Z</time>
      </trkpt>
      <trkpt lat="57.471241" lon="15.560091">
        <ele>206.909</ele>
        <time>1970-01-01T01:00:00Z</time>
      </trkpt>
      <trkpt lat="57.471216" lon="15.560087">
        <ele>207</ele>
        <time>1970-01-01T01:00:00Z</time>
      </trkpt>
      <trkpt lat="57.471191" lon="15.560083">
        <ele>207.091</ele>
        <time>1970-01-01T01:00:00Z</time>
      </trkpt>
      <trkpt lat="57.471166" lon="15.560079">
        <ele>207.182</ele>
        <time>1970-01-01T01:00:00Z</time>
      </trkpt>
      <trkpt lat="57.471141" lon="15.560073">
        <ele>207.273</ele>
        <time>1970-01-01T01:00:00Z</time>
      </trkpt>
      <trkpt lat="57.471116" lon="15.560067">
        <ele>207.364</ele>
        <time>1970-01-01T01:00:00Z</time>
      </trkpt>
      <trkpt lat="57.47109" lon="15.560059">
        <ele>207.545</ele>
        <time>1970-01-01T01:00:00Z</time>
      </trkpt>
      <trkpt lat="57.471065" lon="15.56005">
        <ele>207.727</ele>
        <time>1970-01-01T01:00:00Z</time>
      </trkpt>
      <trkpt lat="57.47104" lon="15.560039">
        <ele>207.909</ele>
        <time>1970-01-01T01:00:00Z</time>
      </trkpt>
      <trkpt lat="57.471014" lon="15.560026">
        <ele>208.091</ele>
        <time>1970-01-01T01:00:00Z</time>
      </trkpt>
      <trkpt lat="57.470989" lon="15.560011">
        <ele>208.273</ele>
        <time>1970-01-01T01:00:00Z</time>
      </trkpt>
      <trkpt lat="57.470963" lon="15.559994">
        <ele>208.455</ele>
        <time>1970-01-01T01:00:00Z</time>
      </trkpt>
      <trkpt lat="57.470937" lon="15.559976">
        <ele>208.636</ele>
        <time>1970-01-01T01:00:00Z</time>
      </trkpt>
      <trkpt lat="57.470912" lon="15.559956">
        <ele>208.727</ele>
        <time>1970-01-01T01:00:00Z</time>
      </trkpt>
      <trkpt lat="57.470886" lon="15.559937">
        <ele>208.818</ele>
        <time>1970-01-01T01:00:00Z</time>
      </trkpt>
      <trkpt lat="57.47086" lon="15.559917">
        <ele>208.909</ele>
        <time>1970-01-01T01:00:00Z</time>
      </trkpt>
      <trkpt lat="57.470834" lon="15.559898">
        <ele>209</ele>
        <time>1970-01-01T01:00:00Z</time>
      </trkpt>
      <trkpt lat="57.470809" lon="15.559879">
        <ele>209</ele>
        <time>1970-01-01T01:00:00Z</time>
      </trkpt>
      <trkpt lat="57.470784" lon="15.559862">
        <ele>209</ele>
        <time>1970-01-01T01:00:00Z</time>
      </trkpt>
      <trkpt lat="57.470759" lon="15.559846">
        <ele>209</ele>
        <time>1970-01-01T01:00:00Z</time>
      </trkpt>
      <trkpt lat="57.470734" lon="15.559833">
        <ele>209</ele>
        <time>1970-01-01T01:00:00Z</time>
      </trkpt>
      <trkpt lat="57.470709" lon="15.559822">
        <ele>209.091</ele>
        <time>1970-01-01T01:00:00Z</time>
      </trkpt>
      <trkpt lat="57.470685" lon="15.559814">
        <ele>209.182</ele>
        <time>1970-01-01T01:00:00Z</time>
      </trkpt>
      <trkpt lat="57.47066" lon="15.55981">
        <ele>209.273</ele>
        <time>1970-01-01T01:00:00Z</time>
      </trkpt>
      <trkpt lat="57.470635" lon="15.559811">
        <ele>209.364</ele>
        <time>1970-01-01T01:00:00Z</time>
      </trkpt>
      <trkpt lat="57.47061" lon="15.559816">
        <ele>209.545</ele>
        <time>1970-01-01T01:00:00Z</time>
      </trkpt>
      <trkpt lat="57.470583" lon="15.559827">
        <ele>209.727</ele>
        <time>1970-01-01T01:00:00Z</time>
      </trkpt>
      <trkpt lat="57.470556" lon="15.559843">
        <ele>209.909</ele>
        <time>1970-01-01T01:00:00Z</time>
      </trkpt>
      <trkpt lat="57.470527" lon="15.559864">
        <ele>210.182</ele>
        <time>1970-01-01T01:00:00Z</time>
      </trkpt>
      <trkpt lat="57.470498" lon="15.559888">
        <ele>210.455</ele>
        <time>1970-01-01T01:00:00Z</time>
      </trkpt>
      <trkpt lat="57.470469" lon="15.559913">
        <ele>210.727</ele>
        <time>1970-01-01T01:00:00Z</time>
      </trkpt>
      <trkpt lat="57.470441" lon="15.559939">
        <ele>211</ele>
        <time>1970-01-01T01:00:00Z</time>
      </trkpt>
      <trkpt lat="57.470412" lon="15.559964">
        <ele>211.182</ele>
        <time>1970-01-01T01:00:00Z</time>
      </trkpt>
      <trkpt lat="57.470384" lon="15.559987">
        <ele>211.364</ele>
        <time>1970-01-01T01:00:00Z</time>
      </trkpt>
      <trkpt lat="57.470357" lon="15.560009">
        <ele>211.545</ele>
        <time>1970-01-01T01:00:00Z</time>
      </trkpt>
      <trkpt lat="57.47033" lon="15.56003">
        <ele>211.818</ele>
        <time>1970-01-01T01:00:00Z</time>
      </trkpt>
      <trkpt lat="57.470304" lon="15.56005">
        <ele>212</ele>
        <time>1970-01-01T01:00:00Z</time>
      </trkpt>
      <trkpt lat="57.470277" lon="15.560069">
        <ele>212.182</ele>
        <time>1970-01-01T01:00:00Z</time>
      </trkpt>
      <trkpt lat="57.470251" lon="15.560088">
        <ele>212.364</ele>
        <time>1970-01-01T01:00:00Z</time>
      </trkpt>
      <trkpt lat="57.470225" lon="15.560105">
        <ele>212.455</ele>
        <time>1970-01-01T01:00:00Z</time>
      </trkpt>
      <trkpt lat="57.470199" lon="15.560123">
        <ele>212.545</ele>
        <time>1970-01-01T01:00:00Z</time>
      </trkpt>
      <trkpt lat="57.470174" lon="15.560139">
        <ele>212.636</ele>
        <time>1970-01-01T01:00:00Z</time>
      </trkpt>
      <trkpt lat="57.470148" lon="15.560155">
        <ele>212.727</ele>
        <time>1970-01-01T01:00:00Z</time>
      </trkpt>
      <trkpt lat="57.470122" lon="15.560171">
        <ele>212.818</ele>
        <time>1970-01-01T01:00:00Z</time>
      </trkpt>
      <trkpt lat="57.470096" lon="15.560187">
        <ele>212.909</ele>
        <time>1970-01-01T01:00:00Z</time>
      </trkpt>
      <trkpt lat="57.47007" lon="15.560202">
        <ele>213</ele>
        <time>1970-01-01T01:00:00Z</time>
      </trkpt>
      <trkpt lat="57.470044" lon="15.560217">
        <ele>213</ele>
        <time>1970-01-01T01:00:00Z</time>
      </trkpt>
      <trkpt lat="57.470018" lon="15.560231">
        <ele>213</ele>
        <time>1970-01-01T01:00:00Z</time>
      </trkpt>
      <trkpt lat="57.469992" lon="15.560245">
        <ele>213.091</ele>
        <time>1970-01-01T01:00:00Z</time>
      </trkpt>
      <trkpt lat="57.469966" lon="15.560258">
        <ele>213.182</ele>
        <time>1970-01-01T01:00:00Z</time>
      </trkpt>
      <trkpt lat="57.46994" lon="15.560271">
        <ele>213.273</ele>
        <time>1970-01-01T01:00:00Z</time>
      </trkpt>
      <trkpt lat="57.469914" lon="15.560283">
        <ele>213.364</ele>
        <time>1970-01-01T01:00:00Z</time>
      </trkpt>
      <trkpt lat="57.469888" lon="15.560294">
        <ele>213.455</ele>
        <time>1970-01-01T01:00:00Z</time>
      </trkpt>
      <trkpt lat="57.469862" lon="15.560304">
        <ele>213.545</ele>
        <time>1970-01-01T01:00:00Z</time>
      </trkpt>
      <trkpt lat="57.469836" lon="15.560314">
        <ele>213.636</ele>
        <time>1970-01-01T01:00:00Z</time>
      </trkpt>
      <trkpt lat="57.46981" lon="15.560323">
        <ele>213.727</ele>
        <time>1970-01-01T01:00:00Z</time>
      </trkpt>
      <trkpt lat="57.469784" lon="15.560332">
        <ele>213.818</ele>
        <time>1970-01-01T01:00:00Z</time>
      </trkpt>
      <trkpt lat="57.469758" lon="15.56034">
        <ele>213.909</ele>
        <time>1970-01-01T01:00:00Z</time>
      </trkpt>
      <trkpt lat="57.469732" lon="15.560347">
        <ele>214</ele>
        <time>1970-01-01T01:00:00Z</time>
      </trkpt>
      <trkpt lat="57.469706" lon="15.560354">
        <ele>214</ele>
        <time>1970-01-01T01:00:00Z</time>
      </trkpt>
      <trkpt lat="57.46968" lon="15.560361">
        <ele>214</ele>
        <time>1970-01-01T01:00:00Z</time>
      </trkpt>
      <trkpt lat="57.469654" lon="15.560367">
        <ele>214</ele>
        <time>1970-01-01T01:00:00Z</time>
      </trkpt>
      <trkpt lat="57.469628" lon="15.560373">
        <ele>214</ele>
        <time>1970-01-01T01:00:00Z</time>
      </trkpt>
      <trkpt lat="57.469602" lon="15.560379">
        <ele>214</ele>
        <time>1970-01-01T01:00:00Z</time>
      </trkpt>
      <trkpt lat="57.469575" lon="15.560385">
        <ele>214</ele>
        <time>1970-01-01T01:00:00Z</time>
      </trkpt>
      <trkpt lat="57.469549" lon="15.56039">
        <ele>214</ele>
        <time>1970-01-01T01:00:00Z</time>
      </trkpt>
      <trkpt lat="57.469523" lon="15.560396">
        <ele>214</ele>
        <time>1970-01-01T01:00:00Z</time>
      </trkpt>
      <trkpt lat="57.469496" lon="15.560402">
        <ele>214</ele>
        <time>1970-01-01T01:00:00Z</time>
      </trkpt>
      <trkpt lat="57.46947" lon="15.560409">
        <ele>213.909</ele>
        <time>1970-01-01T01:00:00Z</time>
      </trkpt>
      <trkpt lat="57.469444" lon="15.560416">
        <ele>213.818</ele>
        <time>1970-01-01T01:00:00Z</time>
      </trkpt>
      <trkpt lat="57.469417" lon="15.560425">
        <ele>213.727</ele>
        <time>1970-01-01T01:00:00Z</time>
      </trkpt>
      <trkpt lat="57.469391" lon="15.560434">
        <ele>213.636</ele>
        <time>1970-01-01T01:00:00Z</time>
      </trkpt>
      <trkpt lat="57.469365" lon="15.560444">
        <ele>213.545</ele>
        <time>1970-01-01T01:00:00Z</time>
      </trkpt>
      <trkpt lat="57.469338" lon="15.560456">
        <ele>213.364</ele>
        <time>1970-01-01T01:00:00Z</time>
      </trkpt>
      <trkpt lat="57.469312" lon="15.56047">
        <ele>213.182</ele>
        <time>1970-01-01T01:00:00Z</time>
      </trkpt>
      <trkpt lat="57.469286" lon="15.560485">
        <ele>213</ele>
        <time>1970-01-01T01:00:00Z</time>
      </trkpt>
      <trkpt lat="57.46926" lon="15.560502">
        <ele>212.818</ele>
        <time>1970-01-01T01:00:00Z</time>
      </trkpt>
      <trkpt lat="57.469234" lon="15.560521">
        <ele>212.636</ele>
        <time>1970-01-01T01:00:00Z</time>
      </trkpt>
      <trkpt lat="57.469209" lon="15.560541">
        <ele>212.364</ele>
        <time>1970-01-01T01:00:00Z</time>
      </trkpt>
      <trkpt lat="57.469183" lon="15.560562">
        <ele>212.182</ele>
        <time>1970-01-01T01:00:00Z</time>
      </trkpt>
      <trkpt lat="57.469158" lon="15.560585">
        <ele>212</ele>
        <time>1970-01-01T01:00:00Z</time>
      </trkpt>
      <trkpt lat="57.469133" lon="15.560609">
        <ele>211.818</ele>
        <time>1970-01-01T01:00:00Z</time>
      </trkpt>
      <trkpt lat="57.469109" lon="15.560634">
        <ele>211.636</ele>
        <time>1970-01-01T01:00:00Z</time>
      </trkpt>
      <trkpt lat="57.469085" lon="15.56066">
        <ele>211.455</ele>
        <time>1970-01-01T01:00:00Z</time>
      </trkpt>
      <trkpt lat="57.469061" lon="15.560686">
        <ele>211.273</ele>
        <time>1970-01-01T01:00:00Z</time>
      </trkpt>
      <trkpt lat="57.469038" lon="15.560714">
        <ele>211.091</ele>
        <time>1970-01-01T01:00:00Z</time>
      </trkpt>
      <trkpt lat="57.469016" lon="15.560743">
        <ele>210.909</ele>
        <time>1970-01-01T01:00:00Z</time>
      </trkpt>
      <trkpt lat="57.468993" lon="15.560772">
        <ele>210.727</ele>
        <time>1970-01-01T01:00:00Z</time>
      </trkpt>
      <trkpt lat="57.468971" lon="15.560801">
        <ele>210.545</ele>
        <time>1970-01-01T01:00:00Z</time>
      </trkpt>
      <trkpt lat="57.46895" lon="15.560832">
        <ele>210.455</ele>
        <time>1970-01-01T01:00:00Z</time>
      </trkpt>
      <trkpt lat="57.468928" lon="15.560862">
        <ele>210.364</ele>
        <time>1970-01-01T01:00:00Z</time>
      </trkpt>
      <trkpt lat="57.468907" lon="15.560893">
        <ele>210.273</ele>
        <time>1970-01-01T01:00:00Z</time>
      </trkpt>
      <trkpt lat="57.468886" lon="15.560924">
        <ele>210.182</ele>
        <time>1970-01-01T01:00:00Z</time>
      </trkpt>
      <trkpt lat="57.468864" lon="15.560955">
        <ele>210.091</ele>
        <time>1970-01-01T01:00:00Z</time>
      </trkpt>
      <trkpt lat="57.468843" lon="15.560986">
        <ele>209.909</ele>
        <time>1970-01-01T01:00:00Z</time>
      </trkpt>
      <trkpt lat="57.468821" lon="15.561017">
        <ele>209.818</ele>
        <time>1970-01-01T01:00:00Z</time>
      </trkpt>
      <trkpt lat="57.468799" lon="15.561048">
        <ele>209.727</ele>
        <time>1970-01-01T01:00:00Z</time>
      </trkpt>
      <trkpt lat="57.468776" lon="15.561079">
        <ele>209.636</ele>
        <time>1970-01-01T01:00:00Z</time>
      </trkpt>
      <trkpt lat="57.468753" lon="15.561109">
        <ele>209.545</ele>
        <time>1970-01-01T01:00:00Z</time>
      </trkpt>
      <trkpt lat="57.46873" lon="15.561139">
        <ele>209.455</ele>
        <time>1970-01-01T01:00:00Z</time>
      </trkpt>
      <trkpt lat="57.468706" lon="15.561169">
        <ele>209.273</ele>
        <time>1970-01-01T01:00:00Z</time>
      </trkpt>
      <trkpt lat="57.468682" lon="15.561198">
        <ele>209.091</ele>
        <time>1970-01-01T01:00:00Z</time>
      </trkpt>
      <trkpt lat="57.468658" lon="15.561226">
        <ele>208.909</ele>
        <time>1970-01-01T01:00:00Z</time>
      </trkpt>
      <trkpt lat="57.468633" lon="15.561253">
        <ele>208.727</ele>
        <time>1970-01-01T01:00:00Z</time>
      </trkpt>
      <trkpt lat="57.468607" lon="15.56128">
        <ele>208.545</ele>
        <time>1970-01-01T01:00:00Z</time>
      </trkpt>
      <trkpt lat="57.468582" lon="15.561305">
        <ele>208.364</ele>
        <time>1970-01-01T01:00:00Z</time>
      </trkpt>
      <trkpt lat="57.468556" lon="15.56133">
        <ele>208.182</ele>
        <time>1970-01-01T01:00:00Z</time>
      </trkpt>
      <trkpt lat="57.468529" lon="15.561353">
        <ele>208</ele>
        <time>1970-01-01T01:00:00Z</time>
      </trkpt>
      <trkpt lat="57.468502" lon="15.561375">
        <ele>207.818</ele>
        <time>1970-01-01T01:00:00Z</time>
      </trkpt>
      <trkpt lat="57.468475" lon="15.561396">
        <ele>207.545</ele>
        <time>1970-01-01T01:00:00Z</time>
      </trkpt>
      <trkpt lat="57.468448" lon="15.561415">
        <ele>207.273</ele>
        <time>1970-01-01T01:00:00Z</time>
      </trkpt>
      <trkpt lat="57.46842" lon="15.561433">
        <ele>207.091</ele>
        <time>1970-01-01T01:00:00Z</time>
      </trkpt>
      <trkpt lat="57.468392" lon="15.56145">
        <ele>206.909</ele>
        <time>1970-01-01T01:00:00Z</time>
      </trkpt>
      <trkpt lat="57.468363" lon="15.561466">
        <ele>206.727</ele>
        <time>1970-01-01T01:00:00Z</time>
      </trkpt>
      <trkpt lat="57.468335" lon="15.561481">
        <ele>206.455</ele>
        <time>1970-01-01T01:00:00Z</time>
      </trkpt>
      <trkpt lat="57.468306" lon="15.561494">
        <ele>206.182</ele>
        <time>1970-01-01T01:00:00Z</time>
      </trkpt>
      <trkpt lat="57.468277" lon="15.561507">
        <ele>206</ele>
        <time>1970-01-01T01:00:00Z</time>
      </trkpt>
      <trkpt lat="57.468247" lon="15.561518">
        <ele>205.818</ele>
        <time>1970-01-01T01:00:00Z</time>
      </trkpt>
      <trkpt lat="57.468218" lon="15.561528">
        <ele>205.636</ele>
        <time>1970-01-01T01:00:00Z</time>
      </trkpt>
      <trkpt lat="57.468188" lon="15.561537">
        <ele>205.455</ele>
        <time>1970-01-01T01:00:00Z</time>
      </trkpt>
      <trkpt lat="57.468158" lon="15.561545">
        <ele>205.273</ele>
        <time>1970-01-01T01:00:00Z</time>
      </trkpt>
      <trkpt lat="57.468128" lon="15.561552">
        <ele>205.091</ele>
        <time>1970-01-01T01:00:00Z</time>
      </trkpt>
      <trkpt lat="57.468098" lon="15.561559">
        <ele>204.909</ele>
        <time>1970-01-01T01:00:00Z</time>
      </trkpt>
      <trkpt lat="57.468068" lon="15.561565">
        <ele>204.727</ele>
        <time>1970-01-01T01:00:00Z</time>
      </trkpt>
      <trkpt lat="57.468037" lon="15.561571">
        <ele>204.545</ele>
        <time>1970-01-01T01:00:00Z</time>
      </trkpt>
      <trkpt lat="57.468007" lon="15.561577">
        <ele>204.364</ele>
        <time>1970-01-01T01:00:00Z</time>
      </trkpt>
      <trkpt lat="57.467976" lon="15.561583">
        <ele>204.182</ele>
        <time>1970-01-01T01:00:00Z</time>
      </trkpt>
      <trkpt lat="57.467946" lon="15.561589">
        <ele>204</ele>
        <time>1970-01-01T01:00:00Z</time>
      </trkpt>
      <trkpt lat="57.467915" lon="15.561596">
        <ele>203.818</ele>
        <time>1970-01-01T01:00:00Z</time>
      </trkpt>
      <trkpt lat="57.467885" lon="15.561603">
        <ele>203.636</ele>
        <time>1970-01-01T01:00:00Z</time>
      </trkpt>
      <trkpt lat="57.467854" lon="15.56161">
        <ele>203.455</ele>
        <time>1970-01-01T01:00:00Z</time>
      </trkpt>
      <trkpt lat="57.467824" lon="15.561619">
        <ele>203.364</ele>
        <time>1970-01-01T01:00:00Z</time>
      </trkpt>
      <trkpt lat="57.467793" lon="15.561628">
        <ele>203.273</ele>
        <time>1970-01-01T01:00:00Z</time>
      </trkpt>
      <trkpt lat="57.467763" lon="15.561638">
        <ele>203.182</ele>
        <time>1970-01-01T01:00:00Z</time>
      </trkpt>
      <trkpt lat="57.467733" lon="15.561649">
        <ele>203.091</ele>
        <time>1970-01-01T01:00:00Z</time>
      </trkpt>
      <trkpt lat="57.467704" lon="15.561661">
        <ele>203</ele>
        <time>1970-01-01T01:00:00Z</time>
      </trkpt>
      <trkpt lat="57.467675" lon="15.561675">
        <ele>203</ele>
        <time>1970-01-01T01:00:00Z</time>
      </trkpt>
      <trkpt lat="57.467646" lon="15.561689">
        <ele>203</ele>
        <time>1970-01-01T01:00:00Z</time>
      </trkpt>
      <trkpt lat="57.467618" lon="15.561704">
        <ele>203</ele>
        <time>1970-01-01T01:00:00Z</time>
      </trkpt>
      <trkpt lat="57.467591" lon="15.561721">
        <ele>203</ele>
        <time>1970-01-01T01:00:00Z</time>
      </trkpt>
      <trkpt lat="57.467564" lon="15.561739">
        <ele>203</ele>
        <time>1970-01-01T01:00:00Z</time>
      </trkpt>
      <trkpt lat="57.467537" lon="15.561758">
        <ele>203</ele>
        <time>1970-01-01T01:00:00Z</time>
      </trkpt>
      <trkpt lat="57.467511" lon="15.561778">
        <ele>203</ele>
        <time>1970-01-01T01:00:00Z</time>
      </trkpt>
      <trkpt lat="57.467486" lon="15.561799">
        <ele>203</ele>
        <time>1970-01-01T01:00:00Z</time>
      </trkpt>
      <trkpt lat="57.467461" lon="15.561821">
        <ele>203</ele>
        <time>1970-01-01T01:00:00Z</time>
      </trkpt>
      <trkpt lat="57.467436" lon="15.561844">
        <ele>203</ele>
        <time>1970-01-01T01:00:00Z</time>
      </trkpt>
      <trkpt lat="57.467411" lon="15.561868">
        <ele>203</ele>
        <time>1970-01-01T01:00:00Z</time>
      </trkpt>
      <trkpt lat="57.467386" lon="15.561891">
        <ele>203</ele>
        <time>1970-01-01T01:00:00Z</time>
      </trkpt>
      <trkpt lat="57.467361" lon="15.561915">
        <ele>203</ele>
        <time>1970-01-01T01:00:00Z</time>
      </trkpt>
      <trkpt lat="57.467336" lon="15.561939">
        <ele>203</ele>
        <time>1970-01-01T01:00:00Z</time>
      </trkpt>
      <trkpt lat="57.467311" lon="15.561962">
        <ele>203</ele>
        <time>1970-01-01T01:00:00Z</time>
      </trkpt>
      <trkpt lat="57.467286" lon="15.561985">
        <ele>203.091</ele>
        <time>1970-01-01T01:00:00Z</time>
      </trkpt>
      <trkpt lat="57.467262" lon="15.562007">
        <ele>203.182</ele>
        <time>1970-01-01T01:00:00Z</time>
      </trkpt>
      <trkpt lat="57.467237" lon="15.56203">
        <ele>203.273</ele>
        <time>1970-01-01T01:00:00Z</time>
      </trkpt>
      <trkpt lat="57.467213" lon="15.562054">
        <ele>203.364</ele>
        <time>1970-01-01T01:00:00Z</time>
      </trkpt>
      <trkpt lat="57.467188" lon="15.562081">
        <ele>203.455</ele>
        <time>1970-01-01T01:00:00Z</time>
      </trkpt>
      <trkpt lat="57.467164" lon="15.562111">
        <ele>203.545</ele>
        <time>1970-01-01T01:00:00Z</time>
      </trkpt>
      <trkpt lat="57.467139" lon="15.562145">
        <ele>203.636</ele>
        <time>1970-01-01T01:00:00Z</time>
      </trkpt>
      <trkpt lat="57.467114" lon="15.562182">
        <ele>203.727</ele>
        <time>1970-01-01T01:00:00Z</time>
      </trkpt>
      <trkpt lat="57.46709" lon="15.562221">
        <ele>203.818</ele>
        <time>1970-01-01T01:00:00Z</time>
      </trkpt>
      <trkpt lat="57.467066" lon="15.562261">
        <ele>203.909</ele>
        <time>1970-01-01T01:00:00Z</time>
      </trkpt>
      <trkpt lat="57.467042" lon="15.562301">
        <ele>204</ele>
        <time>1970-01-01T01:00:00Z</time>
      </trkpt>
      <trkpt lat="57.467019" lon="15.562342">
        <ele>204</ele>
        <time>1970-01-01T01:00:00Z</time>
      </trkpt>
      <trkpt lat="57.466997" lon="15.562382">
        <ele>204</ele>
        <time>1970-01-01T01:00:00Z</time>
      </trkpt>
      <trkpt lat="57.466976" lon="15.562422">
        <ele>204</ele>
        <time>1970-01-01T01:00:00Z</time>
      </trkpt>
      <trkpt lat="57.466955" lon="15.562462">
        <ele>204</ele>
        <time>1970-01-01T01:00:00Z</time>
      </trkpt>
      <trkpt lat="57.466936" lon="15.562503">
        <ele>204</ele>
        <time>1970-01-01T01:00:00Z</time>
      </trkpt>
      <trkpt lat="57.466918" lon="15.562544">
        <ele>204</ele>
        <time>1970-01-01T01:00:00Z</time>
      </trkpt>
      <trkpt lat="57.466901" lon="15.562586">
        <ele>204</ele>
        <time>1970-01-01T01:00:00Z</time>
      </trkpt>
      <trkpt lat="57.466885" lon="15.562629">
        <ele>204</ele>
        <time>1970-01-01T01:00:00Z</time>
      </trkpt>
      <trkpt lat="57.46687" lon="15.562671">
        <ele>204</ele>
        <time>1970-01-01T01:00:00Z</time>
      </trkpt>
      <trkpt lat="57.466854" lon="15.562713">
        <ele>204</ele>
        <time>1970-01-01T01:00:00Z</time>
      </trkpt>
      <trkpt lat="57.466837" lon="15.562755">
        <ele>204</ele>
        <time>1970-01-01T01:00:00Z</time>
      </trkpt>
      <trkpt lat="57.46682" lon="15.562796">
        <ele>204</ele>
        <time>1970-01-01T01:00:00Z</time>
      </trkpt>
      <trkpt lat="57.466801" lon="15.562836">
        <ele>204</ele>
        <time>1970-01-01T01:00:00Z</time>
      </trkpt>
      <trkpt lat="57.466782" lon="15.562875">
        <ele>204</ele>
        <time>1970-01-01T01:00:00Z</time>
      </trkpt>
      <trkpt lat="57.466763" lon="15.562915">
        <ele>204</ele>
        <time>1970-01-01T01:00:00Z</time>
      </trkpt>
      <trkpt lat="57.466743" lon="15.562954">
        <ele>204</ele>
        <time>1970-01-01T01:00:00Z</time>
      </trkpt>
      <trkpt lat="57.466724" lon="15.562994">
        <ele>204</ele>
        <time>1970-01-01T01:00:00Z</time>
      </trkpt>
      <trkpt lat="57.466706" lon="15.563034">
        <ele>204</ele>
        <time>1970-01-01T01:00:00Z</time>
      </trkpt>
      <trkpt lat="57.466688" lon="15.563075">
        <ele>204</ele>
        <time>1970-01-01T01:00:00Z</time>
      </trkpt>
      <trkpt lat="57.466672" lon="15.563118">
        <ele>204</ele>
        <time>1970-01-01T01:00:00Z</time>
      </trkpt>
      <trkpt lat="57.466657" lon="15.563162">
        <ele>203.909</ele>
        <time>1970-01-01T01:00:00Z</time>
      </trkpt>
      <trkpt lat="57.466644" lon="15.563208">
        <ele>203.818</ele>
        <time>1970-01-01T01:00:00Z</time>
      </trkpt>
      <trkpt lat="57.466632" lon="15.563255">
        <ele>203.727</ele>
        <time>1970-01-01T01:00:00Z</time>
      </trkpt>
      <trkpt lat="57.466623" lon="15.563305">
        <ele>203.636</ele>
        <time>1970-01-01T01:00:00Z</time>
      </trkpt>
      <trkpt lat="57.466615" lon="15.563356">
        <ele>203.545</ele>
        <time>1970-01-01T01:00:00Z</time>
      </trkpt>
      <trkpt lat="57.466609" lon="15.563408">
        <ele>203.364</ele>
        <time>1970-01-01T01:00:00Z</time>
      </trkpt>
      <trkpt lat="57.466603" lon="15.563461">
        <ele>203.182</ele>
        <time>1970-01-01T01:00:00Z</time>
      </trkpt>
      <trkpt lat="57.466598" lon="15.563515">
        <ele>203</ele>
        <time>1970-01-01T01:00:00Z</time>
      </trkpt>
      <trkpt lat="57.466594" lon="15.563569">
        <ele>202.818</ele>
        <time>1970-01-01T01:00:00Z</time>
      </trkpt>
      <trkpt lat="57.46659" lon="15.563624">
        <ele>202.636</ele>
        <time>1970-01-01T01:00:00Z</time>
      </trkpt>
      <trkpt lat="57.466585" lon="15.563678">
        <ele>202.364</ele>
        <time>1970-01-01T01:00:00Z</time>
      </trkpt>
      <trkpt lat="57.46658" lon="15.563732">
        <ele>202.182</ele>
        <time>1970-01-01T01:00:00Z</time>
      </trkpt>
      <trkpt lat="57.466574" lon="15.563786">
        <ele>202</ele>
        <time>1970-01-01T01:00:00Z</time>
      </trkpt>
      <trkpt lat="57.466568" lon="15.563838">
        <ele>201.818</ele>
        <time>1970-01-01T01:00:00Z</time>
      </trkpt>
      <trkpt lat="57.46656" lon="15.563891">
        <ele>201.636</ele>
        <time>1970-01-01T01:00:00Z</time>
      </trkpt>
      <trkpt lat="57.46655" lon="15.563942">
        <ele>201.364</ele>
        <time>1970-01-01T01:00:00Z</time>
      </trkpt>
      <trkpt lat="57.466538" lon="15.563994">
        <ele>201.182</ele>
        <time>1970-01-01T01:00:00Z</time>
      </trkpt>
      <trkpt lat="57.466525" lon="15.564045">
        <ele>201</ele>
        <time>1970-01-01T01:00:00Z</time>
      </trkpt>
      <trkpt lat="57.466509" lon="15.564097">
        <ele>200.727</ele>
        <time>1970-01-01T01:00:00Z</time>
      </trkpt>
      <trkpt lat="57.46649" lon="15.564149">
        <ele>200.455</ele>
        <time>1970-01-01T01:00:00Z</time>
      </trkpt>
      <trkpt lat="57.46647" lon="15.5642">
        <ele>200.182</ele>
        <time>1970-01-01T01:00:00Z</time>
      </trkpt>
      <trkpt lat="57.466448" lon="15.564251">
        <ele>200</ele>
        <time>1970-01-01T01:00:00Z</time>
      </trkpt>
      <trkpt lat="57.466425" lon="15.564301">
        <ele>199.818</ele>
        <time>1970-01-01T01:00:00Z</time>
      </trkpt>
      <trkpt lat="57.466402" lon="15.564348">
        <ele>199.636</ele>
        <time>1970-01-01T01:00:00Z</time>
      </trkpt>
      <trkpt lat="57.46638" lon="15.564394">
        <ele>199.455</ele>
        <time>1970-01-01T01:00:00Z</time>
      </trkpt>
      <trkpt lat="57.466358" lon="15.564437">
        <ele>199.364</ele>
        <time>1970-01-01T01:00:00Z</time>
      </trkpt>
      <trkpt lat="57.466336" lon="15.564478">
        <ele>199.364</ele>
        <time>1970-01-01T01:00:00Z</time>
      </trkpt>
      <trkpt lat="57.466314" lon="15.564517">
        <ele>199.364</ele>
        <time>1970-01-01T01:00:00Z</time>
      </trkpt>
      <trkpt lat="57.466292" lon="15.564554">
        <ele>199.364</ele>
        <time>1970-01-01T01:00:00Z</time>
      </trkpt>
      <trkpt lat="57.466269" lon="15.564588">
        <ele>199.455</ele>
        <time>1970-01-01T01:00:00Z</time>
      </trkpt>
      <trkpt lat="57.466245" lon="15.564621">
        <ele>199.545</ele>
        <time>1970-01-01T01:00:00Z</time>
      </trkpt>
      <trkpt lat="57.46622" lon="15.564652">
        <ele>199.636</ele>
        <time>1970-01-01T01:00:00Z</time>
      </trkpt>
      <trkpt lat="57.466195" lon="15.56468">
        <ele>199.818</ele>
        <time>1970-01-01T01:00:00Z</time>
      </trkpt>
      <trkpt lat="57.466169" lon="15.564707">
        <ele>200</ele>
        <time>1970-01-01T01:00:00Z</time>
      </trkpt>
      <trkpt lat="57.466143" lon="15.564731">
        <ele>200.182</ele>
        <time>1970-01-01T01:00:00Z</time>
      </trkpt>
      <trkpt lat="57.466115" lon="15.564753">
        <ele>200.364</ele>
        <time>1970-01-01T01:00:00Z</time>
      </trkpt>
      <trkpt lat="57.466087" lon="15.564773">
        <ele>200.545</ele>
        <time>1970-01-01T01:00:00Z</time>
      </trkpt>
      <trkpt lat="57.466059" lon="15.564791">
        <ele>200.727</ele>
        <time>1970-01-01T01:00:00Z</time>
      </trkpt>
      <trkpt lat="57.466031" lon="15.564807">
        <ele>200.909</ele>
        <time>1970-01-01T01:00:00Z</time>
      </trkpt>
      <trkpt lat="57.466002" lon="15.564821">
        <ele>201.182</ele>
        <time>1970-01-01T01:00:00Z</time>
      </trkpt>
      <trkpt lat="57.465973" lon="15.564834">
        <ele>201.455</ele>
        <time>1970-01-01T01:00:00Z</time>
      </trkpt>
      <trkpt lat="57.465945" lon="15.564846">
        <ele>201.727</ele>
        <time>1970-01-01T01:00:00Z</time>
      </trkpt>
      <trkpt lat="57.465916" lon="15.564856">
        <ele>202.091</ele>
        <time>1970-01-01T01:00:00Z</time>
      </trkpt>
      <trkpt lat="57.465888" lon="15.564865">
        <ele>202.364</ele>
        <time>1970-01-01T01:00:00Z</time>
      </trkpt>
      <trkpt lat="57.46586" lon="15.564873">
        <ele>202.636</ele>
        <time>1970-01-01T01:00:00Z</time>
      </trkpt>
      <trkpt lat="57.465832" lon="15.564879">
        <ele>202.909</ele>
        <time>1970-01-01T01:00:00Z</time>
      </trkpt>
      <trkpt lat="57.465805" lon="15.564886">
        <ele>203.273</ele>
        <time>1970-01-01T01:00:00Z</time>
      </trkpt>
      <trkpt lat="57.465779" lon="15.564891">
        <ele>203.545</ele>
        <time>1970-01-01T01:00:00Z</time>
      </trkpt>
      <trkpt lat="57.465752" lon="15.564896">
        <ele>203.818</ele>
        <time>1970-01-01T01:00:00Z</time>
      </trkpt>
      <trkpt lat="57.465726" lon="15.5649">
        <ele>204.091</ele>
        <time>1970-01-01T01:00:00Z</time>
      </trkpt>
      <trkpt lat="57.4657" lon="15.564904">
        <ele>204.364</ele>
        <time>1970-01-01T01:00:00Z</time>
      </trkpt>
      <trkpt lat="57.465675" lon="15.564908">
        <ele>204.636</ele>
        <time>1970-01-01T01:00:00Z</time>
      </trkpt>
      <trkpt lat="57.465649" lon="15.564912">
        <ele>204.909</ele>
        <time>1970-01-01T01:00:00Z</time>
      </trkpt>
      <trkpt lat="57.465624" lon="15.564915">
        <ele>205.091</ele>
        <time>1970-01-01T01:00:00Z</time>
      </trkpt>
      <trkpt lat="57.465598" lon="15.564919">
        <ele>205.273</ele>
        <time>1970-01-01T01:00:00Z</time>
      </trkpt>
      <trkpt lat="57.465573" lon="15.564922">
        <ele>205.455</ele>
        <time>1970-01-01T01:00:00Z</time>
      </trkpt>
      <trkpt lat="57.465548" lon="15.564926">
        <ele>205.636</ele>
        <time>1970-01-01T01:00:00Z</time>
      </trkpt>
      <trkpt lat="57.465522" lon="15.56493">
        <ele>205.727</ele>
        <time>1970-01-01T01:00:00Z</time>
      </trkpt>
      <trkpt lat="57.465496" lon="15.564935">
        <ele>205.909</ele>
        <time>1970-01-01T01:00:00Z</time>
      </trkpt>
      <trkpt lat="57.465471" lon="15.564939">
        <ele>206.091</ele>
        <time>1970-01-01T01:00:00Z</time>
      </trkpt>
      <trkpt lat="57.465445" lon="15.564944">
        <ele>206.273</ele>
        <time>1970-01-01T01:00:00Z</time>
      </trkpt>
      <trkpt lat="57.465419" lon="15.564949">
        <ele>206.364</ele>
        <time>1970-01-01T01:00:00Z</time>
      </trkpt>
      <trkpt lat="57.465394" lon="15.564953">
        <ele>206.455</ele>
        <time>1970-01-01T01:00:00Z</time>
      </trkpt>
      <trkpt lat="57.465368" lon="15.564958">
        <ele>206.545</ele>
        <time>1970-01-01T01:00:00Z</time>
      </trkpt>
      <trkpt lat="57.465342" lon="15.564962">
        <ele>206.636</ele>
        <time>1970-01-01T01:00:00Z</time>
      </trkpt>
      <trkpt lat="57.465317" lon="15.564967">
        <ele>206.727</ele>
        <time>1970-01-01T01:00:00Z</time>
      </trkpt>
      <trkpt lat="57.465291" lon="15.564971">
        <ele>206.818</ele>
        <time>1970-01-01T01:00:00Z</time>
      </trkpt>
      <trkpt lat="57.465266" lon="15.564976">
        <ele>206.909</ele>
        <time>1970-01-01T01:00:00Z</time>
      </trkpt>
      <trkpt lat="57.46524" lon="15.564979">
        <ele>207</ele>
        <time>1970-01-01T01:00:00Z</time>
      </trkpt>
      <trkpt lat="57.465215" lon="15.564983">
        <ele>207</ele>
        <time>1970-01-01T01:00:00Z</time>
      </trkpt>
      <trkpt lat="57.46519" lon="15.564987">
        <ele>207</ele>
        <time>1970-01-01T01:00:00Z</time>
      </trkpt>
      <trkpt lat="57.465166" lon="15.56499">
        <ele>207</ele>
        <time>1970-01-01T01:00:00Z</time>
      </trkpt>
      <trkpt lat="57.465141" lon="15.564992">
        <ele>207</ele>
        <time>1970-01-01T01:00:00Z</time>
      </trkpt>
      <trkpt lat="57.465117" lon="15.564995">
        <ele>207</ele>
        <time>1970-01-01T01:00:00Z</time>
      </trkpt>
      <trkpt lat="57.465093" lon="15.564997">
        <ele>207</ele>
        <time>1970-01-01T01:00:00Z</time>
      </trkpt>
      <trkpt lat="57.465069" lon="15.564999">
        <ele>207</ele>
        <time>1970-01-01T01:00:00Z</time>
      </trkpt>
      <trkpt lat="57.465045" lon="15.565001">
        <ele>207</ele>
        <time>1970-01-01T01:00:00Z</time>
      </trkpt>
      <trkpt lat="57.465021" lon="15.565003">
        <ele>207</ele>
        <time>1970-01-01T01:00:00Z</time>
      </trkpt>
      <trkpt lat="57.464996" lon="15.565007">
        <ele>207</ele>
        <time>1970-01-01T01:00:00Z</time>
      </trkpt>
      <trkpt lat="57.464972" lon="15.565011">
        <ele>207.091</ele>
        <time>1970-01-01T01:00:00Z</time>
      </trkpt>
      <trkpt lat="57.464948" lon="15.565019">
        <ele>207.182</ele>
        <time>1970-01-01T01:00:00Z</time>
      </trkpt>
      <trkpt lat="57.464924" lon="15.56503">
        <ele>207.273</ele>
        <time>1970-01-01T01:00:00Z</time>
      </trkpt>
      <trkpt lat="57.464901" lon="15.565045">
        <ele>207.364</ele>
        <time>1970-01-01T01:00:00Z</time>
      </trkpt>
      <trkpt lat="57.464879" lon="15.565067">
        <ele>207.455</ele>
        <time>1970-01-01T01:00:00Z</time>
      </trkpt>
      <trkpt lat="57.464859" lon="15.565095">
        <ele>207.545</ele>
        <time>1970-01-01T01:00:00Z</time>
      </trkpt>
      <trkpt lat="57.464839" lon="15.565128">
        <ele>207.636</ele>
        <time>1970-01-01T01:00:00Z</time>
      </trkpt>
      <trkpt lat="57.464822" lon="15.565164">
        <ele>207.818</ele>
        <time>1970-01-01T01:00:00Z</time>
      </trkpt>
      <trkpt lat="57.464805" lon="15.565202">
        <ele>208</ele>
        <time>1970-01-01T01:00:00Z</time>
      </trkpt>
      <trkpt lat="57.46479" lon="15.56524">
        <ele>208.182</ele>
        <time>1970-01-01T01:00:00Z</time>
      </trkpt>
      <trkpt lat="57.464777" lon="15.565276">
        <ele>208.364</ele>
        <time>1970-01-01T01:00:00Z</time>
      </trkpt>
      <trkpt lat="57.464763" lon="15.565312">
        <ele>208.455</ele>
        <time>1970-01-01T01:00:00Z</time>
      </trkpt>
      <trkpt lat="57.464748" lon="15.565347">
        <ele>208.545</ele>
        <time>1970-01-01T01:00:00Z</time>
      </trkpt>
      <trkpt lat="57.46473" lon="15.565381">
        <ele>208.636</ele>
        <time>1970-01-01T01:00:00Z</time>
      </trkpt>
      <trkpt lat="57.464709" lon="15.565412">
        <ele>208.636</ele>
        <time>1970-01-01T01:00:00Z</time>
      </trkpt>
      <trkpt lat="57.464687" lon="15.565436">
        <ele>208.636</ele>
        <time>1970-01-01T01:00:00Z</time>
      </trkpt>
      <trkpt lat="57.464664" lon="15.565451">
        <ele>208.636</ele>
        <time>1970-01-01T01:00:00Z</time>
      </trkpt>
      <trkpt lat="57.46464" lon="15.565457">
        <ele>208.636</ele>
        <time>1970-01-01T01:00:00Z</time>
      </trkpt>
      <trkpt lat="57.464616" lon="15.565456">
        <ele>208.545</ele>
        <time>1970-01-01T01:00:00Z</time>
      </trkpt>
      <trkpt lat="57.46459" lon="15.56545">
        <ele>208.364</ele>
        <time>1970-01-01T01:00:00Z</time>
      </trkpt>
      <trkpt lat="57.464564" lon="15.565441">
        <ele>208.182</ele>
        <time>1970-01-01T01:00:00Z</time>
      </trkpt>
      <trkpt lat="57.464538" lon="15.565431">
        <ele>208</ele>
        <time>1970-01-01T01:00:00Z</time>
      </trkpt>
      <trkpt lat="57.464511" lon="15.565419">
        <ele>207.818</ele>
        <time>1970-01-01T01:00:00Z</time>
      </trkpt>
      <trkpt lat="57.464484" lon="15.565405">
        <ele>207.636</ele>
        <time>1970-01-01T01:00:00Z</time>
      </trkpt>
      <trkpt lat="57.464458" lon="15.565388">
        <ele>207.455</ele>
        <time>1970-01-01T01:00:00Z</time>
      </trkpt>
      <trkpt lat="57.464431" lon="15.565369">
        <ele>207.273</ele>
        <time>1970-01-01T01:00:00Z</time>
      </trkpt>
      <trkpt lat="57.464404" lon="15.565347">
        <ele>207.091</ele>
        <time>1970-01-01T01:00:00Z</time>
      </trkpt>
      <trkpt lat="57.464379" lon="15.565322">
        <ele>206.909</ele>
        <time>1970-01-01T01:00:00Z</time>
      </trkpt>
      <trkpt lat="57.464353" lon="15.565293">
        <ele>206.727</ele>
        <time>1970-01-01T01:00:00Z</time>
      </trkpt>
      <trkpt lat="57.464329" lon="15.565262">
        <ele>206.545</ele>
        <time>1970-01-01T01:00:00Z</time>
      </trkpt>
      <trkpt lat="57.464306" lon="15.565228">
        <ele>206.455</ele>
        <time>1970-01-01T01:00:00Z</time>
      </trkpt>
      <trkpt lat="57.464285" lon="15.565192">
        <ele>206.364</ele>
        <time>1970-01-01T01:00:00Z</time>
      </trkpt>
      <trkpt lat="57.464265" lon="15.565153">
        <ele>206.273</ele>
        <time>1970-01-01T01:00:00Z</time>
      </trkpt>
      <trkpt lat="57.464246" lon="15.565113">
        <ele>206.182</ele>
        <time>1970-01-01T01:00:00Z</time>
      </trkpt>
      <trkpt lat="57.46423" lon="15.565071">
        <ele>206.091</ele>
        <time>1970-01-01T01:00:00Z</time>
      </trkpt>
      <trkpt lat="57.464214" lon="15.565027">
        <ele>206</ele>
        <time>1970-01-01T01:00:00Z</time>
      </trkpt>
      <trkpt lat="57.4642" lon="15.564983">
        <ele>206</ele>
        <time>1970-01-01T01:00:00Z</time>
      </trkpt>
      <trkpt lat="57.464187" lon="15.564937">
        <ele>206</ele>
        <time>1970-01-01T01:00:00Z</time>
      </trkpt>
      <trkpt lat="57.464175" lon="15.564891">
        <ele>206</ele>
        <time>1970-01-01T01:00:00Z</time>
      </trkpt>
      <trkpt lat="57.464164" lon="15.564844">
        <ele>206</ele>
        <time>1970-01-01T01:00:00Z</time>
      </trkpt>
      <trkpt lat="57.464154" lon="15.564796">
        <ele>206</ele>
        <time>1970-01-01T01:00:00Z</time>
      </trkpt>
      <trkpt lat="57.464144" lon="15.564749">
        <ele>206</ele>
        <time>1970-01-01T01:00:00Z</time>
      </trkpt>
      <trkpt lat="57.464134" lon="15.564701">
        <ele>206.091</ele>
        <time>1970-01-01T01:00:00Z</time>
      </trkpt>
      <trkpt lat="57.464125" lon="15.564654">
        <ele>206.182</ele>
        <time>1970-01-01T01:00:00Z</time>
      </trkpt>
      <trkpt lat="57.464116" lon="15.564607">
        <ele>206.273</ele>
        <time>1970-01-01T01:00:00Z</time>
      </trkpt>
      <trkpt lat="57.464107" lon="15.564559">
        <ele>206.364</ele>
        <time>1970-01-01T01:00:00Z</time>
      </trkpt>
      <trkpt lat="57.464099" lon="15.56451">
        <ele>206.455</ele>
        <time>1970-01-01T01:00:00Z</time>
      </trkpt>
      <trkpt lat="57.46409" lon="15.56446">
        <ele>206.636</ele>
        <time>1970-01-01T01:00:00Z</time>
      </trkpt>
      <trkpt lat="57.464082" lon="15.564408">
        <ele>206.818</ele>
        <time>1970-01-01T01:00:00Z</time>
      </trkpt>
      <trkpt lat="57.464074" lon="15.564355">
        <ele>207</ele>
        <time>1970-01-01T01:00:00Z</time>
      </trkpt>
      <trkpt lat="57.464066" lon="15.564302">
        <ele>207.182</ele>
        <time>1970-01-01T01:00:00Z</time>
      </trkpt>
      <trkpt lat="57.46406" lon="15.564248">
        <ele>207.364</ele>
        <time>1970-01-01T01:00:00Z</time>
      </trkpt>
      <trkpt lat="57.464056" lon="15.564195">
        <ele>207.545</ele>
        <time>1970-01-01T01:00:00Z</time>
      </trkpt>
      <trkpt lat="57.464054" lon="15.564142">
        <ele>207.636</ele>
        <time>1970-01-01T01:00:00Z</time>
      </trkpt>
      <trkpt lat="57.464054" lon="15.564091">
        <ele>207.727</ele>
        <time>1970-01-01T01:00:00Z</time>
      </trkpt>
      <trkpt lat="57.464055" lon="15.564041">
        <ele>207.818</ele>
        <time>1970-01-01T01:00:00Z</time>
      </trkpt>
      <trkpt lat="57.464059" lon="15.563992">
        <ele>207.909</ele>
        <time>1970-01-01T01:00:00Z</time>
      </trkpt>
      <trkpt lat="57.464063" lon="15.563943">
        <ele>208</ele>
        <time>1970-01-01T01:00:00Z</time>
      </trkpt>
      <trkpt lat="57.464069" lon="15.563895">
        <ele>208</ele>
        <time>1970-01-01T01:00:00Z</time>
      </trkpt>
      <trkpt lat="57.464076" lon="15.563848">
        <ele>208</ele>
        <time>1970-01-01T01:00:00Z</time>
      </trkpt>
      <trkpt lat="57.464084" lon="15.563801">
        <ele>208</ele>
        <time>1970-01-01T01:00:00Z</time>
      </trkpt>
      <trkpt lat="57.464093" lon="15.563755">
        <ele>208</ele>
        <time>1970-01-01T01:00:00Z</time>
      </trkpt>
      <trkpt lat="57.464102" lon="15.563709">
        <ele>208</ele>
        <time>1970-01-01T01:00:00Z</time>
      </trkpt>
      <trkpt lat="57.464112" lon="15.563664">
        <ele>208</ele>
        <time>1970-01-01T01:00:00Z</time>
      </trkpt>
      <trkpt lat="57.464121" lon="15.563619">
        <ele>208</ele>
        <time>1970-01-01T01:00:00Z</time>
      </trkpt>
      <trkpt lat="57.464131" lon="15.563573">
        <ele>208</ele>
        <time>1970-01-01T01:00:00Z</time>
      </trkpt>
      <trkpt lat="57.46414" lon="15.563528">
        <ele>208</ele>
        <time>1970-01-01T01:00:00Z</time>
      </trkpt>
      <trkpt lat="57.46415" lon="15.563483">
        <ele>208</ele>
        <time>1970-01-01T01:00:00Z</time>
      </trkpt>
      <trkpt lat="57.464158" lon="15.563438">
        <ele>208</ele>
        <time>1970-01-01T01:00:00Z</time>
      </trkpt>
      <trkpt lat="57.464166" lon="15.563393">
        <ele>208.091</ele>
        <time>1970-01-01T01:00:00Z</time>
      </trkpt>
      <trkpt lat="57.464172" lon="15.563348">
        <ele>208.182</ele>
        <time>1970-01-01T01:00:00Z</time>
      </trkpt>
      <trkpt lat="57.464178" lon="15.563302">
        <ele>208.273</ele>
        <time>1970-01-01T01:00:00Z</time>
      </trkpt>
      <trkpt lat="57.464182" lon="15.563255">
        <ele>208.364</ele>
        <time>1970-01-01T01:00:00Z</time>
      </trkpt>
      <trkpt lat="57.464185" lon="15.563209">
        <ele>208.455</ele>
        <time>1970-01-01T01:00:00Z</time>
      </trkpt>
      <trkpt lat="57.464186" lon="15.563161">
        <ele>208.545</ele>
        <time>1970-01-01T01:00:00Z</time>
      </trkpt>
      <trkpt lat="57.464186" lon="15.563113">
        <ele>208.636</ele>
        <time>1970-01-01T01:00:00Z</time>
      </trkpt>
      <trkpt lat="57.464183" lon="15.563065">
        <ele>208.727</ele>
        <time>1970-01-01T01:00:00Z</time>
      </trkpt>
      <trkpt lat="57.46418" lon="15.563017">
        <ele>208.818</ele>
        <time>1970-01-01T01:00:00Z</time>
      </trkpt>
      <trkpt lat="57.464176" lon="15.56297">
        <ele>208.909</ele>
        <time>1970-01-01T01:00:00Z</time>
      </trkpt>
      <trkpt lat="57.464172" lon="15.562923">
        <ele>209</ele>
        <time>1970-01-01T01:00:00Z</time>
      </trkpt>
      <trkpt lat="57.464169" lon="15.562878">
        <ele>209</ele>
        <time>1970-01-01T01:00:00Z</time>
      </trkpt>
      <trkpt lat="57.464165" lon="15.562835">
        <ele>209.091</ele>
        <time>1970-01-01T01:00:00Z</time>
      </trkpt>
      <trkpt lat="57.464162" lon="15.562792">
        <ele>209.182</ele>
        <time>1970-01-01T01:00:00Z</time>
      </trkpt>
      <trkpt lat="57.464159" lon="15.562749">
        <ele>209.273</ele>
        <time>1970-01-01T01:00:00Z</time>
      </trkpt>
      <trkpt lat="57.464155" lon="15.562704">
        <ele>209.364</ele>
        <time>1970-01-01T01:00:00Z</time>
      </trkpt>
      <trkpt lat="57.464151" lon="15.562658">
        <ele>209.455</ele>
        <time>1970-01-01T01:00:00Z</time>
      </trkpt>
      <trkpt lat="57.464146" lon="15.562608">
        <ele>209.545</ele>
        <time>1970-01-01T01:00:00Z</time>
      </trkpt>
      <trkpt lat="57.46414" lon="15.562556">
        <ele>209.636</ele>
        <time>1970-01-01T01:00:00Z</time>
      </trkpt>
      <trkpt lat="57.464134" lon="15.562503">
        <ele>209.727</ele>
        <time>1970-01-01T01:00:00Z</time>
      </trkpt>
      <trkpt lat="57.464129" lon="15.562449">
        <ele>209.818</ele>
        <time>1970-01-01T01:00:00Z</time>
      </trkpt>
      <trkpt lat="57.464124" lon="15.562395">
        <ele>209.909</ele>
        <time>1970-01-01T01:00:00Z</time>
      </trkpt>
      <trkpt lat="57.464122" lon="15.562342">
        <ele>210.091</ele>
        <time>1970-01-01T01:00:00Z</time>
      </trkpt>
      <trkpt lat="57.464121" lon="15.562291">
        <ele>210.182</ele>
        <time>1970-01-01T01:00:00Z</time>
      </trkpt>
      <trkpt lat="57.464122" lon="15.562241">
        <ele>210.273</ele>
        <time>1970-01-01T01:00:00Z</time>
      </trkpt>
      <trkpt lat="57.464123" lon="15.562191">
        <ele>210.364</ele>
        <time>1970-01-01T01:00:00Z</time>
      </trkpt>
      <trkpt lat="57.464125" lon="15.562142">
        <ele>210.455</ele>
        <time>1970-01-01T01:00:00Z</time>
      </trkpt>
      <trkpt lat="57.464127" lon="15.562092">
        <ele>210.545</ele>
        <time>1970-01-01T01:00:00Z</time>
      </trkpt>
      <trkpt lat="57.464128" lon="15.562042">
        <ele>210.727</ele>
        <time>1970-01-01T01:00:00Z</time>
      </trkpt>
      <trkpt lat="57.464129" lon="15.561991">
        <ele>210.909</ele>
        <time>1970-01-01T01:00:00Z</time>
      </trkpt>
      <trkpt lat="57.464128" lon="15.56194">
        <ele>211.091</ele>
        <time>1970-01-01T01:00:00Z</time>
      </trkpt>
      <trkpt lat="57.464127" lon="15.561888">
        <ele>211.273</ele>
        <time>1970-01-01T01:00:00Z</time>
      </trkpt>
      <trkpt lat="57.464124" lon="15.561837">
        <ele>211.455</ele>
        <time>1970-01-01T01:00:00Z</time>
      </trkpt>
      <trkpt lat="57.46412" lon="15.561786">
        <ele>211.545</ele>
        <time>1970-01-01T01:00:00Z</time>
      </trkpt>
      <trkpt lat="57.464116" lon="15.561736">
        <ele>211.727</ele>
        <time>1970-01-01T01:00:00Z</time>
      </trkpt>
      <trkpt lat="57.464109" lon="15.561688">
        <ele>211.909</ele>
        <time>1970-01-01T01:00:00Z</time>
      </trkpt>
      <trkpt lat="57.464102" lon="15.56164">
        <ele>212.091</ele>
        <time>1970-01-01T01:00:00Z</time>
      </trkpt>
      <trkpt lat="57.464093" lon="15.561594">
        <ele>212.273</ele>
        <time>1970-01-01T01:00:00Z</time>
      </trkpt>
      <trkpt lat="57.464082" lon="15.56155">
        <ele>212.455</ele>
        <time>1970-01-01T01:00:00Z</time>
      </trkpt>
      <trkpt lat="57.46407" lon="15.561508">
        <ele>212.545</ele>
        <time>1970-01-01T01:00:00Z</time>
      </trkpt>
      <trkpt lat="57.464056" lon="15.561467">
        <ele>212.636</ele>
        <time>1970-01-01T01:00:00Z</time>
      </trkpt>
      <trkpt lat="57.464041" lon="15.561429">
        <ele>212.727</ele>
        <time>1970-01-01T01:00:00Z</time>
      </trkpt>
      <trkpt lat="57.464025" lon="15.561392">
        <ele>212.818</ele>
        <time>1970-01-01T01:00:00Z</time>
      </trkpt>
      <trkpt lat="57.464008" lon="15.561356">
        <ele>212.909</ele>
        <time>1970-01-01T01:00:00Z</time>
      </trkpt>
      <trkpt lat="57.463991" lon="15.56132">
        <ele>213</ele>
        <time>1970-01-01T01:00:00Z</time>
      </trkpt>
      <trkpt lat="57.463973" lon="15.561286">
        <ele>213</ele>
        <time>1970-01-01T01:00:00Z</time>
      </trkpt>
      <trkpt lat="57.463955" lon="15.561252">
        <ele>213</ele>
        <time>1970-01-01T01:00:00Z</time>
      </trkpt>
      <trkpt lat="57.463937" lon="15.561218">
        <ele>213</ele>
        <time>1970-01-01T01:00:00Z</time>
      </trkpt>
      <trkpt lat="57.46392" lon="15.561184">
        <ele>213</ele>
        <time>1970-01-01T01:00:00Z</time>
      </trkpt>
      <trkpt lat="57.463902" lon="15.561149">
        <ele>213</ele>
        <time>1970-01-01T01:00:00Z</time>
      </trkpt>
      <trkpt lat="57.463886" lon="15.561114">
        <ele>213</ele>
        <time>1970-01-01T01:00:00Z</time>
      </trkpt>
      <trkpt lat="57.46387" lon="15.561079">
        <ele>213</ele>
        <time>1970-01-01T01:00:00Z</time>
      </trkpt>
      <trkpt lat="57.463855" lon="15.561042">
        <ele>213</ele>
        <time>1970-01-01T01:00:00Z</time>
      </trkpt>
      <trkpt lat="57.46384" lon="15.561005">
        <ele>213</ele>
        <time>1970-01-01T01:00:00Z</time>
      </trkpt>
      <trkpt lat="57.463826" lon="15.560967">
        <ele>213</ele>
        <time>1970-01-01T01:00:00Z</time>
      </trkpt>
      <trkpt lat="57.463812" lon="15.560928">
        <ele>213</ele>
        <time>1970-01-01T01:00:00Z</time>
      </trkpt>
      <trkpt lat="57.463799" lon="15.560888">
        <ele>213</ele>
        <time>1970-01-01T01:00:00Z</time>
      </trkpt>
      <trkpt lat="57.463787" lon="15.560848">
        <ele>213</ele>
        <time>1970-01-01T01:00:00Z</time>
      </trkpt>
      <trkpt lat="57.463774" lon="15.560808">
        <ele>213</ele>
        <time>1970-01-01T01:00:00Z</time>
      </trkpt>
      <trkpt lat="57.463763" lon="15.560768">
        <ele>213</ele>
        <time>1970-01-01T01:00:00Z</time>
      </trkpt>
      <trkpt lat="57.463751" lon="15.560729">
        <ele>213</ele>
        <time>1970-01-01T01:00:00Z</time>
      </trkpt>
      <trkpt lat="57.46374" lon="15.560691">
        <ele>213</ele>
        <time>1970-01-01T01:00:00Z</time>
      </trkpt>
      <trkpt lat="57.46373" lon="15.560654">
        <ele>213</ele>
        <time>1970-01-01T01:00:00Z</time>
      </trkpt>
      <trkpt lat="57.463719" lon="15.560616">
        <ele>213</ele>
        <time>1970-01-01T01:00:00Z</time>
      </trkpt>
      <trkpt lat="57.463709" lon="15.560577">
        <ele>213</ele>
        <time>1970-01-01T01:00:00Z</time>
      </trkpt>
      <trkpt lat="57.463699" lon="15.560535">
        <ele>213</ele>
        <time>1970-01-01T01:00:00Z</time>
      </trkpt>
      <trkpt lat="57.463688" lon="15.56049">
        <ele>213</ele>
        <time>1970-01-01T01:00:00Z</time>
      </trkpt>
      <trkpt lat="57.463678" lon="15.560443">
        <ele>213</ele>
        <time>1970-01-01T01:00:00Z</time>
      </trkpt>
      <trkpt lat="57.463669" lon="15.560394">
        <ele>213</ele>
        <time>1970-01-01T01:00:00Z</time>
      </trkpt>
      <trkpt lat="57.463659" lon="15.560345">
        <ele>213</ele>
        <time>1970-01-01T01:00:00Z</time>
      </trkpt>
      <trkpt lat="57.46365" lon="15.560296">
        <ele>213</ele>
        <time>1970-01-01T01:00:00Z</time>
      </trkpt>
      <trkpt lat="57.463641" lon="15.560248">
        <ele>213</ele>
        <time>1970-01-01T01:00:00Z</time>
      </trkpt>
      <trkpt lat="57.463632" lon="15.560201">
        <ele>213</ele>
        <time>1970-01-01T01:00:00Z</time>
      </trkpt>
      <trkpt lat="57.463623" lon="15.560156">
        <ele>213</ele>
        <time>1970-01-01T01:00:00Z</time>
      </trkpt>
      <trkpt lat="57.463612" lon="15.560113">
        <ele>213</ele>
        <time>1970-01-01T01:00:00Z</time>
      </trkpt>
      <trkpt lat="57.463601" lon="15.560071">
        <ele>213</ele>
        <time>1970-01-01T01:00:00Z</time>
      </trkpt>
      <trkpt lat="57.463588" lon="15.560031">
        <ele>213</ele>
        <time>1970-01-01T01:00:00Z</time>
      </trkpt>
      <trkpt lat="57.463573" lon="15.559993">
        <ele>213</ele>
        <time>1970-01-01T01:00:00Z</time>
      </trkpt>
      <trkpt lat="57.463557" lon="15.559956">
        <ele>213</ele>
        <time>1970-01-01T01:00:00Z</time>
      </trkpt>
      <trkpt lat="57.46354" lon="15.55992">
        <ele>213</ele>
        <time>1970-01-01T01:00:00Z</time>
      </trkpt>
      <trkpt lat="57.463522" lon="15.559884">
        <ele>213</ele>
        <time>1970-01-01T01:00:00Z</time>
      </trkpt>
      <trkpt lat="57.463504" lon="15.559848">
        <ele>213</ele>
        <time>1970-01-01T01:00:00Z</time>
      </trkpt>
      <trkpt lat="57.463487" lon="15.559811">
        <ele>213</ele>
        <time>1970-01-01T01:00:00Z</time>
      </trkpt>
      <trkpt lat="57.46347" lon="15.559773">
        <ele>213</ele>
        <time>1970-01-01T01:00:00Z</time>
      </trkpt>
      <trkpt lat="57.463454" lon="15.559735">
        <ele>213</ele>
        <time>1970-01-01T01:00:00Z</time>
      </trkpt>
      <trkpt lat="57.463438" lon="15.559696">
        <ele>213</ele>
        <time>1970-01-01T01:00:00Z</time>
      </trkpt>
      <trkpt lat="57.463422" lon="15.559657">
        <ele>213</ele>
        <time>1970-01-01T01:00:00Z</time>
      </trkpt>
      <trkpt lat="57.463407" lon="15.559617">
        <ele>213</ele>
        <time>1970-01-01T01:00:00Z</time>
      </trkpt>
      <trkpt lat="57.463392" lon="15.559578">
        <ele>213</ele>
        <time>1970-01-01T01:00:00Z</time>
      </trkpt>
      <trkpt lat="57.463377" lon="15.559538">
        <ele>213</ele>
        <time>1970-01-01T01:00:00Z</time>
      </trkpt>
      <trkpt lat="57.463363" lon="15.559498">
        <ele>213.091</ele>
        <time>1970-01-01T01:00:00Z</time>
      </trkpt>
      <trkpt lat="57.463349" lon="15.559458">
        <ele>213.182</ele>
        <time>1970-01-01T01:00:00Z</time>
      </trkpt>
      <trkpt lat="57.463335" lon="15.559418">
        <ele>213.273</ele>
        <time>1970-01-01T01:00:00Z</time>
      </trkpt>
      <trkpt lat="57.463321" lon="15.559378">
        <ele>213.364</ele>
        <time>1970-01-01T01:00:00Z</time>
      </trkpt>
      <trkpt lat="57.463307" lon="15.559339">
        <ele>213.455</ele>
        <time>1970-01-01T01:00:00Z</time>
      </trkpt>
      <trkpt lat="57.463293" lon="15.559301">
        <ele>213.545</ele>
        <time>1970-01-01T01:00:00Z</time>
      </trkpt>
      <trkpt lat="57.463278" lon="15.559263">
        <ele>213.636</ele>
        <time>1970-01-01T01:00:00Z</time>
      </trkpt>
      <trkpt lat="57.463264" lon="15.559225">
        <ele>213.818</ele>
        <time>1970-01-01T01:00:00Z</time>
      </trkpt>
      <trkpt lat="57.463249" lon="15.559189">
        <ele>214</ele>
        <time>1970-01-01T01:00:00Z</time>
      </trkpt>
      <trkpt lat="57.463233" lon="15.559154">
        <ele>214.182</ele>
        <time>1970-01-01T01:00:00Z</time>
      </trkpt>
      <trkpt lat="57.463217" lon="15.55912">
        <ele>214.364</ele>
        <time>1970-01-01T01:00:00Z</time>
      </trkpt>
      <trkpt lat="57.463199" lon="15.559089">
        <ele>214.455</ele>
        <time>1970-01-01T01:00:00Z</time>
      </trkpt>
      <trkpt lat="57.463181" lon="15.55906">
        <ele>214.545</ele>
        <time>1970-01-01T01:00:00Z</time>
      </trkpt>
      <trkpt lat="57.463163" lon="15.559035">
        <ele>214.636</ele>
        <time>1970-01-01T01:00:00Z</time>
      </trkpt>
      <trkpt lat="57.463143" lon="15.559014">
        <ele>214.727</ele>
        <time>1970-01-01T01:00:00Z</time>
      </trkpt>
      <trkpt lat="57.463122" lon="15.558995">
        <ele>214.818</ele>
        <time>1970-01-01T01:00:00Z</time>
      </trkpt>
      <trkpt lat="57.463101" lon="15.558978">
        <ele>214.909</ele>
        <time>1970-01-01T01:00:00Z</time>
      </trkpt>
      <trkpt lat="57.463079" lon="15.558962">
        <ele>215</ele>
        <time>1970-01-01T01:00:00Z</time>
      </trkpt>
      <trkpt lat="57.463057" lon="15.558944">
        <ele>215</ele>
        <time>1970-01-01T01:00:00Z</time>
      </trkpt>
      <trkpt lat="57.463036" lon="15.558925">
        <ele>215</ele>
        <time>1970-01-01T01:00:00Z</time>
      </trkpt>
      <trkpt lat="57.463014" lon="15.558902">
        <ele>214.909</ele>
        <time>1970-01-01T01:00:00Z</time>
      </trkpt>
      <trkpt lat="57.462994" lon="15.558877">
        <ele>214.818</ele>
        <time>1970-01-01T01:00:00Z</time>
      </trkpt>
      <trkpt lat="57.462974" lon="15.558849">
        <ele>214.727</ele>
        <time>1970-01-01T01:00:00Z</time>
      </trkpt>
      <trkpt lat="57.462956" lon="15.558817">
        <ele>214.636</ele>
        <time>1970-01-01T01:00:00Z</time>
      </trkpt>
      <trkpt lat="57.462939" lon="15.558783">
        <ele>214.545</ele>
        <time>1970-01-01T01:00:00Z</time>
      </trkpt>
      <trkpt lat="57.462924" lon="15.558746">
        <ele>214.455</ele>
        <time>1970-01-01T01:00:00Z</time>
      </trkpt>
      <trkpt lat="57.462912" lon="15.558705">
        <ele>214.364</ele>
        <time>1970-01-01T01:00:00Z</time>
      </trkpt>
      <trkpt lat="57.462902" lon="15.558661">
        <ele>214.273</ele>
        <time>1970-01-01T01:00:00Z</time>
      </trkpt>
      <trkpt lat="57.462895" lon="15.558612">
        <ele>214.182</ele>
        <time>1970-01-01T01:00:00Z</time>
      </trkpt>
      <trkpt lat="57.462891" lon="15.558561">
        <ele>214.091</ele>
        <time>1970-01-01T01:00:00Z</time>
      </trkpt>
      <trkpt lat="57.462891" lon="15.558509">
        <ele>214</ele>
        <time>1970-01-01T01:00:00Z</time>
      </trkpt>
      <trkpt lat="57.462895" lon="15.558458">
        <ele>214</ele>
        <time>1970-01-01T01:00:00Z</time>
      </trkpt>
      <trkpt lat="57.462903" lon="15.558409">
        <ele>214</ele>
        <time>1970-01-01T01:00:00Z</time>
      </trkpt>
      <trkpt lat="57.462912" lon="15.55836">
        <ele>214</ele>
        <time>1970-01-01T01:00:00Z</time>
      </trkpt>
      <trkpt lat="57.462922" lon="15.558312">
        <ele>214</ele>
        <time>1970-01-01T01:00:00Z</time>
      </trkpt>
      <trkpt lat="57.462931" lon="15.558264">
        <ele>214</ele>
        <time>1970-01-01T01:00:00Z</time>
      </trkpt>
      <trkpt lat="57.462939" lon="15.558215">
        <ele>214</ele>
        <time>1970-01-01T01:00:00Z</time>
      </trkpt>
      <trkpt lat="57.462946" lon="15.558166">
        <ele>214</ele>
        <time>1970-01-01T01:00:00Z</time>
      </trkpt>
      <trkpt lat="57.462951" lon="15.558117">
        <ele>214</ele>
        <time>1970-01-01T01:00:00Z</time>
      </trkpt>
      <trkpt lat="57.462954" lon="15.558068">
        <ele>214</ele>
        <time>1970-01-01T01:00:00Z</time>
      </trkpt>
      <trkpt lat="57.462957" lon="15.55802">
        <ele>214</ele>
        <time>1970-01-01T01:00:00Z</time>
      </trkpt>
      <trkpt lat="57.462958" lon="15.557973">
        <ele>214</ele>
        <time>1970-01-01T01:00:00Z</time>
      </trkpt>
      <trkpt lat="57.462958" lon="15.557928">
        <ele>214</ele>
        <time>1970-01-01T01:00:00Z</time>
      </trkpt>
      <trkpt lat="57.462958" lon="15.557884">
        <ele>214</ele>
        <time>1970-01-01T01:00:00Z</time>
      </trkpt>
      <trkpt lat="57.462957" lon="15.55784">
        <ele>213.909</ele>
        <time>1970-01-01T01:00:00Z</time>
      </trkpt>
      <trkpt lat="57.462955" lon="15.557797">
        <ele>213.818</ele>
        <time>1970-01-01T01:00:00Z</time>
      </trkpt>
      <trkpt lat="57.462952" lon="15.557752">
        <ele>213.727</ele>
        <time>1970-01-01T01:00:00Z</time>
      </trkpt>
      <trkpt lat="57.462948" lon="15.557707">
        <ele>213.636</ele>
        <time>1970-01-01T01:00:00Z</time>
      </trkpt>
      <trkpt lat="57.462943" lon="15.557661">
        <ele>213.545</ele>
        <time>1970-01-01T01:00:00Z</time>
      </trkpt>
      <trkpt lat="57.462938" lon="15.557613">
        <ele>213.364</ele>
        <time>1970-01-01T01:00:00Z</time>
      </trkpt>
      <trkpt lat="57.462933" lon="15.557564">
        <ele>213.182</ele>
        <time>1970-01-01T01:00:00Z</time>
      </trkpt>
      <trkpt lat="57.462928" lon="15.557514">
        <ele>213</ele>
        <time>1970-01-01T01:00:00Z</time>
      </trkpt>
      <trkpt lat="57.462923" lon="15.557463">
        <ele>212.818</ele>
        <time>1970-01-01T01:00:00Z</time>
      </trkpt>
      <trkpt lat="57.462918" lon="15.55741">
        <ele>212.636</ele>
        <time>1970-01-01T01:00:00Z</time>
      </trkpt>
      <trkpt lat="57.462914" lon="15.557357">
        <ele>212.364</ele>
        <time>1970-01-01T01:00:00Z</time>
      </trkpt>
      <trkpt lat="57.462909" lon="15.557303">
        <ele>212.182</ele>
        <time>1970-01-01T01:00:00Z</time>
      </trkpt>
      <trkpt lat="57.462903" lon="15.557249">
        <ele>212</ele>
        <time>1970-01-01T01:00:00Z</time>
      </trkpt>
      <trkpt lat="57.462895" lon="15.557196">
        <ele>211.818</ele>
        <time>1970-01-01T01:00:00Z</time>
      </trkpt>
      <trkpt lat="57.462884" lon="15.557144">
        <ele>211.636</ele>
        <time>1970-01-01T01:00:00Z</time>
      </trkpt>
      <trkpt lat="57.462872" lon="15.557092">
        <ele>211.455</ele>
        <time>1970-01-01T01:00:00Z</time>
      </trkpt>
      <trkpt lat="57.462858" lon="15.557042">
        <ele>211.364</ele>
        <time>1970-01-01T01:00:00Z</time>
      </trkpt>
      <trkpt lat="57.462843" lon="15.556992">
        <ele>211.273</ele>
        <time>1970-01-01T01:00:00Z</time>
      </trkpt>
      <trkpt lat="57.462826" lon="15.556944">
        <ele>211.091</ele>
        <time>1970-01-01T01:00:00Z</time>
      </trkpt>
      <trkpt lat="57.462808" lon="15.556896">
        <ele>211</ele>
        <time>1970-01-01T01:00:00Z</time>
      </trkpt>
      <trkpt lat="57.462789" lon="15.55685">
        <ele>210.909</ele>
        <time>1970-01-01T01:00:00Z</time>
      </trkpt>
      <trkpt lat="57.462769" lon="15.556804">
        <ele>210.909</ele>
        <time>1970-01-01T01:00:00Z</time>
      </trkpt>
      <trkpt lat="57.462749" lon="15.556759">
        <ele>210.909</ele>
        <time>1970-01-01T01:00:00Z</time>
      </trkpt>
      <trkpt lat="57.462729" lon="15.556715">
        <ele>210.909</ele>
        <time>1970-01-01T01:00:00Z</time>
      </trkpt>
      <trkpt lat="57.462708" lon="15.556671">
        <ele>210.909</ele>
        <time>1970-01-01T01:00:00Z</time>
      </trkpt>
      <trkpt lat="57.462688" lon="15.556629">
        <ele>210.909</ele>
        <time>1970-01-01T01:00:00Z</time>
      </trkpt>
      <trkpt lat="57.462668" lon="15.556587">
        <ele>210.909</ele>
        <time>1970-01-01T01:00:00Z</time>
      </trkpt>
      <trkpt lat="57.462648" lon="15.556546">
        <ele>210.909</ele>
        <time>1970-01-01T01:00:00Z</time>
      </trkpt>
      <trkpt lat="57.462628" lon="15.556505">
        <ele>211</ele>
        <time>1970-01-01T01:00:00Z</time>
      </trkpt>
      <trkpt lat="57.462609" lon="15.556465">
        <ele>211.182</ele>
        <time>1970-01-01T01:00:00Z</time>
      </trkpt>
      <trkpt lat="57.46259" lon="15.556425">
        <ele>211.273</ele>
        <time>1970-01-01T01:00:00Z</time>
      </trkpt>
      <trkpt lat="57.462571" lon="15.556386">
        <ele>211.364</ele>
        <time>1970-01-01T01:00:00Z</time>
      </trkpt>
      <trkpt lat="57.462552" lon="15.556346">
        <ele>211.455</ele>
        <time>1970-01-01T01:00:00Z</time>
      </trkpt>
      <trkpt lat="57.462534" lon="15.556307">
        <ele>211.545</ele>
        <time>1970-01-01T01:00:00Z</time>
      </trkpt>
      <trkpt lat="57.462516" lon="15.556268">
        <ele>211.636</ele>
        <time>1970-01-01T01:00:00Z</time>
      </trkpt>
      <trkpt lat="57.462499" lon="15.556229">
        <ele>211.818</ele>
        <time>1970-01-01T01:00:00Z</time>
      </trkpt>
      <trkpt lat="57.462482" lon="15.55619">
        <ele>212</ele>
        <time>1970-01-01T01:00:00Z</time>
      </trkpt>
      <trkpt lat="57.462466" lon="15.556151">
        <ele>212.182</ele>
        <time>1970-01-01T01:00:00Z</time>
      </trkpt>
      <trkpt lat="57.462449" lon="15.556111">
        <ele>212.364</ele>
        <time>1970-01-01T01:00:00Z</time>
      </trkpt>
      <trkpt lat="57.462434" lon="15.556071">
        <ele>212.455</ele>
        <time>1970-01-01T01:00:00Z</time>
      </trkpt>
      <trkpt lat="57.462418" lon="15.55603">
        <ele>212.545</ele>
        <time>1970-01-01T01:00:00Z</time>
      </trkpt>
      <trkpt lat="57.462404" lon="15.555989">
        <ele>212.636</ele>
        <time>1970-01-01T01:00:00Z</time>
      </trkpt>
      <trkpt lat="57.462389" lon="15.555947">
        <ele>212.727</ele>
        <time>1970-01-01T01:00:00Z</time>
      </trkpt>
      <trkpt lat="57.462374" lon="15.555905">
        <ele>212.818</ele>
        <time>1970-01-01T01:00:00Z</time>
      </trkpt>
      <trkpt lat="57.46236" lon="15.555862">
        <ele>212.909</ele>
        <time>1970-01-01T01:00:00Z</time>
      </trkpt>
      <trkpt lat="57.462346" lon="15.55582">
        <ele>213</ele>
        <time>1970-01-01T01:00:00Z</time>
      </trkpt>
      <trkpt lat="57.462332" lon="15.555778">
        <ele>213</ele>
        <time>1970-01-01T01:00:00Z</time>
      </trkpt>
      <trkpt lat="57.462318" lon="15.555736">
        <ele>213</ele>
        <time>1970-01-01T01:00:00Z</time>
      </trkpt>
      <trkpt lat="57.462304" lon="15.555694">
        <ele>213</ele>
        <time>1970-01-01T01:00:00Z</time>
      </trkpt>
      <trkpt lat="57.462291" lon="15.555652">
        <ele>213</ele>
        <time>1970-01-01T01:00:00Z</time>
      </trkpt>
      <trkpt lat="57.462277" lon="15.55561">
        <ele>212.909</ele>
        <time>1970-01-01T01:00:00Z</time>
      </trkpt>
      <trkpt lat="57.462263" lon="15.555568">
        <ele>212.818</ele>
        <time>1970-01-01T01:00:00Z</time>
      </trkpt>
      <trkpt lat="57.462249" lon="15.555526">
        <ele>212.727</ele>
        <time>1970-01-01T01:00:00Z</time>
      </trkpt>
      <trkpt lat="57.462235" lon="15.555484">
        <ele>212.636</ele>
        <time>1970-01-01T01:00:00Z</time>
      </trkpt>
      <trkpt lat="57.462221" lon="15.555442">
        <ele>212.545</ele>
        <time>1970-01-01T01:00:00Z</time>
      </trkpt>
      <trkpt lat="57.462207" lon="15.555399">
        <ele>212.455</ele>
        <time>1970-01-01T01:00:00Z</time>
      </trkpt>
      <trkpt lat="57.462193" lon="15.555357">
        <ele>212.364</ele>
        <time>1970-01-01T01:00:00Z</time>
      </trkpt>
      <trkpt lat="57.462178" lon="15.555313">
        <ele>212.273</ele>
        <time>1970-01-01T01:00:00Z</time>
      </trkpt>
      <trkpt lat="57.462164" lon="15.55527">
        <ele>212.182</ele>
        <time>1970-01-01T01:00:00Z</time>
      </trkpt>
      <trkpt lat="57.462149" lon="15.555227">
        <ele>212.182</ele>
        <time>1970-01-01T01:00:00Z</time>
      </trkpt>
      <trkpt lat="57.462134" lon="15.555183">
        <ele>212.182</ele>
        <time>1970-01-01T01:00:00Z</time>
      </trkpt>
      <trkpt lat="57.462119" lon="15.555139">
        <ele>212.273</ele>
        <time>1970-01-01T01:00:00Z</time>
      </trkpt>
      <trkpt lat="57.462105" lon="15.555094">
        <ele>212.364</ele>
        <time>1970-01-01T01:00:00Z</time>
      </trkpt>
      <trkpt lat="57.46209" lon="15.55505">
        <ele>212.455</ele>
        <time>1970-01-01T01:00:00Z</time>
      </trkpt>
      <trkpt lat="57.462075" lon="15.555005">
        <ele>212.545</ele>
        <time>1970-01-01T01:00:00Z</time>
      </trkpt>
      <trkpt lat="57.46206" lon="15.554961">
        <ele>212.636</ele>
        <time>1970-01-01T01:00:00Z</time>
      </trkpt>
      <trkpt lat="57.462045" lon="15.554916">
        <ele>212.727</ele>
        <time>1970-01-01T01:00:00Z</time>
      </trkpt>
      <trkpt lat="57.462031" lon="15.554871">
        <ele>212.818</ele>
        <time>1970-01-01T01:00:00Z</time>
      </trkpt>
      <trkpt lat="57.462016" lon="15.554826">
        <ele>212.909</ele>
        <time>1970-01-01T01:00:00Z</time>
      </trkpt>
      <trkpt lat="57.462001" lon="15.554781">
        <ele>213</ele>
        <time>1970-01-01T01:00:00Z</time>
      </trkpt>
      <trkpt lat="57.461987" lon="15.554736">
        <ele>213</ele>
        <time>1970-01-01T01:00:00Z</time>
      </trkpt>
      <trkpt lat="57.461973" lon="15.554691">
        <ele>213</ele>
        <time>1970-01-01T01:00:00Z</time>
      </trkpt>
      <trkpt lat="57.46196" lon="15.554645">
        <ele>213</ele>
        <time>1970-01-01T01:00:00Z</time>
      </trkpt>
      <trkpt lat="57.461947" lon="15.554598">
        <ele>213</ele>
        <time>1970-01-01T01:00:00Z</time>
      </trkpt>
      <trkpt lat="57.461934" lon="15.554552">
        <ele>213</ele>
        <time>1970-01-01T01:00:00Z</time>
      </trkpt>
      <trkpt lat="57.461922" lon="15.554504">
        <ele>213</ele>
        <time>1970-01-01T01:00:00Z</time>
      </trkpt>
      <trkpt lat="57.461911" lon="15.554456">
        <ele>212.909</ele>
        <time>1970-01-01T01:00:00Z</time>
      </trkpt>
      <trkpt lat="57.461901" lon="15.554407">
        <ele>212.818</ele>
        <time>1970-01-01T01:00:00Z</time>
      </trkpt>
      <trkpt lat="57.461891" lon="15.554357">
        <ele>212.727</ele>
        <time>1970-01-01T01:00:00Z</time>
      </trkpt>
      <trkpt lat="57.461882" lon="15.554306">
        <ele>212.636</ele>
        <time>1970-01-01T01:00:00Z</time>
      </trkpt>
      <trkpt lat="57.461875" lon="15.554254">
        <ele>212.545</ele>
        <time>1970-01-01T01:00:00Z</time>
      </trkpt>
      <trkpt lat="57.461868" lon="15.554202">
        <ele>212.455</ele>
        <time>1970-01-01T01:00:00Z</time>
      </trkpt>
      <trkpt lat="57.461863" lon="15.554148">
        <ele>212.364</ele>
        <time>1970-01-01T01:00:00Z</time>
      </trkpt>
      <trkpt lat="57.461859" lon="15.554094">
        <ele>212.273</ele>
        <time>1970-01-01T01:00:00Z</time>
      </trkpt>
      <trkpt lat="57.461857" lon="15.55404">
        <ele>212.182</ele>
        <time>1970-01-01T01:00:00Z</time>
      </trkpt>
      <trkpt lat="57.461857" lon="15.553985">
        <ele>212.091</ele>
        <time>1970-01-01T01:00:00Z</time>
      </trkpt>
      <trkpt lat="57.461858" lon="15.55393">
        <ele>211.909</ele>
        <time>1970-01-01T01:00:00Z</time>
      </trkpt>
      <trkpt lat="57.461861" lon="15.553875">
        <ele>211.818</ele>
        <time>1970-01-01T01:00:00Z</time>
      </trkpt>
      <trkpt lat="57.461867" lon="15.553821">
        <ele>211.727</ele>
        <time>1970-01-01T01:00:00Z</time>
      </trkpt>
      <trkpt lat="57.461875" lon="15.553769">
        <ele>211.636</ele>
        <time>1970-01-01T01:00:00Z</time>
      </trkpt>
      <trkpt lat="57.461885" lon="15.553718">
        <ele>211.545</ele>
        <time>1970-01-01T01:00:00Z</time>
      </trkpt>
      <trkpt lat="57.461897" lon="15.553669">
        <ele>211.455</ele>
        <time>1970-01-01T01:00:00Z</time>
      </trkpt>
      <trkpt lat="57.461911" lon="15.553621">
        <ele>211.364</ele>
        <time>1970-01-01T01:00:00Z</time>
      </trkpt>
      <trkpt lat="57.461927" lon="15.553574">
        <ele>211.273</ele>
        <time>1970-01-01T01:00:00Z</time>
      </trkpt>
      <trkpt lat="57.461945" lon="15.553529">
        <ele>211.182</ele>
        <time>1970-01-01T01:00:00Z</time>
      </trkpt>
      <trkpt lat="57.461963" lon="15.553485">
        <ele>211.091</ele>
        <time>1970-01-01T01:00:00Z</time>
      </trkpt>
      <trkpt lat="57.461983" lon="15.553442">
        <ele>211</ele>
        <time>1970-01-01T01:00:00Z</time>
      </trkpt>
      <trkpt lat="57.462004" lon="15.5534">
        <ele>211</ele>
        <time>1970-01-01T01:00:00Z</time>
      </trkpt>
      <trkpt lat="57.462025" lon="15.553359">
        <ele>211</ele>
        <time>1970-01-01T01:00:00Z</time>
      </trkpt>
      <trkpt lat="57.462047" lon="15.553319">
        <ele>210.909</ele>
        <time>1970-01-01T01:00:00Z</time>
      </trkpt>
      <trkpt lat="57.462069" lon="15.553279">
        <ele>210.818</ele>
        <time>1970-01-01T01:00:00Z</time>
      </trkpt>
      <trkpt lat="57.46209" lon="15.55324">
        <ele>210.727</ele>
        <time>1970-01-01T01:00:00Z</time>
      </trkpt>
      <trkpt lat="57.462112" lon="15.553202">
        <ele>210.636</ele>
        <time>1970-01-01T01:00:00Z</time>
      </trkpt>
      <trkpt lat="57.462134" lon="15.553164">
        <ele>210.545</ele>
        <time>1970-01-01T01:00:00Z</time>
      </trkpt>
      <trkpt lat="57.462155" lon="15.553126">
        <ele>210.455</ele>
        <time>1970-01-01T01:00:00Z</time>
      </trkpt>
      <trkpt lat="57.462176" lon="15.553088">
        <ele>210.364</ele>
        <time>1970-01-01T01:00:00Z</time>
      </trkpt>
      <trkpt lat="57.462198" lon="15.55305">
        <ele>210.273</ele>
        <time>1970-01-01T01:00:00Z</time>
      </trkpt>
      <trkpt lat="57.462219" lon="15.553012">
        <ele>210.182</ele>
        <time>1970-01-01T01:00:00Z</time>
      </trkpt>
      <trkpt lat="57.462239" lon="15.552974">
        <ele>210.091</ele>
        <time>1970-01-01T01:00:00Z</time>
      </trkpt>
      <trkpt lat="57.46226" lon="15.552936">
        <ele>210</ele>
        <time>1970-01-01T01:00:00Z</time>
      </trkpt>
      <trkpt lat="57.46228" lon="15.552897">
        <ele>210</ele>
        <time>1970-01-01T01:00:00Z</time>
      </trkpt>
      <trkpt lat="57.462301" lon="15.552858">
        <ele>210</ele>
        <time>1970-01-01T01:00:00Z</time>
      </trkpt>
      <trkpt lat="57.462321" lon="15.552818">
        <ele>210</ele>
        <time>1970-01-01T01:00:00Z</time>
      </trkpt>
      <trkpt lat="57.46234" lon="15.552778">
        <ele>210</ele>
        <time>1970-01-01T01:00:00Z</time>
      </trkpt>
      <trkpt lat="57.462359" lon="15.552737">
        <ele>210</ele>
        <time>1970-01-01T01:00:00Z</time>
      </trkpt>
      <trkpt lat="57.462378" lon="15.552696">
        <ele>210</ele>
        <time>1970-01-01T01:00:00Z</time>
      </trkpt>
      <trkpt lat="57.462397" lon="15.552654">
        <ele>210</ele>
        <time>1970-01-01T01:00:00Z</time>
      </trkpt>
      <trkpt lat="57.462415" lon="15.552611">
        <ele>210</ele>
        <time>1970-01-01T01:00:00Z</time>
      </trkpt>
      <trkpt lat="57.462432" lon="15.552568">
        <ele>210</ele>
        <time>1970-01-01T01:00:00Z</time>
      </trkpt>
      <trkpt lat="57.462449" lon="15.552524">
        <ele>210</ele>
        <time>1970-01-01T01:00:00Z</time>
      </trkpt>
      <trkpt lat="57.462465" lon="15.552479">
        <ele>210</ele>
        <time>1970-01-01T01:00:00Z</time>
      </trkpt>
      <trkpt lat="57.46248" lon="15.552434">
        <ele>210</ele>
        <time>1970-01-01T01:00:00Z</time>
      </trkpt>
      <trkpt lat="57.462494" lon="15.552388">
        <ele>210</ele>
        <time>1970-01-01T01:00:00Z</time>
      </trkpt>
      <trkpt lat="57.462508" lon="15.552342">
        <ele>210</ele>
        <time>1970-01-01T01:00:00Z</time>
      </trkpt>
      <trkpt lat="57.462521" lon="15.552295">
        <ele>210.091</ele>
        <time>1970-01-01T01:00:00Z</time>
      </trkpt>
      <trkpt lat="57.462534" lon="15.552248">
        <ele>210.182</ele>
        <time>1970-01-01T01:00:00Z</time>
      </trkpt>
      <trkpt lat="57.462546" lon="15.5522">
        <ele>210.273</ele>
        <time>1970-01-01T01:00:00Z</time>
      </trkpt>
      <trkpt lat="57.462557" lon="15.552152">
        <ele>210.364</ele>
        <time>1970-01-01T01:00:00Z</time>
      </trkpt>
      <trkpt lat="57.462567" lon="15.552105">
        <ele>210.455</ele>
        <time>1970-01-01T01:00:00Z</time>
      </trkpt>
      <trkpt lat="57.462577" lon="15.552057">
        <ele>210.545</ele>
        <time>1970-01-01T01:00:00Z</time>
      </trkpt>
      <trkpt lat="57.462586" lon="15.552009">
        <ele>210.636</ele>
        <time>1970-01-01T01:00:00Z</time>
      </trkpt>
      <trkpt lat="57.462595" lon="15.55196">
        <ele>210.727</ele>
        <time>1970-01-01T01:00:00Z</time>
      </trkpt>
      <trkpt lat="57.462603" lon="15.551911">
        <ele>210.818</ele>
        <time>1970-01-01T01:00:00Z</time>
      </trkpt>
      <trkpt lat="57.462611" lon="15.551862">
        <ele>211</ele>
        <time>1970-01-01T01:00:00Z</time>
      </trkpt>
      <trkpt lat="57.462619" lon="15.551813">
        <ele>211.182</ele>
        <time>1970-01-01T01:00:00Z</time>
      </trkpt>
      <trkpt lat="57.462627" lon="15.551763">
        <ele>211.273</ele>
        <time>1970-01-01T01:00:00Z</time>
      </trkpt>
      <trkpt lat="57.462635" lon="15.551714">
        <ele>211.364</ele>
        <time>1970-01-01T01:00:00Z</time>
      </trkpt>
      <trkpt lat="57.462645" lon="15.551665">
        <ele>211.455</ele>
        <time>1970-01-01T01:00:00Z</time>
      </trkpt>
      <trkpt lat="57.462655" lon="15.551616">
        <ele>211.545</ele>
        <time>1970-01-01T01:00:00Z</time>
      </trkpt>
      <trkpt lat="57.462666" lon="15.551569">
        <ele>211.636</ele>
        <time>1970-01-01T01:00:00Z</time>
      </trkpt>
      <trkpt lat="57.462679" lon="15.551522">
        <ele>211.727</ele>
        <time>1970-01-01T01:00:00Z</time>
      </trkpt>
      <trkpt lat="57.462693" lon="15.551476">
        <ele>211.818</ele>
        <time>1970-01-01T01:00:00Z</time>
      </trkpt>
      <trkpt lat="57.462708" lon="15.55143">
        <ele>211.909</ele>
        <time>1970-01-01T01:00:00Z</time>
      </trkpt>
      <trkpt lat="57.462724" lon="15.551386">
        <ele>212</ele>
        <time>1970-01-01T01:00:00Z</time>
      </trkpt>
      <trkpt lat="57.462741" lon="15.551342">
        <ele>212</ele>
        <time>1970-01-01T01:00:00Z</time>
      </trkpt>
      <trkpt lat="57.462759" lon="15.551299">
        <ele>212</ele>
        <time>1970-01-01T01:00:00Z</time>
      </trkpt>
      <trkpt lat="57.462776" lon="15.551257">
        <ele>212</ele>
        <time>1970-01-01T01:00:00Z</time>
      </trkpt>
      <trkpt lat="57.462793" lon="15.551217">
        <ele>212</ele>
        <time>1970-01-01T01:00:00Z</time>
      </trkpt>
      <trkpt lat="57.46281" lon="15.551177">
        <ele>212</ele>
        <time>1970-01-01T01:00:00Z</time>
      </trkpt>
      <trkpt lat="57.462826" lon="15.551136">
        <ele>212</ele>
        <time>1970-01-01T01:00:00Z</time>
      </trkpt>
      <trkpt lat="57.462842" lon="15.551095">
        <ele>212</ele>
        <time>1970-01-01T01:00:00Z</time>
      </trkpt>
      <trkpt lat="57.462859" lon="15.551053">
        <ele>212</ele>
        <time>1970-01-01T01:00:00Z</time>
      </trkpt>
      <trkpt lat="57.462876" lon="15.55101">
        <ele>212</ele>
        <time>1970-01-01T01:00:00Z</time>
      </trkpt>
      <trkpt lat="57.462893" lon="15.550967">
        <ele>212</ele>
        <time>1970-01-01T01:00:00Z</time>
      </trkpt>
      <trkpt lat="57.462911" lon="15.550926">
        <ele>212</ele>
        <time>1970-01-01T01:00:00Z</time>
      </trkpt>
      <trkpt lat="57.462929" lon="15.550885">
        <ele>212</ele>
        <time>1970-01-01T01:00:00Z</time>
      </trkpt>
      <trkpt lat="57.462947" lon="15.550846">
        <ele>212</ele>
        <time>1970-01-01T01:00:00Z</time>
      </trkpt>
      <trkpt lat="57.462965" lon="15.550807">
        <ele>212</ele>
        <time>1970-01-01T01:00:00Z</time>
      </trkpt>
      <trkpt lat="57.462984" lon="15.550768">
        <ele>212</ele>
        <time>1970-01-01T01:00:00Z</time>
      </trkpt>
      <trkpt lat="57.463003" lon="15.550729">
        <ele>212</ele>
        <time>1970-01-01T01:00:00Z</time>
      </trkpt>
      <trkpt lat="57.463022" lon="15.550689">
        <ele>212</ele>
        <time>1970-01-01T01:00:00Z</time>
      </trkpt>
      <trkpt lat="57.46304" lon="15.550649">
        <ele>212</ele>
        <time>1970-01-01T01:00:00Z</time>
      </trkpt>
      <trkpt lat="57.463059" lon="15.550608">
        <ele>212</ele>
        <time>1970-01-01T01:00:00Z</time>
      </trkpt>
      <trkpt lat="57.463078" lon="15.550567">
        <ele>212</ele>
        <time>1970-01-01T01:00:00Z</time>
      </trkpt>
      <trkpt lat="57.463096" lon="15.550525">
        <ele>212</ele>
        <time>1970-01-01T01:00:00Z</time>
      </trkpt>
      <trkpt lat="57.463114" lon="15.550484">
        <ele>212</ele>
        <time>1970-01-01T01:00:00Z</time>
      </trkpt>
      <trkpt lat="57.463131" lon="15.550444">
        <ele>212</ele>
        <time>1970-01-01T01:00:00Z</time>
      </trkpt>
      <trkpt lat="57.463148" lon="15.550404">
        <ele>212</ele>
        <time>1970-01-01T01:00:00Z</time>
      </trkpt>
      <trkpt lat="57.463165" lon="15.550364">
        <ele>212</ele>
        <time>1970-01-01T01:00:00Z</time>
      </trkpt>
      <trkpt lat="57.463182" lon="15.550325">
        <ele>212</ele>
        <time>1970-01-01T01:00:00Z</time>
      </trkpt>
      <trkpt lat="57.463198" lon="15.550286">
        <ele>211.909</ele>
        <time>1970-01-01T01:00:00Z</time>
      </trkpt>
      <trkpt lat="57.463215" lon="15.550247">
        <ele>211.818</ele>
        <time>1970-01-01T01:00:00Z</time>
      </trkpt>
      <trkpt lat="57.463231" lon="15.550208">
        <ele>211.727</ele>
        <time>1970-01-01T01:00:00Z</time>
      </trkpt>
      <trkpt lat="57.463247" lon="15.550169">
        <ele>211.636</ele>
        <time>1970-01-01T01:00:00Z</time>
      </trkpt>
      <trkpt lat="57.463264" lon="15.55013">
        <ele>211.545</ele>
        <time>1970-01-01T01:00:00Z</time>
      </trkpt>
      <trkpt lat="57.46328" lon="15.550091">
        <ele>211.455</ele>
        <time>1970-01-01T01:00:00Z</time>
      </trkpt>
      <trkpt lat="57.463297" lon="15.550051">
        <ele>211.364</ele>
        <time>1970-01-01T01:00:00Z</time>
      </trkpt>
      <trkpt lat="57.463313" lon="15.550011">
        <ele>211.182</ele>
        <time>1970-01-01T01:00:00Z</time>
      </trkpt>
      <trkpt lat="57.46333" lon="15.549971">
        <ele>211</ele>
        <time>1970-01-01T01:00:00Z</time>
      </trkpt>
      <trkpt lat="57.463347" lon="15.549931">
        <ele>210.818</ele>
        <time>1970-01-01T01:00:00Z</time>
      </trkpt>
      <trkpt lat="57.463365" lon="15.54989">
        <ele>210.636</ele>
        <time>1970-01-01T01:00:00Z</time>
      </trkpt>
      <trkpt lat="57.463382" lon="15.549849">
        <ele>210.545</ele>
        <time>1970-01-01T01:00:00Z</time>
      </trkpt>
      <trkpt lat="57.4634" lon="15.549808">
        <ele>210.364</ele>
        <time>1970-01-01T01:00:00Z</time>
      </trkpt>
      <trkpt lat="57.463417" lon="15.549767">
        <ele>210.182</ele>
        <time>1970-01-01T01:00:00Z</time>
      </trkpt>
      <trkpt lat="57.463435" lon="15.549725">
        <ele>210</ele>
        <time>1970-01-01T01:00:00Z</time>
      </trkpt>
      <trkpt lat="57.463453" lon="15.549684">
        <ele>209.818</ele>
        <time>1970-01-01T01:00:00Z</time>
      </trkpt>
      <trkpt lat="57.463471" lon="15.549643">
        <ele>209.636</ele>
        <time>1970-01-01T01:00:00Z</time>
      </trkpt>
      <trkpt lat="57.463489" lon="15.549602">
        <ele>209.455</ele>
        <time>1970-01-01T01:00:00Z</time>
      </trkpt>
      <trkpt lat="57.463507" lon="15.549561">
        <ele>209.364</ele>
        <time>1970-01-01T01:00:00Z</time>
      </trkpt>
      <trkpt lat="57.463525" lon="15.54952">
        <ele>209.182</ele>
        <time>1970-01-01T01:00:00Z</time>
      </trkpt>
      <trkpt lat="57.463543" lon="15.549479">
        <ele>209</ele>
        <time>1970-01-01T01:00:00Z</time>
      </trkpt>
      <trkpt lat="57.463561" lon="15.549437">
        <ele>208.818</ele>
        <time>1970-01-01T01:00:00Z</time>
      </trkpt>
      <trkpt lat="57.463579" lon="15.549396">
        <ele>208.636</ele>
        <time>1970-01-01T01:00:00Z</time>
      </trkpt>
      <trkpt lat="57.463597" lon="15.549353">
        <ele>208.545</ele>
        <time>1970-01-01T01:00:00Z</time>
      </trkpt>
      <trkpt lat="57.463615" lon="15.549311">
        <ele>208.455</ele>
        <time>1970-01-01T01:00:00Z</time>
      </trkpt>
      <trkpt lat="57.463634" lon="15.549267">
        <ele>208.364</ele>
        <time>1970-01-01T01:00:00Z</time>
      </trkpt>
      <trkpt lat="57.463652" lon="15.549223">
        <ele>208.273</ele>
        <time>1970-01-01T01:00:00Z</time>
      </trkpt>
      <trkpt lat="57.46367" lon="15.549178">
        <ele>208.182</ele>
        <time>1970-01-01T01:00:00Z</time>
      </trkpt>
      <trkpt lat="57.463689" lon="15.549131">
        <ele>208.091</ele>
        <time>1970-01-01T01:00:00Z</time>
      </trkpt>
      <trkpt lat="57.463707" lon="15.549084">
        <ele>208</ele>
        <time>1970-01-01T01:00:00Z</time>
      </trkpt>
      <trkpt lat="57.463726" lon="15.549036">
        <ele>208</ele>
        <time>1970-01-01T01:00:00Z</time>
      </trkpt>
      <trkpt lat="57.463744" lon="15.548988">
        <ele>208</ele>
        <time>1970-01-01T01:00:00Z</time>
      </trkpt>
      <trkpt lat="57.463763" lon="15.54894">
        <ele>208</ele>
        <time>1970-01-01T01:00:00Z</time>
      </trkpt>
      <trkpt lat="57.463782" lon="15.548891">
        <ele>208</ele>
        <time>1970-01-01T01:00:00Z</time>
      </trkpt>
      <trkpt lat="57.4638" lon="15.548842">
        <ele>208</ele>
        <time>1970-01-01T01:00:00Z</time>
      </trkpt>
      <trkpt lat="57.463819" lon="15.548794">
        <ele>208</ele>
        <time>1970-01-01T01:00:00Z</time>
      </trkpt>
      <trkpt lat="57.463838" lon="15.548746">
        <ele>207.909</ele>
        <time>1970-01-01T01:00:00Z</time>
      </trkpt>
      <trkpt lat="57.463857" lon="15.548699">
        <ele>207.818</ele>
        <time>1970-01-01T01:00:00Z</time>
      </trkpt>
      <trkpt lat="57.463876" lon="15.548653">
        <ele>207.727</ele>
        <time>1970-01-01T01:00:00Z</time>
      </trkpt>
      <trkpt lat="57.463894" lon="15.548608">
        <ele>207.636</ele>
        <time>1970-01-01T01:00:00Z</time>
      </trkpt>
      <trkpt lat="57.463913" lon="15.548563">
        <ele>207.545</ele>
        <time>1970-01-01T01:00:00Z</time>
      </trkpt>
      <trkpt lat="57.463932" lon="15.54852">
        <ele>207.455</ele>
        <time>1970-01-01T01:00:00Z</time>
      </trkpt>
      <trkpt lat="57.463951" lon="15.548476">
        <ele>207.364</ele>
        <time>1970-01-01T01:00:00Z</time>
      </trkpt>
      <trkpt lat="57.46397" lon="15.548434">
        <ele>207.273</ele>
        <time>1970-01-01T01:00:00Z</time>
      </trkpt>
      <trkpt lat="57.463989" lon="15.548391">
        <ele>207.182</ele>
        <time>1970-01-01T01:00:00Z</time>
      </trkpt>
      <trkpt lat="57.464008" lon="15.548349">
        <ele>207.091</ele>
        <time>1970-01-01T01:00:00Z</time>
      </trkpt>
      <trkpt lat="57.464027" lon="15.548307">
        <ele>207</ele>
        <time>1970-01-01T01:00:00Z</time>
      </trkpt>
      <trkpt lat="57.464045" lon="15.548264">
        <ele>207</ele>
        <time>1970-01-01T01:00:00Z</time>
      </trkpt>
      <trkpt lat="57.464064" lon="15.548222">
        <ele>207</ele>
        <time>1970-01-01T01:00:00Z</time>
      </trkpt>
      <trkpt lat="57.464083" lon="15.548178">
        <ele>207</ele>
        <time>1970-01-01T01:00:00Z</time>
      </trkpt>
      <trkpt lat="57.464101" lon="15.548134">
        <ele>207</ele>
        <time>1970-01-01T01:00:00Z</time>
      </trkpt>
      <trkpt lat="57.46412" lon="15.54809">
        <ele>207</ele>
        <time>1970-01-01T01:00:00Z</time>
      </trkpt>
      <trkpt lat="57.464138" lon="15.548045">
        <ele>207</ele>
        <time>1970-01-01T01:00:00Z</time>
      </trkpt>
      <trkpt lat="57.464157" lon="15.548">
        <ele>207</ele>
        <time>1970-01-01T01:00:00Z</time>
      </trkpt>
      <trkpt lat="57.464175" lon="15.547955">
        <ele>207</ele>
        <time>1970-01-01T01:00:00Z</time>
      </trkpt>
      <trkpt lat="57.464194" lon="15.54791">
        <ele>207</ele>
        <time>1970-01-01T01:00:00Z</time>
      </trkpt>
      <trkpt lat="57.464212" lon="15.547865">
        <ele>207</ele>
        <time>1970-01-01T01:00:00Z</time>
      </trkpt>
      <trkpt lat="57.464231" lon="15.547821">
        <ele>207</ele>
        <time>1970-01-01T01:00:00Z</time>
      </trkpt>
      <trkpt lat="57.46425" lon="15.547778">
        <ele>207</ele>
        <time>1970-01-01T01:00:00Z</time>
      </trkpt>
      <trkpt lat="57.464269" lon="15.547735">
        <ele>207</ele>
        <time>1970-01-01T01:00:00Z</time>
      </trkpt>
      <trkpt lat="57.464288" lon="15.547694">
        <ele>207</ele>
        <time>1970-01-01T01:00:00Z</time>
      </trkpt>
      <trkpt lat="57.464308" lon="15.547653">
        <ele>207</ele>
        <time>1970-01-01T01:00:00Z</time>
      </trkpt>
      <trkpt lat="57.464327" lon="15.547613">
        <ele>207</ele>
        <time>1970-01-01T01:00:00Z</time>
      </trkpt>
      <trkpt lat="57.464347" lon="15.547573">
        <ele>207</ele>
        <time>1970-01-01T01:00:00Z</time>
      </trkpt>
      <trkpt lat="57.464366" lon="15.547533">
        <ele>207</ele>
        <time>1970-01-01T01:00:00Z</time>
      </trkpt>
      <trkpt lat="57.464386" lon="15.547492">
        <ele>206.909</ele>
        <time>1970-01-01T01:00:00Z</time>
      </trkpt>
      <trkpt lat="57.464405" lon="15.547449">
        <ele>206.818</ele>
        <time>1970-01-01T01:00:00Z</time>
      </trkpt>
      <trkpt lat="57.464424" lon="15.547404">
        <ele>206.727</ele>
        <time>1970-01-01T01:00:00Z</time>
      </trkpt>
      <trkpt lat="57.464443" lon="15.547358">
        <ele>206.636</ele>
        <time>1970-01-01T01:00:00Z</time>
      </trkpt>
      <trkpt lat="57.464461" lon="15.547311">
        <ele>206.545</ele>
        <time>1970-01-01T01:00:00Z</time>
      </trkpt>
      <trkpt lat="57.46448" lon="15.547264">
        <ele>206.364</ele>
        <time>1970-01-01T01:00:00Z</time>
      </trkpt>
      <trkpt lat="57.464499" lon="15.547218">
        <ele>206.182</ele>
        <time>1970-01-01T01:00:00Z</time>
      </trkpt>
      <trkpt lat="57.464517" lon="15.547174">
        <ele>206</ele>
        <time>1970-01-01T01:00:00Z</time>
      </trkpt>
      <trkpt lat="57.464536" lon="15.54713">
        <ele>205.727</ele>
        <time>1970-01-01T01:00:00Z</time>
      </trkpt>
      <trkpt lat="57.464555" lon="15.547088">
        <ele>205.455</ele>
        <time>1970-01-01T01:00:00Z</time>
      </trkpt>
      <trkpt lat="57.464574" lon="15.547047">
        <ele>205.182</ele>
        <time>1970-01-01T01:00:00Z</time>
      </trkpt>
      <trkpt lat="57.464594" lon="15.547006">
        <ele>204.909</ele>
        <time>1970-01-01T01:00:00Z</time>
      </trkpt>
      <trkpt lat="57.464613" lon="15.546967">
        <ele>204.636</ele>
        <time>1970-01-01T01:00:00Z</time>
      </trkpt>
      <trkpt lat="57.464633" lon="15.546928">
        <ele>204.364</ele>
        <time>1970-01-01T01:00:00Z</time>
      </trkpt>
      <trkpt lat="57.464653" lon="15.54689">
        <ele>204.091</ele>
        <time>1970-01-01T01:00:00Z</time>
      </trkpt>
      <trkpt lat="57.464674" lon="15.546852">
        <ele>203.818</ele>
        <time>1970-01-01T01:00:00Z</time>
      </trkpt>
      <trkpt lat="57.464695" lon="15.546815">
        <ele>203.636</ele>
        <time>1970-01-01T01:00:00Z</time>
      </trkpt>
      <trkpt lat="57.464716" lon="15.546777">
        <ele>203.364</ele>
        <time>1970-01-01T01:00:00Z</time>
      </trkpt>
      <trkpt lat="57.464738" lon="15.54674">
        <ele>203.091</ele>
        <time>1970-01-01T01:00:00Z</time>
      </trkpt>
      <trkpt lat="57.46476" lon="15.546703">
        <ele>202.909</ele>
        <time>1970-01-01T01:00:00Z</time>
      </trkpt>
      <trkpt lat="57.464782" lon="15.546667">
        <ele>202.727</ele>
        <time>1970-01-01T01:00:00Z</time>
      </trkpt>
      <trkpt lat="57.464805" lon="15.546631">
        <ele>202.545</ele>
        <time>1970-01-01T01:00:00Z</time>
      </trkpt>
      <trkpt lat="57.464827" lon="15.546596">
        <ele>202.364</ele>
        <time>1970-01-01T01:00:00Z</time>
      </trkpt>
      <trkpt lat="57.46485" lon="15.546561">
        <ele>202.182</ele>
        <time>1970-01-01T01:00:00Z</time>
      </trkpt>
      <trkpt lat="57.464873" lon="15.546528">
        <ele>202</ele>
        <time>1970-01-01T01:00:00Z</time>
      </trkpt>
      <trkpt lat="57.464895" lon="15.546495">
        <ele>201.818</ele>
        <time>1970-01-01T01:00:00Z</time>
      </trkpt>
      <trkpt lat="57.464917" lon="15.546464">
        <ele>201.636</ele>
        <time>1970-01-01T01:00:00Z</time>
      </trkpt>
      <trkpt lat="57.464939" lon="15.546434">
        <ele>201.455</ele>
        <time>1970-01-01T01:00:00Z</time>
      </trkpt>
      <trkpt lat="57.464961" lon="15.546406">
        <ele>201.364</ele>
        <time>1970-01-01T01:00:00Z</time>
      </trkpt>
      <trkpt lat="57.464982" lon="15.546379">
        <ele>201.273</ele>
        <time>1970-01-01T01:00:00Z</time>
      </trkpt>
      <trkpt lat="57.465003" lon="15.546352">
        <ele>201.182</ele>
        <time>1970-01-01T01:00:00Z</time>
      </trkpt>
      <trkpt lat="57.465024" lon="15.546325">
        <ele>201.091</ele>
        <time>1970-01-01T01:00:00Z</time>
      </trkpt>
      <trkpt lat="57.465046" lon="15.546296">
        <ele>201</ele>
        <time>1970-01-01T01:00:00Z</time>
      </trkpt>
      <trkpt lat="57.465067" lon="15.546265">
        <ele>201</ele>
        <time>1970-01-01T01:00:00Z</time>
      </trkpt>
      <trkpt lat="57.465089" lon="15.546232">
        <ele>201</ele>
        <time>1970-01-01T01:00:00Z</time>
      </trkpt>
      <trkpt lat="57.465111" lon="15.546199">
        <ele>201</ele>
        <time>1970-01-01T01:00:00Z</time>
      </trkpt>
      <trkpt lat="57.465134" lon="15.546165">
        <ele>201</ele>
        <time>1970-01-01T01:00:00Z</time>
      </trkpt>
      <trkpt lat="57.465157" lon="15.54613">
        <ele>201.091</ele>
        <time>1970-01-01T01:00:00Z</time>
      </trkpt>
      <trkpt lat="57.46518" lon="15.546096">
        <ele>201.182</ele>
        <time>1970-01-01T01:00:00Z</time>
      </trkpt>
      <trkpt lat="57.465203" lon="15.546062">
        <ele>201.273</ele>
        <time>1970-01-01T01:00:00Z</time>
      </trkpt>
      <trkpt lat="57.465227" lon="15.546029">
        <ele>201.364</ele>
        <time>1970-01-01T01:00:00Z</time>
      </trkpt>
      <trkpt lat="57.46525" lon="15.545996">
        <ele>201.455</ele>
        <time>1970-01-01T01:00:00Z</time>
      </trkpt>
      <trkpt lat="57.465275" lon="15.545964">
        <ele>201.545</ele>
        <time>1970-01-01T01:00:00Z</time>
      </trkpt>
      <trkpt lat="57.465299" lon="15.545933">
        <ele>201.545</ele>
        <time>1970-01-01T01:00:00Z</time>
      </trkpt>
      <trkpt lat="57.465323" lon="15.545901">
        <ele>201.545</ele>
        <time>1970-01-01T01:00:00Z</time>
      </trkpt>
      <trkpt lat="57.465347" lon="15.54587">
        <ele>201.545</ele>
        <time>1970-01-01T01:00:00Z</time>
      </trkpt>
      <trkpt lat="57.465371" lon="15.545839">
        <ele>201.545</ele>
        <time>1970-01-01T01:00:00Z</time>
      </trkpt>
      <trkpt lat="57.465395" lon="15.545807">
        <ele>201.545</ele>
        <time>1970-01-01T01:00:00Z</time>
      </trkpt>
      <trkpt lat="57.465418" lon="15.545775">
        <ele>201.455</ele>
        <time>1970-01-01T01:00:00Z</time>
      </trkpt>
      <trkpt lat="57.465442" lon="15.545743">
        <ele>201.364</ele>
        <time>1970-01-01T01:00:00Z</time>
      </trkpt>
      <trkpt lat="57.465464" lon="15.54571">
        <ele>201.273</ele>
        <time>1970-01-01T01:00:00Z</time>
      </trkpt>
      <trkpt lat="57.465487" lon="15.545677">
        <ele>201.182</ele>
        <time>1970-01-01T01:00:00Z</time>
      </trkpt>
      <trkpt lat="57.465509" lon="15.545643">
        <ele>201.091</ele>
        <time>1970-01-01T01:00:00Z</time>
      </trkpt>
      <trkpt lat="57.46553" lon="15.54561">
        <ele>201</ele>
        <time>1970-01-01T01:00:00Z</time>
      </trkpt>
      <trkpt lat="57.465551" lon="15.545577">
        <ele>201</ele>
        <time>1970-01-01T01:00:00Z</time>
      </trkpt>
      <trkpt lat="57.465572" lon="15.545545">
        <ele>200.909</ele>
        <time>1970-01-01T01:00:00Z</time>
      </trkpt>
      <trkpt lat="57.465592" lon="15.545513">
        <ele>200.818</ele>
        <time>1970-01-01T01:00:00Z</time>
      </trkpt>
      <trkpt lat="57.465612" lon="15.545482">
        <ele>200.727</ele>
        <time>1970-01-01T01:00:00Z</time>
      </trkpt>
      <trkpt lat="57.465631" lon="15.545451">
        <ele>200.636</ele>
        <time>1970-01-01T01:00:00Z</time>
      </trkpt>
      <trkpt lat="57.46565" lon="15.54542">
        <ele>200.545</ele>
        <time>1970-01-01T01:00:00Z</time>
      </trkpt>
      <trkpt lat="57.465669" lon="15.545388">
        <ele>200.455</ele>
        <time>1970-01-01T01:00:00Z</time>
      </trkpt>
      <trkpt lat="57.465689" lon="15.545355">
        <ele>200.364</ele>
        <time>1970-01-01T01:00:00Z</time>
      </trkpt>
      <trkpt lat="57.465709" lon="15.545321">
        <ele>200.273</ele>
        <time>1970-01-01T01:00:00Z</time>
      </trkpt>
      <trkpt lat="57.465729" lon="15.545287">
        <ele>200.182</ele>
        <time>1970-01-01T01:00:00Z</time>
      </trkpt>
      <trkpt lat="57.465749" lon="15.545252">
        <ele>200.091</ele>
        <time>1970-01-01T01:00:00Z</time>
      </trkpt>
      <trkpt lat="57.46577" lon="15.545217">
        <ele>200</ele>
        <time>1970-01-01T01:00:00Z</time>
      </trkpt>
      <trkpt lat="57.465792" lon="15.545182">
        <ele>200</ele>
        <time>1970-01-01T01:00:00Z</time>
      </trkpt>
      <trkpt lat="57.465814" lon="15.545147">
        <ele>200</ele>
        <time>1970-01-01T01:00:00Z</time>
      </trkpt>
      <trkpt lat="57.465837" lon="15.545112">
        <ele>199.909</ele>
        <time>1970-01-01T01:00:00Z</time>
      </trkpt>
      <trkpt lat="57.46586" lon="15.545078">
        <ele>199.818</ele>
        <time>1970-01-01T01:00:00Z</time>
      </trkpt>
      <trkpt lat="57.465883" lon="15.545043">
        <ele>199.727</ele>
        <time>1970-01-01T01:00:00Z</time>
      </trkpt>
      <trkpt lat="57.465906" lon="15.545008">
        <ele>199.636</ele>
        <time>1970-01-01T01:00:00Z</time>
      </trkpt>
      <trkpt lat="57.465929" lon="15.544973">
        <ele>199.545</ele>
        <time>1970-01-01T01:00:00Z</time>
      </trkpt>
      <trkpt lat="57.465952" lon="15.544938">
        <ele>199.364</ele>
        <time>1970-01-01T01:00:00Z</time>
      </trkpt>
      <trkpt lat="57.465974" lon="15.544903">
        <ele>199.182</ele>
        <time>1970-01-01T01:00:00Z</time>
      </trkpt>
      <trkpt lat="57.465997" lon="15.544867">
        <ele>199</ele>
        <time>1970-01-01T01:00:00Z</time>
      </trkpt>
      <trkpt lat="57.466019" lon="15.544832">
        <ele>198.818</ele>
        <time>1970-01-01T01:00:00Z</time>
      </trkpt>
      <trkpt lat="57.466041" lon="15.544796">
        <ele>198.636</ele>
        <time>1970-01-01T01:00:00Z</time>
      </trkpt>
      <trkpt lat="57.466063" lon="15.54476">
        <ele>198.455</ele>
        <time>1970-01-01T01:00:00Z</time>
      </trkpt>
      <trkpt lat="57.466086" lon="15.544725">
        <ele>198.364</ele>
        <time>1970-01-01T01:00:00Z</time>
      </trkpt>
      <trkpt lat="57.466108" lon="15.544689">
        <ele>198.273</ele>
        <time>1970-01-01T01:00:00Z</time>
      </trkpt>
      <trkpt lat="57.46613" lon="15.544654">
        <ele>198.182</ele>
        <time>1970-01-01T01:00:00Z</time>
      </trkpt>
      <trkpt lat="57.466153" lon="15.544618">
        <ele>198.091</ele>
        <time>1970-01-01T01:00:00Z</time>
      </trkpt>
      <trkpt lat="57.466176" lon="15.544583">
        <ele>198</ele>
        <time>1970-01-01T01:00:00Z</time>
      </trkpt>
      <trkpt lat="57.466199" lon="15.544547">
        <ele>198</ele>
        <time>1970-01-01T01:00:00Z</time>
      </trkpt>
      <trkpt lat="57.466222" lon="15.544512">
        <ele>198</ele>
        <time>1970-01-01T01:00:00Z</time>
      </trkpt>
      <trkpt lat="57.466245" lon="15.544477">
        <ele>197.909</ele>
        <time>1970-01-01T01:00:00Z</time>
      </trkpt>
      <trkpt lat="57.466268" lon="15.544442">
        <ele>197.818</ele>
        <time>1970-01-01T01:00:00Z</time>
      </trkpt>
      <trkpt lat="57.466292" lon="15.544407">
        <ele>197.727</ele>
        <time>1970-01-01T01:00:00Z</time>
      </trkpt>
      <trkpt lat="57.466315" lon="15.544373">
        <ele>197.636</ele>
        <time>1970-01-01T01:00:00Z</time>
      </trkpt>
      <trkpt lat="57.466338" lon="15.544339">
        <ele>197.545</ele>
        <time>1970-01-01T01:00:00Z</time>
      </trkpt>
      <trkpt lat="57.466361" lon="15.544304">
        <ele>197.545</ele>
        <time>1970-01-01T01:00:00Z</time>
      </trkpt>
      <trkpt lat="57.466384" lon="15.544271">
        <ele>197.545</ele>
        <time>1970-01-01T01:00:00Z</time>
      </trkpt>
      <trkpt lat="57.466407" lon="15.544237">
        <ele>197.545</ele>
        <time>1970-01-01T01:00:00Z</time>
      </trkpt>
      <trkpt lat="57.46643" lon="15.544203">
        <ele>197.545</ele>
        <time>1970-01-01T01:00:00Z</time>
      </trkpt>
      <trkpt lat="57.466453" lon="15.54417">
        <ele>197.545</ele>
        <time>1970-01-01T01:00:00Z</time>
      </trkpt>
      <trkpt lat="57.466475" lon="15.544138">
        <ele>197.545</ele>
        <time>1970-01-01T01:00:00Z</time>
      </trkpt>
      <trkpt lat="57.466497" lon="15.544105">
        <ele>197.727</ele>
        <time>1970-01-01T01:00:00Z</time>
      </trkpt>
      <trkpt lat="57.466519" lon="15.544073">
        <ele>197.909</ele>
        <time>1970-01-01T01:00:00Z</time>
      </trkpt>
      <trkpt lat="57.466541" lon="15.544042">
        <ele>198.091</ele>
        <time>1970-01-01T01:00:00Z</time>
      </trkpt>
      <trkpt lat="57.466564" lon="15.544011">
        <ele>198.273</ele>
        <time>1970-01-01T01:00:00Z</time>
      </trkpt>
      <trkpt lat="57.466586" lon="15.54398">
        <ele>198.455</ele>
        <time>1970-01-01T01:00:00Z</time>
      </trkpt>
      <trkpt lat="57.466608" lon="15.54395">
        <ele>198.545</ele>
        <time>1970-01-01T01:00:00Z</time>
      </trkpt>
      <trkpt lat="57.466631" lon="15.543919">
        <ele>198.545</ele>
        <time>1970-01-01T01:00:00Z</time>
      </trkpt>
      <trkpt lat="57.466653" lon="15.543887">
        <ele>198.545</ele>
        <time>1970-01-01T01:00:00Z</time>
      </trkpt>
      <trkpt lat="57.466676" lon="15.543855">
        <ele>198.545</ele>
        <time>1970-01-01T01:00:00Z</time>
      </trkpt>
      <trkpt lat="57.466699" lon="15.543822">
        <ele>198.545</ele>
        <time>1970-01-01T01:00:00Z</time>
      </trkpt>
      <trkpt lat="57.466722" lon="15.543788">
        <ele>198.545</ele>
        <time>1970-01-01T01:00:00Z</time>
      </trkpt>
      <trkpt lat="57.466744" lon="15.543752">
        <ele>198.455</ele>
        <time>1970-01-01T01:00:00Z</time>
      </trkpt>
      <trkpt lat="57.466766" lon="15.543715">
        <ele>198.364</ele>
        <time>1970-01-01T01:00:00Z</time>
      </trkpt>
      <trkpt lat="57.466787" lon="15.543676">
        <ele>198.273</ele>
        <time>1970-01-01T01:00:00Z</time>
      </trkpt>
      <trkpt lat="57.466807" lon="15.543635">
        <ele>198.182</ele>
        <time>1970-01-01T01:00:00Z</time>
      </trkpt>
      <trkpt lat="57.466825" lon="15.543591">
        <ele>198.091</ele>
        <time>1970-01-01T01:00:00Z</time>
      </trkpt>
      <trkpt lat="57.466843" lon="15.543546">
        <ele>198</ele>
        <time>1970-01-01T01:00:00Z</time>
      </trkpt>
      <trkpt lat="57.466859" lon="15.543498">
        <ele>198</ele>
        <time>1970-01-01T01:00:00Z</time>
      </trkpt>
      <trkpt lat="57.466875" lon="15.543448">
        <ele>197.909</ele>
        <time>1970-01-01T01:00:00Z</time>
      </trkpt>
      <trkpt lat="57.46689" lon="15.543397">
        <ele>197.818</ele>
        <time>1970-01-01T01:00:00Z</time>
      </trkpt>
      <trkpt lat="57.466902" lon="15.543343">
        <ele>197.727</ele>
        <time>1970-01-01T01:00:00Z</time>
      </trkpt>
      <trkpt lat="57.46691" lon="15.54329">
        <ele>197.636</ele>
        <time>1970-01-01T01:00:00Z</time>
      </trkpt>
      <trkpt lat="57.466913" lon="15.543237">
        <ele>197.545</ele>
        <time>1970-01-01T01:00:00Z</time>
      </trkpt>
      <trkpt lat="57.466913" lon="15.543184">
        <ele>197.455</ele>
        <time>1970-01-01T01:00:00Z</time>
      </trkpt>
      <trkpt lat="57.466913" lon="15.543131">
        <ele>197.364</ele>
        <time>1970-01-01T01:00:00Z</time>
      </trkpt>
      <trkpt lat="57.466915" lon="15.543077">
        <ele>197.273</ele>
        <time>1970-01-01T01:00:00Z</time>
      </trkpt>
      <trkpt lat="57.466918" lon="15.543024">
        <ele>197.182</ele>
        <time>1970-01-01T01:00:00Z</time>
      </trkpt>
      <trkpt lat="57.466923" lon="15.542971">
        <ele>197.091</ele>
        <time>1970-01-01T01:00:00Z</time>
      </trkpt>
      <trkpt lat="57.466928" lon="15.542919">
        <ele>197</ele>
        <time>1970-01-01T01:00:00Z</time>
      </trkpt>
      <trkpt lat="57.466934" lon="15.542867">
        <ele>197</ele>
        <time>1970-01-01T01:00:00Z</time>
      </trkpt>
      <trkpt lat="57.46694" lon="15.542815">
        <ele>197</ele>
        <time>1970-01-01T01:00:00Z</time>
      </trkpt>
      <trkpt lat="57.466946" lon="15.542764">
        <ele>197</ele>
        <time>1970-01-01T01:00:00Z</time>
      </trkpt>
      <trkpt lat="57.466952" lon="15.542713">
        <ele>197</ele>
        <time>1970-01-01T01:00:00Z</time>
      </trkpt>
      <trkpt lat="57.466958" lon="15.542663">
        <ele>197</ele>
        <time>1970-01-01T01:00:00Z</time>
      </trkpt>
      <trkpt lat="57.466964" lon="15.542613">
        <ele>197</ele>
        <time>1970-01-01T01:00:00Z</time>
      </trkpt>
      <trkpt lat="57.46697" lon="15.542564">
        <ele>197</ele>
        <time>1970-01-01T01:00:00Z</time>
      </trkpt>
      <trkpt lat="57.466976" lon="15.542515">
        <ele>197</ele>
        <time>1970-01-01T01:00:00Z</time>
      </trkpt>
      <trkpt lat="57.466982" lon="15.542466">
        <ele>197</ele>
        <time>1970-01-01T01:00:00Z</time>
      </trkpt>
      <trkpt lat="57.466988" lon="15.542417">
        <ele>197</ele>
        <time>1970-01-01T01:00:00Z</time>
      </trkpt>
      <trkpt lat="57.466994" lon="15.542369">
        <ele>197.091</ele>
        <time>1970-01-01T01:00:00Z</time>
      </trkpt>
      <trkpt lat="57.467" lon="15.54232">
        <ele>197.182</ele>
        <time>1970-01-01T01:00:00Z</time>
      </trkpt>
      <trkpt lat="57.467007" lon="15.542272">
        <ele>197.364</ele>
        <time>1970-01-01T01:00:00Z</time>
      </trkpt>
      <trkpt lat="57.467013" lon="15.542223">
        <ele>197.545</ele>
        <time>1970-01-01T01:00:00Z</time>
      </trkpt>
      <trkpt lat="57.46702" lon="15.542175">
        <ele>197.818</ele>
        <time>1970-01-01T01:00:00Z</time>
      </trkpt>
      <trkpt lat="57.467027" lon="15.542127">
        <ele>198.091</ele>
        <time>1970-01-01T01:00:00Z</time>
      </trkpt>
      <trkpt lat="57.467035" lon="15.542079">
        <ele>198.364</ele>
        <time>1970-01-01T01:00:00Z</time>
      </trkpt>
      <trkpt lat="57.467043" lon="15.542032">
        <ele>198.727</ele>
        <time>1970-01-01T01:00:00Z</time>
      </trkpt>
      <trkpt lat="57.467052" lon="15.541985">
        <ele>199.091</ele>
        <time>1970-01-01T01:00:00Z</time>
      </trkpt>
      <trkpt lat="57.467061" lon="15.541938">
        <ele>199.455</ele>
        <time>1970-01-01T01:00:00Z</time>
      </trkpt>
      <trkpt lat="57.467072" lon="15.541891">
        <ele>199.818</ele>
        <time>1970-01-01T01:00:00Z</time>
      </trkpt>
      <trkpt lat="57.467083" lon="15.541845">
        <ele>200.182</ele>
        <time>1970-01-01T01:00:00Z</time>
      </trkpt>
      <trkpt lat="57.467095" lon="15.541799">
        <ele>200.545</ele>
        <time>1970-01-01T01:00:00Z</time>
      </trkpt>
      <trkpt lat="57.467108" lon="15.541754">
        <ele>200.818</ele>
        <time>1970-01-01T01:00:00Z</time>
      </trkpt>
      <trkpt lat="57.467122" lon="15.54171">
        <ele>201.091</ele>
        <time>1970-01-01T01:00:00Z</time>
      </trkpt>
      <trkpt lat="57.467137" lon="15.541666">
        <ele>201.273</ele>
        <time>1970-01-01T01:00:00Z</time>
      </trkpt>
      <trkpt lat="57.467153" lon="15.541624">
        <ele>201.545</ele>
        <time>1970-01-01T01:00:00Z</time>
      </trkpt>
      <trkpt lat="57.467171" lon="15.541582">
        <ele>201.818</ele>
        <time>1970-01-01T01:00:00Z</time>
      </trkpt>
      <trkpt lat="57.467189" lon="15.541542">
        <ele>202</ele>
        <time>1970-01-01T01:00:00Z</time>
      </trkpt>
      <trkpt lat="57.467209" lon="15.541504">
        <ele>202.182</ele>
        <time>1970-01-01T01:00:00Z</time>
      </trkpt>
      <trkpt lat="57.467229" lon="15.541468">
        <ele>202.364</ele>
        <time>1970-01-01T01:00:00Z</time>
      </trkpt>
      <trkpt lat="57.467251" lon="15.541434">
        <ele>202.545</ele>
        <time>1970-01-01T01:00:00Z</time>
      </trkpt>
      <trkpt lat="57.467273" lon="15.541404">
        <ele>202.636</ele>
        <time>1970-01-01T01:00:00Z</time>
      </trkpt>
      <trkpt lat="57.467295" lon="15.541376">
        <ele>202.727</ele>
        <time>1970-01-01T01:00:00Z</time>
      </trkpt>
      <trkpt lat="57.467319" lon="15.541351">
        <ele>202.818</ele>
        <time>1970-01-01T01:00:00Z</time>
      </trkpt>
      <trkpt lat="57.467342" lon="15.54133">
        <ele>202.909</ele>
        <time>1970-01-01T01:00:00Z</time>
      </trkpt>
      <trkpt lat="57.467366" lon="15.541311">
        <ele>203</ele>
        <time>1970-01-01T01:00:00Z</time>
      </trkpt>
      <trkpt lat="57.467391" lon="15.541294">
        <ele>203</ele>
        <time>1970-01-01T01:00:00Z</time>
      </trkpt>
      <trkpt lat="57.467415" lon="15.54128">
        <ele>203</ele>
        <time>1970-01-01T01:00:00Z</time>
      </trkpt>
      <trkpt lat="57.467439" lon="15.541268">
        <ele>203</ele>
        <time>1970-01-01T01:00:00Z</time>
      </trkpt>
      <trkpt lat="57.467464" lon="15.541258">
        <ele>203</ele>
        <time>1970-01-01T01:00:00Z</time>
      </trkpt>
      <trkpt lat="57.467488" lon="15.541249">
        <ele>203</ele>
        <time>1970-01-01T01:00:00Z</time>
      </trkpt>
      <trkpt lat="57.467513" lon="15.541241">
        <ele>203</ele>
        <time>1970-01-01T01:00:00Z</time>
      </trkpt>
      <trkpt lat="57.467537" lon="15.541234">
        <ele>203</ele>
        <time>1970-01-01T01:00:00Z</time>
      </trkpt>
      <trkpt lat="57.467562" lon="15.541226">
        <ele>203</ele>
        <time>1970-01-01T01:00:00Z</time>
      </trkpt>
      <trkpt lat="57.467586" lon="15.541219">
        <ele>203</ele>
        <time>1970-01-01T01:00:00Z</time>
      </trkpt>
      <trkpt lat="57.46761" lon="15.541212">
        <ele>203</ele>
        <time>1970-01-01T01:00:00Z</time>
      </trkpt>
      <trkpt lat="57.467635" lon="15.541204">
        <ele>203</ele>
        <time>1970-01-01T01:00:00Z</time>
      </trkpt>
      <trkpt lat="57.467659" lon="15.541195">
        <ele>203</ele>
        <time>1970-01-01T01:00:00Z</time>
      </trkpt>
      <trkpt lat="57.467684" lon="15.541186">
        <ele>203</ele>
        <time>1970-01-01T01:00:00Z</time>
      </trkpt>
      <trkpt lat="57.467708" lon="15.541177">
        <ele>202.909</ele>
        <time>1970-01-01T01:00:00Z</time>
      </trkpt>
      <trkpt lat="57.467733" lon="15.541166">
        <ele>202.818</ele>
        <time>1970-01-01T01:00:00Z</time>
      </trkpt>
      <trkpt lat="57.467757" lon="15.541154">
        <ele>202.727</ele>
        <time>1970-01-01T01:00:00Z</time>
      </trkpt>
      <trkpt lat="57.467782" lon="15.541141">
        <ele>202.636</ele>
        <time>1970-01-01T01:00:00Z</time>
      </trkpt>
      <trkpt lat="57.467807" lon="15.541127">
        <ele>202.545</ele>
        <time>1970-01-01T01:00:00Z</time>
      </trkpt>
      <trkpt lat="57.467831" lon="15.541111">
        <ele>202.455</ele>
        <time>1970-01-01T01:00:00Z</time>
      </trkpt>
      <trkpt lat="57.467856" lon="15.541093">
        <ele>202.364</ele>
        <time>1970-01-01T01:00:00Z</time>
      </trkpt>
      <trkpt lat="57.46788" lon="15.541074">
        <ele>202.273</ele>
        <time>1970-01-01T01:00:00Z</time>
      </trkpt>
      <trkpt lat="57.467904" lon="15.541053">
        <ele>202.182</ele>
        <time>1970-01-01T01:00:00Z</time>
      </trkpt>
      <trkpt lat="57.467928" lon="15.541031">
        <ele>202.182</ele>
        <time>1970-01-01T01:00:00Z</time>
      </trkpt>
      <trkpt lat="57.467951" lon="15.541007">
        <ele>202.182</ele>
        <time>1970-01-01T01:00:00Z</time>
      </trkpt>
      <trkpt lat="57.467973" lon="15.540981">
        <ele>202.273</ele>
        <time>1970-01-01T01:00:00Z</time>
      </trkpt>
      <trkpt lat="57.467995" lon="15.540953">
        <ele>202.364</ele>
        <time>1970-01-01T01:00:00Z</time>
      </trkpt>
      <trkpt lat="57.468016" lon="15.540924">
        <ele>202.364</ele>
        <time>1970-01-01T01:00:00Z</time>
      </trkpt>
      <trkpt lat="57.468036" lon="15.540893">
        <ele>202.364</ele>
        <time>1970-01-01T01:00:00Z</time>
      </trkpt>
      <trkpt lat="57.468055" lon="15.54086">
        <ele>202.364</ele>
        <time>1970-01-01T01:00:00Z</time>
      </trkpt>
      <trkpt lat="57.468072" lon="15.540825">
        <ele>202.364</ele>
        <time>1970-01-01T01:00:00Z</time>
      </trkpt>
      <trkpt lat="57.468089" lon="15.540789">
        <ele>202.364</ele>
        <time>1970-01-01T01:00:00Z</time>
      </trkpt>
      <trkpt lat="57.468104" lon="15.54075">
        <ele>202.364</ele>
        <time>1970-01-01T01:00:00Z</time>
      </trkpt>
      <trkpt lat="57.468119" lon="15.540709">
        <ele>202.364</ele>
        <time>1970-01-01T01:00:00Z</time>
      </trkpt>
      <trkpt lat="57.468132" lon="15.540666">
        <ele>202.273</ele>
        <time>1970-01-01T01:00:00Z</time>
      </trkpt>
      <trkpt lat="57.468145" lon="15.540621">
        <ele>202.091</ele>
        <time>1970-01-01T01:00:00Z</time>
      </trkpt>
      <trkpt lat="57.468157" lon="15.540574">
        <ele>201.909</ele>
        <time>1970-01-01T01:00:00Z</time>
      </trkpt>
      <trkpt lat="57.468169" lon="15.540525">
        <ele>201.727</ele>
        <time>1970-01-01T01:00:00Z</time>
      </trkpt>
      <trkpt lat="57.46818" lon="15.540475">
        <ele>201.636</ele>
        <time>1970-01-01T01:00:00Z</time>
      </trkpt>
      <trkpt lat="57.468192" lon="15.540425">
        <ele>201.455</ele>
        <time>1970-01-01T01:00:00Z</time>
      </trkpt>
      <trkpt lat="57.468205" lon="15.540376">
        <ele>201.273</ele>
        <time>1970-01-01T01:00:00Z</time>
      </trkpt>
      <trkpt lat="57.468219" lon="15.540329">
        <ele>201.091</ele>
        <time>1970-01-01T01:00:00Z</time>
      </trkpt>
      <trkpt lat="57.468233" lon="15.540282">
        <ele>200.909</ele>
        <time>1970-01-01T01:00:00Z</time>
      </trkpt>
      <trkpt lat="57.468249" lon="15.540236">
        <ele>200.727</ele>
        <time>1970-01-01T01:00:00Z</time>
      </trkpt>
      <trkpt lat="57.468264" lon="15.540189">
        <ele>200.545</ele>
        <time>1970-01-01T01:00:00Z</time>
      </trkpt>
      <trkpt lat="57.46828" lon="15.540143">
        <ele>200.364</ele>
        <time>1970-01-01T01:00:00Z</time>
      </trkpt>
      <trkpt lat="57.468296" lon="15.540094">
        <ele>200.273</ele>
        <time>1970-01-01T01:00:00Z</time>
      </trkpt>
      <trkpt lat="57.468311" lon="15.540045">
        <ele>200.182</ele>
        <time>1970-01-01T01:00:00Z</time>
      </trkpt>
      <trkpt lat="57.468325" lon="15.539994">
        <ele>200.091</ele>
        <time>1970-01-01T01:00:00Z</time>
      </trkpt>
      <trkpt lat="57.468338" lon="15.539941">
        <ele>200</ele>
        <time>1970-01-01T01:00:00Z</time>
      </trkpt>
      <trkpt lat="57.468349" lon="15.539888">
        <ele>200</ele>
        <time>1970-01-01T01:00:00Z</time>
      </trkpt>
      <trkpt lat="57.468359" lon="15.539834">
        <ele>200</ele>
        <time>1970-01-01T01:00:00Z</time>
      </trkpt>
      <trkpt lat="57.468367" lon="15.53978">
        <ele>200</ele>
        <time>1970-01-01T01:00:00Z</time>
      </trkpt>
      <trkpt lat="57.468374" lon="15.539726">
        <ele>200</ele>
        <time>1970-01-01T01:00:00Z</time>
      </trkpt>
      <trkpt lat="57.46838" lon="15.539672">
        <ele>200</ele>
        <time>1970-01-01T01:00:00Z</time>
      </trkpt>
      <trkpt lat="57.468385" lon="15.53962">
        <ele>200</ele>
        <time>1970-01-01T01:00:00Z</time>
      </trkpt>
      <trkpt lat="57.468389" lon="15.539568">
        <ele>200</ele>
        <time>1970-01-01T01:00:00Z</time>
      </trkpt>
      <trkpt lat="57.468394" lon="15.539519">
        <ele>200</ele>
        <time>1970-01-01T01:00:00Z</time>
      </trkpt>
      <trkpt lat="57.4684" lon="15.539473">
        <ele>200</ele>
        <time>1970-01-01T01:00:00Z</time>
      </trkpt>
      <trkpt lat="57.468406" lon="15.539427">
        <ele>200</ele>
        <time>1970-01-01T01:00:00Z</time>
      </trkpt>
      <trkpt lat="57.468412" lon="15.539383">
        <ele>200</ele>
        <time>1970-01-01T01:00:00Z</time>
      </trkpt>
      <trkpt lat="57.468418" lon="15.539339">
        <ele>200</ele>
        <time>1970-01-01T01:00:00Z</time>
      </trkpt>
      <trkpt lat="57.468423" lon="15.539293">
        <ele>200</ele>
        <time>1970-01-01T01:00:00Z</time>
      </trkpt>
      <trkpt lat="57.468428" lon="15.539246">
        <ele>200</ele>
        <time>1970-01-01T01:00:00Z</time>
      </trkpt>
      <trkpt lat="57.468432" lon="15.539197">
        <ele>200</ele>
        <time>1970-01-01T01:00:00Z</time>
      </trkpt>
      <trkpt lat="57.468436" lon="15.539148">
        <ele>200</ele>
        <time>1970-01-01T01:00:00Z</time>
      </trkpt>
      <trkpt lat="57.46844" lon="15.539097">
        <ele>200</ele>
        <time>1970-01-01T01:00:00Z</time>
      </trkpt>
      <trkpt lat="57.468444" lon="15.539045">
        <ele>200</ele>
        <time>1970-01-01T01:00:00Z</time>
      </trkpt>
      <trkpt lat="57.468447" lon="15.538993">
        <ele>200</ele>
        <time>1970-01-01T01:00:00Z</time>
      </trkpt>
      <trkpt lat="57.468451" lon="15.538941">
        <ele>199.909</ele>
        <time>1970-01-01T01:00:00Z</time>
      </trkpt>
      <trkpt lat="57.468455" lon="15.538889">
        <ele>199.818</ele>
        <time>1970-01-01T01:00:00Z</time>
      </trkpt>
      <trkpt lat="57.468459" lon="15.538838">
        <ele>199.727</ele>
        <time>1970-01-01T01:00:00Z</time>
      </trkpt>
      <trkpt lat="57.468464" lon="15.538788">
        <ele>199.636</ele>
        <time>1970-01-01T01:00:00Z</time>
      </trkpt>
      <trkpt lat="57.468469" lon="15.538738">
        <ele>199.545</ele>
        <time>1970-01-01T01:00:00Z</time>
      </trkpt>
      <trkpt lat="57.468475" lon="15.53869">
        <ele>199.455</ele>
        <time>1970-01-01T01:00:00Z</time>
      </trkpt>
      <trkpt lat="57.468481" lon="15.538642">
        <ele>199.364</ele>
        <time>1970-01-01T01:00:00Z</time>
      </trkpt>
      <trkpt lat="57.468489" lon="15.538595">
        <ele>199.273</ele>
        <time>1970-01-01T01:00:00Z</time>
      </trkpt>
      <trkpt lat="57.468496" lon="15.538548">
        <ele>199.182</ele>
        <time>1970-01-01T01:00:00Z</time>
      </trkpt>
      <trkpt lat="57.468505" lon="15.538501">
        <ele>199.091</ele>
        <time>1970-01-01T01:00:00Z</time>
      </trkpt>
      <trkpt lat="57.468513" lon="15.538453">
        <ele>199.091</ele>
        <time>1970-01-01T01:00:00Z</time>
      </trkpt>
      <trkpt lat="57.468522" lon="15.538403">
        <ele>199.182</ele>
        <time>1970-01-01T01:00:00Z</time>
      </trkpt>
      <trkpt lat="57.468532" lon="15.538352">
        <ele>199.273</ele>
        <time>1970-01-01T01:00:00Z</time>
      </trkpt>
      <trkpt lat="57.468543" lon="15.538301">
        <ele>199.364</ele>
        <time>1970-01-01T01:00:00Z</time>
      </trkpt>
      <trkpt lat="57.468555" lon="15.53825">
        <ele>199.455</ele>
        <time>1970-01-01T01:00:00Z</time>
      </trkpt>
      <trkpt lat="57.468568" lon="15.538199">
        <ele>199.545</ele>
        <time>1970-01-01T01:00:00Z</time>
      </trkpt>
      <trkpt lat="57.468584" lon="15.538149">
        <ele>199.545</ele>
        <time>1970-01-01T01:00:00Z</time>
      </trkpt>
      <trkpt lat="57.468601" lon="15.5381">
        <ele>199.545</ele>
        <time>1970-01-01T01:00:00Z</time>
      </trkpt>
      <trkpt lat="57.468619" lon="15.538051">
        <ele>199.545</ele>
        <time>1970-01-01T01:00:00Z</time>
      </trkpt>
      <trkpt lat="57.468638" lon="15.538003">
        <ele>199.545</ele>
        <time>1970-01-01T01:00:00Z</time>
      </trkpt>
      <trkpt lat="57.468657" lon="15.537955">
        <ele>199.545</ele>
        <time>1970-01-01T01:00:00Z</time>
      </trkpt>
      <trkpt lat="57.468675" lon="15.537908">
        <ele>199.455</ele>
        <time>1970-01-01T01:00:00Z</time>
      </trkpt>
      <trkpt lat="57.468693" lon="15.537861">
        <ele>199.364</ele>
        <time>1970-01-01T01:00:00Z</time>
      </trkpt>
      <trkpt lat="57.46871" lon="15.537814">
        <ele>199.273</ele>
        <time>1970-01-01T01:00:00Z</time>
      </trkpt>
      <trkpt lat="57.468727" lon="15.537767">
        <ele>199.182</ele>
        <time>1970-01-01T01:00:00Z</time>
      </trkpt>
      <trkpt lat="57.468745" lon="15.537721">
        <ele>199.091</ele>
        <time>1970-01-01T01:00:00Z</time>
      </trkpt>
      <trkpt lat="57.468764" lon="15.537676">
        <ele>199</ele>
        <time>1970-01-01T01:00:00Z</time>
      </trkpt>
      <trkpt lat="57.468784" lon="15.537632">
        <ele>199</ele>
        <time>1970-01-01T01:00:00Z</time>
      </trkpt>
      <trkpt lat="57.468805" lon="15.537588">
        <ele>199</ele>
        <time>1970-01-01T01:00:00Z</time>
      </trkpt>
      <trkpt lat="57.468826" lon="15.537546">
        <ele>199</ele>
        <time>1970-01-01T01:00:00Z</time>
      </trkpt>
      <trkpt lat="57.468848" lon="15.537506">
        <ele>199</ele>
        <time>1970-01-01T01:00:00Z</time>
      </trkpt>
      <trkpt lat="57.468871" lon="15.537466">
        <ele>199</ele>
        <time>1970-01-01T01:00:00Z</time>
      </trkpt>
      <trkpt lat="57.468894" lon="15.537429">
        <ele>199</ele>
        <time>1970-01-01T01:00:00Z</time>
      </trkpt>
      <trkpt lat="57.468917" lon="15.537393">
        <ele>199</ele>
        <time>1970-01-01T01:00:00Z</time>
      </trkpt>
      <trkpt lat="57.468939" lon="15.537359">
        <ele>199</ele>
        <time>1970-01-01T01:00:00Z</time>
      </trkpt>
      <trkpt lat="57.468963" lon="15.537326">
        <ele>199.091</ele>
        <time>1970-01-01T01:00:00Z</time>
      </trkpt>
      <trkpt lat="57.468986" lon="15.537296">
        <ele>199.182</ele>
        <time>1970-01-01T01:00:00Z</time>
      </trkpt>
      <trkpt lat="57.46901" lon="15.537266">
        <ele>199.273</ele>
        <time>1970-01-01T01:00:00Z</time>
      </trkpt>
      <trkpt lat="57.469035" lon="15.537238">
        <ele>199.364</ele>
        <time>1970-01-01T01:00:00Z</time>
      </trkpt>
      <trkpt lat="57.469061" lon="15.537212">
        <ele>199.455</ele>
        <time>1970-01-01T01:00:00Z</time>
      </trkpt>
      <trkpt lat="57.469087" lon="15.537187">
        <ele>199.545</ele>
        <time>1970-01-01T01:00:00Z</time>
      </trkpt>
      <trkpt lat="57.469114" lon="15.537163">
        <ele>199.636</ele>
        <time>1970-01-01T01:00:00Z</time>
      </trkpt>
      <trkpt lat="57.469141" lon="15.537141">
        <ele>199.727</ele>
        <time>1970-01-01T01:00:00Z</time>
      </trkpt>
      <trkpt lat="57.469169" lon="15.53712">
        <ele>199.818</ele>
        <time>1970-01-01T01:00:00Z</time>
      </trkpt>
      <trkpt lat="57.469196" lon="15.5371">
        <ele>199.909</ele>
        <time>1970-01-01T01:00:00Z</time>
      </trkpt>
      <trkpt lat="57.469224" lon="15.537081">
        <ele>200</ele>
        <time>1970-01-01T01:00:00Z</time>
      </trkpt>
      <trkpt lat="57.469252" lon="15.537064">
        <ele>200</ele>
        <time>1970-01-01T01:00:00Z</time>
      </trkpt>
      <trkpt lat="57.46928" lon="15.537047">
        <ele>200</ele>
        <time>1970-01-01T01:00:00Z</time>
      </trkpt>
      <trkpt lat="57.469307" lon="15.537032">
        <ele>200</ele>
        <time>1970-01-01T01:00:00Z</time>
      </trkpt>
      <trkpt lat="57.469335" lon="15.537018">
        <ele>200</ele>
        <time>1970-01-01T01:00:00Z</time>
      </trkpt>
      <trkpt lat="57.469362" lon="15.537004">
        <ele>200</ele>
        <time>1970-01-01T01:00:00Z</time>
      </trkpt>
      <trkpt lat="57.469389" lon="15.536992">
        <ele>200</ele>
        <time>1970-01-01T01:00:00Z</time>
      </trkpt>
      <trkpt lat="57.469416" lon="15.53698">
        <ele>200</ele>
        <time>1970-01-01T01:00:00Z</time>
      </trkpt>
      <trkpt lat="57.469442" lon="15.53697">
        <ele>200.091</ele>
        <time>1970-01-01T01:00:00Z</time>
      </trkpt>
      <trkpt lat="57.469468" lon="15.536959">
        <ele>200.182</ele>
        <time>1970-01-01T01:00:00Z</time>
      </trkpt>
      <trkpt lat="57.469495" lon="15.53695">
        <ele>200.273</ele>
        <time>1970-01-01T01:00:00Z</time>
      </trkpt>
      <trkpt lat="57.469521" lon="15.536941">
        <ele>200.364</ele>
        <time>1970-01-01T01:00:00Z</time>
      </trkpt>
      <trkpt lat="57.469546" lon="15.536933">
        <ele>200.455</ele>
        <time>1970-01-01T01:00:00Z</time>
      </trkpt>
      <trkpt lat="57.469572" lon="15.536925">
        <ele>200.545</ele>
        <time>1970-01-01T01:00:00Z</time>
      </trkpt>
      <trkpt lat="57.469598" lon="15.536918">
        <ele>200.636</ele>
        <time>1970-01-01T01:00:00Z</time>
      </trkpt>
      <trkpt lat="57.469623" lon="15.53691">
        <ele>200.727</ele>
        <time>1970-01-01T01:00:00Z</time>
      </trkpt>
      <trkpt lat="57.469648" lon="15.536904">
        <ele>200.818</ele>
        <time>1970-01-01T01:00:00Z</time>
      </trkpt>
      <trkpt lat="57.469674" lon="15.536897">
        <ele>200.909</ele>
        <time>1970-01-01T01:00:00Z</time>
      </trkpt>
      <trkpt lat="57.469699" lon="15.536891">
        <ele>201</ele>
        <time>1970-01-01T01:00:00Z</time>
      </trkpt>
      <trkpt lat="57.469724" lon="15.536885">
        <ele>201</ele>
        <time>1970-01-01T01:00:00Z</time>
      </trkpt>
      <trkpt lat="57.46975" lon="15.53688">
        <ele>201</ele>
        <time>1970-01-01T01:00:00Z</time>
      </trkpt>
      <trkpt lat="57.469775" lon="15.536875">
        <ele>201</ele>
        <time>1970-01-01T01:00:00Z</time>
      </trkpt>
      <trkpt lat="57.469801" lon="15.53687">
        <ele>201</ele>
        <time>1970-01-01T01:00:00Z</time>
      </trkpt>
      <trkpt lat="57.469827" lon="15.536866">
        <ele>201</ele>
        <time>1970-01-01T01:00:00Z</time>
      </trkpt>
      <trkpt lat="57.469853" lon="15.536862">
        <ele>201</ele>
        <time>1970-01-01T01:00:00Z</time>
      </trkpt>
      <trkpt lat="57.469879" lon="15.536859">
        <ele>201</ele>
        <time>1970-01-01T01:00:00Z</time>
      </trkpt>
      <trkpt lat="57.469905" lon="15.536856">
        <ele>201</ele>
        <time>1970-01-01T01:00:00Z</time>
      </trkpt>
      <trkpt lat="57.469932" lon="15.536854">
        <ele>201</ele>
        <time>1970-01-01T01:00:00Z</time>
      </trkpt>
      <trkpt lat="57.469959" lon="15.536852">
        <ele>201</ele>
        <time>1970-01-01T01:00:00Z</time>
      </trkpt>
      <trkpt lat="57.469987" lon="15.536851">
        <ele>201</ele>
        <time>1970-01-01T01:00:00Z</time>
      </trkpt>
      <trkpt lat="57.470014" lon="15.53685">
        <ele>201</ele>
        <time>1970-01-01T01:00:00Z</time>
      </trkpt>
      <trkpt lat="57.470042" lon="15.53685">
        <ele>201</ele>
        <time>1970-01-01T01:00:00Z</time>
      </trkpt>
      <trkpt lat="57.470071" lon="15.536851">
        <ele>201</ele>
        <time>1970-01-01T01:00:00Z</time>
      </trkpt>
      <trkpt lat="57.470099" lon="15.536853">
        <ele>201</ele>
        <time>1970-01-01T01:00:00Z</time>
      </trkpt>
      <trkpt lat="57.470128" lon="15.536855">
        <ele>201</ele>
        <time>1970-01-01T01:00:00Z</time>
      </trkpt>
      <trkpt lat="57.470157" lon="15.536859">
        <ele>201</ele>
        <time>1970-01-01T01:00:00Z</time>
      </trkpt>
      <trkpt lat="57.470187" lon="15.536863">
        <ele>201</ele>
        <time>1970-01-01T01:00:00Z</time>
      </trkpt>
      <trkpt lat="57.470215" lon="15.536869">
        <ele>201</ele>
        <time>1970-01-01T01:00:00Z</time>
      </trkpt>
      <trkpt lat="57.470242" lon="15.536878">
        <ele>201</ele>
        <time>1970-01-01T01:00:00Z</time>
      </trkpt>
      <trkpt lat="57.470266" lon="15.536888">
        <ele>201</ele>
        <time>1970-01-01T01:00:00Z</time>
      </trkpt>
      <trkpt lat="57.470289" lon="15.536899">
        <ele>201</ele>
        <time>1970-01-01T01:00:00Z</time>
      </trkpt>
      <trkpt lat="57.470313" lon="15.536907">
        <ele>201</ele>
        <time>1970-01-01T01:00:00Z</time>
      </trkpt>
      <trkpt lat="57.470341" lon="15.536911">
        <ele>201</ele>
        <time>1970-01-01T01:00:00Z</time>
      </trkpt>
      <trkpt lat="57.470371" lon="15.536914">
        <ele>201</ele>
        <time>1970-01-01T01:00:00Z</time>
      </trkpt>
      <trkpt lat="57.470402" lon="15.536916">
        <ele>201</ele>
        <time>1970-01-01T01:00:00Z</time>
      </trkpt>
      <trkpt lat="57.470434" lon="15.53692">
        <ele>201</ele>
        <time>1970-01-01T01:00:00Z</time>
      </trkpt>
      <trkpt lat="57.470466" lon="15.536926">
        <ele>201</ele>
        <time>1970-01-01T01:00:00Z</time>
      </trkpt>
      <trkpt lat="57.470497" lon="15.536931">
        <ele>201</ele>
        <time>1970-01-01T01:00:00Z</time>
      </trkpt>
      <trkpt lat="57.470527" lon="15.536935">
        <ele>201</ele>
        <time>1970-01-01T01:00:00Z</time>
      </trkpt>
      <trkpt lat="57.470556" lon="15.536939">
        <ele>201</ele>
        <time>1970-01-01T01:00:00Z</time>
      </trkpt>
      <trkpt lat="57.470584" lon="15.536942">
        <ele>201</ele>
        <time>1970-01-01T01:00:00Z</time>
      </trkpt>
      <trkpt lat="57.470611" lon="15.536945">
        <ele>201</ele>
        <time>1970-01-01T01:00:00Z</time>
      </trkpt>
      <trkpt lat="57.470638" lon="15.536948">
        <ele>201</ele>
        <time>1970-01-01T01:00:00Z</time>
      </trkpt>
      <trkpt lat="57.470664" lon="15.536951">
        <ele>201</ele>
        <time>1970-01-01T01:00:00Z</time>
      </trkpt>
      <trkpt lat="57.47069" lon="15.536953">
        <ele>201</ele>
        <time>1970-01-01T01:00:00Z</time>
      </trkpt>
      <trkpt lat="57.470716" lon="15.536956">
        <ele>201</ele>
        <time>1970-01-01T01:00:00Z</time>
      </trkpt>
      <trkpt lat="57.470741" lon="15.536959">
        <ele>201</ele>
        <time>1970-01-01T01:00:00Z</time>
      </trkpt>
      <trkpt lat="57.470767" lon="15.536962">
        <ele>201.091</ele>
        <time>1970-01-01T01:00:00Z</time>
      </trkpt>
      <trkpt lat="57.470793" lon="15.536965">
        <ele>201.182</ele>
        <time>1970-01-01T01:00:00Z</time>
      </trkpt>
      <trkpt lat="57.470818" lon="15.536969">
        <ele>201.273</ele>
        <time>1970-01-01T01:00:00Z</time>
      </trkpt>
      <trkpt lat="57.470844" lon="15.536973">
        <ele>201.364</ele>
        <time>1970-01-01T01:00:00Z</time>
      </trkpt>
      <trkpt lat="57.470869" lon="15.536976">
        <ele>201.455</ele>
        <time>1970-01-01T01:00:00Z</time>
      </trkpt>
      <trkpt lat="57.470894" lon="15.536979">
        <ele>201.545</ele>
        <time>1970-01-01T01:00:00Z</time>
      </trkpt>
      <trkpt lat="57.470919" lon="15.536982">
        <ele>201.727</ele>
        <time>1970-01-01T01:00:00Z</time>
      </trkpt>
      <trkpt lat="57.470944" lon="15.536984">
        <ele>201.909</ele>
        <time>1970-01-01T01:00:00Z</time>
      </trkpt>
      <trkpt lat="57.470968" lon="15.536986">
        <ele>202.091</ele>
        <time>1970-01-01T01:00:00Z</time>
      </trkpt>
      <trkpt lat="57.470993" lon="15.536988">
        <ele>202.273</ele>
        <time>1970-01-01T01:00:00Z</time>
      </trkpt>
      <trkpt lat="57.471019" lon="15.53699">
        <ele>202.455</ele>
        <time>1970-01-01T01:00:00Z</time>
      </trkpt>
      <trkpt lat="57.471045" lon="15.536994">
        <ele>202.545</ele>
        <time>1970-01-01T01:00:00Z</time>
      </trkpt>
      <trkpt lat="57.471072" lon="15.536999">
        <ele>202.636</ele>
        <time>1970-01-01T01:00:00Z</time>
      </trkpt>
      <trkpt lat="57.471101" lon="15.537006">
        <ele>202.727</ele>
        <time>1970-01-01T01:00:00Z</time>
      </trkpt>
      <trkpt lat="57.47113" lon="15.537014">
        <ele>202.818</ele>
        <time>1970-01-01T01:00:00Z</time>
      </trkpt>
      <trkpt lat="57.471159" lon="15.537024">
        <ele>202.909</ele>
        <time>1970-01-01T01:00:00Z</time>
      </trkpt>
      <trkpt lat="57.471189" lon="15.537036">
        <ele>203</ele>
        <time>1970-01-01T01:00:00Z</time>
      </trkpt>
      <trkpt lat="57.47122" lon="15.537049">
        <ele>203</ele>
        <time>1970-01-01T01:00:00Z</time>
      </trkpt>
      <trkpt lat="57.47125" lon="15.537064">
        <ele>203</ele>
        <time>1970-01-01T01:00:00Z</time>
      </trkpt>
      <trkpt lat="57.471281" lon="15.537081">
        <ele>203</ele>
        <time>1970-01-01T01:00:00Z</time>
      </trkpt>
      <trkpt lat="57.471312" lon="15.537099">
        <ele>203</ele>
        <time>1970-01-01T01:00:00Z</time>
      </trkpt>
      <trkpt lat="57.471342" lon="15.537119">
        <ele>203</ele>
        <time>1970-01-01T01:00:00Z</time>
      </trkpt>
      <trkpt lat="57.471373" lon="15.53714">
        <ele>203</ele>
        <time>1970-01-01T01:00:00Z</time>
      </trkpt>
      <trkpt lat="57.471403" lon="15.537161">
        <ele>203</ele>
        <time>1970-01-01T01:00:00Z</time>
      </trkpt>
      <trkpt lat="57.471432" lon="15.537184">
        <ele>203</ele>
        <time>1970-01-01T01:00:00Z</time>
      </trkpt>
      <trkpt lat="57.471462" lon="15.537205">
        <ele>203</ele>
        <time>1970-01-01T01:00:00Z</time>
      </trkpt>
      <trkpt lat="57.47149" lon="15.537227">
        <ele>203</ele>
        <time>1970-01-01T01:00:00Z</time>
      </trkpt>
      <trkpt lat="57.471519" lon="15.537247">
        <ele>203</ele>
        <time>1970-01-01T01:00:00Z</time>
      </trkpt>
      <trkpt lat="57.471547" lon="15.537265">
        <ele>203</ele>
        <time>1970-01-01T01:00:00Z</time>
      </trkpt>
      <trkpt lat="57.471575" lon="15.537281">
        <ele>203</ele>
        <time>1970-01-01T01:00:00Z</time>
      </trkpt>
      <trkpt lat="57.471602" lon="15.537295">
        <ele>203</ele>
        <time>1970-01-01T01:00:00Z</time>
      </trkpt>
      <trkpt lat="57.47163" lon="15.537307">
        <ele>203</ele>
        <time>1970-01-01T01:00:00Z</time>
      </trkpt>
      <trkpt lat="57.471657" lon="15.537317">
        <ele>203</ele>
        <time>1970-01-01T01:00:00Z</time>
      </trkpt>
      <trkpt lat="57.471684" lon="15.537324">
        <ele>202.909</ele>
        <time>1970-01-01T01:00:00Z</time>
      </trkpt>
      <trkpt lat="57.471712" lon="15.53733">
        <ele>202.818</ele>
        <time>1970-01-01T01:00:00Z</time>
      </trkpt>
      <trkpt lat="57.471739" lon="15.537334">
        <ele>202.727</ele>
        <time>1970-01-01T01:00:00Z</time>
      </trkpt>
      <trkpt lat="57.471767" lon="15.537338">
        <ele>202.636</ele>
        <time>1970-01-01T01:00:00Z</time>
      </trkpt>
      <trkpt lat="57.471795" lon="15.537341">
        <ele>202.545</ele>
        <time>1970-01-01T01:00:00Z</time>
      </trkpt>
      <trkpt lat="57.471823" lon="15.537344">
        <ele>202.455</ele>
        <time>1970-01-01T01:00:00Z</time>
      </trkpt>
      <trkpt lat="57.471852" lon="15.537347">
        <ele>202.364</ele>
        <time>1970-01-01T01:00:00Z</time>
      </trkpt>
      <trkpt lat="57.47188" lon="15.537352">
        <ele>202.273</ele>
        <time>1970-01-01T01:00:00Z</time>
      </trkpt>
      <trkpt lat="57.471909" lon="15.537358">
        <ele>202.182</ele>
        <time>1970-01-01T01:00:00Z</time>
      </trkpt>
      <trkpt lat="57.471938" lon="15.537364">
        <ele>202.091</ele>
        <time>1970-01-01T01:00:00Z</time>
      </trkpt>
      <trkpt lat="57.471967" lon="15.537371">
        <ele>202</ele>
        <time>1970-01-01T01:00:00Z</time>
      </trkpt>
      <trkpt lat="57.471996" lon="15.537378">
        <ele>202</ele>
        <time>1970-01-01T01:00:00Z</time>
      </trkpt>
      <trkpt lat="57.472025" lon="15.537384">
        <ele>202</ele>
        <time>1970-01-01T01:00:00Z</time>
      </trkpt>
      <trkpt lat="57.472054" lon="15.537391">
        <ele>202</ele>
        <time>1970-01-01T01:00:00Z</time>
      </trkpt>
      <trkpt lat="57.472083" lon="15.537398">
        <ele>202</ele>
        <time>1970-01-01T01:00:00Z</time>
      </trkpt>
      <trkpt lat="57.472113" lon="15.537404">
        <ele>202</ele>
        <time>1970-01-01T01:00:00Z</time>
      </trkpt>
      <trkpt lat="57.472142" lon="15.537411">
        <ele>202</ele>
        <time>1970-01-01T01:00:00Z</time>
      </trkpt>
      <trkpt lat="57.472171" lon="15.537418">
        <ele>202</ele>
        <time>1970-01-01T01:00:00Z</time>
      </trkpt>
      <trkpt lat="57.4722" lon="15.537426">
        <ele>202</ele>
        <time>1970-01-01T01:00:00Z</time>
      </trkpt>
      <trkpt lat="57.472229" lon="15.537434">
        <ele>202</ele>
        <time>1970-01-01T01:00:00Z</time>
      </trkpt>
      <trkpt lat="57.472258" lon="15.537443">
        <ele>202</ele>
        <time>1970-01-01T01:00:00Z</time>
      </trkpt>
      <trkpt lat="57.472287" lon="15.537452">
        <ele>202</ele>
        <time>1970-01-01T01:00:00Z</time>
      </trkpt>
      <trkpt lat="57.472316" lon="15.537462">
        <ele>202</ele>
        <time>1970-01-01T01:00:00Z</time>
      </trkpt>
      <trkpt lat="57.472345" lon="15.537472">
        <ele>202</ele>
        <time>1970-01-01T01:00:00Z</time>
      </trkpt>
      <trkpt lat="57.472373" lon="15.537484">
        <ele>202</ele>
        <time>1970-01-01T01:00:00Z</time>
      </trkpt>
      <trkpt lat="57.472402" lon="15.537496">
        <ele>202</ele>
        <time>1970-01-01T01:00:00Z</time>
      </trkpt>
      <trkpt lat="57.47243" lon="15.537509">
        <ele>202</ele>
        <time>1970-01-01T01:00:00Z</time>
      </trkpt>
      <trkpt lat="57.472458" lon="15.537523">
        <ele>202.091</ele>
        <time>1970-01-01T01:00:00Z</time>
      </trkpt>
      <trkpt lat="57.472486" lon="15.537537">
        <ele>202.182</ele>
        <time>1970-01-01T01:00:00Z</time>
      </trkpt>
      <trkpt lat="57.472514" lon="15.537553">
        <ele>202.273</ele>
        <time>1970-01-01T01:00:00Z</time>
      </trkpt>
      <trkpt lat="57.472542" lon="15.537569">
        <ele>202.364</ele>
        <time>1970-01-01T01:00:00Z</time>
      </trkpt>
      <trkpt lat="57.47257" lon="15.537586">
        <ele>202.455</ele>
        <time>1970-01-01T01:00:00Z</time>
      </trkpt>
      <trkpt lat="57.472598" lon="15.537604">
        <ele>202.545</ele>
        <time>1970-01-01T01:00:00Z</time>
      </trkpt>
      <trkpt lat="57.472626" lon="15.537622">
        <ele>202.636</ele>
        <time>1970-01-01T01:00:00Z</time>
      </trkpt>
      <trkpt lat="57.472653" lon="15.537642">
        <ele>202.727</ele>
        <time>1970-01-01T01:00:00Z</time>
      </trkpt>
      <trkpt lat="57.472681" lon="15.537662">
        <ele>202.818</ele>
        <time>1970-01-01T01:00:00Z</time>
      </trkpt>
      <trkpt lat="57.472708" lon="15.537683">
        <ele>202.909</ele>
        <time>1970-01-01T01:00:00Z</time>
      </trkpt>
      <trkpt lat="57.472735" lon="15.537705">
        <ele>203</ele>
        <time>1970-01-01T01:00:00Z</time>
      </trkpt>
      <trkpt lat="57.472762" lon="15.537727">
        <ele>203</ele>
        <time>1970-01-01T01:00:00Z</time>
      </trkpt>
      <trkpt lat="57.472789" lon="15.53775">
        <ele>203.091</ele>
        <time>1970-01-01T01:00:00Z</time>
      </trkpt>
      <trkpt lat="57.472816" lon="15.537773">
        <ele>203.182</ele>
        <time>1970-01-01T01:00:00Z</time>
      </trkpt>
      <trkpt lat="57.472843" lon="15.537797">
        <ele>203.273</ele>
        <time>1970-01-01T01:00:00Z</time>
      </trkpt>
      <trkpt lat="57.472869" lon="15.537821">
        <ele>203.364</ele>
        <time>1970-01-01T01:00:00Z</time>
      </trkpt>
      <trkpt lat="57.472895" lon="15.537846">
        <ele>203.455</ele>
        <time>1970-01-01T01:00:00Z</time>
      </trkpt>
      <trkpt lat="57.472921" lon="15.537871">
        <ele>203.545</ele>
        <time>1970-01-01T01:00:00Z</time>
      </trkpt>
      <trkpt lat="57.472947" lon="15.537896">
        <ele>203.636</ele>
        <time>1970-01-01T01:00:00Z</time>
      </trkpt>
      <trkpt lat="57.472973" lon="15.537921">
        <ele>203.727</ele>
        <time>1970-01-01T01:00:00Z</time>
      </trkpt>
      <trkpt lat="57.472998" lon="15.537946">
        <ele>203.818</ele>
        <time>1970-01-01T01:00:00Z</time>
      </trkpt>
      <trkpt lat="57.473024" lon="15.537971">
        <ele>203.909</ele>
        <time>1970-01-01T01:00:00Z</time>
      </trkpt>
      <trkpt lat="57.473049" lon="15.537996">
        <ele>204</ele>
        <time>1970-01-01T01:00:00Z</time>
      </trkpt>
      <trkpt lat="57.473074" lon="15.538021">
        <ele>204</ele>
        <time>1970-01-01T01:00:00Z</time>
      </trkpt>
      <trkpt lat="57.473099" lon="15.538045">
        <ele>204</ele>
        <time>1970-01-01T01:00:00Z</time>
      </trkpt>
      <trkpt lat="57.473124" lon="15.538069">
        <ele>204</ele>
        <time>1970-01-01T01:00:00Z</time>
      </trkpt>
      <trkpt lat="57.473149" lon="15.538092">
        <ele>204</ele>
        <time>1970-01-01T01:00:00Z</time>
      </trkpt>
      <trkpt lat="57.473174" lon="15.538114">
        <ele>203.909</ele>
        <time>1970-01-01T01:00:00Z</time>
      </trkpt>
      <trkpt lat="57.473199" lon="15.538135">
        <ele>203.818</ele>
        <time>1970-01-01T01:00:00Z</time>
      </trkpt>
      <trkpt lat="57.473224" lon="15.538156">
        <ele>203.727</ele>
        <time>1970-01-01T01:00:00Z</time>
      </trkpt>
      <trkpt lat="57.473249" lon="15.538175">
        <ele>203.636</ele>
        <time>1970-01-01T01:00:00Z</time>
      </trkpt>
      <trkpt lat="57.473275" lon="15.538193">
        <ele>203.545</ele>
        <time>1970-01-01T01:00:00Z</time>
      </trkpt>
      <trkpt lat="57.4733" lon="15.53821">
        <ele>203.455</ele>
        <time>1970-01-01T01:00:00Z</time>
      </trkpt>
      <trkpt lat="57.473326" lon="15.538225">
        <ele>203.364</ele>
        <time>1970-01-01T01:00:00Z</time>
      </trkpt>
      <trkpt lat="57.473352" lon="15.538239">
        <ele>203.273</ele>
        <time>1970-01-01T01:00:00Z</time>
      </trkpt>
      <trkpt lat="57.473378" lon="15.538251">
        <ele>203.091</ele>
        <time>1970-01-01T01:00:00Z</time>
      </trkpt>
      <trkpt lat="57.473404" lon="15.538262">
        <ele>202.909</ele>
        <time>1970-01-01T01:00:00Z</time>
      </trkpt>
      <trkpt lat="57.473431" lon="15.53827">
        <ele>202.727</ele>
        <time>1970-01-01T01:00:00Z</time>
      </trkpt>
      <trkpt lat="57.473458" lon="15.538276">
        <ele>202.636</ele>
        <time>1970-01-01T01:00:00Z</time>
      </trkpt>
      <trkpt lat="57.473485" lon="15.538281">
        <ele>202.545</ele>
        <time>1970-01-01T01:00:00Z</time>
      </trkpt>
      <trkpt lat="57.473513" lon="15.538284">
        <ele>202.364</ele>
        <time>1970-01-01T01:00:00Z</time>
      </trkpt>
      <trkpt lat="57.473541" lon="15.538285">
        <ele>202.182</ele>
        <time>1970-01-01T01:00:00Z</time>
      </trkpt>
      <trkpt lat="57.473569" lon="15.538286">
        <ele>202</ele>
        <time>1970-01-01T01:00:00Z</time>
      </trkpt>
      <trkpt lat="57.473597" lon="15.538287">
        <ele>201.818</ele>
        <time>1970-01-01T01:00:00Z</time>
      </trkpt>
      <trkpt lat="57.473626" lon="15.538288">
        <ele>201.545</ele>
        <time>1970-01-01T01:00:00Z</time>
      </trkpt>
      <trkpt lat="57.473654" lon="15.53829">
        <ele>201.273</ele>
        <time>1970-01-01T01:00:00Z</time>
      </trkpt>
      <trkpt lat="57.473683" lon="15.538294">
        <ele>201.091</ele>
        <time>1970-01-01T01:00:00Z</time>
      </trkpt>
      <trkpt lat="57.473711" lon="15.538299">
        <ele>200.818</ele>
        <time>1970-01-01T01:00:00Z</time>
      </trkpt>
      <trkpt lat="57.47374" lon="15.538306">
        <ele>200.545</ele>
        <time>1970-01-01T01:00:00Z</time>
      </trkpt>
      <trkpt lat="57.473768" lon="15.538316">
        <ele>200.273</ele>
        <time>1970-01-01T01:00:00Z</time>
      </trkpt>
      <trkpt lat="57.473796" lon="15.53833">
        <ele>200</ele>
        <time>1970-01-01T01:00:00Z</time>
      </trkpt>
      <trkpt lat="57.473824" lon="15.538346">
        <ele>199.727</ele>
        <time>1970-01-01T01:00:00Z</time>
      </trkpt>
      <trkpt lat="57.473852" lon="15.538365">
        <ele>199.455</ele>
        <time>1970-01-01T01:00:00Z</time>
      </trkpt>
      <trkpt lat="57.473879" lon="15.538386">
        <ele>199.182</ele>
        <time>1970-01-01T01:00:00Z</time>
      </trkpt>
      <trkpt lat="57.473906" lon="15.53841">
        <ele>198.909</ele>
        <time>1970-01-01T01:00:00Z</time>
      </trkpt>
      <trkpt lat="57.473933" lon="15.538435">
        <ele>198.727</ele>
        <time>1970-01-01T01:00:00Z</time>
      </trkpt>
      <trkpt lat="57.47396" lon="15.538462">
        <ele>198.545</ele>
        <time>1970-01-01T01:00:00Z</time>
      </trkpt>
      <trkpt lat="57.473986" lon="15.53849">
        <ele>198.364</ele>
        <time>1970-01-01T01:00:00Z</time>
      </trkpt>
      <trkpt lat="57.474013" lon="15.538518">
        <ele>198.273</ele>
        <time>1970-01-01T01:00:00Z</time>
      </trkpt>
      <trkpt lat="57.474039" lon="15.538548">
        <ele>198.182</ele>
        <time>1970-01-01T01:00:00Z</time>
      </trkpt>
      <trkpt lat="57.474064" lon="15.538578">
        <ele>198.091</ele>
        <time>1970-01-01T01:00:00Z</time>
      </trkpt>
      <trkpt lat="57.47409" lon="15.538607">
        <ele>198</ele>
        <time>1970-01-01T01:00:00Z</time>
      </trkpt>
      <trkpt lat="57.474115" lon="15.538637">
        <ele>198</ele>
        <time>1970-01-01T01:00:00Z</time>
      </trkpt>
      <trkpt lat="57.47414" lon="15.538667">
        <ele>198</ele>
        <time>1970-01-01T01:00:00Z</time>
      </trkpt>
      <trkpt lat="57.474165" lon="15.538697">
        <ele>198</ele>
        <time>1970-01-01T01:00:00Z</time>
      </trkpt>
      <trkpt lat="57.47419" lon="15.538726">
        <ele>198</ele>
        <time>1970-01-01T01:00:00Z</time>
      </trkpt>
      <trkpt lat="57.474214" lon="15.538756">
        <ele>198</ele>
        <time>1970-01-01T01:00:00Z</time>
      </trkpt>
      <trkpt lat="57.474239" lon="15.538786">
        <ele>198</ele>
        <time>1970-01-01T01:00:00Z</time>
      </trkpt>
      <trkpt lat="57.474263" lon="15.538816">
        <ele>198</ele>
        <time>1970-01-01T01:00:00Z</time>
      </trkpt>
      <trkpt lat="57.474287" lon="15.538845">
        <ele>198</ele>
        <time>1970-01-01T01:00:00Z</time>
      </trkpt>
      <trkpt lat="57.474311" lon="15.538875">
        <ele>198.091</ele>
        <time>1970-01-01T01:00:00Z</time>
      </trkpt>
      <trkpt lat="57.474335" lon="15.538904">
        <ele>198.182</ele>
        <time>1970-01-01T01:00:00Z</time>
      </trkpt>
      <trkpt lat="57.474359" lon="15.538934">
        <ele>198.273</ele>
        <time>1970-01-01T01:00:00Z</time>
      </trkpt>
      <trkpt lat="57.474383" lon="15.538963">
        <ele>198.364</ele>
        <time>1970-01-01T01:00:00Z</time>
      </trkpt>
      <trkpt lat="57.474406" lon="15.538993">
        <ele>198.455</ele>
        <time>1970-01-01T01:00:00Z</time>
      </trkpt>
      <trkpt lat="57.47443" lon="15.539022">
        <ele>198.545</ele>
        <time>1970-01-01T01:00:00Z</time>
      </trkpt>
      <trkpt lat="57.474453" lon="15.539051">
        <ele>198.636</ele>
        <time>1970-01-01T01:00:00Z</time>
      </trkpt>
      <trkpt lat="57.474475" lon="15.53908">
        <ele>198.727</ele>
        <time>1970-01-01T01:00:00Z</time>
      </trkpt>
      <trkpt lat="57.474498" lon="15.539109">
        <ele>198.818</ele>
        <time>1970-01-01T01:00:00Z</time>
      </trkpt>
      <trkpt lat="57.474519" lon="15.539137">
        <ele>198.909</ele>
        <time>1970-01-01T01:00:00Z</time>
      </trkpt>
      <trkpt lat="57.474541" lon="15.539164">
        <ele>199</ele>
        <time>1970-01-01T01:00:00Z</time>
      </trkpt>
      <trkpt lat="57.474563" lon="15.53919">
        <ele>199</ele>
        <time>1970-01-01T01:00:00Z</time>
      </trkpt>
      <trkpt lat="57.474585" lon="15.539214">
        <ele>199</ele>
        <time>1970-01-01T01:00:00Z</time>
      </trkpt>
      <trkpt lat="57.474607" lon="15.539235">
        <ele>199</ele>
        <time>1970-01-01T01:00:00Z</time>
      </trkpt>
      <trkpt lat="57.47463" lon="15.539255">
        <ele>198.909</ele>
        <time>1970-01-01T01:00:00Z</time>
      </trkpt>
      <trkpt lat="57.474653" lon="15.539273">
        <ele>198.818</ele>
        <time>1970-01-01T01:00:00Z</time>
      </trkpt>
      <trkpt lat="57.474676" lon="15.539289">
        <ele>198.727</ele>
        <time>1970-01-01T01:00:00Z</time>
      </trkpt>
      <trkpt lat="57.4747" lon="15.539303">
        <ele>198.636</ele>
        <time>1970-01-01T01:00:00Z</time>
      </trkpt>
      <trkpt lat="57.474724" lon="15.539316">
        <ele>198.545</ele>
        <time>1970-01-01T01:00:00Z</time>
      </trkpt>
      <trkpt lat="57.474748" lon="15.539329">
        <ele>198.455</ele>
        <time>1970-01-01T01:00:00Z</time>
      </trkpt>
      <trkpt lat="57.474773" lon="15.53934">
        <ele>198.364</ele>
        <time>1970-01-01T01:00:00Z</time>
      </trkpt>
      <trkpt lat="57.474798" lon="15.53935">
        <ele>198.273</ele>
        <time>1970-01-01T01:00:00Z</time>
      </trkpt>
      <trkpt lat="57.474823" lon="15.539361">
        <ele>198.182</ele>
        <time>1970-01-01T01:00:00Z</time>
      </trkpt>
      <trkpt lat="57.474848" lon="15.53937">
        <ele>198.091</ele>
        <time>1970-01-01T01:00:00Z</time>
      </trkpt>
      <trkpt lat="57.474873" lon="15.53938">
        <ele>198</ele>
        <time>1970-01-01T01:00:00Z</time>
      </trkpt>
      <trkpt lat="57.474899" lon="15.53939">
        <ele>198</ele>
        <time>1970-01-01T01:00:00Z</time>
      </trkpt>
      <trkpt lat="57.474925" lon="15.539399">
        <ele>198</ele>
        <time>1970-01-01T01:00:00Z</time>
      </trkpt>
      <trkpt lat="57.474951" lon="15.539408">
        <ele>198</ele>
        <time>1970-01-01T01:00:00Z</time>
      </trkpt>
      <trkpt lat="57.474977" lon="15.539418">
        <ele>198</ele>
        <time>1970-01-01T01:00:00Z</time>
      </trkpt>
      <trkpt lat="57.475003" lon="15.539427">
        <ele>198</ele>
        <time>1970-01-01T01:00:00Z</time>
      </trkpt>
      <trkpt lat="57.475029" lon="15.539437">
        <ele>198</ele>
        <time>1970-01-01T01:00:00Z</time>
      </trkpt>
      <trkpt lat="57.475055" lon="15.539446">
        <ele>197.909</ele>
        <time>1970-01-01T01:00:00Z</time>
      </trkpt>
      <trkpt lat="57.475081" lon="15.539456">
        <ele>197.818</ele>
        <time>1970-01-01T01:00:00Z</time>
      </trkpt>
      <trkpt lat="57.475108" lon="15.539467">
        <ele>197.727</ele>
        <time>1970-01-01T01:00:00Z</time>
      </trkpt>
      <trkpt lat="57.475134" lon="15.539477">
        <ele>197.636</ele>
        <time>1970-01-01T01:00:00Z</time>
      </trkpt>
      <trkpt lat="57.47516" lon="15.539488">
        <ele>197.545</ele>
        <time>1970-01-01T01:00:00Z</time>
      </trkpt>
      <trkpt lat="57.475186" lon="15.539499">
        <ele>197.455</ele>
        <time>1970-01-01T01:00:00Z</time>
      </trkpt>
      <trkpt lat="57.475212" lon="15.53951">
        <ele>197.364</ele>
        <time>1970-01-01T01:00:00Z</time>
      </trkpt>
      <trkpt lat="57.475237" lon="15.539522">
        <ele>197.273</ele>
        <time>1970-01-01T01:00:00Z</time>
      </trkpt>
      <trkpt lat="57.475263" lon="15.539533">
        <ele>197.273</ele>
        <time>1970-01-01T01:00:00Z</time>
      </trkpt>
      <trkpt lat="57.475289" lon="15.539544">
        <ele>197.273</ele>
        <time>1970-01-01T01:00:00Z</time>
      </trkpt>
      <trkpt lat="57.475314" lon="15.539555">
        <ele>197.273</ele>
        <time>1970-01-01T01:00:00Z</time>
      </trkpt>
      <trkpt lat="57.47534" lon="15.539566">
        <ele>197.364</ele>
        <time>1970-01-01T01:00:00Z</time>
      </trkpt>
      <trkpt lat="57.475365" lon="15.539577">
        <ele>197.455</ele>
        <time>1970-01-01T01:00:00Z</time>
      </trkpt>
      <trkpt lat="57.47539" lon="15.539587">
        <ele>197.545</ele>
        <time>1970-01-01T01:00:00Z</time>
      </trkpt>
      <trkpt lat="57.475415" lon="15.539597">
        <ele>197.636</ele>
        <time>1970-01-01T01:00:00Z</time>
      </trkpt>
      <trkpt lat="57.47544" lon="15.539607">
        <ele>197.727</ele>
        <time>1970-01-01T01:00:00Z</time>
      </trkpt>
      <trkpt lat="57.475464" lon="15.539617">
        <ele>197.818</ele>
        <time>1970-01-01T01:00:00Z</time>
      </trkpt>
      <trkpt lat="57.475488" lon="15.539627">
        <ele>197.909</ele>
        <time>1970-01-01T01:00:00Z</time>
      </trkpt>
      <trkpt lat="57.475512" lon="15.539638">
        <ele>198</ele>
        <time>1970-01-01T01:00:00Z</time>
      </trkpt>
      <trkpt lat="57.475535" lon="15.53965">
        <ele>198</ele>
        <time>1970-01-01T01:00:00Z</time>
      </trkpt>
      <trkpt lat="57.475557" lon="15.539662">
        <ele>198</ele>
        <time>1970-01-01T01:00:00Z</time>
      </trkpt>
      <trkpt lat="57.47558" lon="15.539677">
        <ele>198</ele>
        <time>1970-01-01T01:00:00Z</time>
      </trkpt>
      <trkpt lat="57.475605" lon="15.539695">
        <ele>198.091</ele>
        <time>1970-01-01T01:00:00Z</time>
      </trkpt>
      <trkpt lat="57.475633" lon="15.539717">
        <ele>198.182</ele>
        <time>1970-01-01T01:00:00Z</time>
      </trkpt>
      <trkpt lat="57.475658" lon="15.539746">
        <ele>198.273</ele>
        <time>1970-01-01T01:00:00Z</time>
      </trkpt>
      <trkpt lat="57.475676" lon="15.539783">
        <ele>198.364</ele>
        <time>1970-01-01T01:00:00Z</time>
      </trkpt>
      <trkpt lat="57.475686" lon="15.539828">
        <ele>198.455</ele>
        <time>1970-01-01T01:00:00Z</time>
      </trkpt>
      <trkpt lat="57.475691" lon="15.539878">
        <ele>198.545</ele>
        <time>1970-01-01T01:00:00Z</time>
      </trkpt>
      <trkpt lat="57.47569" lon="15.539931">
        <ele>198.636</ele>
        <time>1970-01-01T01:00:00Z</time>
      </trkpt>
      <trkpt lat="57.475686" lon="15.539986">
        <ele>198.727</ele>
        <time>1970-01-01T01:00:00Z</time>
      </trkpt>
      <trkpt lat="57.475679" lon="15.540041">
        <ele>198.818</ele>
        <time>1970-01-01T01:00:00Z</time>
      </trkpt>
      <trkpt lat="57.47567" lon="15.540094">
        <ele>198.909</ele>
        <time>1970-01-01T01:00:00Z</time>
      </trkpt>
      <trkpt lat="57.475661" lon="15.540145">
        <ele>199</ele>
        <time>1970-01-01T01:00:00Z</time>
      </trkpt>
      <trkpt lat="57.475651" lon="15.540194">
        <ele>199.091</ele>
        <time>1970-01-01T01:00:00Z</time>
      </trkpt>
      <trkpt lat="57.47564" lon="15.540242">
        <ele>199.182</ele>
        <time>1970-01-01T01:00:00Z</time>
      </trkpt>
      <trkpt lat="57.47563" lon="15.540289">
        <ele>199.273</ele>
        <time>1970-01-01T01:00:00Z</time>
      </trkpt>
      <trkpt lat="57.47562" lon="15.540336">
        <ele>199.364</ele>
        <time>1970-01-01T01:00:00Z</time>
      </trkpt>
      <trkpt lat="57.475611" lon="15.540382">
        <ele>199.455</ele>
        <time>1970-01-01T01:00:00Z</time>
      </trkpt>
      <trkpt lat="57.475602" lon="15.540428">
        <ele>199.545</ele>
        <time>1970-01-01T01:00:00Z</time>
      </trkpt>
      <trkpt lat="57.475593" lon="15.540473">
        <ele>199.636</ele>
        <time>1970-01-01T01:00:00Z</time>
      </trkpt>
      <trkpt lat="57.475585" lon="15.540518">
        <ele>199.727</ele>
        <time>1970-01-01T01:00:00Z</time>
      </trkpt>
      <trkpt lat="57.475577" lon="15.540563">
        <ele>199.818</ele>
        <time>1970-01-01T01:00:00Z</time>
      </trkpt>
      <trkpt lat="57.47557" lon="15.540608">
        <ele>199.909</ele>
        <time>1970-01-01T01:00:00Z</time>
      </trkpt>
      <trkpt lat="57.475563" lon="15.540653">
        <ele>200</ele>
        <time>1970-01-01T01:00:00Z</time>
      </trkpt>
      <trkpt lat="57.475556" lon="15.540698">
        <ele>200</ele>
        <time>1970-01-01T01:00:00Z</time>
      </trkpt>
      <trkpt lat="57.475549" lon="15.540743">
        <ele>200</ele>
        <time>1970-01-01T01:00:00Z</time>
      </trkpt>
      <trkpt lat="57.475543" lon="15.540788">
        <ele>200.091</ele>
        <time>1970-01-01T01:00:00Z</time>
      </trkpt>
      <trkpt lat="57.475537" lon="15.540834">
        <ele>200.182</ele>
        <time>1970-01-01T01:00:00Z</time>
      </trkpt>
      <trkpt lat="57.475532" lon="15.54088">
        <ele>200.273</ele>
        <time>1970-01-01T01:00:00Z</time>
      </trkpt>
      <trkpt lat="57.475527" lon="15.540926">
        <ele>200.364</ele>
        <time>1970-01-01T01:00:00Z</time>
      </trkpt>
      <trkpt lat="57.475524" lon="15.540974">
        <ele>200.455</ele>
        <time>1970-01-01T01:00:00Z</time>
      </trkpt>
      <trkpt lat="57.475521" lon="15.541021">
        <ele>200.545</ele>
        <time>1970-01-01T01:00:00Z</time>
      </trkpt>
      <trkpt lat="57.47552" lon="15.54107">
        <ele>200.636</ele>
        <time>1970-01-01T01:00:00Z</time>
      </trkpt>
      <trkpt lat="57.475521" lon="15.54112">
        <ele>200.727</ele>
        <time>1970-01-01T01:00:00Z</time>
      </trkpt>
      <trkpt lat="57.475522" lon="15.54117">
        <ele>200.818</ele>
        <time>1970-01-01T01:00:00Z</time>
      </trkpt>
      <trkpt lat="57.475525" lon="15.54122">
        <ele>200.909</ele>
        <time>1970-01-01T01:00:00Z</time>
      </trkpt>
      <trkpt lat="57.475528" lon="15.541271">
        <ele>201</ele>
        <time>1970-01-01T01:00:00Z</time>
      </trkpt>
      <trkpt lat="57.475531" lon="15.541322">
        <ele>201.091</ele>
        <time>1970-01-01T01:00:00Z</time>
      </trkpt>
      <trkpt lat="57.475533" lon="15.541372">
        <ele>201.182</ele>
        <time>1970-01-01T01:00:00Z</time>
      </trkpt>
      <trkpt lat="57.475535" lon="15.541421">
        <ele>201.273</ele>
        <time>1970-01-01T01:00:00Z</time>
      </trkpt>
      <trkpt lat="57.475537" lon="15.541471">
        <ele>201.364</ele>
        <time>1970-01-01T01:00:00Z</time>
      </trkpt>
      <trkpt lat="57.475539" lon="15.54152">
        <ele>201.455</ele>
        <time>1970-01-01T01:00:00Z</time>
      </trkpt>
      <trkpt lat="57.47554" lon="15.541568">
        <ele>201.545</ele>
        <time>1970-01-01T01:00:00Z</time>
      </trkpt>
      <trkpt lat="57.475541" lon="15.541617">
        <ele>201.636</ele>
        <time>1970-01-01T01:00:00Z</time>
      </trkpt>
      <trkpt lat="57.475542" lon="15.541665">
        <ele>201.727</ele>
        <time>1970-01-01T01:00:00Z</time>
      </trkpt>
      <trkpt lat="57.475543" lon="15.541713">
        <ele>201.818</ele>
        <time>1970-01-01T01:00:00Z</time>
      </trkpt>
      <trkpt lat="57.475544" lon="15.541762">
        <ele>201.909</ele>
        <time>1970-01-01T01:00:00Z</time>
      </trkpt>
      <trkpt lat="57.475545" lon="15.54181">
        <ele>202</ele>
        <time>1970-01-01T01:00:00Z</time>
      </trkpt>
      <trkpt lat="57.475546" lon="15.541858">
        <ele>202.091</ele>
        <time>1970-01-01T01:00:00Z</time>
      </trkpt>
      <trkpt lat="57.475547" lon="15.541907">
        <ele>202.182</ele>
        <time>1970-01-01T01:00:00Z</time>
      </trkpt>
      <trkpt lat="57.475548" lon="15.541955">
        <ele>202.273</ele>
        <time>1970-01-01T01:00:00Z</time>
      </trkpt>
      <trkpt lat="57.47555" lon="15.542004">
        <ele>202.364</ele>
        <time>1970-01-01T01:00:00Z</time>
      </trkpt>
      <trkpt lat="57.475551" lon="15.542053">
        <ele>202.455</ele>
        <time>1970-01-01T01:00:00Z</time>
      </trkpt>
      <trkpt lat="57.475552" lon="15.542103">
        <ele>202.545</ele>
        <time>1970-01-01T01:00:00Z</time>
      </trkpt>
      <trkpt lat="57.475553" lon="15.542152">
        <ele>202.636</ele>
        <time>1970-01-01T01:00:00Z</time>
      </trkpt>
      <trkpt lat="57.475554" lon="15.542202">
        <ele>202.727</ele>
        <time>1970-01-01T01:00:00Z</time>
      </trkpt>
      <trkpt lat="57.475554" lon="15.542252">
        <ele>202.818</ele>
        <time>1970-01-01T01:00:00Z</time>
      </trkpt>
      <trkpt lat="57.475555" lon="15.542302">
        <ele>202.909</ele>
        <time>1970-01-01T01:00:00Z</time>
      </trkpt>
      <trkpt lat="57.475555" lon="15.542353">
        <ele>203</ele>
        <time>1970-01-01T01:00:00Z</time>
      </trkpt>
      <trkpt lat="57.475555" lon="15.542404">
        <ele>203.091</ele>
        <time>1970-01-01T01:00:00Z</time>
      </trkpt>
      <trkpt lat="57.475555" lon="15.542455">
        <ele>203.182</ele>
        <time>1970-01-01T01:00:00Z</time>
      </trkpt>
      <trkpt lat="57.475554" lon="15.542506">
        <ele>203.273</ele>
        <time>1970-01-01T01:00:00Z</time>
      </trkpt>
      <trkpt lat="57.475553" lon="15.542557">
        <ele>203.364</ele>
        <time>1970-01-01T01:00:00Z</time>
      </trkpt>
      <trkpt lat="57.475552" lon="15.542608">
        <ele>203.455</ele>
        <time>1970-01-01T01:00:00Z</time>
      </trkpt>
      <trkpt lat="57.47555" lon="15.542658">
        <ele>203.545</ele>
        <time>1970-01-01T01:00:00Z</time>
      </trkpt>
      <trkpt lat="57.475548" lon="15.542708">
        <ele>203.636</ele>
        <time>1970-01-01T01:00:00Z</time>
      </trkpt>
      <trkpt lat="57.475546" lon="15.542757">
        <ele>203.727</ele>
        <time>1970-01-01T01:00:00Z</time>
      </trkpt>
      <trkpt lat="57.475544" lon="15.542806">
        <ele>203.818</ele>
        <time>1970-01-01T01:00:00Z</time>
      </trkpt>
      <trkpt lat="57.475542" lon="15.542854">
        <ele>203.909</ele>
        <time>1970-01-01T01:00:00Z</time>
      </trkpt>
      <trkpt lat="57.475541" lon="15.542902">
        <ele>204</ele>
        <time>1970-01-01T01:00:00Z</time>
      </trkpt>
      <trkpt lat="57.47554" lon="15.542951">
        <ele>204</ele>
        <time>1970-01-01T01:00:00Z</time>
      </trkpt>
      <trkpt lat="57.475539" lon="15.542999">
        <ele>204.091</ele>
        <time>1970-01-01T01:00:00Z</time>
      </trkpt>
      <trkpt lat="57.475539" lon="15.543047">
        <ele>204.182</ele>
        <time>1970-01-01T01:00:00Z</time>
      </trkpt>
      <trkpt lat="57.47554" lon="15.543095">
        <ele>204.273</ele>
        <time>1970-01-01T01:00:00Z</time>
      </trkpt>
      <trkpt lat="57.475541" lon="15.543142">
        <ele>204.364</ele>
        <time>1970-01-01T01:00:00Z</time>
      </trkpt>
      <trkpt lat="57.475541" lon="15.543189">
        <ele>204.455</ele>
        <time>1970-01-01T01:00:00Z</time>
      </trkpt>
      <trkpt lat="57.475542" lon="15.543236">
        <ele>204.545</ele>
        <time>1970-01-01T01:00:00Z</time>
      </trkpt>
      <trkpt lat="57.475543" lon="15.543282">
        <ele>204.727</ele>
        <time>1970-01-01T01:00:00Z</time>
      </trkpt>
      <trkpt lat="57.475544" lon="15.543326">
        <ele>204.909</ele>
        <time>1970-01-01T01:00:00Z</time>
      </trkpt>
      <trkpt lat="57.475545" lon="15.54337">
        <ele>205.091</ele>
        <time>1970-01-01T01:00:00Z</time>
      </trkpt>
      <trkpt lat="57.475546" lon="15.543413">
        <ele>205.273</ele>
        <time>1970-01-01T01:00:00Z</time>
      </trkpt>
      <trkpt lat="57.475546" lon="15.543455">
        <ele>205.455</ele>
        <time>1970-01-01T01:00:00Z</time>
      </trkpt>
      <trkpt lat="57.475546" lon="15.543496">
        <ele>205.545</ele>
        <time>1970-01-01T01:00:00Z</time>
      </trkpt>
      <trkpt lat="57.475546" lon="15.543538">
        <ele>205.727</ele>
        <time>1970-01-01T01:00:00Z</time>
      </trkpt>
      <trkpt lat="57.475547" lon="15.54358">
        <ele>205.909</ele>
        <time>1970-01-01T01:00:00Z</time>
      </trkpt>
      <trkpt lat="57.475548" lon="15.543623">
        <ele>206.091</ele>
        <time>1970-01-01T01:00:00Z</time>
      </trkpt>
      <trkpt lat="57.475549" lon="15.543669">
        <ele>206.273</ele>
        <time>1970-01-01T01:00:00Z</time>
      </trkpt>
      <trkpt lat="57.475552" lon="15.543717">
        <ele>206.455</ele>
        <time>1970-01-01T01:00:00Z</time>
      </trkpt>
      <trkpt lat="57.475555" lon="15.543765">
        <ele>206.545</ele>
        <time>1970-01-01T01:00:00Z</time>
      </trkpt>
      <trkpt lat="57.475559" lon="15.543813">
        <ele>206.636</ele>
        <time>1970-01-01T01:00:00Z</time>
      </trkpt>
      <trkpt lat="57.475565" lon="15.543859">
        <ele>206.818</ele>
        <time>1970-01-01T01:00:00Z</time>
      </trkpt>
      <trkpt lat="57.475571" lon="15.543904">
        <ele>207</ele>
        <time>1970-01-01T01:00:00Z</time>
      </trkpt>
      <trkpt lat="57.475579" lon="15.543949">
        <ele>207.182</ele>
        <time>1970-01-01T01:00:00Z</time>
      </trkpt>
      <trkpt lat="57.475587" lon="15.543993">
        <ele>207.364</ele>
        <time>1970-01-01T01:00:00Z</time>
      </trkpt>
      <trkpt lat="57.475599" lon="15.544036">
        <ele>207.455</ele>
        <time>1970-01-01T01:00:00Z</time>
      </trkpt>
      <trkpt lat="57.475613" lon="15.544077">
        <ele>207.636</ele>
        <time>1970-01-01T01:00:00Z</time>
      </trkpt>
      <trkpt lat="57.47563" lon="15.54411">
        <ele>207.818</ele>
        <time>1970-01-01T01:00:00Z</time>
      </trkpt>
      <trkpt lat="57.47565" lon="15.544132">
        <ele>208</ele>
        <time>1970-01-01T01:00:00Z</time>
      </trkpt>
      <trkpt lat="57.475672" lon="15.544138">
        <ele>208.182</ele>
        <time>1970-01-01T01:00:00Z</time>
      </trkpt>
      <trkpt lat="57.475694" lon="15.544131">
        <ele>208.364</ele>
        <time>1970-01-01T01:00:00Z</time>
      </trkpt>
      <trkpt lat="57.475716" lon="15.544112">
        <ele>208.545</ele>
        <time>1970-01-01T01:00:00Z</time>
      </trkpt>
      <trkpt lat="57.475736" lon="15.544084">
        <ele>208.636</ele>
        <time>1970-01-01T01:00:00Z</time>
      </trkpt>
      <trkpt lat="57.475755" lon="15.544051">
        <ele>208.727</ele>
        <time>1970-01-01T01:00:00Z</time>
      </trkpt>
      <trkpt lat="57.475772" lon="15.544016">
        <ele>208.818</ele>
        <time>1970-01-01T01:00:00Z</time>
      </trkpt>
      <trkpt lat="57.47579" lon="15.543979">
        <ele>208.909</ele>
        <time>1970-01-01T01:00:00Z</time>
      </trkpt>
      <trkpt lat="57.475807" lon="15.543942">
        <ele>209</ele>
        <time>1970-01-01T01:00:00Z</time>
      </trkpt>
      <trkpt lat="57.475825" lon="15.543905">
        <ele>209</ele>
        <time>1970-01-01T01:00:00Z</time>
      </trkpt>
      <trkpt lat="57.475843" lon="15.543869">
        <ele>209.091</ele>
        <time>1970-01-01T01:00:00Z</time>
      </trkpt>
      <trkpt lat="57.475862" lon="15.543835">
        <ele>209.182</ele>
        <time>1970-01-01T01:00:00Z</time>
      </trkpt>
      <trkpt lat="57.475882" lon="15.543803">
        <ele>209.273</ele>
        <time>1970-01-01T01:00:00Z</time>
      </trkpt>
      <trkpt lat="57.475904" lon="15.543772">
        <ele>209.364</ele>
        <time>1970-01-01T01:00:00Z</time>
      </trkpt>
      <trkpt lat="57.475925" lon="15.543744">
        <ele>209.455</ele>
        <time>1970-01-01T01:00:00Z</time>
      </trkpt>
      <trkpt lat="57.475947" lon="15.543716">
        <ele>209.545</ele>
        <time>1970-01-01T01:00:00Z</time>
      </trkpt>
      <trkpt lat="57.475969" lon="15.543688">
        <ele>209.727</ele>
        <time>1970-01-01T01:00:00Z</time>
      </trkpt>
      <trkpt lat="57.475991" lon="15.543661">
        <ele>209.909</ele>
        <time>1970-01-01T01:00:00Z</time>
      </trkpt>
      <trkpt lat="57.476013" lon="15.543633">
        <ele>210.091</ele>
        <time>1970-01-01T01:00:00Z</time>
      </trkpt>
      <trkpt lat="57.476035" lon="15.543605">
        <ele>210.273</ele>
        <time>1970-01-01T01:00:00Z</time>
      </trkpt>
      <trkpt lat="57.476056" lon="15.543578">
        <ele>210.455</ele>
        <time>1970-01-01T01:00:00Z</time>
      </trkpt>
      <trkpt lat="57.476078" lon="15.54355">
        <ele>210.636</ele>
        <time>1970-01-01T01:00:00Z</time>
      </trkpt>
      <trkpt lat="57.476099" lon="15.543522">
        <ele>210.818</ele>
        <time>1970-01-01T01:00:00Z</time>
      </trkpt>
      <trkpt lat="57.47612" lon="15.543494">
        <ele>211</ele>
        <time>1970-01-01T01:00:00Z</time>
      </trkpt>
      <trkpt lat="57.476142" lon="15.543467">
        <ele>211.182</ele>
        <time>1970-01-01T01:00:00Z</time>
      </trkpt>
      <trkpt lat="57.476163" lon="15.543439">
        <ele>211.364</ele>
        <time>1970-01-01T01:00:00Z</time>
      </trkpt>
      <trkpt lat="57.476184" lon="15.543411">
        <ele>211.545</ele>
        <time>1970-01-01T01:00:00Z</time>
      </trkpt>
      <trkpt lat="57.476206" lon="15.543383">
        <ele>211.636</ele>
        <time>1970-01-01T01:00:00Z</time>
      </trkpt>
      <trkpt lat="57.476227" lon="15.543355">
        <ele>211.727</ele>
        <time>1970-01-01T01:00:00Z</time>
      </trkpt>
      <trkpt lat="57.476249" lon="15.543326">
        <ele>211.818</ele>
        <time>1970-01-01T01:00:00Z</time>
      </trkpt>
      <trkpt lat="57.47627" lon="15.543298">
        <ele>211.909</ele>
        <time>1970-01-01T01:00:00Z</time>
      </trkpt>
      <trkpt lat="57.476292" lon="15.543269">
        <ele>212</ele>
        <time>1970-01-01T01:00:00Z</time>
      </trkpt>
      <trkpt lat="57.476313" lon="15.54324">
        <ele>212</ele>
        <time>1970-01-01T01:00:00Z</time>
      </trkpt>
      <trkpt lat="57.476335" lon="15.543211">
        <ele>212</ele>
        <time>1970-01-01T01:00:00Z</time>
      </trkpt>
      <trkpt lat="57.476357" lon="15.543183">
        <ele>212</ele>
        <time>1970-01-01T01:00:00Z</time>
      </trkpt>
      <trkpt lat="57.476378" lon="15.543155">
        <ele>212</ele>
        <time>1970-01-01T01:00:00Z</time>
      </trkpt>
      <trkpt lat="57.4764" lon="15.543127">
        <ele>212</ele>
        <time>1970-01-01T01:00:00Z</time>
      </trkpt>
      <trkpt lat="57.476422" lon="15.543099">
        <ele>212</ele>
        <time>1970-01-01T01:00:00Z</time>
      </trkpt>
      <trkpt lat="57.476444" lon="15.543072">
        <ele>212</ele>
        <time>1970-01-01T01:00:00Z</time>
      </trkpt>
      <trkpt lat="57.476466" lon="15.543045">
        <ele>212</ele>
        <time>1970-01-01T01:00:00Z</time>
      </trkpt>
      <trkpt lat="57.476488" lon="15.543019">
        <ele>212</ele>
        <time>1970-01-01T01:00:00Z</time>
      </trkpt>
      <trkpt lat="57.476511" lon="15.542994">
        <ele>212</ele>
        <time>1970-01-01T01:00:00Z</time>
      </trkpt>
      <trkpt lat="57.476535" lon="15.54297">
        <ele>212</ele>
        <time>1970-01-01T01:00:00Z</time>
      </trkpt>
      <trkpt lat="57.47656" lon="15.542948">
        <ele>212</ele>
        <time>1970-01-01T01:00:00Z</time>
      </trkpt>
      <trkpt lat="57.476586" lon="15.542927">
        <ele>211.909</ele>
        <time>1970-01-01T01:00:00Z</time>
      </trkpt>
      <trkpt lat="57.476613" lon="15.542907">
        <ele>211.818</ele>
        <time>1970-01-01T01:00:00Z</time>
      </trkpt>
      <trkpt lat="57.47664" lon="15.542887">
        <ele>211.727</ele>
        <time>1970-01-01T01:00:00Z</time>
      </trkpt>
      <trkpt lat="57.476667" lon="15.542868">
        <ele>211.636</ele>
        <time>1970-01-01T01:00:00Z</time>
      </trkpt>
      <trkpt lat="57.476694" lon="15.542848">
        <ele>211.545</ele>
        <time>1970-01-01T01:00:00Z</time>
      </trkpt>
      <trkpt lat="57.47672" lon="15.542826">
        <ele>211.455</ele>
        <time>1970-01-01T01:00:00Z</time>
      </trkpt>
      <trkpt lat="57.476746" lon="15.542805">
        <ele>211.273</ele>
        <time>1970-01-01T01:00:00Z</time>
      </trkpt>
      <trkpt lat="57.476771" lon="15.542782">
        <ele>211.091</ele>
        <time>1970-01-01T01:00:00Z</time>
      </trkpt>
      <trkpt lat="57.476797" lon="15.542759">
        <ele>210.909</ele>
        <time>1970-01-01T01:00:00Z</time>
      </trkpt>
      <trkpt lat="57.476822" lon="15.542736">
        <ele>210.727</ele>
        <time>1970-01-01T01:00:00Z</time>
      </trkpt>
      <trkpt lat="57.476849" lon="15.542713">
        <ele>210.545</ele>
        <time>1970-01-01T01:00:00Z</time>
      </trkpt>
      <trkpt lat="57.476875" lon="15.542691">
        <ele>210.455</ele>
        <time>1970-01-01T01:00:00Z</time>
      </trkpt>
      <trkpt lat="57.476903" lon="15.542668">
        <ele>210.364</ele>
        <time>1970-01-01T01:00:00Z</time>
      </trkpt>
      <trkpt lat="57.476931" lon="15.542646">
        <ele>210.273</ele>
        <time>1970-01-01T01:00:00Z</time>
      </trkpt>
      <trkpt lat="57.476958" lon="15.542624">
        <ele>210.182</ele>
        <time>1970-01-01T01:00:00Z</time>
      </trkpt>
      <trkpt lat="57.476986" lon="15.542603">
        <ele>210.091</ele>
        <time>1970-01-01T01:00:00Z</time>
      </trkpt>
      <trkpt lat="57.477014" lon="15.542581">
        <ele>210</ele>
        <time>1970-01-01T01:00:00Z</time>
      </trkpt>
      <trkpt lat="57.477041" lon="15.542559">
        <ele>210</ele>
        <time>1970-01-01T01:00:00Z</time>
      </trkpt>
      <trkpt lat="57.477068" lon="15.542537">
        <ele>210</ele>
        <time>1970-01-01T01:00:00Z</time>
      </trkpt>
      <trkpt lat="57.477094" lon="15.542514">
        <ele>210</ele>
        <time>1970-01-01T01:00:00Z</time>
      </trkpt>
      <trkpt lat="57.477121" lon="15.542492">
        <ele>210</ele>
        <time>1970-01-01T01:00:00Z</time>
      </trkpt>
      <trkpt lat="57.477147" lon="15.542469">
        <ele>210</ele>
        <time>1970-01-01T01:00:00Z</time>
      </trkpt>
      <trkpt lat="57.477173" lon="15.542446">
        <ele>210</ele>
        <time>1970-01-01T01:00:00Z</time>
      </trkpt>
      <trkpt lat="57.477199" lon="15.542423">
        <ele>210</ele>
        <time>1970-01-01T01:00:00Z</time>
      </trkpt>
      <trkpt lat="57.477224" lon="15.542399">
        <ele>210</ele>
        <time>1970-01-01T01:00:00Z</time>
      </trkpt>
      <trkpt lat="57.47725" lon="15.542375">
        <ele>210</ele>
        <time>1970-01-01T01:00:00Z</time>
      </trkpt>
      <trkpt lat="57.477276" lon="15.54235">
        <ele>210</ele>
        <time>1970-01-01T01:00:00Z</time>
      </trkpt>
      <trkpt lat="57.477302" lon="15.542325">
        <ele>210</ele>
        <time>1970-01-01T01:00:00Z</time>
      </trkpt>
      <trkpt lat="57.477327" lon="15.542299">
        <ele>210</ele>
        <time>1970-01-01T01:00:00Z</time>
      </trkpt>
      <trkpt lat="57.477353" lon="15.542272">
        <ele>210</ele>
        <time>1970-01-01T01:00:00Z</time>
      </trkpt>
      <trkpt lat="57.477378" lon="15.542244">
        <ele>209.909</ele>
        <time>1970-01-01T01:00:00Z</time>
      </trkpt>
      <trkpt lat="57.477403" lon="15.542215">
        <ele>209.818</ele>
        <time>1970-01-01T01:00:00Z</time>
      </trkpt>
      <trkpt lat="57.477428" lon="15.542184">
        <ele>209.727</ele>
        <time>1970-01-01T01:00:00Z</time>
      </trkpt>
      <trkpt lat="57.477453" lon="15.542151">
        <ele>209.636</ele>
        <time>1970-01-01T01:00:00Z</time>
      </trkpt>
      <trkpt lat="57.477478" lon="15.542118">
        <ele>209.455</ele>
        <time>1970-01-01T01:00:00Z</time>
      </trkpt>
      <trkpt lat="57.477502" lon="15.542084">
        <ele>209.273</ele>
        <time>1970-01-01T01:00:00Z</time>
      </trkpt>
      <trkpt lat="57.477527" lon="15.542049">
        <ele>209.091</ele>
        <time>1970-01-01T01:00:00Z</time>
      </trkpt>
      <trkpt lat="57.477553" lon="15.542015">
        <ele>208.909</ele>
        <time>1970-01-01T01:00:00Z</time>
      </trkpt>
      <trkpt lat="57.477579" lon="15.541982">
        <ele>208.636</ele>
        <time>1970-01-01T01:00:00Z</time>
      </trkpt>
      <trkpt lat="57.477606" lon="15.541949">
        <ele>208.364</ele>
        <time>1970-01-01T01:00:00Z</time>
      </trkpt>
      <trkpt lat="57.477634" lon="15.541918">
        <ele>208.091</ele>
        <time>1970-01-01T01:00:00Z</time>
      </trkpt>
      <trkpt lat="57.477661" lon="15.541888">
        <ele>207.909</ele>
        <time>1970-01-01T01:00:00Z</time>
      </trkpt>
      <trkpt lat="57.477688" lon="15.541859">
        <ele>207.727</ele>
        <time>1970-01-01T01:00:00Z</time>
      </trkpt>
      <trkpt lat="57.477714" lon="15.541829">
        <ele>207.545</ele>
        <time>1970-01-01T01:00:00Z</time>
      </trkpt>
      <trkpt lat="57.477741" lon="15.5418">
        <ele>207.364</ele>
        <time>1970-01-01T01:00:00Z</time>
      </trkpt>
      <trkpt lat="57.477767" lon="15.541769">
        <ele>207.182</ele>
        <time>1970-01-01T01:00:00Z</time>
      </trkpt>
      <trkpt lat="57.477793" lon="15.541738">
        <ele>207</ele>
        <time>1970-01-01T01:00:00Z</time>
      </trkpt>
      <trkpt lat="57.477819" lon="15.541706">
        <ele>206.818</ele>
        <time>1970-01-01T01:00:00Z</time>
      </trkpt>
      <trkpt lat="57.477845" lon="15.541674">
        <ele>206.636</ele>
        <time>1970-01-01T01:00:00Z</time>
      </trkpt>
      <trkpt lat="57.477872" lon="15.541641">
        <ele>206.455</ele>
        <time>1970-01-01T01:00:00Z</time>
      </trkpt>
      <trkpt lat="57.477898" lon="15.541608">
        <ele>206.273</ele>
        <time>1970-01-01T01:00:00Z</time>
      </trkpt>
      <trkpt lat="57.477924" lon="15.541574">
        <ele>206.091</ele>
        <time>1970-01-01T01:00:00Z</time>
      </trkpt>
      <trkpt lat="57.477951" lon="15.54154">
        <ele>205.909</ele>
        <time>1970-01-01T01:00:00Z</time>
      </trkpt>
      <trkpt lat="57.477978" lon="15.541506">
        <ele>205.727</ele>
        <time>1970-01-01T01:00:00Z</time>
      </trkpt>
      <trkpt lat="57.478004" lon="15.541472">
        <ele>205.545</ele>
        <time>1970-01-01T01:00:00Z</time>
      </trkpt>
      <trkpt lat="57.47803" lon="15.541439">
        <ele>205.364</ele>
        <time>1970-01-01T01:00:00Z</time>
      </trkpt>
      <trkpt lat="57.478056" lon="15.541406">
        <ele>205.273</ele>
        <time>1970-01-01T01:00:00Z</time>
      </trkpt>
      <trkpt lat="57.478082" lon="15.541373">
        <ele>205.182</ele>
        <time>1970-01-01T01:00:00Z</time>
      </trkpt>
      <trkpt lat="57.478108" lon="15.541341">
        <ele>205.091</ele>
        <time>1970-01-01T01:00:00Z</time>
      </trkpt>
      <trkpt lat="57.478133" lon="15.54131">
        <ele>205</ele>
        <time>1970-01-01T01:00:00Z</time>
      </trkpt>
      <trkpt lat="57.478158" lon="15.54128">
        <ele>205</ele>
        <time>1970-01-01T01:00:00Z</time>
      </trkpt>
      <trkpt lat="57.478183" lon="15.541251">
        <ele>205</ele>
        <time>1970-01-01T01:00:00Z</time>
      </trkpt>
      <trkpt lat="57.478207" lon="15.541222">
        <ele>205</ele>
        <time>1970-01-01T01:00:00Z</time>
      </trkpt>
      <trkpt lat="57.478231" lon="15.541193">
        <ele>205</ele>
        <time>1970-01-01T01:00:00Z</time>
      </trkpt>
      <trkpt lat="57.478255" lon="15.541164">
        <ele>205</ele>
        <time>1970-01-01T01:00:00Z</time>
      </trkpt>
      <trkpt lat="57.478279" lon="15.541133">
        <ele>205</ele>
        <time>1970-01-01T01:00:00Z</time>
      </trkpt>
      <trkpt lat="57.478302" lon="15.541102">
        <ele>205</ele>
        <time>1970-01-01T01:00:00Z</time>
      </trkpt>
      <trkpt lat="57.478325" lon="15.54107">
        <ele>205</ele>
        <time>1970-01-01T01:00:00Z</time>
      </trkpt>
      <trkpt lat="57.478349" lon="15.541037">
        <ele>205</ele>
        <time>1970-01-01T01:00:00Z</time>
      </trkpt>
      <trkpt lat="57.478372" lon="15.541003">
        <ele>205</ele>
        <time>1970-01-01T01:00:00Z</time>
      </trkpt>
      <trkpt lat="57.478394" lon="15.540969">
        <ele>205</ele>
        <time>1970-01-01T01:00:00Z</time>
      </trkpt>
      <trkpt lat="57.478417" lon="15.540935">
        <ele>205</ele>
        <time>1970-01-01T01:00:00Z</time>
      </trkpt>
      <trkpt lat="57.478439" lon="15.540901">
        <ele>204.909</ele>
        <time>1970-01-01T01:00:00Z</time>
      </trkpt>
      <trkpt lat="57.478462" lon="15.540866">
        <ele>204.818</ele>
        <time>1970-01-01T01:00:00Z</time>
      </trkpt>
      <trkpt lat="57.478484" lon="15.540831">
        <ele>204.727</ele>
        <time>1970-01-01T01:00:00Z</time>
      </trkpt>
      <trkpt lat="57.478506" lon="15.540796">
        <ele>204.636</ele>
        <time>1970-01-01T01:00:00Z</time>
      </trkpt>
      <trkpt lat="57.478529" lon="15.540761">
        <ele>204.545</ele>
        <time>1970-01-01T01:00:00Z</time>
      </trkpt>
      <trkpt lat="57.478551" lon="15.540726">
        <ele>204.455</ele>
        <time>1970-01-01T01:00:00Z</time>
      </trkpt>
      <trkpt lat="57.478573" lon="15.540691">
        <ele>204.364</ele>
        <time>1970-01-01T01:00:00Z</time>
      </trkpt>
      <trkpt lat="57.478596" lon="15.540655">
        <ele>204.273</ele>
        <time>1970-01-01T01:00:00Z</time>
      </trkpt>
      <trkpt lat="57.478619" lon="15.54062">
        <ele>204.182</ele>
        <time>1970-01-01T01:00:00Z</time>
      </trkpt>
      <trkpt lat="57.478642" lon="15.540584">
        <ele>204.091</ele>
        <time>1970-01-01T01:00:00Z</time>
      </trkpt>
      <trkpt lat="57.478665" lon="15.540549">
        <ele>204.091</ele>
        <time>1970-01-01T01:00:00Z</time>
      </trkpt>
      <trkpt lat="57.478688" lon="15.540513">
        <ele>204.182</ele>
        <time>1970-01-01T01:00:00Z</time>
      </trkpt>
      <trkpt lat="57.478712" lon="15.540476">
        <ele>204.273</ele>
        <time>1970-01-01T01:00:00Z</time>
      </trkpt>
      <trkpt lat="57.478735" lon="15.540439">
        <ele>204.364</ele>
        <time>1970-01-01T01:00:00Z</time>
      </trkpt>
      <trkpt lat="57.478757" lon="15.540401">
        <ele>204.455</ele>
        <time>1970-01-01T01:00:00Z</time>
      </trkpt>
      <trkpt lat="57.478779" lon="15.540361">
        <ele>204.545</ele>
        <time>1970-01-01T01:00:00Z</time>
      </trkpt>
      <trkpt lat="57.478801" lon="15.540321">
        <ele>204.636</ele>
        <time>1970-01-01T01:00:00Z</time>
      </trkpt>
      <trkpt lat="57.478823" lon="15.54028">
        <ele>204.727</ele>
        <time>1970-01-01T01:00:00Z</time>
      </trkpt>
      <trkpt lat="57.478846" lon="15.54024">
        <ele>204.818</ele>
        <time>1970-01-01T01:00:00Z</time>
      </trkpt>
      <trkpt lat="57.47887" lon="15.5402">
        <ele>204.909</ele>
        <time>1970-01-01T01:00:00Z</time>
      </trkpt>
      <trkpt lat="57.478895" lon="15.540161">
        <ele>205</ele>
        <time>1970-01-01T01:00:00Z</time>
      </trkpt>
      <trkpt lat="57.478921" lon="15.540123">
        <ele>205</ele>
        <time>1970-01-01T01:00:00Z</time>
      </trkpt>
      <trkpt lat="57.478948" lon="15.540086">
        <ele>205</ele>
        <time>1970-01-01T01:00:00Z</time>
      </trkpt>
      <trkpt lat="57.478976" lon="15.54005">
        <ele>205</ele>
        <time>1970-01-01T01:00:00Z</time>
      </trkpt>
      <trkpt lat="57.479003" lon="15.540016">
        <ele>205</ele>
        <time>1970-01-01T01:00:00Z</time>
      </trkpt>
      <trkpt lat="57.479029" lon="15.539983">
        <ele>205</ele>
        <time>1970-01-01T01:00:00Z</time>
      </trkpt>
      <trkpt lat="57.479055" lon="15.53995">
        <ele>205</ele>
        <time>1970-01-01T01:00:00Z</time>
      </trkpt>
      <trkpt lat="57.47908" lon="15.539919">
        <ele>205</ele>
        <time>1970-01-01T01:00:00Z</time>
      </trkpt>
      <trkpt lat="57.479104" lon="15.539888">
        <ele>205</ele>
        <time>1970-01-01T01:00:00Z</time>
      </trkpt>
      <trkpt lat="57.479128" lon="15.539857">
        <ele>205.091</ele>
        <time>1970-01-01T01:00:00Z</time>
      </trkpt>
      <trkpt lat="57.479152" lon="15.539827">
        <ele>205.182</ele>
        <time>1970-01-01T01:00:00Z</time>
      </trkpt>
      <trkpt lat="57.479176" lon="15.539795">
        <ele>205.273</ele>
        <time>1970-01-01T01:00:00Z</time>
      </trkpt>
      <trkpt lat="57.479201" lon="15.539763">
        <ele>205.364</ele>
        <time>1970-01-01T01:00:00Z</time>
      </trkpt>
      <trkpt lat="57.479225" lon="15.539731">
        <ele>205.455</ele>
        <time>1970-01-01T01:00:00Z</time>
      </trkpt>
      <trkpt lat="57.47925" lon="15.539698">
        <ele>205.545</ele>
        <time>1970-01-01T01:00:00Z</time>
      </trkpt>
      <trkpt lat="57.479275" lon="15.539666">
        <ele>205.636</ele>
        <time>1970-01-01T01:00:00Z</time>
      </trkpt>
      <trkpt lat="57.4793" lon="15.539633">
        <ele>205.727</ele>
        <time>1970-01-01T01:00:00Z</time>
      </trkpt>
      <trkpt lat="57.479324" lon="15.539599">
        <ele>205.818</ele>
        <time>1970-01-01T01:00:00Z</time>
      </trkpt>
      <trkpt lat="57.479349" lon="15.539567">
        <ele>205.909</ele>
        <time>1970-01-01T01:00:00Z</time>
      </trkpt>
      <trkpt lat="57.479374" lon="15.539534">
        <ele>206</ele>
        <time>1970-01-01T01:00:00Z</time>
      </trkpt>
      <trkpt lat="57.4794" lon="15.539503">
        <ele>206</ele>
        <time>1970-01-01T01:00:00Z</time>
      </trkpt>
      <trkpt lat="57.479425" lon="15.539473">
        <ele>206</ele>
        <time>1970-01-01T01:00:00Z</time>
      </trkpt>
      <trkpt lat="57.479451" lon="15.539445">
        <ele>206</ele>
        <time>1970-01-01T01:00:00Z</time>
      </trkpt>
      <trkpt lat="57.479476" lon="15.539418">
        <ele>206</ele>
        <time>1970-01-01T01:00:00Z</time>
      </trkpt>
      <trkpt lat="57.479502" lon="15.539392">
        <ele>206</ele>
        <time>1970-01-01T01:00:00Z</time>
      </trkpt>
      <trkpt lat="57.479528" lon="15.539368">
        <ele>206</ele>
        <time>1970-01-01T01:00:00Z</time>
      </trkpt>
      <trkpt lat="57.479555" lon="15.539344">
        <ele>206</ele>
        <time>1970-01-01T01:00:00Z</time>
      </trkpt>
      <trkpt lat="57.479581" lon="15.539322">
        <ele>206</ele>
        <time>1970-01-01T01:00:00Z</time>
      </trkpt>
      <trkpt lat="57.479607" lon="15.5393">
        <ele>206</ele>
        <time>1970-01-01T01:00:00Z</time>
      </trkpt>
      <trkpt lat="57.479633" lon="15.539279">
        <ele>206</ele>
        <time>1970-01-01T01:00:00Z</time>
      </trkpt>
      <trkpt lat="57.479659" lon="15.539258">
        <ele>206</ele>
        <time>1970-01-01T01:00:00Z</time>
      </trkpt>
      <trkpt lat="57.479685" lon="15.539237">
        <ele>206</ele>
        <time>1970-01-01T01:00:00Z</time>
      </trkpt>
      <trkpt lat="57.479711" lon="15.539216">
        <ele>206</ele>
        <time>1970-01-01T01:00:00Z</time>
      </trkpt>
      <trkpt lat="57.479737" lon="15.539196">
        <ele>206</ele>
        <time>1970-01-01T01:00:00Z</time>
      </trkpt>
      <trkpt lat="57.479762" lon="15.539175">
        <ele>206</ele>
        <time>1970-01-01T01:00:00Z</time>
      </trkpt>
      <trkpt lat="57.479788" lon="15.539154">
        <ele>206</ele>
        <time>1970-01-01T01:00:00Z</time>
      </trkpt>
      <trkpt lat="57.479813" lon="15.539133">
        <ele>206</ele>
        <time>1970-01-01T01:00:00Z</time>
      </trkpt>
      <trkpt lat="57.479839" lon="15.539112">
        <ele>206</ele>
        <time>1970-01-01T01:00:00Z</time>
      </trkpt>
      <trkpt lat="57.479865" lon="15.539091">
        <ele>206</ele>
        <time>1970-01-01T01:00:00Z</time>
      </trkpt>
      <trkpt lat="57.47989" lon="15.53907">
        <ele>206</ele>
        <time>1970-01-01T01:00:00Z</time>
      </trkpt>
      <trkpt lat="57.479916" lon="15.539049">
        <ele>206</ele>
        <time>1970-01-01T01:00:00Z</time>
      </trkpt>
      <trkpt lat="57.479942" lon="15.539028">
        <ele>206</ele>
        <time>1970-01-01T01:00:00Z</time>
      </trkpt>
      <trkpt lat="57.479969" lon="15.539008">
        <ele>205.909</ele>
        <time>1970-01-01T01:00:00Z</time>
      </trkpt>
      <trkpt lat="57.479996" lon="15.538987">
        <ele>205.818</ele>
        <time>1970-01-01T01:00:00Z</time>
      </trkpt>
      <trkpt lat="57.480023" lon="15.538966">
        <ele>205.727</ele>
        <time>1970-01-01T01:00:00Z</time>
      </trkpt>
      <trkpt lat="57.480051" lon="15.538946">
        <ele>205.636</ele>
        <time>1970-01-01T01:00:00Z</time>
      </trkpt>
      <trkpt lat="57.480078" lon="15.538926">
        <ele>205.545</ele>
        <time>1970-01-01T01:00:00Z</time>
      </trkpt>
      <trkpt lat="57.480107" lon="15.538905">
        <ele>205.455</ele>
        <time>1970-01-01T01:00:00Z</time>
      </trkpt>
      <trkpt lat="57.480135" lon="15.538885">
        <ele>205.364</ele>
        <time>1970-01-01T01:00:00Z</time>
      </trkpt>
      <trkpt lat="57.480163" lon="15.538865">
        <ele>205.273</ele>
        <time>1970-01-01T01:00:00Z</time>
      </trkpt>
      <trkpt lat="57.480192" lon="15.538845">
        <ele>205.182</ele>
        <time>1970-01-01T01:00:00Z</time>
      </trkpt>
      <trkpt lat="57.48022" lon="15.538824">
        <ele>205.091</ele>
        <time>1970-01-01T01:00:00Z</time>
      </trkpt>
      <trkpt lat="57.480249" lon="15.538804">
        <ele>205</ele>
        <time>1970-01-01T01:00:00Z</time>
      </trkpt>
      <trkpt lat="57.480277" lon="15.538783">
        <ele>205</ele>
        <time>1970-01-01T01:00:00Z</time>
      </trkpt>
      <trkpt lat="57.480306" lon="15.538762">
        <ele>205</ele>
        <time>1970-01-01T01:00:00Z</time>
      </trkpt>
      <trkpt lat="57.480334" lon="15.538741">
        <ele>205</ele>
        <time>1970-01-01T01:00:00Z</time>
      </trkpt>
      <trkpt lat="57.480362" lon="15.53872">
        <ele>205</ele>
        <time>1970-01-01T01:00:00Z</time>
      </trkpt>
      <trkpt lat="57.480389" lon="15.538699">
        <ele>205</ele>
        <time>1970-01-01T01:00:00Z</time>
      </trkpt>
      <trkpt lat="57.480417" lon="15.538677">
        <ele>205</ele>
        <time>1970-01-01T01:00:00Z</time>
      </trkpt>
      <trkpt lat="57.480444" lon="15.538656">
        <ele>205</ele>
        <time>1970-01-01T01:00:00Z</time>
      </trkpt>
      <trkpt lat="57.480472" lon="15.538634">
        <ele>205</ele>
        <time>1970-01-01T01:00:00Z</time>
      </trkpt>
      <trkpt lat="57.480499" lon="15.538613">
        <ele>205</ele>
        <time>1970-01-01T01:00:00Z</time>
      </trkpt>
      <trkpt lat="57.480526" lon="15.538592">
        <ele>205</ele>
        <time>1970-01-01T01:00:00Z</time>
      </trkpt>
      <trkpt lat="57.480553" lon="15.538571">
        <ele>204.909</ele>
        <time>1970-01-01T01:00:00Z</time>
      </trkpt>
      <trkpt lat="57.480581" lon="15.53855">
        <ele>204.818</ele>
        <time>1970-01-01T01:00:00Z</time>
      </trkpt>
      <trkpt lat="57.480608" lon="15.538529">
        <ele>204.727</ele>
        <time>1970-01-01T01:00:00Z</time>
      </trkpt>
      <trkpt lat="57.480635" lon="15.538508">
        <ele>204.636</ele>
        <time>1970-01-01T01:00:00Z</time>
      </trkpt>
      <trkpt lat="57.480662" lon="15.538488">
        <ele>204.545</ele>
        <time>1970-01-01T01:00:00Z</time>
      </trkpt>
      <trkpt lat="57.48069" lon="15.538468">
        <ele>204.455</ele>
        <time>1970-01-01T01:00:00Z</time>
      </trkpt>
      <trkpt lat="57.480717" lon="15.538448">
        <ele>204.364</ele>
        <time>1970-01-01T01:00:00Z</time>
      </trkpt>
      <trkpt lat="57.480745" lon="15.538428">
        <ele>204.273</ele>
        <time>1970-01-01T01:00:00Z</time>
      </trkpt>
      <trkpt lat="57.480773" lon="15.538409">
        <ele>204.182</ele>
        <time>1970-01-01T01:00:00Z</time>
      </trkpt>
      <trkpt lat="57.480801" lon="15.538389">
        <ele>204.091</ele>
        <time>1970-01-01T01:00:00Z</time>
      </trkpt>
      <trkpt lat="57.480829" lon="15.53837">
        <ele>203.909</ele>
        <time>1970-01-01T01:00:00Z</time>
      </trkpt>
      <trkpt lat="57.480857" lon="15.538351">
        <ele>203.818</ele>
        <time>1970-01-01T01:00:00Z</time>
      </trkpt>
      <trkpt lat="57.480886" lon="15.538331">
        <ele>203.727</ele>
        <time>1970-01-01T01:00:00Z</time>
      </trkpt>
      <trkpt lat="57.480915" lon="15.538312">
        <ele>203.636</ele>
        <time>1970-01-01T01:00:00Z</time>
      </trkpt>
      <trkpt lat="57.480944" lon="15.538293">
        <ele>203.545</ele>
        <time>1970-01-01T01:00:00Z</time>
      </trkpt>
      <trkpt lat="57.480973" lon="15.538274">
        <ele>203.455</ele>
        <time>1970-01-01T01:00:00Z</time>
      </trkpt>
      <trkpt lat="57.481003" lon="15.538254">
        <ele>203.364</ele>
        <time>1970-01-01T01:00:00Z</time>
      </trkpt>
      <trkpt lat="57.481032" lon="15.538235">
        <ele>203.273</ele>
        <time>1970-01-01T01:00:00Z</time>
      </trkpt>
      <trkpt lat="57.481062" lon="15.538216">
        <ele>203.182</ele>
        <time>1970-01-01T01:00:00Z</time>
      </trkpt>
      <trkpt lat="57.481092" lon="15.538197">
        <ele>203.091</ele>
        <time>1970-01-01T01:00:00Z</time>
      </trkpt>
      <trkpt lat="57.481121" lon="15.538178">
        <ele>202.909</ele>
        <time>1970-01-01T01:00:00Z</time>
      </trkpt>
      <trkpt lat="57.481151" lon="15.538159">
        <ele>202.818</ele>
        <time>1970-01-01T01:00:00Z</time>
      </trkpt>
      <trkpt lat="57.48118" lon="15.53814">
        <ele>202.727</ele>
        <time>1970-01-01T01:00:00Z</time>
      </trkpt>
      <trkpt lat="57.481209" lon="15.538121">
        <ele>202.636</ele>
        <time>1970-01-01T01:00:00Z</time>
      </trkpt>
      <trkpt lat="57.481237" lon="15.538103">
        <ele>202.545</ele>
        <time>1970-01-01T01:00:00Z</time>
      </trkpt>
      <trkpt lat="57.481266" lon="15.538084">
        <ele>202.455</ele>
        <time>1970-01-01T01:00:00Z</time>
      </trkpt>
      <trkpt lat="57.481293" lon="15.538066">
        <ele>202.364</ele>
        <time>1970-01-01T01:00:00Z</time>
      </trkpt>
      <trkpt lat="57.481321" lon="15.538047">
        <ele>202.273</ele>
        <time>1970-01-01T01:00:00Z</time>
      </trkpt>
      <trkpt lat="57.481348" lon="15.538028">
        <ele>202.182</ele>
        <time>1970-01-01T01:00:00Z</time>
      </trkpt>
      <trkpt lat="57.481375" lon="15.538009">
        <ele>202</ele>
        <time>1970-01-01T01:00:00Z</time>
      </trkpt>
      <trkpt lat="57.481402" lon="15.53799">
        <ele>201.818</ele>
        <time>1970-01-01T01:00:00Z</time>
      </trkpt>
      <trkpt lat="57.481429" lon="15.53797">
        <ele>201.727</ele>
        <time>1970-01-01T01:00:00Z</time>
      </trkpt>
      <trkpt lat="57.481455" lon="15.537951">
        <ele>201.636</ele>
        <time>1970-01-01T01:00:00Z</time>
      </trkpt>
      <trkpt lat="57.481481" lon="15.53793">
        <ele>201.545</ele>
        <time>1970-01-01T01:00:00Z</time>
      </trkpt>
      <trkpt lat="57.481507" lon="15.53791">
        <ele>201.364</ele>
        <time>1970-01-01T01:00:00Z</time>
      </trkpt>
      <trkpt lat="57.481533" lon="15.537888">
        <ele>201.182</ele>
        <time>1970-01-01T01:00:00Z</time>
      </trkpt>
      <trkpt lat="57.481559" lon="15.537867">
        <ele>201</ele>
        <time>1970-01-01T01:00:00Z</time>
      </trkpt>
      <trkpt lat="57.481585" lon="15.537845">
        <ele>200.818</ele>
        <time>1970-01-01T01:00:00Z</time>
      </trkpt>
      <trkpt lat="57.48161" lon="15.537824">
        <ele>200.636</ele>
        <time>1970-01-01T01:00:00Z</time>
      </trkpt>
      <trkpt lat="57.481636" lon="15.537802">
        <ele>200.364</ele>
        <time>1970-01-01T01:00:00Z</time>
      </trkpt>
      <trkpt lat="57.481661" lon="15.537782">
        <ele>200.182</ele>
        <time>1970-01-01T01:00:00Z</time>
      </trkpt>
      <trkpt lat="57.481686" lon="15.537762">
        <ele>200</ele>
        <time>1970-01-01T01:00:00Z</time>
      </trkpt>
      <trkpt lat="57.481711" lon="15.537743">
        <ele>199.818</ele>
        <time>1970-01-01T01:00:00Z</time>
      </trkpt>
      <trkpt lat="57.481737" lon="15.537725">
        <ele>199.636</ele>
        <time>1970-01-01T01:00:00Z</time>
      </trkpt>
      <trkpt lat="57.481762" lon="15.537708">
        <ele>199.455</ele>
        <time>1970-01-01T01:00:00Z</time>
      </trkpt>
      <trkpt lat="57.481787" lon="15.537693">
        <ele>199.364</ele>
        <time>1970-01-01T01:00:00Z</time>
      </trkpt>
      <trkpt lat="57.481812" lon="15.53768">
        <ele>199.273</ele>
        <time>1970-01-01T01:00:00Z</time>
      </trkpt>
      <trkpt lat="57.481837" lon="15.537668">
        <ele>199.182</ele>
        <time>1970-01-01T01:00:00Z</time>
      </trkpt>
      <trkpt lat="57.481862" lon="15.537657">
        <ele>199.091</ele>
        <time>1970-01-01T01:00:00Z</time>
      </trkpt>
      <trkpt lat="57.481888" lon="15.537647">
        <ele>199</ele>
        <time>1970-01-01T01:00:00Z</time>
      </trkpt>
      <trkpt lat="57.481914" lon="15.537637">
        <ele>199</ele>
        <time>1970-01-01T01:00:00Z</time>
      </trkpt>
      <trkpt lat="57.481941" lon="15.537627">
        <ele>199</ele>
        <time>1970-01-01T01:00:00Z</time>
      </trkpt>
      <trkpt lat="57.481968" lon="15.537617">
        <ele>199.091</ele>
        <time>1970-01-01T01:00:00Z</time>
      </trkpt>
      <trkpt lat="57.481996" lon="15.537606">
        <ele>199.182</ele>
        <time>1970-01-01T01:00:00Z</time>
      </trkpt>
      <trkpt lat="57.482025" lon="15.537594">
        <ele>199.273</ele>
        <time>1970-01-01T01:00:00Z</time>
      </trkpt>
      <trkpt lat="57.482055" lon="15.53758">
        <ele>199.364</ele>
        <time>1970-01-01T01:00:00Z</time>
      </trkpt>
      <trkpt lat="57.482086" lon="15.537565">
        <ele>199.455</ele>
        <time>1970-01-01T01:00:00Z</time>
      </trkpt>
      <trkpt lat="57.482118" lon="15.537548">
        <ele>199.545</ele>
        <time>1970-01-01T01:00:00Z</time>
      </trkpt>
      <trkpt lat="57.48215" lon="15.537529">
        <ele>199.636</ele>
        <time>1970-01-01T01:00:00Z</time>
      </trkpt>
      <trkpt lat="57.48218" lon="15.537509">
        <ele>199.727</ele>
        <time>1970-01-01T01:00:00Z</time>
      </trkpt>
      <trkpt lat="57.482207" lon="15.53749">
        <ele>199.818</ele>
        <time>1970-01-01T01:00:00Z</time>
      </trkpt>
      <trkpt lat="57.482234" lon="15.537469">
        <ele>199.909</ele>
        <time>1970-01-01T01:00:00Z</time>
      </trkpt>
      <trkpt lat="57.482262" lon="15.537444">
        <ele>200.091</ele>
        <time>1970-01-01T01:00:00Z</time>
      </trkpt>
      <trkpt lat="57.482293" lon="15.537416">
        <ele>200.182</ele>
        <time>1970-01-01T01:00:00Z</time>
      </trkpt>
      <trkpt lat="57.482327" lon="15.537384">
        <ele>200.273</ele>
        <time>1970-01-01T01:00:00Z</time>
      </trkpt>
      <trkpt lat="57.482362" lon="15.53735">
        <ele>200.364</ele>
        <time>1970-01-01T01:00:00Z</time>
      </trkpt>
      <trkpt lat="57.482397" lon="15.537314">
        <ele>200.455</ele>
        <time>1970-01-01T01:00:00Z</time>
      </trkpt>
      <trkpt lat="57.482431" lon="15.537279">
        <ele>200.545</ele>
        <time>1970-01-01T01:00:00Z</time>
      </trkpt>
      <trkpt lat="57.482461" lon="15.537245">
        <ele>200.727</ele>
        <time>1970-01-01T01:00:00Z</time>
      </trkpt>
      <trkpt lat="57.48249" lon="15.537212">
        <ele>200.909</ele>
        <time>1970-01-01T01:00:00Z</time>
      </trkpt>
      <trkpt lat="57.482516" lon="15.537179">
        <ele>201.091</ele>
        <time>1970-01-01T01:00:00Z</time>
      </trkpt>
      <trkpt lat="57.482542" lon="15.537145">
        <ele>201.273</ele>
        <time>1970-01-01T01:00:00Z</time>
      </trkpt>
      <trkpt lat="57.482567" lon="15.537111">
        <ele>201.455</ele>
        <time>1970-01-01T01:00:00Z</time>
      </trkpt>
      <trkpt lat="57.482593" lon="15.537075">
        <ele>201.545</ele>
        <time>1970-01-01T01:00:00Z</time>
      </trkpt>
      <trkpt lat="57.482619" lon="15.537037">
        <ele>201.636</ele>
        <time>1970-01-01T01:00:00Z</time>
      </trkpt>
      <trkpt lat="57.482646" lon="15.536998">
        <ele>201.727</ele>
        <time>1970-01-01T01:00:00Z</time>
      </trkpt>
      <trkpt lat="57.482672" lon="15.536957">
        <ele>201.818</ele>
        <time>1970-01-01T01:00:00Z</time>
      </trkpt>
      <trkpt lat="57.482699" lon="15.536916">
        <ele>201.909</ele>
        <time>1970-01-01T01:00:00Z</time>
      </trkpt>
      <trkpt lat="57.482725" lon="15.536875">
        <ele>202</ele>
        <time>1970-01-01T01:00:00Z</time>
      </trkpt>
      <trkpt lat="57.482751" lon="15.536833">
        <ele>201.909</ele>
        <time>1970-01-01T01:00:00Z</time>
      </trkpt>
      <trkpt lat="57.482776" lon="15.536792">
        <ele>201.818</ele>
        <time>1970-01-01T01:00:00Z</time>
      </trkpt>
      <trkpt lat="57.4828" lon="15.536752">
        <ele>201.727</ele>
        <time>1970-01-01T01:00:00Z</time>
      </trkpt>
      <trkpt lat="57.482824" lon="15.536711">
        <ele>201.636</ele>
        <time>1970-01-01T01:00:00Z</time>
      </trkpt>
      <trkpt lat="57.482847" lon="15.536671">
        <ele>201.545</ele>
        <time>1970-01-01T01:00:00Z</time>
      </trkpt>
      <trkpt lat="57.48287" lon="15.536631">
        <ele>201.455</ele>
        <time>1970-01-01T01:00:00Z</time>
      </trkpt>
      <trkpt lat="57.482893" lon="15.536592">
        <ele>201.364</ele>
        <time>1970-01-01T01:00:00Z</time>
      </trkpt>
      <trkpt lat="57.482915" lon="15.536553">
        <ele>201.273</ele>
        <time>1970-01-01T01:00:00Z</time>
      </trkpt>
      <trkpt lat="57.482937" lon="15.536514">
        <ele>201.182</ele>
        <time>1970-01-01T01:00:00Z</time>
      </trkpt>
      <trkpt lat="57.482959" lon="15.536476">
        <ele>201.091</ele>
        <time>1970-01-01T01:00:00Z</time>
      </trkpt>
      <trkpt lat="57.482982" lon="15.536438">
        <ele>201</ele>
        <time>1970-01-01T01:00:00Z</time>
      </trkpt>
      <trkpt lat="57.483004" lon="15.536401">
        <ele>201</ele>
        <time>1970-01-01T01:00:00Z</time>
      </trkpt>
      <trkpt lat="57.483026" lon="15.536364">
        <ele>201.091</ele>
        <time>1970-01-01T01:00:00Z</time>
      </trkpt>
      <trkpt lat="57.483048" lon="15.536327">
        <ele>201.182</ele>
        <time>1970-01-01T01:00:00Z</time>
      </trkpt>
      <trkpt lat="57.483071" lon="15.536291">
        <ele>201.273</ele>
        <time>1970-01-01T01:00:00Z</time>
      </trkpt>
      <trkpt lat="57.483093" lon="15.536256">
        <ele>201.364</ele>
        <time>1970-01-01T01:00:00Z</time>
      </trkpt>
      <trkpt lat="57.483116" lon="15.536221">
        <ele>201.455</ele>
        <time>1970-01-01T01:00:00Z</time>
      </trkpt>
      <trkpt lat="57.483139" lon="15.536187">
        <ele>201.545</ele>
        <time>1970-01-01T01:00:00Z</time>
      </trkpt>
      <trkpt lat="57.483162" lon="15.536153">
        <ele>201.636</ele>
        <time>1970-01-01T01:00:00Z</time>
      </trkpt>
      <trkpt lat="57.483184" lon="15.536119">
        <ele>201.727</ele>
        <time>1970-01-01T01:00:00Z</time>
      </trkpt>
      <trkpt lat="57.483207" lon="15.536087">
        <ele>201.818</ele>
        <time>1970-01-01T01:00:00Z</time>
      </trkpt>
      <trkpt lat="57.483231" lon="15.536055">
        <ele>201.909</ele>
        <time>1970-01-01T01:00:00Z</time>
      </trkpt>
      <trkpt lat="57.483254" lon="15.536023">
        <ele>202</ele>
        <time>1970-01-01T01:00:00Z</time>
      </trkpt>
      <trkpt lat="57.483277" lon="15.535992">
        <ele>202</ele>
        <time>1970-01-01T01:00:00Z</time>
      </trkpt>
      <trkpt lat="57.4833" lon="15.535962">
        <ele>202</ele>
        <time>1970-01-01T01:00:00Z</time>
      </trkpt>
      <trkpt lat="57.483324" lon="15.535933">
        <ele>202</ele>
        <time>1970-01-01T01:00:00Z</time>
      </trkpt>
      <trkpt lat="57.483347" lon="15.535904">
        <ele>202.091</ele>
        <time>1970-01-01T01:00:00Z</time>
      </trkpt>
      <trkpt lat="57.483371" lon="15.535876">
        <ele>202.182</ele>
        <time>1970-01-01T01:00:00Z</time>
      </trkpt>
      <trkpt lat="57.483395" lon="15.535849">
        <ele>202.273</ele>
        <time>1970-01-01T01:00:00Z</time>
      </trkpt>
      <trkpt lat="57.483419" lon="15.535822">
        <ele>202.364</ele>
        <time>1970-01-01T01:00:00Z</time>
      </trkpt>
      <trkpt lat="57.483442" lon="15.535796">
        <ele>202.455</ele>
        <time>1970-01-01T01:00:00Z</time>
      </trkpt>
      <trkpt lat="57.483467" lon="15.535771">
        <ele>202.545</ele>
        <time>1970-01-01T01:00:00Z</time>
      </trkpt>
      <trkpt lat="57.483491" lon="15.535747">
        <ele>202.636</ele>
        <time>1970-01-01T01:00:00Z</time>
      </trkpt>
      <trkpt lat="57.483515" lon="15.535723">
        <ele>202.727</ele>
        <time>1970-01-01T01:00:00Z</time>
      </trkpt>
      <trkpt lat="57.483539" lon="15.535699">
        <ele>202.818</ele>
        <time>1970-01-01T01:00:00Z</time>
      </trkpt>
      <trkpt lat="57.483563" lon="15.535676">
        <ele>202.909</ele>
        <time>1970-01-01T01:00:00Z</time>
      </trkpt>
      <trkpt lat="57.483587" lon="15.535652">
        <ele>203</ele>
        <time>1970-01-01T01:00:00Z</time>
      </trkpt>
      <trkpt lat="57.483611" lon="15.535627">
        <ele>203</ele>
        <time>1970-01-01T01:00:00Z</time>
      </trkpt>
      <trkpt lat="57.483635" lon="15.535602">
        <ele>203</ele>
        <time>1970-01-01T01:00:00Z</time>
      </trkpt>
      <trkpt lat="57.483658" lon="15.535576">
        <ele>203</ele>
        <time>1970-01-01T01:00:00Z</time>
      </trkpt>
      <trkpt lat="57.483682" lon="15.535549">
        <ele>203</ele>
        <time>1970-01-01T01:00:00Z</time>
      </trkpt>
      <trkpt lat="57.483705" lon="15.535522">
        <ele>203</ele>
        <time>1970-01-01T01:00:00Z</time>
      </trkpt>
      <trkpt lat="57.483729" lon="15.535494">
        <ele>203</ele>
        <time>1970-01-01T01:00:00Z</time>
      </trkpt>
      <trkpt lat="57.483752" lon="15.535466">
        <ele>203</ele>
        <time>1970-01-01T01:00:00Z</time>
      </trkpt>
      <trkpt lat="57.483776" lon="15.535439">
        <ele>203</ele>
        <time>1970-01-01T01:00:00Z</time>
      </trkpt>
      <trkpt lat="57.483799" lon="15.535411">
        <ele>203</ele>
        <time>1970-01-01T01:00:00Z</time>
      </trkpt>
      <trkpt lat="57.483823" lon="15.535383">
        <ele>203</ele>
        <time>1970-01-01T01:00:00Z</time>
      </trkpt>
      <trkpt lat="57.483847" lon="15.535355">
        <ele>203</ele>
        <time>1970-01-01T01:00:00Z</time>
      </trkpt>
      <trkpt lat="57.483871" lon="15.535328">
        <ele>203</ele>
        <time>1970-01-01T01:00:00Z</time>
      </trkpt>
      <trkpt lat="57.483895" lon="15.535301">
        <ele>203</ele>
        <time>1970-01-01T01:00:00Z</time>
      </trkpt>
      <trkpt lat="57.483919" lon="15.535274">
        <ele>203.091</ele>
        <time>1970-01-01T01:00:00Z</time>
      </trkpt>
      <trkpt lat="57.483943" lon="15.535248">
        <ele>203.182</ele>
        <time>1970-01-01T01:00:00Z</time>
      </trkpt>
      <trkpt lat="57.483968" lon="15.535222">
        <ele>203.273</ele>
        <time>1970-01-01T01:00:00Z</time>
      </trkpt>
      <trkpt lat="57.483992" lon="15.535197">
        <ele>203.364</ele>
        <time>1970-01-01T01:00:00Z</time>
      </trkpt>
      <trkpt lat="57.484017" lon="15.535172">
        <ele>203.455</ele>
        <time>1970-01-01T01:00:00Z</time>
      </trkpt>
      <trkpt lat="57.484042" lon="15.535148">
        <ele>203.545</ele>
        <time>1970-01-01T01:00:00Z</time>
      </trkpt>
      <trkpt lat="57.484067" lon="15.535125">
        <ele>203.636</ele>
        <time>1970-01-01T01:00:00Z</time>
      </trkpt>
      <trkpt lat="57.484092" lon="15.535103">
        <ele>203.727</ele>
        <time>1970-01-01T01:00:00Z</time>
      </trkpt>
      <trkpt lat="57.484117" lon="15.535082">
        <ele>203.818</ele>
        <time>1970-01-01T01:00:00Z</time>
      </trkpt>
      <trkpt lat="57.484143" lon="15.535062">
        <ele>203.909</ele>
        <time>1970-01-01T01:00:00Z</time>
      </trkpt>
      <trkpt lat="57.484169" lon="15.535043">
        <ele>204</ele>
        <time>1970-01-01T01:00:00Z</time>
      </trkpt>
      <trkpt lat="57.484195" lon="15.535025">
        <ele>204</ele>
        <time>1970-01-01T01:00:00Z</time>
      </trkpt>
      <trkpt lat="57.484221" lon="15.535009">
        <ele>204</ele>
        <time>1970-01-01T01:00:00Z</time>
      </trkpt>
      <trkpt lat="57.484248" lon="15.534994">
        <ele>204</ele>
        <time>1970-01-01T01:00:00Z</time>
      </trkpt>
      <trkpt lat="57.484275" lon="15.53498">
        <ele>204</ele>
        <time>1970-01-01T01:00:00Z</time>
      </trkpt>
      <trkpt lat="57.484303" lon="15.534968">
        <ele>204</ele>
        <time>1970-01-01T01:00:00Z</time>
      </trkpt>
      <trkpt lat="57.48433" lon="15.534958">
        <ele>204</ele>
        <time>1970-01-01T01:00:00Z</time>
      </trkpt>
      <trkpt lat="57.484358" lon="15.534949">
        <ele>204</ele>
        <time>1970-01-01T01:00:00Z</time>
      </trkpt>
      <trkpt lat="57.484386" lon="15.534941">
        <ele>204</ele>
        <time>1970-01-01T01:00:00Z</time>
      </trkpt>
      <trkpt lat="57.484414" lon="15.534934">
        <ele>204</ele>
        <time>1970-01-01T01:00:00Z</time>
      </trkpt>
      <trkpt lat="57.484442" lon="15.534928">
        <ele>204</ele>
        <time>1970-01-01T01:00:00Z</time>
      </trkpt>
      <trkpt lat="57.48447" lon="15.534923">
        <ele>204</ele>
        <time>1970-01-01T01:00:00Z</time>
      </trkpt>
      <trkpt lat="57.484498" lon="15.534918">
        <ele>204</ele>
        <time>1970-01-01T01:00:00Z</time>
      </trkpt>
      <trkpt lat="57.484526" lon="15.534914">
        <ele>204</ele>
        <time>1970-01-01T01:00:00Z</time>
      </trkpt>
      <trkpt lat="57.484554" lon="15.534911">
        <ele>203.909</ele>
        <time>1970-01-01T01:00:00Z</time>
      </trkpt>
      <trkpt lat="57.484582" lon="15.534907">
        <ele>203.818</ele>
        <time>1970-01-01T01:00:00Z</time>
      </trkpt>
      <trkpt lat="57.484609" lon="15.534904">
        <ele>203.727</ele>
        <time>1970-01-01T01:00:00Z</time>
      </trkpt>
      <trkpt lat="57.484636" lon="15.534901">
        <ele>203.636</ele>
        <time>1970-01-01T01:00:00Z</time>
      </trkpt>
      <trkpt lat="57.484663" lon="15.534899">
        <ele>203.545</ele>
        <time>1970-01-01T01:00:00Z</time>
      </trkpt>
      <trkpt lat="57.484689" lon="15.534898">
        <ele>203.455</ele>
        <time>1970-01-01T01:00:00Z</time>
      </trkpt>
      <trkpt lat="57.484716" lon="15.534898">
        <ele>203.364</ele>
        <time>1970-01-01T01:00:00Z</time>
      </trkpt>
      <trkpt lat="57.484742" lon="15.5349">
        <ele>203.273</ele>
        <time>1970-01-01T01:00:00Z</time>
      </trkpt>
      <trkpt lat="57.484769" lon="15.534903">
        <ele>203.182</ele>
        <time>1970-01-01T01:00:00Z</time>
      </trkpt>
      <trkpt lat="57.484795" lon="15.534907">
        <ele>203.091</ele>
        <time>1970-01-01T01:00:00Z</time>
      </trkpt>
      <trkpt lat="57.484822" lon="15.534911">
        <ele>203</ele>
        <time>1970-01-01T01:00:00Z</time>
      </trkpt>
      <trkpt lat="57.484849" lon="15.534915">
        <ele>203</ele>
        <time>1970-01-01T01:00:00Z</time>
      </trkpt>
      <trkpt lat="57.484877" lon="15.534918">
        <ele>203</ele>
        <time>1970-01-01T01:00:00Z</time>
      </trkpt>
      <trkpt lat="57.484906" lon="15.534919">
        <ele>203</ele>
        <time>1970-01-01T01:00:00Z</time>
      </trkpt>
      <trkpt lat="57.484935" lon="15.534918">
        <ele>203</ele>
        <time>1970-01-01T01:00:00Z</time>
      </trkpt>
      <trkpt lat="57.484965" lon="15.534916">
        <ele>203</ele>
        <time>1970-01-01T01:00:00Z</time>
      </trkpt>
      <trkpt lat="57.484995" lon="15.534915">
        <ele>203</ele>
        <time>1970-01-01T01:00:00Z</time>
      </trkpt>
      <trkpt lat="57.485024" lon="15.534913">
        <ele>203</ele>
        <time>1970-01-01T01:00:00Z</time>
      </trkpt>
      <trkpt lat="57.485053" lon="15.534913">
        <ele>203</ele>
        <time>1970-01-01T01:00:00Z</time>
      </trkpt>
      <trkpt lat="57.485081" lon="15.534915">
        <ele>203</ele>
        <time>1970-01-01T01:00:00Z</time>
      </trkpt>
      <trkpt lat="57.485109" lon="15.534917">
        <ele>203</ele>
        <time>1970-01-01T01:00:00Z</time>
      </trkpt>
      <trkpt lat="57.485136" lon="15.53492">
        <ele>203</ele>
        <time>1970-01-01T01:00:00Z</time>
      </trkpt>
      <trkpt lat="57.485163" lon="15.534923">
        <ele>203</ele>
        <time>1970-01-01T01:00:00Z</time>
      </trkpt>
      <trkpt lat="57.48519" lon="15.534926">
        <ele>203</ele>
        <time>1970-01-01T01:00:00Z</time>
      </trkpt>
      <trkpt lat="57.485218" lon="15.534927">
        <ele>203</ele>
        <time>1970-01-01T01:00:00Z</time>
      </trkpt>
      <trkpt lat="57.485245" lon="15.534928">
        <ele>202.909</ele>
        <time>1970-01-01T01:00:00Z</time>
      </trkpt>
      <trkpt lat="57.485273" lon="15.534928">
        <ele>202.818</ele>
        <time>1970-01-01T01:00:00Z</time>
      </trkpt>
      <trkpt lat="57.485301" lon="15.534926">
        <ele>202.727</ele>
        <time>1970-01-01T01:00:00Z</time>
      </trkpt>
      <trkpt lat="57.485329" lon="15.534924">
        <ele>202.636</ele>
        <time>1970-01-01T01:00:00Z</time>
      </trkpt>
      <trkpt lat="57.485357" lon="15.534921">
        <ele>202.545</ele>
        <time>1970-01-01T01:00:00Z</time>
      </trkpt>
      <trkpt lat="57.485386" lon="15.534917">
        <ele>202.455</ele>
        <time>1970-01-01T01:00:00Z</time>
      </trkpt>
      <trkpt lat="57.485414" lon="15.534913">
        <ele>202.364</ele>
        <time>1970-01-01T01:00:00Z</time>
      </trkpt>
      <trkpt lat="57.485443" lon="15.534907">
        <ele>202.273</ele>
        <time>1970-01-01T01:00:00Z</time>
      </trkpt>
      <trkpt lat="57.485471" lon="15.534901">
        <ele>202.182</ele>
        <time>1970-01-01T01:00:00Z</time>
      </trkpt>
      <trkpt lat="57.4855" lon="15.534894">
        <ele>202.091</ele>
        <time>1970-01-01T01:00:00Z</time>
      </trkpt>
      <trkpt lat="57.485529" lon="15.534886">
        <ele>202</ele>
        <time>1970-01-01T01:00:00Z</time>
      </trkpt>
      <trkpt lat="57.485558" lon="15.534878">
        <ele>202</ele>
        <time>1970-01-01T01:00:00Z</time>
      </trkpt>
      <trkpt lat="57.485587" lon="15.534869">
        <ele>202</ele>
        <time>1970-01-01T01:00:00Z</time>
      </trkpt>
      <trkpt lat="57.485616" lon="15.53486">
        <ele>202</ele>
        <time>1970-01-01T01:00:00Z</time>
      </trkpt>
      <trkpt lat="57.485645" lon="15.53485">
        <ele>202</ele>
        <time>1970-01-01T01:00:00Z</time>
      </trkpt>
      <trkpt lat="57.485674" lon="15.534839">
        <ele>202</ele>
        <time>1970-01-01T01:00:00Z</time>
      </trkpt>
      <trkpt lat="57.485703" lon="15.534828">
        <ele>202</ele>
        <time>1970-01-01T01:00:00Z</time>
      </trkpt>
      <trkpt lat="57.485732" lon="15.534817">
        <ele>202</ele>
        <time>1970-01-01T01:00:00Z</time>
      </trkpt>
      <trkpt lat="57.485761" lon="15.534805">
        <ele>202</ele>
        <time>1970-01-01T01:00:00Z</time>
      </trkpt>
      <trkpt lat="57.48579" lon="15.534793">
        <ele>202</ele>
        <time>1970-01-01T01:00:00Z</time>
      </trkpt>
      <trkpt lat="57.485818" lon="15.53478">
        <ele>202</ele>
        <time>1970-01-01T01:00:00Z</time>
      </trkpt>
      <trkpt lat="57.485847" lon="15.534767">
        <ele>202</ele>
        <time>1970-01-01T01:00:00Z</time>
      </trkpt>
      <trkpt lat="57.485875" lon="15.534755">
        <ele>202</ele>
        <time>1970-01-01T01:00:00Z</time>
      </trkpt>
      <trkpt lat="57.485903" lon="15.534742">
        <ele>202</ele>
        <time>1970-01-01T01:00:00Z</time>
      </trkpt>
      <trkpt lat="57.48593" lon="15.534729">
        <ele>202</ele>
        <time>1970-01-01T01:00:00Z</time>
      </trkpt>
      <trkpt lat="57.485957" lon="15.534716">
        <ele>202</ele>
        <time>1970-01-01T01:00:00Z</time>
      </trkpt>
      <trkpt lat="57.485984" lon="15.534704">
        <ele>202</ele>
        <time>1970-01-01T01:00:00Z</time>
      </trkpt>
      <trkpt lat="57.48601" lon="15.534692">
        <ele>202</ele>
        <time>1970-01-01T01:00:00Z</time>
      </trkpt>
      <trkpt lat="57.486036" lon="15.534681">
        <ele>202</ele>
        <time>1970-01-01T01:00:00Z</time>
      </trkpt>
      <trkpt lat="57.486062" lon="15.534671">
        <ele>202</ele>
        <time>1970-01-01T01:00:00Z</time>
      </trkpt>
      <trkpt lat="57.486089" lon="15.534662">
        <ele>202</ele>
        <time>1970-01-01T01:00:00Z</time>
      </trkpt>
      <trkpt lat="57.486117" lon="15.534653">
        <ele>202.091</ele>
        <time>1970-01-01T01:00:00Z</time>
      </trkpt>
      <trkpt lat="57.486145" lon="15.534647">
        <ele>202.182</ele>
        <time>1970-01-01T01:00:00Z</time>
      </trkpt>
      <trkpt lat="57.486173" lon="15.534641">
        <ele>202.273</ele>
        <time>1970-01-01T01:00:00Z</time>
      </trkpt>
      <trkpt lat="57.486202" lon="15.534637">
        <ele>202.364</ele>
        <time>1970-01-01T01:00:00Z</time>
      </trkpt>
      <trkpt lat="57.486231" lon="15.534635">
        <ele>202.455</ele>
        <time>1970-01-01T01:00:00Z</time>
      </trkpt>
      <trkpt lat="57.48626" lon="15.534634">
        <ele>202.545</ele>
        <time>1970-01-01T01:00:00Z</time>
      </trkpt>
      <trkpt lat="57.486289" lon="15.534635">
        <ele>202.636</ele>
        <time>1970-01-01T01:00:00Z</time>
      </trkpt>
      <trkpt lat="57.486317" lon="15.534637">
        <ele>202.727</ele>
        <time>1970-01-01T01:00:00Z</time>
      </trkpt>
      <trkpt lat="57.486345" lon="15.534642">
        <ele>202.818</ele>
        <time>1970-01-01T01:00:00Z</time>
      </trkpt>
      <trkpt lat="57.486373" lon="15.534648">
        <ele>202.909</ele>
        <time>1970-01-01T01:00:00Z</time>
      </trkpt>
      <trkpt lat="57.486402" lon="15.534656">
        <ele>203</ele>
        <time>1970-01-01T01:00:00Z</time>
      </trkpt>
      <trkpt lat="57.48643" lon="15.534666">
        <ele>203</ele>
        <time>1970-01-01T01:00:00Z</time>
      </trkpt>
      <trkpt lat="57.486459" lon="15.534678">
        <ele>203</ele>
        <time>1970-01-01T01:00:00Z</time>
      </trkpt>
      <trkpt lat="57.486488" lon="15.534692">
        <ele>203</ele>
        <time>1970-01-01T01:00:00Z</time>
      </trkpt>
      <trkpt lat="57.486517" lon="15.534707">
        <ele>203</ele>
        <time>1970-01-01T01:00:00Z</time>
      </trkpt>
      <trkpt lat="57.486546" lon="15.534724">
        <ele>203</ele>
        <time>1970-01-01T01:00:00Z</time>
      </trkpt>
      <trkpt lat="57.486575" lon="15.534742">
        <ele>202.909</ele>
        <time>1970-01-01T01:00:00Z</time>
      </trkpt>
      <trkpt lat="57.486603" lon="15.534762">
        <ele>202.818</ele>
        <time>1970-01-01T01:00:00Z</time>
      </trkpt>
      <trkpt lat="57.486632" lon="15.534783">
        <ele>202.727</ele>
        <time>1970-01-01T01:00:00Z</time>
      </trkpt>
      <trkpt lat="57.48666" lon="15.534805">
        <ele>202.636</ele>
        <time>1970-01-01T01:00:00Z</time>
      </trkpt>
      <trkpt lat="57.486688" lon="15.534828">
        <ele>202.545</ele>
        <time>1970-01-01T01:00:00Z</time>
      </trkpt>
      <trkpt lat="57.486715" lon="15.534852">
        <ele>202.364</ele>
        <time>1970-01-01T01:00:00Z</time>
      </trkpt>
      <trkpt lat="57.486741" lon="15.534877">
        <ele>202.182</ele>
        <time>1970-01-01T01:00:00Z</time>
      </trkpt>
      <trkpt lat="57.486768" lon="15.534903">
        <ele>202</ele>
        <time>1970-01-01T01:00:00Z</time>
      </trkpt>
      <trkpt lat="57.486793" lon="15.534929">
        <ele>201.818</ele>
        <time>1970-01-01T01:00:00Z</time>
      </trkpt>
      <trkpt lat="57.486819" lon="15.534955">
        <ele>201.636</ele>
        <time>1970-01-01T01:00:00Z</time>
      </trkpt>
      <trkpt lat="57.486844" lon="15.534982">
        <ele>201.455</ele>
        <time>1970-01-01T01:00:00Z</time>
      </trkpt>
      <trkpt lat="57.486869" lon="15.535009">
        <ele>201.364</ele>
        <time>1970-01-01T01:00:00Z</time>
      </trkpt>
      <trkpt lat="57.486894" lon="15.535035">
        <ele>201.273</ele>
        <time>1970-01-01T01:00:00Z</time>
      </trkpt>
      <trkpt lat="57.486918" lon="15.535062">
        <ele>201.182</ele>
        <time>1970-01-01T01:00:00Z</time>
      </trkpt>
      <trkpt lat="57.486943" lon="15.535088">
        <ele>201</ele>
        <time>1970-01-01T01:00:00Z</time>
      </trkpt>
      <trkpt lat="57.486968" lon="15.535114">
        <ele>200.818</ele>
        <time>1970-01-01T01:00:00Z</time>
      </trkpt>
      <trkpt lat="57.486992" lon="15.53514">
        <ele>200.727</ele>
        <time>1970-01-01T01:00:00Z</time>
      </trkpt>
      <trkpt lat="57.487017" lon="15.535165">
        <ele>200.636</ele>
        <time>1970-01-01T01:00:00Z</time>
      </trkpt>
      <trkpt lat="57.487042" lon="15.535189">
        <ele>200.545</ele>
        <time>1970-01-01T01:00:00Z</time>
      </trkpt>
      <trkpt lat="57.487067" lon="15.535213">
        <ele>200.545</ele>
        <time>1970-01-01T01:00:00Z</time>
      </trkpt>
      <trkpt lat="57.487092" lon="15.535238">
        <ele>200.545</ele>
        <time>1970-01-01T01:00:00Z</time>
      </trkpt>
      <trkpt lat="57.487116" lon="15.535263">
        <ele>200.545</ele>
        <time>1970-01-01T01:00:00Z</time>
      </trkpt>
      <trkpt lat="57.48714" lon="15.535288">
        <ele>200.545</ele>
        <time>1970-01-01T01:00:00Z</time>
      </trkpt>
      <trkpt lat="57.487164" lon="15.535314">
        <ele>200.545</ele>
        <time>1970-01-01T01:00:00Z</time>
      </trkpt>
      <trkpt lat="57.487188" lon="15.535341">
        <ele>200.545</ele>
        <time>1970-01-01T01:00:00Z</time>
      </trkpt>
      <trkpt lat="57.487211" lon="15.535369">
        <ele>200.636</ele>
        <time>1970-01-01T01:00:00Z</time>
      </trkpt>
      <trkpt lat="57.487234" lon="15.535396">
        <ele>200.727</ele>
        <time>1970-01-01T01:00:00Z</time>
      </trkpt>
      <trkpt lat="57.487258" lon="15.535422">
        <ele>200.818</ele>
        <time>1970-01-01T01:00:00Z</time>
      </trkpt>
      <trkpt lat="57.487282" lon="15.535448">
        <ele>200.909</ele>
        <time>1970-01-01T01:00:00Z</time>
      </trkpt>
      <trkpt lat="57.487306" lon="15.535473">
        <ele>201</ele>
        <time>1970-01-01T01:00:00Z</time>
      </trkpt>
      <trkpt lat="57.487331" lon="15.535497">
        <ele>201</ele>
        <time>1970-01-01T01:00:00Z</time>
      </trkpt>
      <trkpt lat="57.487356" lon="15.53552">
        <ele>201</ele>
        <time>1970-01-01T01:00:00Z</time>
      </trkpt>
      <trkpt lat="57.487381" lon="15.535543">
        <ele>201</ele>
        <time>1970-01-01T01:00:00Z</time>
      </trkpt>
      <trkpt lat="57.487406" lon="15.535566">
        <ele>201</ele>
        <time>1970-01-01T01:00:00Z</time>
      </trkpt>
      <trkpt lat="57.487431" lon="15.535588">
        <ele>201</ele>
        <time>1970-01-01T01:00:00Z</time>
      </trkpt>
      <trkpt lat="57.487457" lon="15.535609">
        <ele>201</ele>
        <time>1970-01-01T01:00:00Z</time>
      </trkpt>
      <trkpt lat="57.487482" lon="15.535631">
        <ele>201</ele>
        <time>1970-01-01T01:00:00Z</time>
      </trkpt>
      <trkpt lat="57.487507" lon="15.535652">
        <ele>201</ele>
        <time>1970-01-01T01:00:00Z</time>
      </trkpt>
      <trkpt lat="57.487533" lon="15.535673">
        <ele>201</ele>
        <time>1970-01-01T01:00:00Z</time>
      </trkpt>
      <trkpt lat="57.487558" lon="15.535694">
        <ele>201</ele>
        <time>1970-01-01T01:00:00Z</time>
      </trkpt>
      <trkpt lat="57.487584" lon="15.535715">
        <ele>201</ele>
        <time>1970-01-01T01:00:00Z</time>
      </trkpt>
      <trkpt lat="57.487609" lon="15.535736">
        <ele>201</ele>
        <time>1970-01-01T01:00:00Z</time>
      </trkpt>
      <trkpt lat="57.487634" lon="15.535757">
        <ele>201</ele>
        <time>1970-01-01T01:00:00Z</time>
      </trkpt>
      <trkpt lat="57.487659" lon="15.535778">
        <ele>201</ele>
        <time>1970-01-01T01:00:00Z</time>
      </trkpt>
      <trkpt lat="57.487684" lon="15.535799">
        <ele>201</ele>
        <time>1970-01-01T01:00:00Z</time>
      </trkpt>
      <trkpt lat="57.48771" lon="15.535819">
        <ele>201</ele>
        <time>1970-01-01T01:00:00Z</time>
      </trkpt>
      <trkpt lat="57.487735" lon="15.53584">
        <ele>201</ele>
        <time>1970-01-01T01:00:00Z</time>
      </trkpt>
      <trkpt lat="57.48776" lon="15.53586">
        <ele>201</ele>
        <time>1970-01-01T01:00:00Z</time>
      </trkpt>
      <trkpt lat="57.487785" lon="15.535881">
        <ele>201</ele>
        <time>1970-01-01T01:00:00Z</time>
      </trkpt>
      <trkpt lat="57.48781" lon="15.535901">
        <ele>201.091</ele>
        <time>1970-01-01T01:00:00Z</time>
      </trkpt>
      <trkpt lat="57.487835" lon="15.535921">
        <ele>201.182</ele>
        <time>1970-01-01T01:00:00Z</time>
      </trkpt>
      <trkpt lat="57.487861" lon="15.535941">
        <ele>201.273</ele>
        <time>1970-01-01T01:00:00Z</time>
      </trkpt>
      <trkpt lat="57.487886" lon="15.535961">
        <ele>201.364</ele>
        <time>1970-01-01T01:00:00Z</time>
      </trkpt>
      <trkpt lat="57.487911" lon="15.53598">
        <ele>201.455</ele>
        <time>1970-01-01T01:00:00Z</time>
      </trkpt>
      <trkpt lat="57.487937" lon="15.535999">
        <ele>201.545</ele>
        <time>1970-01-01T01:00:00Z</time>
      </trkpt>
      <trkpt lat="57.487962" lon="15.536018">
        <ele>201.636</ele>
        <time>1970-01-01T01:00:00Z</time>
      </trkpt>
      <trkpt lat="57.487988" lon="15.536037">
        <ele>201.727</ele>
        <time>1970-01-01T01:00:00Z</time>
      </trkpt>
      <trkpt lat="57.488014" lon="15.536056">
        <ele>201.818</ele>
        <time>1970-01-01T01:00:00Z</time>
      </trkpt>
      <trkpt lat="57.488039" lon="15.536074">
        <ele>201.909</ele>
        <time>1970-01-01T01:00:00Z</time>
      </trkpt>
      <trkpt lat="57.488065" lon="15.536092">
        <ele>202</ele>
        <time>1970-01-01T01:00:00Z</time>
      </trkpt>
      <trkpt lat="57.488091" lon="15.53611">
        <ele>202</ele>
        <time>1970-01-01T01:00:00Z</time>
      </trkpt>
      <trkpt lat="57.488118" lon="15.536128">
        <ele>202</ele>
        <time>1970-01-01T01:00:00Z</time>
      </trkpt>
      <trkpt lat="57.488144" lon="15.536145">
        <ele>202.091</ele>
        <time>1970-01-01T01:00:00Z</time>
      </trkpt>
      <trkpt lat="57.48817" lon="15.536161">
        <ele>202.182</ele>
        <time>1970-01-01T01:00:00Z</time>
      </trkpt>
      <trkpt lat="57.488197" lon="15.536176">
        <ele>202.273</ele>
        <time>1970-01-01T01:00:00Z</time>
      </trkpt>
      <trkpt lat="57.488224" lon="15.53619">
        <ele>202.364</ele>
        <time>1970-01-01T01:00:00Z</time>
      </trkpt>
      <trkpt lat="57.488251" lon="15.536203">
        <ele>202.455</ele>
        <time>1970-01-01T01:00:00Z</time>
      </trkpt>
      <trkpt lat="57.488279" lon="15.536215">
        <ele>202.545</ele>
        <time>1970-01-01T01:00:00Z</time>
      </trkpt>
      <trkpt lat="57.488307" lon="15.536226">
        <ele>202.636</ele>
        <time>1970-01-01T01:00:00Z</time>
      </trkpt>
      <trkpt lat="57.488335" lon="15.536238">
        <ele>202.727</ele>
        <time>1970-01-01T01:00:00Z</time>
      </trkpt>
      <trkpt lat="57.488363" lon="15.53625">
        <ele>202.818</ele>
        <time>1970-01-01T01:00:00Z</time>
      </trkpt>
      <trkpt lat="57.488391" lon="15.536263">
        <ele>202.909</ele>
        <time>1970-01-01T01:00:00Z</time>
      </trkpt>
      <trkpt lat="57.48842" lon="15.536276">
        <ele>203</ele>
        <time>1970-01-01T01:00:00Z</time>
      </trkpt>
      <trkpt lat="57.488448" lon="15.53629">
        <ele>203</ele>
        <time>1970-01-01T01:00:00Z</time>
      </trkpt>
      <trkpt lat="57.488478" lon="15.536305">
        <ele>203</ele>
        <time>1970-01-01T01:00:00Z</time>
      </trkpt>
      <trkpt lat="57.488507" lon="15.53632">
        <ele>203</ele>
        <time>1970-01-01T01:00:00Z</time>
      </trkpt>
      <trkpt lat="57.488536" lon="15.536336">
        <ele>203</ele>
        <time>1970-01-01T01:00:00Z</time>
      </trkpt>
      <trkpt lat="57.488566" lon="15.536352">
        <ele>203</ele>
        <time>1970-01-01T01:00:00Z</time>
      </trkpt>
      <trkpt lat="57.488596" lon="15.536369">
        <ele>203</ele>
        <time>1970-01-01T01:00:00Z</time>
      </trkpt>
      <trkpt lat="57.488625" lon="15.536386">
        <ele>203</ele>
        <time>1970-01-01T01:00:00Z</time>
      </trkpt>
      <trkpt lat="57.488655" lon="15.536404">
        <ele>203</ele>
        <time>1970-01-01T01:00:00Z</time>
      </trkpt>
      <trkpt lat="57.488685" lon="15.536422">
        <ele>203</ele>
        <time>1970-01-01T01:00:00Z</time>
      </trkpt>
      <trkpt lat="57.488714" lon="15.53644">
        <ele>203</ele>
        <time>1970-01-01T01:00:00Z</time>
      </trkpt>
      <trkpt lat="57.488744" lon="15.536458">
        <ele>203</ele>
        <time>1970-01-01T01:00:00Z</time>
      </trkpt>
      <trkpt lat="57.488773" lon="15.536477">
        <ele>203</ele>
        <time>1970-01-01T01:00:00Z</time>
      </trkpt>
      <trkpt lat="57.488802" lon="15.536496">
        <ele>203</ele>
        <time>1970-01-01T01:00:00Z</time>
      </trkpt>
      <trkpt lat="57.48883" lon="15.536515">
        <ele>203</ele>
        <time>1970-01-01T01:00:00Z</time>
      </trkpt>
      <trkpt lat="57.488859" lon="15.536535">
        <ele>203</ele>
        <time>1970-01-01T01:00:00Z</time>
      </trkpt>
      <trkpt lat="57.488887" lon="15.536554">
        <ele>203.091</ele>
        <time>1970-01-01T01:00:00Z</time>
      </trkpt>
      <trkpt lat="57.488914" lon="15.536574">
        <ele>203.182</ele>
        <time>1970-01-01T01:00:00Z</time>
      </trkpt>
      <trkpt lat="57.488942" lon="15.536595">
        <ele>203.273</ele>
        <time>1970-01-01T01:00:00Z</time>
      </trkpt>
      <trkpt lat="57.488969" lon="15.536615">
        <ele>203.364</ele>
        <time>1970-01-01T01:00:00Z</time>
      </trkpt>
      <trkpt lat="57.488996" lon="15.536636">
        <ele>203.455</ele>
        <time>1970-01-01T01:00:00Z</time>
      </trkpt>
      <trkpt lat="57.489022" lon="15.536657">
        <ele>203.545</ele>
        <time>1970-01-01T01:00:00Z</time>
      </trkpt>
      <trkpt lat="57.489049" lon="15.536678">
        <ele>203.636</ele>
        <time>1970-01-01T01:00:00Z</time>
      </trkpt>
      <trkpt lat="57.489075" lon="15.536698">
        <ele>203.727</ele>
        <time>1970-01-01T01:00:00Z</time>
      </trkpt>
      <trkpt lat="57.489101" lon="15.536719">
        <ele>203.727</ele>
        <time>1970-01-01T01:00:00Z</time>
      </trkpt>
      <trkpt lat="57.489128" lon="15.53674">
        <ele>203.727</ele>
        <time>1970-01-01T01:00:00Z</time>
      </trkpt>
      <trkpt lat="57.489156" lon="15.53676">
        <ele>203.727</ele>
        <time>1970-01-01T01:00:00Z</time>
      </trkpt>
      <trkpt lat="57.489183" lon="15.53678">
        <ele>203.636</ele>
        <time>1970-01-01T01:00:00Z</time>
      </trkpt>
      <trkpt lat="57.489212" lon="15.536799">
        <ele>203.545</ele>
        <time>1970-01-01T01:00:00Z</time>
      </trkpt>
      <trkpt lat="57.489241" lon="15.53682">
        <ele>203.455</ele>
        <time>1970-01-01T01:00:00Z</time>
      </trkpt>
      <trkpt lat="57.48927" lon="15.536842">
        <ele>203.364</ele>
        <time>1970-01-01T01:00:00Z</time>
      </trkpt>
      <trkpt lat="57.489299" lon="15.536865">
        <ele>203.273</ele>
        <time>1970-01-01T01:00:00Z</time>
      </trkpt>
      <trkpt lat="57.489328" lon="15.536891">
        <ele>203.182</ele>
        <time>1970-01-01T01:00:00Z</time>
      </trkpt>
      <trkpt lat="57.489357" lon="15.53692">
        <ele>203.091</ele>
        <time>1970-01-01T01:00:00Z</time>
      </trkpt>
      <trkpt lat="57.489385" lon="15.53695">
        <ele>202.909</ele>
        <time>1970-01-01T01:00:00Z</time>
      </trkpt>
      <trkpt lat="57.489413" lon="15.536981">
        <ele>202.818</ele>
        <time>1970-01-01T01:00:00Z</time>
      </trkpt>
      <trkpt lat="57.48944" lon="15.537014">
        <ele>202.727</ele>
        <time>1970-01-01T01:00:00Z</time>
      </trkpt>
      <trkpt lat="57.489466" lon="15.537047">
        <ele>202.636</ele>
        <time>1970-01-01T01:00:00Z</time>
      </trkpt>
      <trkpt lat="57.489491" lon="15.537081">
        <ele>202.545</ele>
        <time>1970-01-01T01:00:00Z</time>
      </trkpt>
      <trkpt lat="57.489515" lon="15.537114">
        <ele>202.455</ele>
        <time>1970-01-01T01:00:00Z</time>
      </trkpt>
      <trkpt lat="57.489539" lon="15.537148">
        <ele>202.364</ele>
        <time>1970-01-01T01:00:00Z</time>
      </trkpt>
      <trkpt lat="57.489561" lon="15.537182">
        <ele>202.273</ele>
        <time>1970-01-01T01:00:00Z</time>
      </trkpt>
      <trkpt lat="57.489583" lon="15.537217">
        <ele>202.182</ele>
        <time>1970-01-01T01:00:00Z</time>
      </trkpt>
      <trkpt lat="57.489605" lon="15.537251">
        <ele>202.091</ele>
        <time>1970-01-01T01:00:00Z</time>
      </trkpt>
      <trkpt lat="57.489625" lon="15.537286">
        <ele>202</ele>
        <time>1970-01-01T01:00:00Z</time>
      </trkpt>
      <trkpt lat="57.489646" lon="15.53732">
        <ele>202</ele>
        <time>1970-01-01T01:00:00Z</time>
      </trkpt>
      <trkpt lat="57.489666" lon="15.537355">
        <ele>202</ele>
        <time>1970-01-01T01:00:00Z</time>
      </trkpt>
      <trkpt lat="57.489686" lon="15.53739">
        <ele>202</ele>
        <time>1970-01-01T01:00:00Z</time>
      </trkpt>
      <trkpt lat="57.489705" lon="15.537425">
        <ele>202</ele>
        <time>1970-01-01T01:00:00Z</time>
      </trkpt>
      <trkpt lat="57.489725" lon="15.53746">
        <ele>202</ele>
        <time>1970-01-01T01:00:00Z</time>
      </trkpt>
      <trkpt lat="57.489744" lon="15.537496">
        <ele>202</ele>
        <time>1970-01-01T01:00:00Z</time>
      </trkpt>
      <trkpt lat="57.489764" lon="15.537531">
        <ele>202</ele>
        <time>1970-01-01T01:00:00Z</time>
      </trkpt>
      <trkpt lat="57.489783" lon="15.537567">
        <ele>202</ele>
        <time>1970-01-01T01:00:00Z</time>
      </trkpt>
      <trkpt lat="57.489803" lon="15.537603">
        <ele>202</ele>
        <time>1970-01-01T01:00:00Z</time>
      </trkpt>
      <trkpt lat="57.489823" lon="15.53764">
        <ele>202</ele>
        <time>1970-01-01T01:00:00Z</time>
      </trkpt>
      <trkpt lat="57.489843" lon="15.537676">
        <ele>202</ele>
        <time>1970-01-01T01:00:00Z</time>
      </trkpt>
      <trkpt lat="57.489862" lon="15.537713">
        <ele>202</ele>
        <time>1970-01-01T01:00:00Z</time>
      </trkpt>
      <trkpt lat="57.489882" lon="15.53775">
        <ele>202</ele>
        <time>1970-01-01T01:00:00Z</time>
      </trkpt>
      <trkpt lat="57.489901" lon="15.537788">
        <ele>202</ele>
        <time>1970-01-01T01:00:00Z</time>
      </trkpt>
      <trkpt lat="57.48992" lon="15.537826">
        <ele>202</ele>
        <time>1970-01-01T01:00:00Z</time>
      </trkpt>
      <trkpt lat="57.489937" lon="15.537865">
        <ele>202</ele>
        <time>1970-01-01T01:00:00Z</time>
      </trkpt>
      <trkpt lat="57.489955" lon="15.537904">
        <ele>202</ele>
        <time>1970-01-01T01:00:00Z</time>
      </trkpt>
      <trkpt lat="57.489973" lon="15.537944">
        <ele>202</ele>
        <time>1970-01-01T01:00:00Z</time>
      </trkpt>
      <trkpt lat="57.489991" lon="15.537983">
        <ele>202</ele>
        <time>1970-01-01T01:00:00Z</time>
      </trkpt>
      <trkpt lat="57.49001" lon="15.538021">
        <ele>202</ele>
        <time>1970-01-01T01:00:00Z</time>
      </trkpt>
      <trkpt lat="57.49003" lon="15.53806">
        <ele>202.091</ele>
        <time>1970-01-01T01:00:00Z</time>
      </trkpt>
      <trkpt lat="57.49005" lon="15.538098">
        <ele>202.182</ele>
        <time>1970-01-01T01:00:00Z</time>
      </trkpt>
      <trkpt lat="57.490069" lon="15.538138">
        <ele>202.273</ele>
        <time>1970-01-01T01:00:00Z</time>
      </trkpt>
      <trkpt lat="57.490083" lon="15.538179">
        <ele>202.364</ele>
        <time>1970-01-01T01:00:00Z</time>
      </trkpt>
      <trkpt lat="57.490093" lon="15.538222">
        <ele>202.455</ele>
        <time>1970-01-01T01:00:00Z</time>
      </trkpt>
      <trkpt lat="57.490096" lon="15.538269">
        <ele>202.545</ele>
        <time>1970-01-01T01:00:00Z</time>
      </trkpt>
      <trkpt lat="57.490093" lon="15.538318">
        <ele>202.727</ele>
        <time>1970-01-01T01:00:00Z</time>
      </trkpt>
      <trkpt lat="57.490087" lon="15.538368">
        <ele>202.909</ele>
        <time>1970-01-01T01:00:00Z</time>
      </trkpt>
      <trkpt lat="57.490078" lon="15.538419">
        <ele>203.091</ele>
        <time>1970-01-01T01:00:00Z</time>
      </trkpt>
      <trkpt lat="57.490067" lon="15.538469">
        <ele>203.273</ele>
        <time>1970-01-01T01:00:00Z</time>
      </trkpt>
      <trkpt lat="57.490057" lon="15.538518">
        <ele>203.455</ele>
        <time>1970-01-01T01:00:00Z</time>
      </trkpt>
      <trkpt lat="57.490046" lon="15.538566">
        <ele>203.636</ele>
        <time>1970-01-01T01:00:00Z</time>
      </trkpt>
      <trkpt lat="57.490036" lon="15.538613">
        <ele>203.818</ele>
        <time>1970-01-01T01:00:00Z</time>
      </trkpt>
      <trkpt lat="57.490026" lon="15.538659">
        <ele>204</ele>
        <time>1970-01-01T01:00:00Z</time>
      </trkpt>
      <trkpt lat="57.490015" lon="15.538704">
        <ele>204.182</ele>
        <time>1970-01-01T01:00:00Z</time>
      </trkpt>
      <trkpt lat="57.490005" lon="15.538748">
        <ele>204.364</ele>
        <time>1970-01-01T01:00:00Z</time>
      </trkpt>
      <trkpt lat="57.489995" lon="15.538792">
        <ele>204.545</ele>
        <time>1970-01-01T01:00:00Z</time>
      </trkpt>
      <trkpt lat="57.489984" lon="15.538835">
        <ele>204.636</ele>
        <time>1970-01-01T01:00:00Z</time>
      </trkpt>
      <trkpt lat="57.489974" lon="15.538878">
        <ele>204.727</ele>
        <time>1970-01-01T01:00:00Z</time>
      </trkpt>
      <trkpt lat="57.489964" lon="15.538921">
        <ele>204.818</ele>
        <time>1970-01-01T01:00:00Z</time>
      </trkpt>
      <trkpt lat="57.489953" lon="15.538964">
        <ele>204.909</ele>
        <time>1970-01-01T01:00:00Z</time>
      </trkpt>
      <trkpt lat="57.489943" lon="15.539007">
        <ele>205.091</ele>
        <time>1970-01-01T01:00:00Z</time>
      </trkpt>
      <trkpt lat="57.489932" lon="15.539051">
        <ele>205.182</ele>
        <time>1970-01-01T01:00:00Z</time>
      </trkpt>
      <trkpt lat="57.489922" lon="15.539095">
        <ele>205.273</ele>
        <time>1970-01-01T01:00:00Z</time>
      </trkpt>
      <trkpt lat="57.489911" lon="15.539138">
        <ele>205.364</ele>
        <time>1970-01-01T01:00:00Z</time>
      </trkpt>
      <trkpt lat="57.489901" lon="15.539182">
        <ele>205.455</ele>
        <time>1970-01-01T01:00:00Z</time>
      </trkpt>
      <trkpt lat="57.48989" lon="15.539226">
        <ele>205.636</ele>
        <time>1970-01-01T01:00:00Z</time>
      </trkpt>
      <trkpt lat="57.48988" lon="15.53927">
        <ele>205.818</ele>
        <time>1970-01-01T01:00:00Z</time>
      </trkpt>
      <trkpt lat="57.489869" lon="15.539314">
        <ele>206</ele>
        <time>1970-01-01T01:00:00Z</time>
      </trkpt>
      <trkpt lat="57.489858" lon="15.539357">
        <ele>206.182</ele>
        <time>1970-01-01T01:00:00Z</time>
      </trkpt>
      <trkpt lat="57.489848" lon="15.539401">
        <ele>206.364</ele>
        <time>1970-01-01T01:00:00Z</time>
      </trkpt>
      <trkpt lat="57.489837" lon="15.539444">
        <ele>206.545</ele>
        <time>1970-01-01T01:00:00Z</time>
      </trkpt>
      <trkpt lat="57.489826" lon="15.539488">
        <ele>206.636</ele>
        <time>1970-01-01T01:00:00Z</time>
      </trkpt>
      <trkpt lat="57.489815" lon="15.53953">
        <ele>206.727</ele>
        <time>1970-01-01T01:00:00Z</time>
      </trkpt>
      <trkpt lat="57.489805" lon="15.539573">
        <ele>206.818</ele>
        <time>1970-01-01T01:00:00Z</time>
      </trkpt>
      <trkpt lat="57.489794" lon="15.539616">
        <ele>206.909</ele>
        <time>1970-01-01T01:00:00Z</time>
      </trkpt>
      <trkpt lat="57.489783" lon="15.539658">
        <ele>207.091</ele>
        <time>1970-01-01T01:00:00Z</time>
      </trkpt>
      <trkpt lat="57.489772" lon="15.539701">
        <ele>207.182</ele>
        <time>1970-01-01T01:00:00Z</time>
      </trkpt>
      <trkpt lat="57.489761" lon="15.539743">
        <ele>207.273</ele>
        <time>1970-01-01T01:00:00Z</time>
      </trkpt>
      <trkpt lat="57.489751" lon="15.539786">
        <ele>207.364</ele>
        <time>1970-01-01T01:00:00Z</time>
      </trkpt>
      <trkpt lat="57.48974" lon="15.539828">
        <ele>207.455</ele>
        <time>1970-01-01T01:00:00Z</time>
      </trkpt>
      <trkpt lat="57.489729" lon="15.539871">
        <ele>207.545</ele>
        <time>1970-01-01T01:00:00Z</time>
      </trkpt>
      <trkpt lat="57.489719" lon="15.539913">
        <ele>207.727</ele>
        <time>1970-01-01T01:00:00Z</time>
      </trkpt>
      <trkpt lat="57.489708" lon="15.539956">
        <ele>207.909</ele>
        <time>1970-01-01T01:00:00Z</time>
      </trkpt>
      <trkpt lat="57.489697" lon="15.539998">
        <ele>208.091</ele>
        <time>1970-01-01T01:00:00Z</time>
      </trkpt>
      <trkpt lat="57.489687" lon="15.540041">
        <ele>208.273</ele>
        <time>1970-01-01T01:00:00Z</time>
      </trkpt>
      <trkpt lat="57.489677" lon="15.540084">
        <ele>208.455</ele>
        <time>1970-01-01T01:00:00Z</time>
      </trkpt>
      <trkpt lat="57.489666" lon="15.540127">
        <ele>208.545</ele>
        <time>1970-01-01T01:00:00Z</time>
      </trkpt>
      <trkpt lat="57.489656" lon="15.540171">
        <ele>208.636</ele>
        <time>1970-01-01T01:00:00Z</time>
      </trkpt>
      <trkpt lat="57.489646" lon="15.540214">
        <ele>208.727</ele>
        <time>1970-01-01T01:00:00Z</time>
      </trkpt>
      <trkpt lat="57.489636" lon="15.540258">
        <ele>208.818</ele>
        <time>1970-01-01T01:00:00Z</time>
      </trkpt>
      <trkpt lat="57.489626" lon="15.540302">
        <ele>209</ele>
        <time>1970-01-01T01:00:00Z</time>
      </trkpt>
      <trkpt lat="57.489616" lon="15.540347">
        <ele>209.182</ele>
        <time>1970-01-01T01:00:00Z</time>
      </trkpt>
      <trkpt lat="57.489606" lon="15.540392">
        <ele>209.273</ele>
        <time>1970-01-01T01:00:00Z</time>
      </trkpt>
      <trkpt lat="57.489596" lon="15.540437">
        <ele>209.364</ele>
        <time>1970-01-01T01:00:00Z</time>
      </trkpt>
      <trkpt lat="57.489587" lon="15.540483">
        <ele>209.455</ele>
        <time>1970-01-01T01:00:00Z</time>
      </trkpt>
      <trkpt lat="57.489577" lon="15.540528">
        <ele>209.545</ele>
        <time>1970-01-01T01:00:00Z</time>
      </trkpt>
      <trkpt lat="57.489568" lon="15.540573">
        <ele>209.636</ele>
        <time>1970-01-01T01:00:00Z</time>
      </trkpt>
      <trkpt lat="57.489558" lon="15.540618">
        <ele>209.727</ele>
        <time>1970-01-01T01:00:00Z</time>
      </trkpt>
      <trkpt lat="57.489549" lon="15.540661">
        <ele>209.818</ele>
        <time>1970-01-01T01:00:00Z</time>
      </trkpt>
      <trkpt lat="57.489539" lon="15.540704">
        <ele>210</ele>
        <time>1970-01-01T01:00:00Z</time>
      </trkpt>
      <trkpt lat="57.489529" lon="15.540746">
        <ele>210.182</ele>
        <time>1970-01-01T01:00:00Z</time>
      </trkpt>
      <trkpt lat="57.489518" lon="15.540788">
        <ele>210.273</ele>
        <time>1970-01-01T01:00:00Z</time>
      </trkpt>
      <trkpt lat="57.489506" lon="15.540828">
        <ele>210.364</ele>
        <time>1970-01-01T01:00:00Z</time>
      </trkpt>
      <trkpt lat="57.489493" lon="15.540869">
        <ele>210.455</ele>
        <time>1970-01-01T01:00:00Z</time>
      </trkpt>
      <trkpt lat="57.489478" lon="15.540908">
        <ele>210.545</ele>
        <time>1970-01-01T01:00:00Z</time>
      </trkpt>
      <trkpt lat="57.489461" lon="15.540947">
        <ele>210.727</ele>
        <time>1970-01-01T01:00:00Z</time>
      </trkpt>
      <trkpt lat="57.489442" lon="15.540984">
        <ele>210.909</ele>
        <time>1970-01-01T01:00:00Z</time>
      </trkpt>
      <trkpt lat="57.489421" lon="15.541019">
        <ele>211.091</ele>
        <time>1970-01-01T01:00:00Z</time>
      </trkpt>
      <trkpt lat="57.489399" lon="15.54105">
        <ele>211.273</ele>
        <time>1970-01-01T01:00:00Z</time>
      </trkpt>
      <trkpt lat="57.489374" lon="15.541078">
        <ele>211.545</ele>
        <time>1970-01-01T01:00:00Z</time>
      </trkpt>
      <trkpt lat="57.489348" lon="15.5411">
        <ele>211.727</ele>
        <time>1970-01-01T01:00:00Z</time>
      </trkpt>
      <trkpt lat="57.489321" lon="15.541118">
        <ele>211.909</ele>
        <time>1970-01-01T01:00:00Z</time>
      </trkpt>
      <trkpt lat="57.489293" lon="15.541132">
        <ele>212.091</ele>
        <time>1970-01-01T01:00:00Z</time>
      </trkpt>
      <trkpt lat="57.489264" lon="15.541142">
        <ele>212.273</ele>
        <time>1970-01-01T01:00:00Z</time>
      </trkpt>
      <trkpt lat="57.489236" lon="15.541149">
        <ele>212.455</ele>
        <time>1970-01-01T01:00:00Z</time>
      </trkpt>
      <trkpt lat="57.489209" lon="15.541152">
        <ele>212.636</ele>
        <time>1970-01-01T01:00:00Z</time>
      </trkpt>
      <trkpt lat="57.489182" lon="15.541152">
        <ele>212.727</ele>
        <time>1970-01-01T01:00:00Z</time>
      </trkpt>
      <trkpt lat="57.489156" lon="15.541151">
        <ele>212.909</ele>
        <time>1970-01-01T01:00:00Z</time>
      </trkpt>
      <trkpt lat="57.48913" lon="15.541148">
        <ele>213.091</ele>
        <time>1970-01-01T01:00:00Z</time>
      </trkpt>
      <trkpt lat="57.489103" lon="15.541145">
        <ele>213.273</ele>
        <time>1970-01-01T01:00:00Z</time>
      </trkpt>
      <trkpt lat="57.489075" lon="15.541142">
        <ele>213.364</ele>
        <time>1970-01-01T01:00:00Z</time>
      </trkpt>
      <trkpt lat="57.489047" lon="15.54114">
        <ele>213.455</ele>
        <time>1970-01-01T01:00:00Z</time>
      </trkpt>
      <trkpt lat="57.489018" lon="15.541139">
        <ele>213.545</ele>
        <time>1970-01-01T01:00:00Z</time>
      </trkpt>
      <trkpt lat="57.488988" lon="15.541138">
        <ele>213.636</ele>
        <time>1970-01-01T01:00:00Z</time>
      </trkpt>
      <trkpt lat="57.488958" lon="15.541138">
        <ele>213.818</ele>
        <time>1970-01-01T01:00:00Z</time>
      </trkpt>
      <trkpt lat="57.488929" lon="15.541138">
        <ele>214</ele>
        <time>1970-01-01T01:00:00Z</time>
      </trkpt>
      <trkpt lat="57.4889" lon="15.541138">
        <ele>214.182</ele>
        <time>1970-01-01T01:00:00Z</time>
      </trkpt>
      <trkpt lat="57.488871" lon="15.541138">
        <ele>214.364</ele>
        <time>1970-01-01T01:00:00Z</time>
      </trkpt>
      <trkpt lat="57.488843" lon="15.541139">
        <ele>214.455</ele>
        <time>1970-01-01T01:00:00Z</time>
      </trkpt>
      <trkpt lat="57.488814" lon="15.541139">
        <ele>214.636</ele>
        <time>1970-01-01T01:00:00Z</time>
      </trkpt>
      <trkpt lat="57.488786" lon="15.54114">
        <ele>214.818</ele>
        <time>1970-01-01T01:00:00Z</time>
      </trkpt>
      <trkpt lat="57.488758" lon="15.54114">
        <ele>215</ele>
        <time>1970-01-01T01:00:00Z</time>
      </trkpt>
      <trkpt lat="57.488731" lon="15.541141">
        <ele>215.182</ele>
        <time>1970-01-01T01:00:00Z</time>
      </trkpt>
      <trkpt lat="57.488703" lon="15.541143">
        <ele>215.364</ele>
        <time>1970-01-01T01:00:00Z</time>
      </trkpt>
      <trkpt lat="57.488675" lon="15.541144">
        <ele>215.545</ele>
        <time>1970-01-01T01:00:00Z</time>
      </trkpt>
      <trkpt lat="57.488647" lon="15.541146">
        <ele>215.636</ele>
        <time>1970-01-01T01:00:00Z</time>
      </trkpt>
      <trkpt lat="57.488619" lon="15.541148">
        <ele>215.727</ele>
        <time>1970-01-01T01:00:00Z</time>
      </trkpt>
      <trkpt lat="57.488591" lon="15.541151">
        <ele>215.909</ele>
        <time>1970-01-01T01:00:00Z</time>
      </trkpt>
      <trkpt lat="57.488563" lon="15.541154">
        <ele>216.091</ele>
        <time>1970-01-01T01:00:00Z</time>
      </trkpt>
      <trkpt lat="57.488534" lon="15.541157">
        <ele>216.273</ele>
        <time>1970-01-01T01:00:00Z</time>
      </trkpt>
      <trkpt lat="57.488506" lon="15.541161">
        <ele>216.364</ele>
        <time>1970-01-01T01:00:00Z</time>
      </trkpt>
      <trkpt lat="57.488477" lon="15.541165">
        <ele>216.455</ele>
        <time>1970-01-01T01:00:00Z</time>
      </trkpt>
      <trkpt lat="57.488449" lon="15.541169">
        <ele>216.545</ele>
        <time>1970-01-01T01:00:00Z</time>
      </trkpt>
      <trkpt lat="57.48842" lon="15.541173">
        <ele>216.636</ele>
        <time>1970-01-01T01:00:00Z</time>
      </trkpt>
      <trkpt lat="57.488392" lon="15.541177">
        <ele>216.727</ele>
        <time>1970-01-01T01:00:00Z</time>
      </trkpt>
      <trkpt lat="57.488364" lon="15.541181">
        <ele>216.818</ele>
        <time>1970-01-01T01:00:00Z</time>
      </trkpt>
      <trkpt lat="57.488336" lon="15.541185">
        <ele>216.909</ele>
        <time>1970-01-01T01:00:00Z</time>
      </trkpt>
      <trkpt lat="57.488308" lon="15.541189">
        <ele>217</ele>
        <time>1970-01-01T01:00:00Z</time>
      </trkpt>
      <trkpt lat="57.48828" lon="15.541193">
        <ele>217</ele>
        <time>1970-01-01T01:00:00Z</time>
      </trkpt>
      <trkpt lat="57.488252" lon="15.541197">
        <ele>217</ele>
        <time>1970-01-01T01:00:00Z</time>
      </trkpt>
      <trkpt lat="57.488225" lon="15.541201">
        <ele>217</ele>
        <time>1970-01-01T01:00:00Z</time>
      </trkpt>
      <trkpt lat="57.488198" lon="15.541206">
        <ele>217</ele>
        <time>1970-01-01T01:00:00Z</time>
      </trkpt>
      <trkpt lat="57.48817" lon="15.541211">
        <ele>217</ele>
        <time>1970-01-01T01:00:00Z</time>
      </trkpt>
      <trkpt lat="57.488143" lon="15.541216">
        <ele>217</ele>
        <time>1970-01-01T01:00:00Z</time>
      </trkpt>
      <trkpt lat="57.488116" lon="15.541222">
        <ele>216.909</ele>
        <time>1970-01-01T01:00:00Z</time>
      </trkpt>
      <trkpt lat="57.488089" lon="15.541229">
        <ele>216.818</ele>
        <time>1970-01-01T01:00:00Z</time>
      </trkpt>
      <trkpt lat="57.488062" lon="15.541237">
        <ele>216.727</ele>
        <time>1970-01-01T01:00:00Z</time>
      </trkpt>
      <trkpt lat="57.488035" lon="15.541245">
        <ele>216.636</ele>
        <time>1970-01-01T01:00:00Z</time>
      </trkpt>
      <trkpt lat="57.488007" lon="15.541254">
        <ele>216.545</ele>
        <time>1970-01-01T01:00:00Z</time>
      </trkpt>
      <trkpt lat="57.48798" lon="15.541264">
        <ele>216.364</ele>
        <time>1970-01-01T01:00:00Z</time>
      </trkpt>
      <trkpt lat="57.487953" lon="15.541275">
        <ele>216.182</ele>
        <time>1970-01-01T01:00:00Z</time>
      </trkpt>
      <trkpt lat="57.487926" lon="15.541287">
        <ele>216</ele>
        <time>1970-01-01T01:00:00Z</time>
      </trkpt>
      <trkpt lat="57.487899" lon="15.541299">
        <ele>215.818</ele>
        <time>1970-01-01T01:00:00Z</time>
      </trkpt>
      <trkpt lat="57.487872" lon="15.541312">
        <ele>215.545</ele>
        <time>1970-01-01T01:00:00Z</time>
      </trkpt>
      <trkpt lat="57.487845" lon="15.541326">
        <ele>215.273</ele>
        <time>1970-01-01T01:00:00Z</time>
      </trkpt>
      <trkpt lat="57.487818" lon="15.541341">
        <ele>215.091</ele>
        <time>1970-01-01T01:00:00Z</time>
      </trkpt>
      <trkpt lat="57.487791" lon="15.541357">
        <ele>214.818</ele>
        <time>1970-01-01T01:00:00Z</time>
      </trkpt>
      <trkpt lat="57.487765" lon="15.541373">
        <ele>214.545</ele>
        <time>1970-01-01T01:00:00Z</time>
      </trkpt>
      <trkpt lat="57.487738" lon="15.54139">
        <ele>214.273</ele>
        <time>1970-01-01T01:00:00Z</time>
      </trkpt>
      <trkpt lat="57.487712" lon="15.541407">
        <ele>214</ele>
        <time>1970-01-01T01:00:00Z</time>
      </trkpt>
      <trkpt lat="57.487685" lon="15.541425">
        <ele>213.727</ele>
        <time>1970-01-01T01:00:00Z</time>
      </trkpt>
      <trkpt lat="57.487659" lon="15.541444">
        <ele>213.455</ele>
        <time>1970-01-01T01:00:00Z</time>
      </trkpt>
      <trkpt lat="57.487633" lon="15.541463">
        <ele>213.182</ele>
        <time>1970-01-01T01:00:00Z</time>
      </trkpt>
      <trkpt lat="57.487607" lon="15.541483">
        <ele>212.818</ele>
        <time>1970-01-01T01:00:00Z</time>
      </trkpt>
      <trkpt lat="57.487582" lon="15.541504">
        <ele>212.545</ele>
        <time>1970-01-01T01:00:00Z</time>
      </trkpt>
      <trkpt lat="57.487556" lon="15.541524">
        <ele>212.273</ele>
        <time>1970-01-01T01:00:00Z</time>
      </trkpt>
      <trkpt lat="57.487531" lon="15.541546">
        <ele>212</ele>
        <time>1970-01-01T01:00:00Z</time>
      </trkpt>
      <trkpt lat="57.487506" lon="15.541567">
        <ele>211.727</ele>
        <time>1970-01-01T01:00:00Z</time>
      </trkpt>
      <trkpt lat="57.487482" lon="15.541589">
        <ele>211.455</ele>
        <time>1970-01-01T01:00:00Z</time>
      </trkpt>
      <trkpt lat="57.487457" lon="15.541612">
        <ele>211.182</ele>
        <time>1970-01-01T01:00:00Z</time>
      </trkpt>
      <trkpt lat="57.487433" lon="15.541635">
        <ele>210.818</ele>
        <time>1970-01-01T01:00:00Z</time>
      </trkpt>
      <trkpt lat="57.487409" lon="15.541658">
        <ele>210.545</ele>
        <time>1970-01-01T01:00:00Z</time>
      </trkpt>
      <trkpt lat="57.487386" lon="15.541682">
        <ele>210.273</ele>
        <time>1970-01-01T01:00:00Z</time>
      </trkpt>
      <trkpt lat="57.487363" lon="15.541707">
        <ele>210</ele>
        <time>1970-01-01T01:00:00Z</time>
      </trkpt>
      <trkpt lat="57.487341" lon="15.541732">
        <ele>209.727</ele>
        <time>1970-01-01T01:00:00Z</time>
      </trkpt>
      <trkpt lat="57.48732" lon="15.541758">
        <ele>209.455</ele>
        <time>1970-01-01T01:00:00Z</time>
      </trkpt>
      <trkpt lat="57.487299" lon="15.541786">
        <ele>209.182</ele>
        <time>1970-01-01T01:00:00Z</time>
      </trkpt>
      <trkpt lat="57.487279" lon="15.541814">
        <ele>208.909</ele>
        <time>1970-01-01T01:00:00Z</time>
      </trkpt>
      <trkpt lat="57.48726" lon="15.541843">
        <ele>208.727</ele>
        <time>1970-01-01T01:00:00Z</time>
      </trkpt>
      <trkpt lat="57.487241" lon="15.541874">
        <ele>208.545</ele>
        <time>1970-01-01T01:00:00Z</time>
      </trkpt>
      <trkpt lat="57.487223" lon="15.541905">
        <ele>208.364</ele>
        <time>1970-01-01T01:00:00Z</time>
      </trkpt>
      <trkpt lat="57.487205" lon="15.541938">
        <ele>208.273</ele>
        <time>1970-01-01T01:00:00Z</time>
      </trkpt>
      <trkpt lat="57.487188" lon="15.541972">
        <ele>208.182</ele>
        <time>1970-01-01T01:00:00Z</time>
      </trkpt>
      <trkpt lat="57.487172" lon="15.542008">
        <ele>208.091</ele>
        <time>1970-01-01T01:00:00Z</time>
      </trkpt>
      <trkpt lat="57.487156" lon="15.542045">
        <ele>208</ele>
        <time>1970-01-01T01:00:00Z</time>
      </trkpt>
      <trkpt lat="57.487141" lon="15.542086">
        <ele>207.909</ele>
        <time>1970-01-01T01:00:00Z</time>
      </trkpt>
      <trkpt lat="57.487127" lon="15.542129">
        <ele>207.818</ele>
        <time>1970-01-01T01:00:00Z</time>
      </trkpt>
      <trkpt lat="57.487114" lon="15.542175">
        <ele>207.727</ele>
        <time>1970-01-01T01:00:00Z</time>
      </trkpt>
      <trkpt lat="57.487101" lon="15.542223">
        <ele>207.636</ele>
        <time>1970-01-01T01:00:00Z</time>
      </trkpt>
      <trkpt lat="57.48709" lon="15.542273">
        <ele>207.545</ele>
        <time>1970-01-01T01:00:00Z</time>
      </trkpt>
      <trkpt lat="57.487079" lon="15.542324">
        <ele>207.455</ele>
        <time>1970-01-01T01:00:00Z</time>
      </trkpt>
      <trkpt lat="57.487068" lon="15.542375">
        <ele>207.364</ele>
        <time>1970-01-01T01:00:00Z</time>
      </trkpt>
      <trkpt lat="57.487058" lon="15.542427">
        <ele>207.273</ele>
        <time>1970-01-01T01:00:00Z</time>
      </trkpt>
      <trkpt lat="57.487048" lon="15.542477">
        <ele>207.182</ele>
        <time>1970-01-01T01:00:00Z</time>
      </trkpt>
      <trkpt lat="57.487039" lon="15.542528">
        <ele>207.182</ele>
        <time>1970-01-01T01:00:00Z</time>
      </trkpt>
      <trkpt lat="57.48703" lon="15.542578">
        <ele>207.091</ele>
        <time>1970-01-01T01:00:00Z</time>
      </trkpt>
      <trkpt lat="57.487021" lon="15.542628">
        <ele>207.091</ele>
        <time>1970-01-01T01:00:00Z</time>
      </trkpt>
      <trkpt lat="57.487012" lon="15.542678">
        <ele>207.091</ele>
        <time>1970-01-01T01:00:00Z</time>
      </trkpt>
      <trkpt lat="57.487003" lon="15.542727">
        <ele>207.091</ele>
        <time>1970-01-01T01:00:00Z</time>
      </trkpt>
      <trkpt lat="57.486995" lon="15.542776">
        <ele>207.091</ele>
        <time>1970-01-01T01:00:00Z</time>
      </trkpt>
      <trkpt lat="57.486986" lon="15.542825">
        <ele>207.091</ele>
        <time>1970-01-01T01:00:00Z</time>
      </trkpt>
      <trkpt lat="57.486978" lon="15.542874">
        <ele>207.091</ele>
        <time>1970-01-01T01:00:00Z</time>
      </trkpt>
      <trkpt lat="57.486969" lon="15.542923">
        <ele>207.091</ele>
        <time>1970-01-01T01:00:00Z</time>
      </trkpt>
      <trkpt lat="57.486961" lon="15.542971">
        <ele>207.091</ele>
        <time>1970-01-01T01:00:00Z</time>
      </trkpt>
      <trkpt lat="57.486952" lon="15.543019">
        <ele>207.091</ele>
        <time>1970-01-01T01:00:00Z</time>
      </trkpt>
      <trkpt lat="57.486943" lon="15.543067">
        <ele>207.091</ele>
        <time>1970-01-01T01:00:00Z</time>
      </trkpt>
      <trkpt lat="57.486934" lon="15.543115">
        <ele>207.182</ele>
        <time>1970-01-01T01:00:00Z</time>
      </trkpt>
      <trkpt lat="57.486925" lon="15.543163">
        <ele>207.273</ele>
        <time>1970-01-01T01:00:00Z</time>
      </trkpt>
      <trkpt lat="57.486917" lon="15.54321">
        <ele>207.364</ele>
        <time>1970-01-01T01:00:00Z</time>
      </trkpt>
      <trkpt lat="57.486908" lon="15.543258">
        <ele>207.455</ele>
        <time>1970-01-01T01:00:00Z</time>
      </trkpt>
      <trkpt lat="57.486899" lon="15.543305">
        <ele>207.545</ele>
        <time>1970-01-01T01:00:00Z</time>
      </trkpt>
      <trkpt lat="57.48689" lon="15.543352">
        <ele>207.636</ele>
        <time>1970-01-01T01:00:00Z</time>
      </trkpt>
      <trkpt lat="57.486881" lon="15.543398">
        <ele>207.727</ele>
        <time>1970-01-01T01:00:00Z</time>
      </trkpt>
      <trkpt lat="57.486872" lon="15.543445">
        <ele>207.818</ele>
        <time>1970-01-01T01:00:00Z</time>
      </trkpt>
      <trkpt lat="57.486864" lon="15.543491">
        <ele>207.909</ele>
        <time>1970-01-01T01:00:00Z</time>
      </trkpt>
      <trkpt lat="57.486855" lon="15.543537">
        <ele>208</ele>
        <time>1970-01-01T01:00:00Z</time>
      </trkpt>
      <trkpt lat="57.486847" lon="15.543583">
        <ele>208.091</ele>
        <time>1970-01-01T01:00:00Z</time>
      </trkpt>
      <trkpt lat="57.486839" lon="15.543629">
        <ele>208.182</ele>
        <time>1970-01-01T01:00:00Z</time>
      </trkpt>
      <trkpt lat="57.48683" lon="15.543674">
        <ele>208.273</ele>
        <time>1970-01-01T01:00:00Z</time>
      </trkpt>
      <trkpt lat="57.486822" lon="15.54372">
        <ele>208.364</ele>
        <time>1970-01-01T01:00:00Z</time>
      </trkpt>
      <trkpt lat="57.486814" lon="15.543765">
        <ele>208.455</ele>
        <time>1970-01-01T01:00:00Z</time>
      </trkpt>
      <trkpt lat="57.486806" lon="15.54381">
        <ele>208.545</ele>
        <time>1970-01-01T01:00:00Z</time>
      </trkpt>
      <trkpt lat="57.486798" lon="15.543855">
        <ele>208.636</ele>
        <time>1970-01-01T01:00:00Z</time>
      </trkpt>
      <trkpt lat="57.48679" lon="15.543899">
        <ele>208.636</ele>
        <time>1970-01-01T01:00:00Z</time>
      </trkpt>
      <trkpt lat="57.486782" lon="15.543944">
        <ele>208.636</ele>
        <time>1970-01-01T01:00:00Z</time>
      </trkpt>
      <trkpt lat="57.486775" lon="15.543988">
        <ele>208.636</ele>
        <time>1970-01-01T01:00:00Z</time>
      </trkpt>
      <trkpt lat="57.486767" lon="15.544033">
        <ele>208.636</ele>
        <time>1970-01-01T01:00:00Z</time>
      </trkpt>
      <trkpt lat="57.486759" lon="15.544077">
        <ele>208.636</ele>
        <time>1970-01-01T01:00:00Z</time>
      </trkpt>
      <trkpt lat="57.486752" lon="15.544121">
        <ele>208.636</ele>
        <time>1970-01-01T01:00:00Z</time>
      </trkpt>
      <trkpt lat="57.486744" lon="15.544165">
        <ele>208.636</ele>
        <time>1970-01-01T01:00:00Z</time>
      </trkpt>
      <trkpt lat="57.486736" lon="15.544209">
        <ele>208.636</ele>
        <time>1970-01-01T01:00:00Z</time>
      </trkpt>
      <trkpt lat="57.486729" lon="15.544253">
        <ele>208.636</ele>
        <time>1970-01-01T01:00:00Z</time>
      </trkpt>
      <trkpt lat="57.486722" lon="15.544296">
        <ele>208.636</ele>
        <time>1970-01-01T01:00:00Z</time>
      </trkpt>
      <trkpt lat="57.486714" lon="15.54434">
        <ele>208.636</ele>
        <time>1970-01-01T01:00:00Z</time>
      </trkpt>
      <trkpt lat="57.486707" lon="15.544383">
        <ele>208.727</ele>
        <time>1970-01-01T01:00:00Z</time>
      </trkpt>
      <trkpt lat="57.4867" lon="15.544427">
        <ele>208.818</ele>
        <time>1970-01-01T01:00:00Z</time>
      </trkpt>
      <trkpt lat="57.486692" lon="15.54447">
        <ele>208.909</ele>
        <time>1970-01-01T01:00:00Z</time>
      </trkpt>
      <trkpt lat="57.486685" lon="15.544513">
        <ele>209</ele>
        <time>1970-01-01T01:00:00Z</time>
      </trkpt>
      <trkpt lat="57.486678" lon="15.544557">
        <ele>209</ele>
        <time>1970-01-01T01:00:00Z</time>
      </trkpt>
      <trkpt lat="57.48667" lon="15.544601">
        <ele>209</ele>
        <time>1970-01-01T01:00:00Z</time>
      </trkpt>
      <trkpt lat="57.486663" lon="15.544644">
        <ele>209</ele>
        <time>1970-01-01T01:00:00Z</time>
      </trkpt>
      <trkpt lat="57.486655" lon="15.544689">
        <ele>209.091</ele>
        <time>1970-01-01T01:00:00Z</time>
      </trkpt>
      <trkpt lat="57.486647" lon="15.544733">
        <ele>209.182</ele>
        <time>1970-01-01T01:00:00Z</time>
      </trkpt>
      <trkpt lat="57.486639" lon="15.544778">
        <ele>209.273</ele>
        <time>1970-01-01T01:00:00Z</time>
      </trkpt>
      <trkpt lat="57.486631" lon="15.544824">
        <ele>209.364</ele>
        <time>1970-01-01T01:00:00Z</time>
      </trkpt>
      <trkpt lat="57.486622" lon="15.544869">
        <ele>209.455</ele>
        <time>1970-01-01T01:00:00Z</time>
      </trkpt>
      <trkpt lat="57.486614" lon="15.544916">
        <ele>209.545</ele>
        <time>1970-01-01T01:00:00Z</time>
      </trkpt>
      <trkpt lat="57.486605" lon="15.544963">
        <ele>209.636</ele>
        <time>1970-01-01T01:00:00Z</time>
      </trkpt>
      <trkpt lat="57.486596" lon="15.54501">
        <ele>209.727</ele>
        <time>1970-01-01T01:00:00Z</time>
      </trkpt>
      <trkpt lat="57.486586" lon="15.545058">
        <ele>209.818</ele>
        <time>1970-01-01T01:00:00Z</time>
      </trkpt>
      <trkpt lat="57.486577" lon="15.545106">
        <ele>209.909</ele>
        <time>1970-01-01T01:00:00Z</time>
      </trkpt>
      <trkpt lat="57.486567" lon="15.545153">
        <ele>210</ele>
        <time>1970-01-01T01:00:00Z</time>
      </trkpt>
      <trkpt lat="57.486557" lon="15.545201">
        <ele>210</ele>
        <time>1970-01-01T01:00:00Z</time>
      </trkpt>
      <trkpt lat="57.486547" lon="15.545248">
        <ele>210</ele>
        <time>1970-01-01T01:00:00Z</time>
      </trkpt>
      <trkpt lat="57.486537" lon="15.545296">
        <ele>210.091</ele>
        <time>1970-01-01T01:00:00Z</time>
      </trkpt>
      <trkpt lat="57.486527" lon="15.545342">
        <ele>210.182</ele>
        <time>1970-01-01T01:00:00Z</time>
      </trkpt>
      <trkpt lat="57.486516" lon="15.545388">
        <ele>210.273</ele>
        <time>1970-01-01T01:00:00Z</time>
      </trkpt>
      <trkpt lat="57.486506" lon="15.545434">
        <ele>210.364</ele>
        <time>1970-01-01T01:00:00Z</time>
      </trkpt>
      <trkpt lat="57.486495" lon="15.545478">
        <ele>210.364</ele>
        <time>1970-01-01T01:00:00Z</time>
      </trkpt>
      <trkpt lat="57.486485" lon="15.545523">
        <ele>210.364</ele>
        <time>1970-01-01T01:00:00Z</time>
      </trkpt>
      <trkpt lat="57.486474" lon="15.545566">
        <ele>210.364</ele>
        <time>1970-01-01T01:00:00Z</time>
      </trkpt>
      <trkpt lat="57.486463" lon="15.54561">
        <ele>210.364</ele>
        <time>1970-01-01T01:00:00Z</time>
      </trkpt>
      <trkpt lat="57.486452" lon="15.545653">
        <ele>210.364</ele>
        <time>1970-01-01T01:00:00Z</time>
      </trkpt>
      <trkpt lat="57.48644" lon="15.545696">
        <ele>210.364</ele>
        <time>1970-01-01T01:00:00Z</time>
      </trkpt>
      <trkpt lat="57.486429" lon="15.545738">
        <ele>210.364</ele>
        <time>1970-01-01T01:00:00Z</time>
      </trkpt>
      <trkpt lat="57.486417" lon="15.545781">
        <ele>210.273</ele>
        <time>1970-01-01T01:00:00Z</time>
      </trkpt>
      <trkpt lat="57.486404" lon="15.545823">
        <ele>210.273</ele>
        <time>1970-01-01T01:00:00Z</time>
      </trkpt>
      <trkpt lat="57.486391" lon="15.545866">
        <ele>210.273</ele>
        <time>1970-01-01T01:00:00Z</time>
      </trkpt>
      <trkpt lat="57.486378" lon="15.545909">
        <ele>210.273</ele>
        <time>1970-01-01T01:00:00Z</time>
      </trkpt>
      <trkpt lat="57.486365" lon="15.545951">
        <ele>210.364</ele>
        <time>1970-01-01T01:00:00Z</time>
      </trkpt>
      <trkpt lat="57.486351" lon="15.545994">
        <ele>210.455</ele>
        <time>1970-01-01T01:00:00Z</time>
      </trkpt>
      <trkpt lat="57.486337" lon="15.546036">
        <ele>210.545</ele>
        <time>1970-01-01T01:00:00Z</time>
      </trkpt>
      <trkpt lat="57.486322" lon="15.546079">
        <ele>210.545</ele>
        <time>1970-01-01T01:00:00Z</time>
      </trkpt>
      <trkpt lat="57.486307" lon="15.54612">
        <ele>210.545</ele>
        <time>1970-01-01T01:00:00Z</time>
      </trkpt>
      <trkpt lat="57.486291" lon="15.546162">
        <ele>210.545</ele>
        <time>1970-01-01T01:00:00Z</time>
      </trkpt>
      <trkpt lat="57.486275" lon="15.546203">
        <ele>210.545</ele>
        <time>1970-01-01T01:00:00Z</time>
      </trkpt>
      <trkpt lat="57.486258" lon="15.546243">
        <ele>210.545</ele>
        <time>1970-01-01T01:00:00Z</time>
      </trkpt>
      <trkpt lat="57.486241" lon="15.546283">
        <ele>210.455</ele>
        <time>1970-01-01T01:00:00Z</time>
      </trkpt>
      <trkpt lat="57.486223" lon="15.546322">
        <ele>210.364</ele>
        <time>1970-01-01T01:00:00Z</time>
      </trkpt>
      <trkpt lat="57.486205" lon="15.54636">
        <ele>210.364</ele>
        <time>1970-01-01T01:00:00Z</time>
      </trkpt>
      <trkpt lat="57.486186" lon="15.546397">
        <ele>210.364</ele>
        <time>1970-01-01T01:00:00Z</time>
      </trkpt>
      <trkpt lat="57.486166" lon="15.546433">
        <ele>210.364</ele>
        <time>1970-01-01T01:00:00Z</time>
      </trkpt>
      <trkpt lat="57.486146" lon="15.546469">
        <ele>210.364</ele>
        <time>1970-01-01T01:00:00Z</time>
      </trkpt>
      <trkpt lat="57.486126" lon="15.546504">
        <ele>210.455</ele>
        <time>1970-01-01T01:00:00Z</time>
      </trkpt>
      <trkpt lat="57.486105" lon="15.546539">
        <ele>210.545</ele>
        <time>1970-01-01T01:00:00Z</time>
      </trkpt>
      <trkpt lat="57.486084" lon="15.546573">
        <ele>210.636</ele>
        <time>1970-01-01T01:00:00Z</time>
      </trkpt>
      <trkpt lat="57.486063" lon="15.546606">
        <ele>210.727</ele>
        <time>1970-01-01T01:00:00Z</time>
      </trkpt>
      <trkpt lat="57.486041" lon="15.546639">
        <ele>210.818</ele>
        <time>1970-01-01T01:00:00Z</time>
      </trkpt>
      <trkpt lat="57.486019" lon="15.546672">
        <ele>210.909</ele>
        <time>1970-01-01T01:00:00Z</time>
      </trkpt>
      <trkpt lat="57.485996" lon="15.546705">
        <ele>211</ele>
        <time>1970-01-01T01:00:00Z</time>
      </trkpt>
      <trkpt lat="57.485974" lon="15.546737">
        <ele>211</ele>
        <time>1970-01-01T01:00:00Z</time>
      </trkpt>
      <trkpt lat="57.485951" lon="15.54677">
        <ele>211</ele>
        <time>1970-01-01T01:00:00Z</time>
      </trkpt>
      <trkpt lat="57.485928" lon="15.546802">
        <ele>211</ele>
        <time>1970-01-01T01:00:00Z</time>
      </trkpt>
      <trkpt lat="57.485906" lon="15.546835">
        <ele>211</ele>
        <time>1970-01-01T01:00:00Z</time>
      </trkpt>
      <trkpt lat="57.485884" lon="15.546869">
        <ele>211</ele>
        <time>1970-01-01T01:00:00Z</time>
      </trkpt>
      <trkpt lat="57.485863" lon="15.546905">
        <ele>211</ele>
        <time>1970-01-01T01:00:00Z</time>
      </trkpt>
      <trkpt lat="57.485843" lon="15.546941">
        <ele>211</ele>
        <time>1970-01-01T01:00:00Z</time>
      </trkpt>
      <trkpt lat="57.485824" lon="15.546979">
        <ele>211</ele>
        <time>1970-01-01T01:00:00Z</time>
      </trkpt>
      <trkpt lat="57.485806" lon="15.547018">
        <ele>211</ele>
        <time>1970-01-01T01:00:00Z</time>
      </trkpt>
      <trkpt lat="57.485789" lon="15.547059">
        <ele>211</ele>
        <time>1970-01-01T01:00:00Z</time>
      </trkpt>
      <trkpt lat="57.485774" lon="15.547103">
        <ele>211</ele>
        <time>1970-01-01T01:00:00Z</time>
      </trkpt>
      <trkpt lat="57.485761" lon="15.547149">
        <ele>211</ele>
        <time>1970-01-01T01:00:00Z</time>
      </trkpt>
      <trkpt lat="57.485749" lon="15.547196">
        <ele>211</ele>
        <time>1970-01-01T01:00:00Z</time>
      </trkpt>
      <trkpt lat="57.485739" lon="15.547245">
        <ele>211</ele>
        <time>1970-01-01T01:00:00Z</time>
      </trkpt>
      <trkpt lat="57.48573" lon="15.547294">
        <ele>211</ele>
        <time>1970-01-01T01:00:00Z</time>
      </trkpt>
      <trkpt lat="57.485723" lon="15.547345">
        <ele>211</ele>
        <time>1970-01-01T01:00:00Z</time>
      </trkpt>
      <trkpt lat="57.485717" lon="15.547397">
        <ele>211</ele>
        <time>1970-01-01T01:00:00Z</time>
      </trkpt>
      <trkpt lat="57.485712" lon="15.547449">
        <ele>211</ele>
        <time>1970-01-01T01:00:00Z</time>
      </trkpt>
      <trkpt lat="57.485709" lon="15.547502">
        <ele>210.909</ele>
        <time>1970-01-01T01:00:00Z</time>
      </trkpt>
      <trkpt lat="57.485707" lon="15.547555">
        <ele>210.818</ele>
        <time>1970-01-01T01:00:00Z</time>
      </trkpt>
      <trkpt lat="57.485706" lon="15.547607">
        <ele>210.727</ele>
        <time>1970-01-01T01:00:00Z</time>
      </trkpt>
      <trkpt lat="57.485705" lon="15.547659">
        <ele>210.636</ele>
        <time>1970-01-01T01:00:00Z</time>
      </trkpt>
      <trkpt lat="57.485705" lon="15.547711">
        <ele>210.545</ele>
        <time>1970-01-01T01:00:00Z</time>
      </trkpt>
      <trkpt lat="57.485706" lon="15.547763">
        <ele>210.455</ele>
        <time>1970-01-01T01:00:00Z</time>
      </trkpt>
      <trkpt lat="57.485706" lon="15.547814">
        <ele>210.364</ele>
        <time>1970-01-01T01:00:00Z</time>
      </trkpt>
      <trkpt lat="57.485708" lon="15.547865">
        <ele>210.364</ele>
        <time>1970-01-01T01:00:00Z</time>
      </trkpt>
      <trkpt lat="57.485709" lon="15.547916">
        <ele>210.364</ele>
        <time>1970-01-01T01:00:00Z</time>
      </trkpt>
      <trkpt lat="57.48571" lon="15.547967">
        <ele>210.364</ele>
        <time>1970-01-01T01:00:00Z</time>
      </trkpt>
      <trkpt lat="57.485711" lon="15.548018">
        <ele>210.364</ele>
        <time>1970-01-01T01:00:00Z</time>
      </trkpt>
      <trkpt lat="57.485712" lon="15.548068">
        <ele>210.455</ele>
        <time>1970-01-01T01:00:00Z</time>
      </trkpt>
      <trkpt lat="57.485713" lon="15.548119">
        <ele>210.545</ele>
        <time>1970-01-01T01:00:00Z</time>
      </trkpt>
      <trkpt lat="57.485713" lon="15.54817">
        <ele>210.636</ele>
        <time>1970-01-01T01:00:00Z</time>
      </trkpt>
      <trkpt lat="57.485712" lon="15.54822">
        <ele>210.727</ele>
        <time>1970-01-01T01:00:00Z</time>
      </trkpt>
      <trkpt lat="57.48571" lon="15.548271">
        <ele>210.818</ele>
        <time>1970-01-01T01:00:00Z</time>
      </trkpt>
      <trkpt lat="57.485708" lon="15.548322">
        <ele>210.909</ele>
        <time>1970-01-01T01:00:00Z</time>
      </trkpt>
      <trkpt lat="57.485704" lon="15.548373">
        <ele>211</ele>
        <time>1970-01-01T01:00:00Z</time>
      </trkpt>
      <trkpt lat="57.485699" lon="15.548425">
        <ele>211</ele>
        <time>1970-01-01T01:00:00Z</time>
      </trkpt>
      <trkpt lat="57.485693" lon="15.548477">
        <ele>211</ele>
        <time>1970-01-01T01:00:00Z</time>
      </trkpt>
      <trkpt lat="57.485685" lon="15.54853">
        <ele>211.091</ele>
        <time>1970-01-01T01:00:00Z</time>
      </trkpt>
      <trkpt lat="57.485675" lon="15.548581">
        <ele>211.182</ele>
        <time>1970-01-01T01:00:00Z</time>
      </trkpt>
      <trkpt lat="57.485664" lon="15.548629">
        <ele>211.273</ele>
        <time>1970-01-01T01:00:00Z</time>
      </trkpt>
      <trkpt lat="57.485651" lon="15.548672">
        <ele>211.364</ele>
        <time>1970-01-01T01:00:00Z</time>
      </trkpt>
      <trkpt lat="57.485637" lon="15.548713">
        <ele>211.455</ele>
        <time>1970-01-01T01:00:00Z</time>
      </trkpt>
      <trkpt lat="57.485622" lon="15.548754">
        <ele>211.545</ele>
        <time>1970-01-01T01:00:00Z</time>
      </trkpt>
      <trkpt lat="57.485605" lon="15.548796">
        <ele>211.636</ele>
        <time>1970-01-01T01:00:00Z</time>
      </trkpt>
      <trkpt lat="57.485587" lon="15.548839">
        <ele>211.727</ele>
        <time>1970-01-01T01:00:00Z</time>
      </trkpt>
      <trkpt lat="57.485568" lon="15.548882">
        <ele>211.818</ele>
        <time>1970-01-01T01:00:00Z</time>
      </trkpt>
      <trkpt lat="57.485549" lon="15.548925">
        <ele>211.909</ele>
        <time>1970-01-01T01:00:00Z</time>
      </trkpt>
      <trkpt lat="57.485529" lon="15.548968">
        <ele>212</ele>
        <time>1970-01-01T01:00:00Z</time>
      </trkpt>
      <trkpt lat="57.485508" lon="15.54901">
        <ele>212</ele>
        <time>1970-01-01T01:00:00Z</time>
      </trkpt>
      <trkpt lat="57.485488" lon="15.549052">
        <ele>212</ele>
        <time>1970-01-01T01:00:00Z</time>
      </trkpt>
      <trkpt lat="57.485467" lon="15.549094">
        <ele>212.091</ele>
        <time>1970-01-01T01:00:00Z</time>
      </trkpt>
      <trkpt lat="57.485447" lon="15.549135">
        <ele>212.182</ele>
        <time>1970-01-01T01:00:00Z</time>
      </trkpt>
      <trkpt lat="57.485427" lon="15.549175">
        <ele>212.273</ele>
        <time>1970-01-01T01:00:00Z</time>
      </trkpt>
      <trkpt lat="57.485407" lon="15.549213">
        <ele>212.364</ele>
        <time>1970-01-01T01:00:00Z</time>
      </trkpt>
      <trkpt lat="57.485387" lon="15.549251">
        <ele>212.455</ele>
        <time>1970-01-01T01:00:00Z</time>
      </trkpt>
      <trkpt lat="57.485368" lon="15.549289">
        <ele>212.545</ele>
        <time>1970-01-01T01:00:00Z</time>
      </trkpt>
      <trkpt lat="57.485349" lon="15.549327">
        <ele>212.636</ele>
        <time>1970-01-01T01:00:00Z</time>
      </trkpt>
      <trkpt lat="57.485329" lon="15.549365">
        <ele>212.727</ele>
        <time>1970-01-01T01:00:00Z</time>
      </trkpt>
      <trkpt lat="57.485309" lon="15.549405">
        <ele>212.909</ele>
        <time>1970-01-01T01:00:00Z</time>
      </trkpt>
      <trkpt lat="57.485289" lon="15.549445">
        <ele>213.091</ele>
        <time>1970-01-01T01:00:00Z</time>
      </trkpt>
      <trkpt lat="57.485268" lon="15.549486">
        <ele>213.273</ele>
        <time>1970-01-01T01:00:00Z</time>
      </trkpt>
      <trkpt lat="57.485245" lon="15.549526">
        <ele>213.364</ele>
        <time>1970-01-01T01:00:00Z</time>
      </trkpt>
      <trkpt lat="57.485221" lon="15.549565">
        <ele>213.545</ele>
        <time>1970-01-01T01:00:00Z</time>
      </trkpt>
      <trkpt lat="57.485194" lon="15.549599">
        <ele>213.727</ele>
        <time>1970-01-01T01:00:00Z</time>
      </trkpt>
      <trkpt lat="57.485164" lon="15.54963">
        <ele>213.909</ele>
        <time>1970-01-01T01:00:00Z</time>
      </trkpt>
      <trkpt lat="57.485133" lon="15.549657">
        <ele>214.091</ele>
        <time>1970-01-01T01:00:00Z</time>
      </trkpt>
      <trkpt lat="57.4851" lon="15.549681">
        <ele>214.273</ele>
        <time>1970-01-01T01:00:00Z</time>
      </trkpt>
      <trkpt lat="57.485065" lon="15.549702">
        <ele>214.455</ele>
        <time>1970-01-01T01:00:00Z</time>
      </trkpt>
      <trkpt lat="57.485031" lon="15.549721">
        <ele>214.727</ele>
        <time>1970-01-01T01:00:00Z</time>
      </trkpt>
      <trkpt lat="57.484997" lon="15.549738">
        <ele>214.909</ele>
        <time>1970-01-01T01:00:00Z</time>
      </trkpt>
      <trkpt lat="57.484964" lon="15.549754">
        <ele>215.091</ele>
        <time>1970-01-01T01:00:00Z</time>
      </trkpt>
      <trkpt lat="57.484933" lon="15.54977">
        <ele>215.273</ele>
        <time>1970-01-01T01:00:00Z</time>
      </trkpt>
      <trkpt lat="57.484902" lon="15.549784">
        <ele>215.455</ele>
        <time>1970-01-01T01:00:00Z</time>
      </trkpt>
      <trkpt lat="57.484871" lon="15.549799">
        <ele>215.636</ele>
        <time>1970-01-01T01:00:00Z</time>
      </trkpt>
      <trkpt lat="57.484839" lon="15.549814">
        <ele>215.818</ele>
        <time>1970-01-01T01:00:00Z</time>
      </trkpt>
      <trkpt lat="57.484807" lon="15.54983">
        <ele>216</ele>
        <time>1970-01-01T01:00:00Z</time>
      </trkpt>
      <trkpt lat="57.484773" lon="15.549846">
        <ele>216.182</ele>
        <time>1970-01-01T01:00:00Z</time>
      </trkpt>
      <trkpt lat="57.484739" lon="15.549863">
        <ele>216.364</ele>
        <time>1970-01-01T01:00:00Z</time>
      </trkpt>
      <trkpt lat="57.484704" lon="15.549881">
        <ele>216.636</ele>
        <time>1970-01-01T01:00:00Z</time>
      </trkpt>
      <trkpt lat="57.484669" lon="15.549899">
        <ele>216.818</ele>
        <time>1970-01-01T01:00:00Z</time>
      </trkpt>
      <trkpt lat="57.484633" lon="15.549917">
        <ele>217</ele>
        <time>1970-01-01T01:00:00Z</time>
      </trkpt>
      <trkpt lat="57.484597" lon="15.549935">
        <ele>217.182</ele>
        <time>1970-01-01T01:00:00Z</time>
      </trkpt>
      <trkpt lat="57.484561" lon="15.549954">
        <ele>217.364</ele>
        <time>1970-01-01T01:00:00Z</time>
      </trkpt>
      <trkpt lat="57.484525" lon="15.549973">
        <ele>217.545</ele>
        <time>1970-01-01T01:00:00Z</time>
      </trkpt>
      <trkpt lat="57.484489" lon="15.549992">
        <ele>217.636</ele>
        <time>1970-01-01T01:00:00Z</time>
      </trkpt>
      <trkpt lat="57.484453" lon="15.550011">
        <ele>217.727</ele>
        <time>1970-01-01T01:00:00Z</time>
      </trkpt>
      <trkpt lat="57.484418" lon="15.550029">
        <ele>217.818</ele>
        <time>1970-01-01T01:00:00Z</time>
      </trkpt>
      <trkpt lat="57.484384" lon="15.550048">
        <ele>217.909</ele>
        <time>1970-01-01T01:00:00Z</time>
      </trkpt>
      <trkpt lat="57.484351" lon="15.550066">
        <ele>218</ele>
        <time>1970-01-01T01:00:00Z</time>
      </trkpt>
      <trkpt lat="57.484318" lon="15.550083">
        <ele>218.091</ele>
        <time>1970-01-01T01:00:00Z</time>
      </trkpt>
      <trkpt lat="57.484287" lon="15.5501">
        <ele>218.182</ele>
        <time>1970-01-01T01:00:00Z</time>
      </trkpt>
      <trkpt lat="57.484257" lon="15.550117">
        <ele>218.2</ele>
        <time>1970-01-01T01:00:00Z</time>
      </trkpt>
      <trkpt lat="57.484228" lon="15.550133">
        <ele>218.222</ele>
        <time>1970-01-01T01:00:00Z</time>
      </trkpt>
      <trkpt lat="57.484201" lon="15.550148">
        <ele>218.25</ele>
        <time>1970-01-01T01:00:00Z</time>
      </trkpt>
      <trkpt lat="57.484175" lon="15.550162">
        <ele>218.286</ele>
        <time>1970-01-01T01:00:00Z</time>
      </trkpt>
      <trkpt lat="57.484152" lon="15.550176">
        <ele>218.333</ele>
        <time>1970-01-01T01:00:00Z</time>
      </trkpt>
    </trkseg>
  </trk>
</gpx>